<?xml version="1.0" encoding="UTF-8" standalone="yes"?>
<gpx
 xmlns="http://www.topografix.com/GPX/1/1"
 creator="OziExplorer Version 3956f - http://www.oziexplorer.com"
 version="1.1"
 xmlns:xsi="http://www.w3.org/2001/XMLSchema-instance"
 xsi:schemaLocation="http://www.topografix.com/GPX/1/1 http://www.topografix.com/GPX/1/1/gpx.xsd">
<metadata>
 <time>2018-03-18T08:41:47Z</time>
 <bounds minlat="33.149493" minlon="35.544675" maxlat="33.307958" maxlon="35.772360"/>
</metadata>
<trk>
 <name>Hermon, 62km</name>
 <desc>Hermon, 62km</desc>
<trkseg>
<trkpt lat="33.2225875" lon="35.6311112">
<ele>122.000008</ele>
<time>2016-04-25T02:56:14.000Z</time>
</trkpt>
<trkpt lat="33.2224775" lon="35.6311953">
<ele>121.199997</ele>
<time>2016-04-25T03:04:02.000Z</time>
</trkpt>
<trkpt lat="33.2224219" lon="35.6310401">
<ele>121.000000</ele>
<time>2016-04-25T03:04:26.000Z</time>
</trkpt>
<trkpt lat="33.2223164" lon="35.6309965">
<ele>120.199997</ele>
<time>2016-04-25T03:04:30.000Z</time>
</trkpt>
<trkpt lat="33.2222105" lon="35.6310144">
<ele>119.400002</ele>
<time>2016-04-25T03:04:33.000Z</time>
</trkpt>
<trkpt lat="33.2220771" lon="35.6310033">
<ele>118.599998</ele>
<time>2016-04-25T03:04:36.000Z</time>
</trkpt>
<trkpt lat="33.2219776" lon="35.6309764">
<ele>117.800003</ele>
<time>2016-04-25T03:04:38.000Z</time>
</trkpt>
<trkpt lat="33.2218739" lon="35.6309749">
<ele>117.000000</ele>
<time>2016-04-25T03:04:40.000Z</time>
</trkpt>
<trkpt lat="33.2217992" lon="35.6310282">
<ele>116.400002</ele>
<time>2016-04-25T03:04:42.000Z</time>
</trkpt>
<trkpt lat="33.2217160" lon="35.6310974">
<ele>115.800003</ele>
<time>2016-04-25T03:04:45.000Z</time>
</trkpt>
<trkpt lat="33.2215995" lon="35.6311138">
<ele>115.000000</ele>
<time>2016-04-25T03:04:48.000Z</time>
</trkpt>
<trkpt lat="33.2215095" lon="35.6311281">
<ele>114.400002</ele>
<time>2016-04-25T03:04:50.000Z</time>
</trkpt>
<trkpt lat="33.2213861" lon="35.6311607">
<ele>114.000000</ele>
<time>2016-04-25T03:04:53.000Z</time>
</trkpt>
<trkpt lat="33.2212675" lon="35.6312017">
<ele>113.800003</ele>
<time>2016-04-25T03:04:56.000Z</time>
</trkpt>
<trkpt lat="33.2211406" lon="35.6312497">
<ele>113.400002</ele>
<time>2016-04-25T03:04:59.000Z</time>
</trkpt>
<trkpt lat="33.2210165" lon="35.6313157">
<ele>113.199989</ele>
<time>2016-04-25T03:05:02.000Z</time>
</trkpt>
<trkpt lat="33.2209341" lon="35.6313586">
<ele>112.999992</ele>
<time>2016-04-25T03:05:04.000Z</time>
</trkpt>
<trkpt lat="33.2208189" lon="35.6314376">
<ele>112.400002</ele>
<time>2016-04-25T03:05:07.000Z</time>
</trkpt>
<trkpt lat="33.2207379" lon="35.6315582">
<ele>112.199997</ele>
<time>2016-04-25T03:05:10.000Z</time>
</trkpt>
<trkpt lat="33.2207297" lon="35.6317133">
<ele>112.400002</ele>
<time>2016-04-25T03:05:13.000Z</time>
</trkpt>
<trkpt lat="33.2207678" lon="35.6318427">
<ele>112.599998</ele>
<time>2016-04-25T03:05:16.000Z</time>
</trkpt>
<trkpt lat="33.2208189" lon="35.6319437">
<ele>112.999992</ele>
<time>2016-04-25T03:05:19.000Z</time>
</trkpt>
<trkpt lat="33.2208720" lon="35.6320628">
<ele>113.400002</ele>
<time>2016-04-25T03:05:23.000Z</time>
</trkpt>
<trkpt lat="33.2208994" lon="35.6321713">
<ele>113.599998</ele>
<time>2016-04-25T03:05:28.000Z</time>
</trkpt>
<trkpt lat="33.2208518" lon="35.6321498">
<ele>113.199989</ele>
<time>2016-04-25T03:05:35.000Z</time>
</trkpt>
<trkpt lat="33.2207640" lon="35.6322217">
<ele>112.400002</ele>
<time>2016-04-25T03:05:39.000Z</time>
</trkpt>
<trkpt lat="33.2206616" lon="35.6322978">
<ele>111.599998</ele>
<time>2016-04-25T03:05:43.000Z</time>
</trkpt>
<trkpt lat="33.2205573" lon="35.6323934">
<ele>110.600006</ele>
<time>2016-04-25T03:05:47.000Z</time>
</trkpt>
<trkpt lat="33.2205374" lon="35.6325225">
<ele>110.600006</ele>
<time>2016-04-25T03:05:50.000Z</time>
</trkpt>
<trkpt lat="33.2205929" lon="35.6326173">
<ele>111.000000</ele>
<time>2016-04-25T03:05:53.000Z</time>
</trkpt>
<trkpt lat="33.2206735" lon="35.6326872">
<ele>111.599998</ele>
<time>2016-04-25T03:05:57.000Z</time>
</trkpt>
<trkpt lat="33.2207686" lon="35.6327497">
<ele>112.400002</ele>
<time>2016-04-25T03:06:02.000Z</time>
</trkpt>
<trkpt lat="33.2208650" lon="35.6328137">
<ele>113.199989</ele>
<time>2016-04-25T03:06:07.000Z</time>
</trkpt>
<trkpt lat="33.2209524" lon="35.6328744">
<ele>114.000000</ele>
<time>2016-04-25T03:06:12.000Z</time>
</trkpt>
<trkpt lat="33.2210175" lon="35.6329602">
<ele>114.400002</ele>
<time>2016-04-25T03:06:17.000Z</time>
</trkpt>
<trkpt lat="33.2210713" lon="35.6330629">
<ele>114.599998</ele>
<time>2016-04-25T03:06:22.000Z</time>
</trkpt>
<trkpt lat="33.2211311" lon="35.6331712">
<ele>114.800003</ele>
<time>2016-04-25T03:06:27.000Z</time>
</trkpt>
<trkpt lat="33.2211884" lon="35.6332866">
<ele>114.800003</ele>
<time>2016-04-25T03:06:32.000Z</time>
</trkpt>
<trkpt lat="33.2212378" lon="35.6333794">
<ele>114.800003</ele>
<time>2016-04-25T03:06:36.000Z</time>
</trkpt>
<trkpt lat="33.2213103" lon="35.6334876">
<ele>115.000000</ele>
<time>2016-04-25T03:06:41.000Z</time>
</trkpt>
<trkpt lat="33.2213733" lon="35.6336019">
<ele>115.200005</ele>
<time>2016-04-25T03:06:46.000Z</time>
</trkpt>
<trkpt lat="33.2214310" lon="35.6337094">
<ele>115.200005</ele>
<time>2016-04-25T03:06:51.000Z</time>
</trkpt>
<trkpt lat="33.2215156" lon="35.6337896">
<ele>115.599998</ele>
<time>2016-04-25T03:06:56.000Z</time>
</trkpt>
<trkpt lat="33.2216020" lon="35.6338177">
<ele>116.000000</ele>
<time>2016-04-25T03:07:00.000Z</time>
</trkpt>
<trkpt lat="33.2217105" lon="35.6338151">
<ele>116.599998</ele>
<time>2016-04-25T03:07:05.000Z</time>
</trkpt>
<trkpt lat="33.2218000" lon="35.6337974">
<ele>117.199997</ele>
<time>2016-04-25T03:07:09.000Z</time>
</trkpt>
<trkpt lat="33.2218793" lon="35.6337182">
<ele>117.599991</ele>
<time>2016-04-25T03:07:13.000Z</time>
</trkpt>
<trkpt lat="33.2219405" lon="35.6336120">
<ele>118.199997</ele>
<time>2016-04-25T03:07:17.000Z</time>
</trkpt>
<trkpt lat="33.2219924" lon="35.6334988">
<ele>118.599998</ele>
<time>2016-04-25T03:07:21.000Z</time>
</trkpt>
<trkpt lat="33.2220568" lon="35.6333997">
<ele>119.000000</ele>
<time>2016-04-25T03:07:25.000Z</time>
</trkpt>
<trkpt lat="33.2221201" lon="35.6332953">
<ele>119.400002</ele>
<time>2016-04-25T03:07:29.000Z</time>
</trkpt>
<trkpt lat="33.2221868" lon="35.6331920">
<ele>119.799995</ele>
<time>2016-04-25T03:07:33.000Z</time>
</trkpt>
<trkpt lat="33.2222532" lon="35.6330906">
<ele>120.000000</ele>
<time>2016-04-25T03:07:37.000Z</time>
</trkpt>
<trkpt lat="33.2223250" lon="35.6329884">
<ele>120.199997</ele>
<time>2016-04-25T03:07:41.000Z</time>
</trkpt>
<trkpt lat="33.2223889" lon="35.6328867">
<ele>120.199997</ele>
<time>2016-04-25T03:07:45.000Z</time>
</trkpt>
<trkpt lat="33.2224703" lon="35.6327955">
<ele>120.000000</ele>
<time>2016-04-25T03:07:49.000Z</time>
</trkpt>
<trkpt lat="33.2225466" lon="35.6326946">
<ele>120.000000</ele>
<time>2016-04-25T03:07:53.000Z</time>
</trkpt>
<trkpt lat="33.2226165" lon="35.6326030">
<ele>120.000000</ele>
<time>2016-04-25T03:07:57.000Z</time>
</trkpt>
<trkpt lat="33.2226941" lon="35.6325260">
<ele>119.799995</ele>
<time>2016-04-25T03:08:01.000Z</time>
</trkpt>
<trkpt lat="33.2227650" lon="35.6324430">
<ele>119.799995</ele>
<time>2016-04-25T03:08:05.000Z</time>
</trkpt>
<trkpt lat="33.2228465" lon="35.6323657">
<ele>119.799995</ele>
<time>2016-04-25T03:08:09.000Z</time>
</trkpt>
<trkpt lat="33.2229267" lon="35.6322890">
<ele>120.400002</ele>
<time>2016-04-25T03:08:13.000Z</time>
</trkpt>
<trkpt lat="33.2230112" lon="35.6322211">
<ele>120.800003</ele>
<time>2016-04-25T03:08:17.000Z</time>
</trkpt>
<trkpt lat="33.2230962" lon="35.6321471">
<ele>121.400002</ele>
<time>2016-04-25T03:08:21.000Z</time>
</trkpt>
<trkpt lat="33.2231869" lon="35.6320808">
<ele>122.200005</ele>
<time>2016-04-25T03:08:25.000Z</time>
</trkpt>
<trkpt lat="33.2232740" lon="35.6320181">
<ele>122.800003</ele>
<time>2016-04-25T03:08:29.000Z</time>
</trkpt>
<trkpt lat="33.2233572" lon="35.6319482">
<ele>123.000000</ele>
<time>2016-04-25T03:08:33.000Z</time>
</trkpt>
<trkpt lat="33.2234446" lon="35.6318866">
<ele>123.400002</ele>
<time>2016-04-25T03:08:37.000Z</time>
</trkpt>
<trkpt lat="33.2235300" lon="35.6318213">
<ele>123.599998</ele>
<time>2016-04-25T03:08:41.000Z</time>
</trkpt>
<trkpt lat="33.2236231" lon="35.6317878">
<ele>123.800003</ele>
<time>2016-04-25T03:08:45.000Z</time>
</trkpt>
<trkpt lat="33.2237126" lon="35.6318694">
<ele>124.000000</ele>
<time>2016-04-25T03:08:51.000Z</time>
</trkpt>
<trkpt lat="33.2237928" lon="35.6319482">
<ele>124.199997</ele>
<time>2016-04-25T03:08:57.000Z</time>
</trkpt>
<trkpt lat="33.2238534" lon="35.6320466">
<ele>124.199997</ele>
<time>2016-04-25T03:09:03.000Z</time>
</trkpt>
<trkpt lat="33.2238829" lon="35.6319539">
<ele>124.399994</ele>
<time>2016-04-25T03:09:11.000Z</time>
</trkpt>
<trkpt lat="33.2239357" lon="35.6319343">
<ele>124.399994</ele>
<time>2016-04-25T03:14:29.000Z</time>
</trkpt>
<trkpt lat="33.2240057" lon="35.6320080">
<ele>124.599991</ele>
<time>2016-04-25T03:22:00.000Z</time>
</trkpt>
<trkpt lat="33.2240834" lon="35.6320820">
<ele>124.599991</ele>
<time>2016-04-25T03:22:05.000Z</time>
</trkpt>
<trkpt lat="33.2241551" lon="35.6321616">
<ele>124.800003</ele>
<time>2016-04-25T03:22:09.000Z</time>
</trkpt>
<trkpt lat="33.2242299" lon="35.6322507">
<ele>124.800003</ele>
<time>2016-04-25T03:22:13.000Z</time>
</trkpt>
<trkpt lat="33.2242861" lon="35.6323583">
<ele>125.000000</ele>
<time>2016-04-25T03:22:17.000Z</time>
</trkpt>
<trkpt lat="33.2243196" lon="35.6324646">
<ele>125.000000</ele>
<time>2016-04-25T03:22:20.000Z</time>
</trkpt>
<trkpt lat="33.2243474" lon="35.6325836">
<ele>125.199997</ele>
<time>2016-04-25T03:22:23.000Z</time>
</trkpt>
<trkpt lat="33.2243951" lon="35.6326934">
<ele>125.199997</ele>
<time>2016-04-25T03:22:26.000Z</time>
</trkpt>
<trkpt lat="33.2244381" lon="35.6328050">
<ele>125.400002</ele>
<time>2016-04-25T03:22:29.000Z</time>
</trkpt>
<trkpt lat="33.2244760" lon="35.6329228">
<ele>125.400002</ele>
<time>2016-04-25T03:22:32.000Z</time>
</trkpt>
<trkpt lat="33.2245052" lon="35.6330422">
<ele>125.599998</ele>
<time>2016-04-25T03:22:35.000Z</time>
</trkpt>
<trkpt lat="33.2245505" lon="35.6331528">
<ele>125.599998</ele>
<time>2016-04-25T03:22:38.000Z</time>
</trkpt>
<trkpt lat="33.2245933" lon="35.6332742">
<ele>125.800003</ele>
<time>2016-04-25T03:22:41.000Z</time>
</trkpt>
<trkpt lat="33.2246358" lon="35.6334027">
<ele>125.800003</ele>
<time>2016-04-25T03:22:44.000Z</time>
</trkpt>
<trkpt lat="33.2246779" lon="35.6335279">
<ele>126.000000</ele>
<time>2016-04-25T03:22:47.000Z</time>
</trkpt>
<trkpt lat="33.2247203" lon="35.6336542">
<ele>126.000000</ele>
<time>2016-04-25T03:22:50.000Z</time>
</trkpt>
<trkpt lat="33.2247588" lon="35.6337860">
<ele>126.199997</ele>
<time>2016-04-25T03:22:53.000Z</time>
</trkpt>
<trkpt lat="33.2248068" lon="35.6339163">
<ele>126.199997</ele>
<time>2016-04-25T03:22:56.000Z</time>
</trkpt>
<trkpt lat="33.2248504" lon="35.6340446">
<ele>126.199997</ele>
<time>2016-04-25T03:22:59.000Z</time>
</trkpt>
<trkpt lat="33.2248939" lon="35.6341774">
<ele>126.000000</ele>
<time>2016-04-25T03:23:02.000Z</time>
</trkpt>
<trkpt lat="33.2249354" lon="35.6343127">
<ele>126.000000</ele>
<time>2016-04-25T03:23:05.000Z</time>
</trkpt>
<trkpt lat="33.2249790" lon="35.6344472">
<ele>126.000000</ele>
<time>2016-04-25T03:23:08.000Z</time>
</trkpt>
<trkpt lat="33.2250256" lon="35.6345784">
<ele>126.000000</ele>
<time>2016-04-25T03:23:11.000Z</time>
</trkpt>
<trkpt lat="33.2250773" lon="35.6347090">
<ele>126.000000</ele>
<time>2016-04-25T03:23:14.000Z</time>
</trkpt>
<trkpt lat="33.2251190" lon="35.6348433">
<ele>126.199997</ele>
<time>2016-04-25T03:23:17.000Z</time>
</trkpt>
<trkpt lat="33.2251648" lon="35.6349806">
<ele>126.400009</ele>
<time>2016-04-25T03:23:20.000Z</time>
</trkpt>
<trkpt lat="33.2252160" lon="35.6351137">
<ele>126.800003</ele>
<time>2016-04-25T03:23:23.000Z</time>
</trkpt>
<trkpt lat="33.2252546" lon="35.6352477">
<ele>127.000000</ele>
<time>2016-04-25T03:23:26.000Z</time>
</trkpt>
<trkpt lat="33.2252943" lon="35.6353771">
<ele>127.199997</ele>
<time>2016-04-25T03:23:29.000Z</time>
</trkpt>
<trkpt lat="33.2253379" lon="35.6355006">
<ele>127.400002</ele>
<time>2016-04-25T03:23:32.000Z</time>
</trkpt>
<trkpt lat="33.2253842" lon="35.6356281">
<ele>127.800003</ele>
<time>2016-04-25T03:23:35.000Z</time>
</trkpt>
<trkpt lat="33.2254292" lon="35.6357524">
<ele>128.000000</ele>
<time>2016-04-25T03:23:38.000Z</time>
</trkpt>
<trkpt lat="33.2254685" lon="35.6358770">
<ele>128.199997</ele>
<time>2016-04-25T03:23:41.000Z</time>
</trkpt>
<trkpt lat="33.2255078" lon="35.6359982">
<ele>128.399994</ele>
<time>2016-04-25T03:23:44.000Z</time>
</trkpt>
<trkpt lat="33.2255467" lon="35.6361159">
<ele>128.600006</ele>
<time>2016-04-25T03:23:47.000Z</time>
</trkpt>
<trkpt lat="33.2255898" lon="35.6362307">
<ele>128.600006</ele>
<time>2016-04-25T03:23:50.000Z</time>
</trkpt>
<trkpt lat="33.2256281" lon="35.6363473">
<ele>128.800003</ele>
<time>2016-04-25T03:23:53.000Z</time>
</trkpt>
<trkpt lat="33.2256701" lon="35.6364630">
<ele>128.800003</ele>
<time>2016-04-25T03:23:56.000Z</time>
</trkpt>
<trkpt lat="33.2257099" lon="35.6365817">
<ele>128.800003</ele>
<time>2016-04-25T03:23:59.000Z</time>
</trkpt>
<trkpt lat="33.2257502" lon="35.6366977">
<ele>128.800003</ele>
<time>2016-04-25T03:24:02.000Z</time>
</trkpt>
<trkpt lat="33.2257915" lon="35.6368108">
<ele>128.800003</ele>
<time>2016-04-25T03:24:05.000Z</time>
</trkpt>
<trkpt lat="33.2258328" lon="35.6369293">
<ele>128.800003</ele>
<time>2016-04-25T03:24:08.000Z</time>
</trkpt>
<trkpt lat="33.2258752" lon="35.6370485">
<ele>128.800003</ele>
<time>2016-04-25T03:24:11.000Z</time>
</trkpt>
<trkpt lat="33.2259126" lon="35.6371615">
<ele>129.000000</ele>
<time>2016-04-25T03:24:14.000Z</time>
</trkpt>
<trkpt lat="33.2259707" lon="35.6372681">
<ele>129.199997</ele>
<time>2016-04-25T03:24:18.000Z</time>
</trkpt>
<trkpt lat="33.2260197" lon="35.6373841">
<ele>129.399994</ele>
<time>2016-04-25T03:24:22.000Z</time>
</trkpt>
<trkpt lat="33.2260594" lon="35.6374808">
<ele>129.800003</ele>
<time>2016-04-25T03:24:25.000Z</time>
</trkpt>
<trkpt lat="33.2261006" lon="35.6376013">
<ele>130.000000</ele>
<time>2016-04-25T03:24:28.000Z</time>
</trkpt>
<trkpt lat="33.2261325" lon="35.6377443">
<ele>130.399994</ele>
<time>2016-04-25T03:24:31.000Z</time>
</trkpt>
<trkpt lat="33.2261558" lon="35.6378929">
<ele>130.600006</ele>
<time>2016-04-25T03:24:34.000Z</time>
</trkpt>
<trkpt lat="33.2261716" lon="35.6380389">
<ele>130.800003</ele>
<time>2016-04-25T03:24:37.000Z</time>
</trkpt>
<trkpt lat="33.2262042" lon="35.6381691">
<ele>130.600006</ele>
<time>2016-04-25T03:24:40.000Z</time>
</trkpt>
<trkpt lat="33.2262469" lon="35.6382995">
<ele>130.399994</ele>
<time>2016-04-25T03:24:43.000Z</time>
</trkpt>
<trkpt lat="33.2262851" lon="35.6384242">
<ele>130.399994</ele>
<time>2016-04-25T03:24:46.000Z</time>
</trkpt>
<trkpt lat="33.2263230" lon="35.6385560">
<ele>130.199997</ele>
<time>2016-04-25T03:24:49.000Z</time>
</trkpt>
<trkpt lat="33.2263588" lon="35.6386905">
<ele>130.199997</ele>
<time>2016-04-25T03:24:52.000Z</time>
</trkpt>
<trkpt lat="33.2263993" lon="35.6388067">
<ele>130.199997</ele>
<time>2016-04-25T03:24:55.000Z</time>
</trkpt>
<trkpt lat="33.2264337" lon="35.6389329">
<ele>130.199997</ele>
<time>2016-04-25T03:24:58.000Z</time>
</trkpt>
<trkpt lat="33.2264636" lon="35.6390413">
<ele>130.399994</ele>
<time>2016-04-25T03:25:00.000Z</time>
</trkpt>
<trkpt lat="33.2265058" lon="35.6391669">
<ele>130.600006</ele>
<time>2016-04-25T03:25:02.000Z</time>
</trkpt>
<trkpt lat="33.2265508" lon="35.6393013">
<ele>131.000000</ele>
<time>2016-04-25T03:25:04.000Z</time>
</trkpt>
<trkpt lat="33.2265956" lon="35.6394322">
<ele>131.199997</ele>
<time>2016-04-25T03:25:06.000Z</time>
</trkpt>
<trkpt lat="33.2266402" lon="35.6395545">
<ele>131.399994</ele>
<time>2016-04-25T03:25:08.000Z</time>
</trkpt>
<trkpt lat="33.2266795" lon="35.6396665">
<ele>131.399994</ele>
<time>2016-04-25T03:25:10.000Z</time>
</trkpt>
<trkpt lat="33.2267121" lon="35.6397702">
<ele>131.199997</ele>
<time>2016-04-25T03:25:12.000Z</time>
</trkpt>
<trkpt lat="33.2267604" lon="35.6398986">
<ele>131.399994</ele>
<time>2016-04-25T03:25:15.000Z</time>
</trkpt>
<trkpt lat="33.2268002" lon="35.6399989">
<ele>131.399994</ele>
<time>2016-04-25T03:25:18.000Z</time>
</trkpt>
<trkpt lat="33.2268384" lon="35.6400960">
<ele>131.399994</ele>
<time>2016-04-25T03:25:21.000Z</time>
</trkpt>
<trkpt lat="33.2268878" lon="35.6402135">
<ele>131.399994</ele>
<time>2016-04-25T03:25:25.000Z</time>
</trkpt>
<trkpt lat="33.2269365" lon="35.6403179">
<ele>131.399994</ele>
<time>2016-04-25T03:25:29.000Z</time>
</trkpt>
<trkpt lat="33.2269886" lon="35.6404200">
<ele>131.399994</ele>
<time>2016-04-25T03:25:33.000Z</time>
</trkpt>
<trkpt lat="33.2270407" lon="35.6405368">
<ele>131.600006</ele>
<time>2016-04-25T03:25:37.000Z</time>
</trkpt>
<trkpt lat="33.2270785" lon="35.6406362">
<ele>131.800003</ele>
<time>2016-04-25T03:25:40.000Z</time>
</trkpt>
<trkpt lat="33.2271221" lon="35.6407341">
<ele>132.000000</ele>
<time>2016-04-25T03:25:43.000Z</time>
</trkpt>
<trkpt lat="33.2271683" lon="35.6408334">
<ele>132.199997</ele>
<time>2016-04-25T03:25:46.000Z</time>
</trkpt>
<trkpt lat="33.2272141" lon="35.6409287">
<ele>132.600006</ele>
<time>2016-04-25T03:25:49.000Z</time>
</trkpt>
<trkpt lat="33.2272733" lon="35.6410414">
<ele>133.000000</ele>
<time>2016-04-25T03:25:53.000Z</time>
</trkpt>
<trkpt lat="33.2273449" lon="35.6411265">
<ele>133.399994</ele>
<time>2016-04-25T03:25:58.000Z</time>
</trkpt>
<trkpt lat="33.2274416" lon="35.6411031">
<ele>134.000000</ele>
<time>2016-04-25T03:26:04.000Z</time>
</trkpt>
<trkpt lat="33.2275282" lon="35.6411185">
<ele>134.399994</ele>
<time>2016-04-25T03:26:12.000Z</time>
</trkpt>
<trkpt lat="33.2275783" lon="35.6412211">
<ele>134.800003</ele>
<time>2016-04-25T03:26:17.000Z</time>
</trkpt>
<trkpt lat="33.2276548" lon="35.6413164">
<ele>135.199997</ele>
<time>2016-04-25T03:26:22.000Z</time>
</trkpt>
<trkpt lat="33.2277126" lon="35.6414232">
<ele>135.399994</ele>
<time>2016-04-25T03:26:27.000Z</time>
</trkpt>
<trkpt lat="33.2277757" lon="35.6415263">
<ele>135.600006</ele>
<time>2016-04-25T03:26:31.000Z</time>
</trkpt>
<trkpt lat="33.2278414" lon="35.6416290">
<ele>136.199997</ele>
<time>2016-04-25T03:26:35.000Z</time>
</trkpt>
<trkpt lat="33.2279076" lon="35.6417314">
<ele>136.600006</ele>
<time>2016-04-25T03:26:39.000Z</time>
</trkpt>
<trkpt lat="33.2279720" lon="35.6418293">
<ele>137.000000</ele>
<time>2016-04-25T03:26:43.000Z</time>
</trkpt>
<trkpt lat="33.2280434" lon="35.6419268">
<ele>137.399994</ele>
<time>2016-04-25T03:26:47.000Z</time>
</trkpt>
<trkpt lat="33.2281054" lon="35.6420281">
<ele>137.800003</ele>
<time>2016-04-25T03:26:51.000Z</time>
</trkpt>
<trkpt lat="33.2281747" lon="35.6421193">
<ele>138.199997</ele>
<time>2016-04-25T03:26:55.000Z</time>
</trkpt>
<trkpt lat="33.2282407" lon="35.6422128">
<ele>138.600006</ele>
<time>2016-04-25T03:26:59.000Z</time>
</trkpt>
<trkpt lat="33.2283126" lon="35.6423099">
<ele>138.800003</ele>
<time>2016-04-25T03:27:03.000Z</time>
</trkpt>
<trkpt lat="33.2283907" lon="35.6424083">
<ele>139.000000</ele>
<time>2016-04-25T03:27:07.000Z</time>
</trkpt>
<trkpt lat="33.2284761" lon="35.6425186">
<ele>139.199997</ele>
<time>2016-04-25T03:27:11.000Z</time>
</trkpt>
<trkpt lat="33.2285257" lon="35.6426075">
<ele>139.399994</ele>
<time>2016-04-25T03:27:14.000Z</time>
</trkpt>
<trkpt lat="33.2285875" lon="35.6426882">
<ele>139.600006</ele>
<time>2016-04-25T03:27:17.000Z</time>
</trkpt>
<trkpt lat="33.2286507" lon="35.6427766">
<ele>139.800003</ele>
<time>2016-04-25T03:27:20.000Z</time>
</trkpt>
<trkpt lat="33.2287177" lon="35.6428698">
<ele>140.199997</ele>
<time>2016-04-25T03:27:23.000Z</time>
</trkpt>
<trkpt lat="33.2287819" lon="35.6429674">
<ele>140.399994</ele>
<time>2016-04-25T03:27:26.000Z</time>
</trkpt>
<trkpt lat="33.2288516" lon="35.6430640">
<ele>140.600006</ele>
<time>2016-04-25T03:27:29.000Z</time>
</trkpt>
<trkpt lat="33.2289201" lon="35.6431641">
<ele>141.000000</ele>
<time>2016-04-25T03:27:32.000Z</time>
</trkpt>
<trkpt lat="33.2289889" lon="35.6432601">
<ele>141.199997</ele>
<time>2016-04-25T03:27:35.000Z</time>
</trkpt>
<trkpt lat="33.2290542" lon="35.6433498">
<ele>141.399994</ele>
<time>2016-04-25T03:27:38.000Z</time>
</trkpt>
<trkpt lat="33.2291236" lon="35.6434374">
<ele>141.600006</ele>
<time>2016-04-25T03:27:41.000Z</time>
</trkpt>
<trkpt lat="33.2291875" lon="35.6435305">
<ele>142.000000</ele>
<time>2016-04-25T03:27:44.000Z</time>
</trkpt>
<trkpt lat="33.2292544" lon="35.6436149">
<ele>142.199997</ele>
<time>2016-04-25T03:27:47.000Z</time>
</trkpt>
<trkpt lat="33.2293181" lon="35.6437068">
<ele>142.399994</ele>
<time>2016-04-25T03:27:50.000Z</time>
</trkpt>
<trkpt lat="33.2293897" lon="35.6437945">
<ele>142.600006</ele>
<time>2016-04-25T03:27:53.000Z</time>
</trkpt>
<trkpt lat="33.2294560" lon="35.6438800">
<ele>142.800003</ele>
<time>2016-04-25T03:27:56.000Z</time>
</trkpt>
<trkpt lat="33.2295173" lon="35.6439627">
<ele>143.000000</ele>
<time>2016-04-25T03:27:59.000Z</time>
</trkpt>
<trkpt lat="33.2295810" lon="35.6440447">
<ele>143.000000</ele>
<time>2016-04-25T03:28:02.000Z</time>
</trkpt>
<trkpt lat="33.2296488" lon="35.6441261">
<ele>143.199997</ele>
<time>2016-04-25T03:28:05.000Z</time>
</trkpt>
<trkpt lat="33.2297191" lon="35.6442082">
<ele>143.399994</ele>
<time>2016-04-25T03:28:08.000Z</time>
</trkpt>
<trkpt lat="33.2297880" lon="35.6442979">
<ele>143.399994</ele>
<time>2016-04-25T03:28:11.000Z</time>
</trkpt>
<trkpt lat="33.2298650" lon="35.6443874">
<ele>143.600006</ele>
<time>2016-04-25T03:28:14.000Z</time>
</trkpt>
<trkpt lat="33.2299500" lon="35.6444754">
<ele>143.600006</ele>
<time>2016-04-25T03:28:17.000Z</time>
</trkpt>
<trkpt lat="33.2300247" lon="35.6445774">
<ele>143.800003</ele>
<time>2016-04-25T03:28:20.000Z</time>
</trkpt>
<trkpt lat="33.2301024" lon="35.6446776">
<ele>144.000000</ele>
<time>2016-04-25T03:28:23.000Z</time>
</trkpt>
<trkpt lat="33.2301776" lon="35.6447777">
<ele>144.000000</ele>
<time>2016-04-25T03:28:26.000Z</time>
</trkpt>
<trkpt lat="33.2302508" lon="35.6448736">
<ele>144.000000</ele>
<time>2016-04-25T03:28:29.000Z</time>
</trkpt>
<trkpt lat="33.2303275" lon="35.6449682">
<ele>144.199997</ele>
<time>2016-04-25T03:28:32.000Z</time>
</trkpt>
<trkpt lat="33.2304018" lon="35.6450612">
<ele>144.199997</ele>
<time>2016-04-25T03:28:35.000Z</time>
</trkpt>
<trkpt lat="33.2304717" lon="35.6451571">
<ele>144.199997</ele>
<time>2016-04-25T03:28:38.000Z</time>
</trkpt>
<trkpt lat="33.2305387" lon="35.6452500">
<ele>144.399994</ele>
<time>2016-04-25T03:28:41.000Z</time>
</trkpt>
<trkpt lat="33.2306108" lon="35.6453372">
<ele>144.399994</ele>
<time>2016-04-25T03:28:44.000Z</time>
</trkpt>
<trkpt lat="33.2306790" lon="35.6454312">
<ele>144.399994</ele>
<time>2016-04-25T03:28:47.000Z</time>
</trkpt>
<trkpt lat="33.2307507" lon="35.6455196">
<ele>144.600006</ele>
<time>2016-04-25T03:28:50.000Z</time>
</trkpt>
<trkpt lat="33.2308207" lon="35.6456104">
<ele>144.600006</ele>
<time>2016-04-25T03:28:53.000Z</time>
</trkpt>
<trkpt lat="33.2308925" lon="35.6457029">
<ele>144.800003</ele>
<time>2016-04-25T03:28:56.000Z</time>
</trkpt>
<trkpt lat="33.2309668" lon="35.6457970">
<ele>145.000000</ele>
<time>2016-04-25T03:28:59.000Z</time>
</trkpt>
<trkpt lat="33.2310402" lon="35.6458916">
<ele>145.600006</ele>
<time>2016-04-25T03:29:02.000Z</time>
</trkpt>
<trkpt lat="33.2311167" lon="35.6459824">
<ele>146.000000</ele>
<time>2016-04-25T03:29:05.000Z</time>
</trkpt>
<trkpt lat="33.2311940" lon="35.6460789">
<ele>146.399994</ele>
<time>2016-04-25T03:29:08.000Z</time>
</trkpt>
<trkpt lat="33.2312702" lon="35.6461764">
<ele>146.800003</ele>
<time>2016-04-25T03:29:11.000Z</time>
</trkpt>
<trkpt lat="33.2313500" lon="35.6462732">
<ele>147.399994</ele>
<time>2016-04-25T03:29:14.000Z</time>
</trkpt>
<trkpt lat="33.2314287" lon="35.6463749">
<ele>147.800003</ele>
<time>2016-04-25T03:29:17.000Z</time>
</trkpt>
<trkpt lat="33.2315085" lon="35.6464762">
<ele>148.199997</ele>
<time>2016-04-25T03:29:20.000Z</time>
</trkpt>
<trkpt lat="33.2315874" lon="35.6465750">
<ele>148.600006</ele>
<time>2016-04-25T03:29:23.000Z</time>
</trkpt>
<trkpt lat="33.2316640" lon="35.6466771">
<ele>148.800003</ele>
<time>2016-04-25T03:29:26.000Z</time>
</trkpt>
<trkpt lat="33.2317452" lon="35.6467757">
<ele>149.199997</ele>
<time>2016-04-25T03:29:29.000Z</time>
</trkpt>
<trkpt lat="33.2318219" lon="35.6468836">
<ele>149.399994</ele>
<time>2016-04-25T03:29:32.000Z</time>
</trkpt>
<trkpt lat="33.2319007" lon="35.6469914">
<ele>149.600006</ele>
<time>2016-04-25T03:29:35.000Z</time>
</trkpt>
<trkpt lat="33.2319821" lon="35.6470997">
<ele>149.600006</ele>
<time>2016-04-25T03:29:38.000Z</time>
</trkpt>
<trkpt lat="33.2320654" lon="35.6472086">
<ele>149.600006</ele>
<time>2016-04-25T03:29:41.000Z</time>
</trkpt>
<trkpt lat="33.2321480" lon="35.6473183">
<ele>149.800003</ele>
<time>2016-04-25T03:29:44.000Z</time>
</trkpt>
<trkpt lat="33.2322303" lon="35.6474300">
<ele>149.800003</ele>
<time>2016-04-25T03:29:47.000Z</time>
</trkpt>
<trkpt lat="33.2323120" lon="35.6475446">
<ele>149.800003</ele>
<time>2016-04-25T03:29:50.000Z</time>
</trkpt>
<trkpt lat="33.2323921" lon="35.6476630">
<ele>149.800003</ele>
<time>2016-04-25T03:29:53.000Z</time>
</trkpt>
<trkpt lat="33.2324767" lon="35.6477780">
<ele>150.000000</ele>
<time>2016-04-25T03:29:56.000Z</time>
</trkpt>
<trkpt lat="33.2325625" lon="35.6478904">
<ele>150.000000</ele>
<time>2016-04-25T03:29:59.000Z</time>
</trkpt>
<trkpt lat="33.2326427" lon="35.6480072">
<ele>150.000000</ele>
<time>2016-04-25T03:30:02.000Z</time>
</trkpt>
<trkpt lat="33.2327201" lon="35.6481154">
<ele>150.199997</ele>
<time>2016-04-25T03:30:05.000Z</time>
</trkpt>
<trkpt lat="33.2327968" lon="35.6482234">
<ele>150.199997</ele>
<time>2016-04-25T03:30:08.000Z</time>
</trkpt>
<trkpt lat="33.2328740" lon="35.6483299">
<ele>150.399994</ele>
<time>2016-04-25T03:30:11.000Z</time>
</trkpt>
<trkpt lat="33.2329505" lon="35.6484370">
<ele>150.399994</ele>
<time>2016-04-25T03:30:14.000Z</time>
</trkpt>
<trkpt lat="33.2330289" lon="35.6485415">
<ele>150.399994</ele>
<time>2016-04-25T03:30:17.000Z</time>
</trkpt>
<trkpt lat="33.2331051" lon="35.6486478">
<ele>150.600006</ele>
<time>2016-04-25T03:30:20.000Z</time>
</trkpt>
<trkpt lat="33.2331878" lon="35.6487523">
<ele>150.600006</ele>
<time>2016-04-25T03:30:23.000Z</time>
</trkpt>
<trkpt lat="33.2332610" lon="35.6488588">
<ele>150.800003</ele>
<time>2016-04-25T03:30:26.000Z</time>
</trkpt>
<trkpt lat="33.2333345" lon="35.6489653">
<ele>151.000000</ele>
<time>2016-04-25T03:30:29.000Z</time>
</trkpt>
<trkpt lat="33.2334072" lon="35.6490698">
<ele>151.199997</ele>
<time>2016-04-25T03:30:32.000Z</time>
</trkpt>
<trkpt lat="33.2334830" lon="35.6491702">
<ele>151.600006</ele>
<time>2016-04-25T03:30:35.000Z</time>
</trkpt>
<trkpt lat="33.2335510" lon="35.6492767">
<ele>152.000000</ele>
<time>2016-04-25T03:30:38.000Z</time>
</trkpt>
<trkpt lat="33.2336247" lon="35.6493804">
<ele>152.600006</ele>
<time>2016-04-25T03:30:41.000Z</time>
</trkpt>
<trkpt lat="33.2337002" lon="35.6494821">
<ele>153.199997</ele>
<time>2016-04-25T03:30:44.000Z</time>
</trkpt>
<trkpt lat="33.2337727" lon="35.6495803">
<ele>153.800003</ele>
<time>2016-04-25T03:30:47.000Z</time>
</trkpt>
<trkpt lat="33.2338467" lon="35.6496719">
<ele>154.399994</ele>
<time>2016-04-25T03:30:50.000Z</time>
</trkpt>
<trkpt lat="33.2339143" lon="35.6497776">
<ele>154.600006</ele>
<time>2016-04-25T03:30:53.000Z</time>
</trkpt>
<trkpt lat="33.2339903" lon="35.6498853">
<ele>155.000000</ele>
<time>2016-04-25T03:30:56.000Z</time>
</trkpt>
<trkpt lat="33.2340585" lon="35.6499919">
<ele>155.199997</ele>
<time>2016-04-25T03:30:59.000Z</time>
</trkpt>
<trkpt lat="33.2341352" lon="35.6500873">
<ele>155.600006</ele>
<time>2016-04-25T03:31:02.000Z</time>
</trkpt>
<trkpt lat="33.2342151" lon="35.6501909">
<ele>156.000000</ele>
<time>2016-04-25T03:31:05.000Z</time>
</trkpt>
<trkpt lat="33.2342863" lon="35.6502907">
<ele>156.199997</ele>
<time>2016-04-25T03:31:08.000Z</time>
</trkpt>
<trkpt lat="33.2343580" lon="35.6503929">
<ele>156.399994</ele>
<time>2016-04-25T03:31:11.000Z</time>
</trkpt>
<trkpt lat="33.2344317" lon="35.6504947">
<ele>156.600006</ele>
<time>2016-04-25T03:31:14.000Z</time>
</trkpt>
<trkpt lat="33.2345038" lon="35.6505979">
<ele>157.000000</ele>
<time>2016-04-25T03:31:17.000Z</time>
</trkpt>
<trkpt lat="33.2345734" lon="35.6506994">
<ele>157.399994</ele>
<time>2016-04-25T03:31:20.000Z</time>
</trkpt>
<trkpt lat="33.2346410" lon="35.6508040">
<ele>158.000000</ele>
<time>2016-04-25T03:31:23.000Z</time>
</trkpt>
<trkpt lat="33.2347103" lon="35.6509050">
<ele>158.399994</ele>
<time>2016-04-25T03:31:26.000Z</time>
</trkpt>
<trkpt lat="33.2347814" lon="35.6510042">
<ele>159.000000</ele>
<time>2016-04-25T03:31:29.000Z</time>
</trkpt>
<trkpt lat="33.2348528" lon="35.6511003">
<ele>159.399994</ele>
<time>2016-04-25T03:31:32.000Z</time>
</trkpt>
<trkpt lat="33.2349244" lon="35.6511960">
<ele>159.799988</ele>
<time>2016-04-25T03:31:35.000Z</time>
</trkpt>
<trkpt lat="33.2349913" lon="35.6512953">
<ele>160.199982</ele>
<time>2016-04-25T03:31:38.000Z</time>
</trkpt>
<trkpt lat="33.2350593" lon="35.6513926">
<ele>160.600006</ele>
<time>2016-04-25T03:31:41.000Z</time>
</trkpt>
<trkpt lat="33.2351328" lon="35.6514931">
<ele>160.800003</ele>
<time>2016-04-25T03:31:44.000Z</time>
</trkpt>
<trkpt lat="33.2352061" lon="35.6515916">
<ele>161.000000</ele>
<time>2016-04-25T03:31:47.000Z</time>
</trkpt>
<trkpt lat="33.2352764" lon="35.6516917">
<ele>161.199997</ele>
<time>2016-04-25T03:31:50.000Z</time>
</trkpt>
<trkpt lat="33.2353416" lon="35.6517897">
<ele>161.199997</ele>
<time>2016-04-25T03:31:53.000Z</time>
</trkpt>
<trkpt lat="33.2354112" lon="35.6518864">
<ele>161.399994</ele>
<time>2016-04-25T03:31:56.000Z</time>
</trkpt>
<trkpt lat="33.2354807" lon="35.6519809">
<ele>161.600021</ele>
<time>2016-04-25T03:31:59.000Z</time>
</trkpt>
<trkpt lat="33.2355446" lon="35.6520687">
<ele>161.600021</ele>
<time>2016-04-25T03:32:02.000Z</time>
</trkpt>
<trkpt lat="33.2356072" lon="35.6521613">
<ele>161.800003</ele>
<time>2016-04-25T03:32:05.000Z</time>
</trkpt>
<trkpt lat="33.2356771" lon="35.6522550">
<ele>162.199997</ele>
<time>2016-04-25T03:32:08.000Z</time>
</trkpt>
<trkpt lat="33.2357466" lon="35.6523440">
<ele>162.600006</ele>
<time>2016-04-25T03:32:11.000Z</time>
</trkpt>
<trkpt lat="33.2358101" lon="35.6524318">
<ele>163.000000</ele>
<time>2016-04-25T03:32:14.000Z</time>
</trkpt>
<trkpt lat="33.2358744" lon="35.6525231">
<ele>163.600006</ele>
<time>2016-04-25T03:32:17.000Z</time>
</trkpt>
<trkpt lat="33.2359383" lon="35.6526174">
<ele>164.000000</ele>
<time>2016-04-25T03:32:20.000Z</time>
</trkpt>
<trkpt lat="33.2359974" lon="35.6527064">
<ele>164.200012</ele>
<time>2016-04-25T03:32:23.000Z</time>
</trkpt>
<trkpt lat="33.2360562" lon="35.6527912">
<ele>164.600006</ele>
<time>2016-04-25T03:32:26.000Z</time>
</trkpt>
<trkpt lat="33.2361369" lon="35.6528980">
<ele>165.000000</ele>
<time>2016-04-25T03:32:30.000Z</time>
</trkpt>
<trkpt lat="33.2362136" lon="35.6530054">
<ele>165.199997</ele>
<time>2016-04-25T03:32:34.000Z</time>
</trkpt>
<trkpt lat="33.2362863" lon="35.6531033">
<ele>165.600006</ele>
<time>2016-04-25T03:32:38.000Z</time>
</trkpt>
<trkpt lat="33.2363581" lon="35.6532053">
<ele>166.000000</ele>
<time>2016-04-25T03:32:42.000Z</time>
</trkpt>
<trkpt lat="33.2364204" lon="35.6533005">
<ele>166.199997</ele>
<time>2016-04-25T03:32:46.000Z</time>
</trkpt>
<trkpt lat="33.2364879" lon="35.6534066">
<ele>166.600006</ele>
<time>2016-04-25T03:32:50.000Z</time>
</trkpt>
<trkpt lat="33.2365695" lon="35.6535179">
<ele>167.000000</ele>
<time>2016-04-25T03:32:54.000Z</time>
</trkpt>
<trkpt lat="33.2366321" lon="35.6536047">
<ele>167.199997</ele>
<time>2016-04-25T03:32:57.000Z</time>
</trkpt>
<trkpt lat="33.2366962" lon="35.6536939">
<ele>167.399994</ele>
<time>2016-04-25T03:33:00.000Z</time>
</trkpt>
<trkpt lat="33.2367575" lon="35.6537863">
<ele>167.800003</ele>
<time>2016-04-25T03:33:03.000Z</time>
</trkpt>
<trkpt lat="33.2368341" lon="35.6538946">
<ele>168.199997</ele>
<time>2016-04-25T03:33:07.000Z</time>
</trkpt>
<trkpt lat="33.2369213" lon="35.6539932">
<ele>168.399994</ele>
<time>2016-04-25T03:33:11.000Z</time>
</trkpt>
<trkpt lat="33.2370003" lon="35.6540991">
<ele>168.800003</ele>
<time>2016-04-25T03:33:15.000Z</time>
</trkpt>
<trkpt lat="33.2370747" lon="35.6542034">
<ele>168.999985</ele>
<time>2016-04-25T03:33:19.000Z</time>
</trkpt>
<trkpt lat="33.2371477" lon="35.6543081">
<ele>169.199997</ele>
<time>2016-04-25T03:33:23.000Z</time>
</trkpt>
<trkpt lat="33.2372208" lon="35.6543959">
<ele>169.600006</ele>
<time>2016-04-25T03:33:27.000Z</time>
</trkpt>
<trkpt lat="33.2372929" lon="35.6544893">
<ele>169.800003</ele>
<time>2016-04-25T03:33:31.000Z</time>
</trkpt>
<trkpt lat="33.2373635" lon="35.6545843">
<ele>170.000000</ele>
<time>2016-04-25T03:33:35.000Z</time>
</trkpt>
<trkpt lat="33.2374270" lon="35.6546758">
<ele>170.199997</ele>
<time>2016-04-25T03:33:39.000Z</time>
</trkpt>
<trkpt lat="33.2374921" lon="35.6547731">
<ele>170.600006</ele>
<time>2016-04-25T03:33:43.000Z</time>
</trkpt>
<trkpt lat="33.2375678" lon="35.6548639">
<ele>170.800018</ele>
<time>2016-04-25T03:33:47.000Z</time>
</trkpt>
<trkpt lat="33.2376444" lon="35.6549529">
<ele>171.000000</ele>
<time>2016-04-25T03:33:51.000Z</time>
</trkpt>
<trkpt lat="33.2377212" lon="35.6550538">
<ele>171.399994</ele>
<time>2016-04-25T03:33:55.000Z</time>
</trkpt>
<trkpt lat="33.2377810" lon="35.6551529">
<ele>171.600006</ele>
<time>2016-04-25T03:33:59.000Z</time>
</trkpt>
<trkpt lat="33.2378312" lon="35.6552546">
<ele>171.800003</ele>
<time>2016-04-25T03:34:03.000Z</time>
</trkpt>
<trkpt lat="33.2378811" lon="35.6553654">
<ele>172.000000</ele>
<time>2016-04-25T03:34:07.000Z</time>
</trkpt>
<trkpt lat="33.2379395" lon="35.6554791">
<ele>172.199997</ele>
<time>2016-04-25T03:34:11.000Z</time>
</trkpt>
<trkpt lat="33.2379868" lon="35.6555953">
<ele>172.800003</ele>
<time>2016-04-25T03:34:15.000Z</time>
</trkpt>
<trkpt lat="33.2380184" lon="35.6557266">
<ele>173.600006</ele>
<time>2016-04-25T03:34:19.000Z</time>
</trkpt>
<trkpt lat="33.2380359" lon="35.6558686">
<ele>174.600006</ele>
<time>2016-04-25T03:34:23.000Z</time>
</trkpt>
<trkpt lat="33.2380290" lon="35.6559781">
<ele>175.199997</ele>
<time>2016-04-25T03:34:26.000Z</time>
</trkpt>
<trkpt lat="33.2380101" lon="35.6561165">
<ele>175.599991</ele>
<time>2016-04-25T03:34:30.000Z</time>
</trkpt>
<trkpt lat="33.2379751" lon="35.6562461">
<ele>176.199997</ele>
<time>2016-04-25T03:34:34.000Z</time>
</trkpt>
<trkpt lat="33.2379409" lon="35.6563800">
<ele>176.600006</ele>
<time>2016-04-25T03:34:38.000Z</time>
</trkpt>
<trkpt lat="33.2379083" lon="35.6565137">
<ele>176.600006</ele>
<time>2016-04-25T03:34:42.000Z</time>
</trkpt>
<trkpt lat="33.2378837" lon="35.6566531">
<ele>176.600006</ele>
<time>2016-04-25T03:34:46.000Z</time>
</trkpt>
<trkpt lat="33.2378651" lon="35.6567636">
<ele>176.800003</ele>
<time>2016-04-25T03:34:49.000Z</time>
</trkpt>
<trkpt lat="33.2378491" lon="35.6568763">
<ele>177.000000</ele>
<time>2016-04-25T03:34:52.000Z</time>
</trkpt>
<trkpt lat="33.2378370" lon="35.6569938">
<ele>177.199997</ele>
<time>2016-04-25T03:34:55.000Z</time>
</trkpt>
<trkpt lat="33.2378294" lon="35.6571141">
<ele>177.600006</ele>
<time>2016-04-25T03:34:58.000Z</time>
</trkpt>
<trkpt lat="33.2378299" lon="35.6572300">
<ele>177.799988</ele>
<time>2016-04-25T03:35:01.000Z</time>
</trkpt>
<trkpt lat="33.2378373" lon="35.6573473">
<ele>177.799988</ele>
<time>2016-04-25T03:35:04.000Z</time>
</trkpt>
<trkpt lat="33.2378546" lon="35.6574651">
<ele>177.799988</ele>
<time>2016-04-25T03:35:07.000Z</time>
</trkpt>
<trkpt lat="33.2378751" lon="35.6575800">
<ele>177.799988</ele>
<time>2016-04-25T03:35:10.000Z</time>
</trkpt>
<trkpt lat="33.2378956" lon="35.6576937">
<ele>177.799988</ele>
<time>2016-04-25T03:35:13.000Z</time>
</trkpt>
<trkpt lat="33.2379180" lon="35.6578053">
<ele>177.600006</ele>
<time>2016-04-25T03:35:16.000Z</time>
</trkpt>
<trkpt lat="33.2379396" lon="35.6579127">
<ele>177.600006</ele>
<time>2016-04-25T03:35:19.000Z</time>
</trkpt>
<trkpt lat="33.2379607" lon="35.6580209">
<ele>177.600006</ele>
<time>2016-04-25T03:35:22.000Z</time>
</trkpt>
<trkpt lat="33.2379973" lon="35.6581538">
<ele>178.000000</ele>
<time>2016-04-25T03:35:26.000Z</time>
</trkpt>
<trkpt lat="33.2380251" lon="35.6582600">
<ele>178.199982</ele>
<time>2016-04-25T03:35:29.000Z</time>
</trkpt>
<trkpt lat="33.2380551" lon="35.6583724">
<ele>178.399994</ele>
<time>2016-04-25T03:35:32.000Z</time>
</trkpt>
<trkpt lat="33.2380705" lon="35.6584980">
<ele>178.800003</ele>
<time>2016-04-25T03:35:35.000Z</time>
</trkpt>
<trkpt lat="33.2380761" lon="35.6586268">
<ele>179.000000</ele>
<time>2016-04-25T03:35:38.000Z</time>
</trkpt>
<trkpt lat="33.2380779" lon="35.6587448">
<ele>179.399994</ele>
<time>2016-04-25T03:35:41.000Z</time>
</trkpt>
<trkpt lat="33.2380726" lon="35.6588576">
<ele>179.600021</ele>
<time>2016-04-25T03:35:44.000Z</time>
</trkpt>
<trkpt lat="33.2380614" lon="35.6589716">
<ele>179.800003</ele>
<time>2016-04-25T03:35:47.000Z</time>
</trkpt>
<trkpt lat="33.2380576" lon="35.6590815">
<ele>179.800003</ele>
<time>2016-04-25T03:35:50.000Z</time>
</trkpt>
<trkpt lat="33.2380549" lon="35.6592249">
<ele>180.000015</ele>
<time>2016-04-25T03:35:54.000Z</time>
</trkpt>
<trkpt lat="33.2380567" lon="35.6593584">
<ele>180.000015</ele>
<time>2016-04-25T03:35:58.000Z</time>
</trkpt>
<trkpt lat="33.2380735" lon="35.6594963">
<ele>180.000015</ele>
<time>2016-04-25T03:36:02.000Z</time>
</trkpt>
<trkpt lat="33.2381070" lon="35.6596290">
<ele>180.000015</ele>
<time>2016-04-25T03:36:06.000Z</time>
</trkpt>
<trkpt lat="33.2381469" lon="35.6597566">
<ele>180.199997</ele>
<time>2016-04-25T03:36:10.000Z</time>
</trkpt>
<trkpt lat="33.2381898" lon="35.6598546">
<ele>180.400009</ele>
<time>2016-04-25T03:36:13.000Z</time>
</trkpt>
<trkpt lat="33.2382377" lon="35.6599473">
<ele>180.600006</ele>
<time>2016-04-25T03:36:16.000Z</time>
</trkpt>
<trkpt lat="33.2383064" lon="35.6600551">
<ele>181.199997</ele>
<time>2016-04-25T03:36:20.000Z</time>
</trkpt>
<trkpt lat="33.2383779" lon="35.6601494">
<ele>181.600006</ele>
<time>2016-04-25T03:36:24.000Z</time>
</trkpt>
<trkpt lat="33.2384580" lon="35.6602344">
<ele>182.000000</ele>
<time>2016-04-25T03:36:28.000Z</time>
</trkpt>
<trkpt lat="33.2385320" lon="35.6603123">
<ele>182.600006</ele>
<time>2016-04-25T03:36:32.000Z</time>
</trkpt>
<trkpt lat="33.2386099" lon="35.6603973">
<ele>183.199997</ele>
<time>2016-04-25T03:36:36.000Z</time>
</trkpt>
<trkpt lat="33.2386923" lon="35.6604796">
<ele>183.600006</ele>
<time>2016-04-25T03:36:40.000Z</time>
</trkpt>
<trkpt lat="33.2387724" lon="35.6605634">
<ele>184.399994</ele>
<time>2016-04-25T03:36:44.000Z</time>
</trkpt>
<trkpt lat="33.2388507" lon="35.6606494">
<ele>185.000000</ele>
<time>2016-04-25T03:36:48.000Z</time>
</trkpt>
<trkpt lat="33.2389248" lon="35.6607413">
<ele>185.600006</ele>
<time>2016-04-25T03:36:52.000Z</time>
</trkpt>
<trkpt lat="33.2390089" lon="35.6608269">
<ele>186.399994</ele>
<time>2016-04-25T03:36:56.000Z</time>
</trkpt>
<trkpt lat="33.2391002" lon="35.6609112">
<ele>187.000015</ele>
<time>2016-04-25T03:37:00.000Z</time>
</trkpt>
<trkpt lat="33.2391930" lon="35.6609941">
<ele>187.800003</ele>
<time>2016-04-25T03:37:04.000Z</time>
</trkpt>
<trkpt lat="33.2392865" lon="35.6610747">
<ele>188.600006</ele>
<time>2016-04-25T03:37:08.000Z</time>
</trkpt>
<trkpt lat="33.2393761" lon="35.6611458">
<ele>189.000000</ele>
<time>2016-04-25T03:37:12.000Z</time>
</trkpt>
<trkpt lat="33.2394652" lon="35.6612306">
<ele>189.399994</ele>
<time>2016-04-25T03:37:16.000Z</time>
</trkpt>
<trkpt lat="33.2395568" lon="35.6613138">
<ele>190.000000</ele>
<time>2016-04-25T03:37:20.000Z</time>
</trkpt>
<trkpt lat="33.2396467" lon="35.6613892">
<ele>190.199997</ele>
<time>2016-04-25T03:37:24.000Z</time>
</trkpt>
<trkpt lat="33.2397334" lon="35.6614591">
<ele>190.600006</ele>
<time>2016-04-25T03:37:28.000Z</time>
</trkpt>
<trkpt lat="33.2398158" lon="35.6615388">
<ele>190.800003</ele>
<time>2016-04-25T03:37:32.000Z</time>
</trkpt>
<trkpt lat="33.2399104" lon="35.6616151">
<ele>191.199997</ele>
<time>2016-04-25T03:37:36.000Z</time>
</trkpt>
<trkpt lat="33.2399916" lon="35.6616838">
<ele>191.600006</ele>
<time>2016-04-25T03:37:40.000Z</time>
</trkpt>
<trkpt lat="33.2400681" lon="35.6617576">
<ele>191.799988</ele>
<time>2016-04-25T03:37:44.000Z</time>
</trkpt>
<trkpt lat="33.2401527" lon="35.6618283">
<ele>192.199982</ele>
<time>2016-04-25T03:37:48.000Z</time>
</trkpt>
<trkpt lat="33.2402319" lon="35.6619043">
<ele>192.600006</ele>
<time>2016-04-25T03:37:52.000Z</time>
</trkpt>
<trkpt lat="33.2403072" lon="35.6619732">
<ele>193.199997</ele>
<time>2016-04-25T03:37:56.000Z</time>
</trkpt>
<trkpt lat="33.2403875" lon="35.6620438">
<ele>193.599991</ele>
<time>2016-04-25T03:38:00.000Z</time>
</trkpt>
<trkpt lat="33.2404696" lon="35.6621111">
<ele>193.999985</ele>
<time>2016-04-25T03:38:04.000Z</time>
</trkpt>
<trkpt lat="33.2405548" lon="35.6621866">
<ele>194.600006</ele>
<time>2016-04-25T03:38:08.000Z</time>
</trkpt>
<trkpt lat="33.2406401" lon="35.6622701">
<ele>195.199997</ele>
<time>2016-04-25T03:38:12.000Z</time>
</trkpt>
<trkpt lat="33.2407203" lon="35.6623493">
<ele>195.600006</ele>
<time>2016-04-25T03:38:16.000Z</time>
</trkpt>
<trkpt lat="33.2407973" lon="35.6624212">
<ele>196.000000</ele>
<time>2016-04-25T03:38:20.000Z</time>
</trkpt>
<trkpt lat="33.2408802" lon="35.6624908">
<ele>196.600006</ele>
<time>2016-04-25T03:38:24.000Z</time>
</trkpt>
<trkpt lat="33.2409636" lon="35.6625603">
<ele>197.000000</ele>
<time>2016-04-25T03:38:28.000Z</time>
</trkpt>
<trkpt lat="33.2410485" lon="35.6626408">
<ele>197.399994</ele>
<time>2016-04-25T03:38:32.000Z</time>
</trkpt>
<trkpt lat="33.2411352" lon="35.6627135">
<ele>197.800003</ele>
<time>2016-04-25T03:38:36.000Z</time>
</trkpt>
<trkpt lat="33.2412179" lon="35.6627854">
<ele>198.199997</ele>
<time>2016-04-25T03:38:40.000Z</time>
</trkpt>
<trkpt lat="33.2413026" lon="35.6628649">
<ele>198.600006</ele>
<time>2016-04-25T03:38:44.000Z</time>
</trkpt>
<trkpt lat="33.2413776" lon="35.6629378">
<ele>199.000000</ele>
<time>2016-04-25T03:38:48.000Z</time>
</trkpt>
<trkpt lat="33.2414611" lon="35.6630054">
<ele>199.399994</ele>
<time>2016-04-25T03:38:52.000Z</time>
</trkpt>
<trkpt lat="33.2415485" lon="35.6630786">
<ele>200.000000</ele>
<time>2016-04-25T03:38:56.000Z</time>
</trkpt>
<trkpt lat="33.2416289" lon="35.6631552">
<ele>200.399994</ele>
<time>2016-04-25T03:39:00.000Z</time>
</trkpt>
<trkpt lat="33.2417130" lon="35.6632344">
<ele>200.800003</ele>
<time>2016-04-25T03:39:04.000Z</time>
</trkpt>
<trkpt lat="33.2417954" lon="35.6633164">
<ele>201.399979</ele>
<time>2016-04-25T03:39:08.000Z</time>
</trkpt>
<trkpt lat="33.2418796" lon="35.6633844">
<ele>201.600006</ele>
<time>2016-04-25T03:39:12.000Z</time>
</trkpt>
<trkpt lat="33.2419623" lon="35.6634547">
<ele>202.000000</ele>
<time>2016-04-25T03:39:16.000Z</time>
</trkpt>
<trkpt lat="33.2420407" lon="35.6635333">
<ele>202.199997</ele>
<time>2016-04-25T03:39:20.000Z</time>
</trkpt>
<trkpt lat="33.2421144" lon="35.6636072">
<ele>202.399994</ele>
<time>2016-04-25T03:39:24.000Z</time>
</trkpt>
<trkpt lat="33.2421935" lon="35.6636713">
<ele>202.800018</ele>
<time>2016-04-25T03:39:28.000Z</time>
</trkpt>
<trkpt lat="33.2422730" lon="35.6637432">
<ele>203.000000</ele>
<time>2016-04-25T03:39:32.000Z</time>
</trkpt>
<trkpt lat="33.2423571" lon="35.6638238">
<ele>203.399994</ele>
<time>2016-04-25T03:39:37.000Z</time>
</trkpt>
<trkpt lat="33.2424553" lon="35.6639025">
<ele>203.800003</ele>
<time>2016-04-25T03:39:42.000Z</time>
</trkpt>
<trkpt lat="33.2425491" lon="35.6639850">
<ele>204.199997</ele>
<time>2016-04-25T03:39:47.000Z</time>
</trkpt>
<trkpt lat="33.2426321" lon="35.6640705">
<ele>204.800003</ele>
<time>2016-04-25T03:39:52.000Z</time>
</trkpt>
<trkpt lat="33.2427138" lon="35.6641507">
<ele>205.400009</ele>
<time>2016-04-25T03:39:57.000Z</time>
</trkpt>
<trkpt lat="33.2428072" lon="35.6642365">
<ele>206.199997</ele>
<time>2016-04-25T03:40:02.000Z</time>
</trkpt>
<trkpt lat="33.2429005" lon="35.6643143">
<ele>207.000000</ele>
<time>2016-04-25T03:40:07.000Z</time>
</trkpt>
<trkpt lat="33.2429887" lon="35.6643911">
<ele>207.599991</ele>
<time>2016-04-25T03:40:12.000Z</time>
</trkpt>
<trkpt lat="33.2430630" lon="35.6644650">
<ele>208.199997</ele>
<time>2016-04-25T03:40:16.000Z</time>
</trkpt>
<trkpt lat="33.2431373" lon="35.6645337">
<ele>208.800003</ele>
<time>2016-04-25T03:40:20.000Z</time>
</trkpt>
<trkpt lat="33.2432273" lon="35.6646074">
<ele>209.600006</ele>
<time>2016-04-25T03:40:25.000Z</time>
</trkpt>
<trkpt lat="33.2433259" lon="35.6646770">
<ele>210.399994</ele>
<time>2016-04-25T03:40:30.000Z</time>
</trkpt>
<trkpt lat="33.2434016" lon="35.6647522">
<ele>210.600006</ele>
<time>2016-04-25T03:40:35.000Z</time>
</trkpt>
<trkpt lat="33.2434808" lon="35.6648226">
<ele>211.000000</ele>
<time>2016-04-25T03:40:40.000Z</time>
</trkpt>
<trkpt lat="33.2435487" lon="35.6648895">
<ele>211.399994</ele>
<time>2016-04-25T03:40:45.000Z</time>
</trkpt>
<trkpt lat="33.2436300" lon="35.6649646">
<ele>211.800003</ele>
<time>2016-04-25T03:40:50.000Z</time>
</trkpt>
<trkpt lat="33.2436999" lon="35.6650355">
<ele>212.000015</ele>
<time>2016-04-25T03:40:55.000Z</time>
</trkpt>
<trkpt lat="33.2437771" lon="35.6651079">
<ele>212.400009</ele>
<time>2016-04-25T03:41:00.000Z</time>
</trkpt>
<trkpt lat="33.2438532" lon="35.6651794">
<ele>212.800003</ele>
<time>2016-04-25T03:41:05.000Z</time>
</trkpt>
<trkpt lat="33.2439293" lon="35.6652546">
<ele>213.199997</ele>
<time>2016-04-25T03:41:10.000Z</time>
</trkpt>
<trkpt lat="33.2440053" lon="35.6653260">
<ele>213.600006</ele>
<time>2016-04-25T03:41:15.000Z</time>
</trkpt>
<trkpt lat="33.2440785" lon="35.6653996">
<ele>213.800003</ele>
<time>2016-04-25T03:41:20.000Z</time>
</trkpt>
<trkpt lat="33.2441498" lon="35.6654732">
<ele>214.199997</ele>
<time>2016-04-25T03:41:25.000Z</time>
</trkpt>
<trkpt lat="33.2442286" lon="35.6655405">
<ele>214.600006</ele>
<time>2016-04-25T03:41:30.000Z</time>
</trkpt>
<trkpt lat="33.2443048" lon="35.6656151">
<ele>215.199997</ele>
<time>2016-04-25T03:41:35.000Z</time>
</trkpt>
<trkpt lat="33.2443808" lon="35.6656953">
<ele>215.600006</ele>
<time>2016-04-25T03:41:40.000Z</time>
</trkpt>
<trkpt lat="33.2444617" lon="35.6657742">
<ele>216.000000</ele>
<time>2016-04-25T03:41:45.000Z</time>
</trkpt>
<trkpt lat="33.2445388" lon="35.6658543">
<ele>216.399994</ele>
<time>2016-04-25T03:41:50.000Z</time>
</trkpt>
<trkpt lat="33.2446203" lon="35.6659295">
<ele>216.799988</ele>
<time>2016-04-25T03:41:55.000Z</time>
</trkpt>
<trkpt lat="33.2446961" lon="35.6660009">
<ele>217.199982</ele>
<time>2016-04-25T03:42:00.000Z</time>
</trkpt>
<trkpt lat="33.2447746" lon="35.6660715">
<ele>217.399994</ele>
<time>2016-04-25T03:42:05.000Z</time>
</trkpt>
<trkpt lat="33.2448432" lon="35.6661580">
<ele>217.800003</ele>
<time>2016-04-25T03:42:10.000Z</time>
</trkpt>
<trkpt lat="33.2449298" lon="35.6662161">
<ele>218.199997</ele>
<time>2016-04-25T03:42:15.000Z</time>
</trkpt>
<trkpt lat="33.2450201" lon="35.6662734">
<ele>218.600021</ele>
<time>2016-04-25T03:42:20.000Z</time>
</trkpt>
<trkpt lat="33.2451043" lon="35.6663487">
<ele>219.000015</ele>
<time>2016-04-25T03:42:25.000Z</time>
</trkpt>
<trkpt lat="33.2451878" lon="35.6664093">
<ele>219.199997</ele>
<time>2016-04-25T03:42:30.000Z</time>
</trkpt>
<trkpt lat="33.2452703" lon="35.6664842">
<ele>219.600006</ele>
<time>2016-04-25T03:42:35.000Z</time>
</trkpt>
<trkpt lat="33.2453490" lon="35.6665574">
<ele>220.000000</ele>
<time>2016-04-25T03:42:40.000Z</time>
</trkpt>
<trkpt lat="33.2454321" lon="35.6666217">
<ele>220.399994</ele>
<time>2016-04-25T03:42:45.000Z</time>
</trkpt>
<trkpt lat="33.2455095" lon="35.6666886">
<ele>220.800018</ele>
<time>2016-04-25T03:42:50.000Z</time>
</trkpt>
<trkpt lat="33.2455834" lon="35.6667579">
<ele>221.000000</ele>
<time>2016-04-25T03:42:55.000Z</time>
</trkpt>
<trkpt lat="33.2456644" lon="35.6668245">
<ele>221.399994</ele>
<time>2016-04-25T03:43:00.000Z</time>
</trkpt>
<trkpt lat="33.2457429" lon="35.6668984">
<ele>221.800003</ele>
<time>2016-04-25T03:43:05.000Z</time>
</trkpt>
<trkpt lat="33.2458244" lon="35.6669615">
<ele>222.199997</ele>
<time>2016-04-25T03:43:10.000Z</time>
</trkpt>
<trkpt lat="33.2459015" lon="35.6670323">
<ele>222.399994</ele>
<time>2016-04-25T03:43:15.000Z</time>
</trkpt>
<trkpt lat="33.2459915" lon="35.6671127">
<ele>223.000000</ele>
<time>2016-04-25T03:43:21.000Z</time>
</trkpt>
<trkpt lat="33.2460675" lon="35.6671786">
<ele>223.799988</ele>
<time>2016-04-25T03:43:26.000Z</time>
</trkpt>
<trkpt lat="33.2461424" lon="35.6672449">
<ele>224.399994</ele>
<time>2016-04-25T03:43:31.000Z</time>
</trkpt>
<trkpt lat="33.2462164" lon="35.6673140">
<ele>225.000000</ele>
<time>2016-04-25T03:43:36.000Z</time>
</trkpt>
<trkpt lat="33.2462970" lon="35.6673791">
<ele>225.599991</ele>
<time>2016-04-25T03:43:41.000Z</time>
</trkpt>
<trkpt lat="33.2463753" lon="35.6674470">
<ele>226.399979</ele>
<time>2016-04-25T03:43:46.000Z</time>
</trkpt>
<trkpt lat="33.2464660" lon="35.6675297">
<ele>227.000000</ele>
<time>2016-04-25T03:43:52.000Z</time>
</trkpt>
<trkpt lat="33.2465419" lon="35.6675915">
<ele>227.600006</ele>
<time>2016-04-25T03:43:57.000Z</time>
</trkpt>
<trkpt lat="33.2466180" lon="35.6676622">
<ele>228.399994</ele>
<time>2016-04-25T03:44:02.000Z</time>
</trkpt>
<trkpt lat="33.2466940" lon="35.6677298">
<ele>229.000000</ele>
<time>2016-04-25T03:44:07.000Z</time>
</trkpt>
<trkpt lat="33.2467676" lon="35.6678034">
<ele>229.600006</ele>
<time>2016-04-25T03:44:12.000Z</time>
</trkpt>
<trkpt lat="33.2468551" lon="35.6678773">
<ele>230.199997</ele>
<time>2016-04-25T03:44:18.000Z</time>
</trkpt>
<trkpt lat="33.2469281" lon="35.6679483">
<ele>230.600006</ele>
<time>2016-04-25T03:44:23.000Z</time>
</trkpt>
<trkpt lat="33.2470021" lon="35.6680182">
<ele>231.000000</ele>
<time>2016-04-25T03:44:28.000Z</time>
</trkpt>
<trkpt lat="33.2470898" lon="35.6680990">
<ele>231.399994</ele>
<time>2016-04-25T03:44:34.000Z</time>
</trkpt>
<trkpt lat="33.2471795" lon="35.6681840">
<ele>231.600006</ele>
<time>2016-04-25T03:44:40.000Z</time>
</trkpt>
<trkpt lat="33.2472685" lon="35.6682631">
<ele>232.000000</ele>
<time>2016-04-25T03:44:46.000Z</time>
</trkpt>
<trkpt lat="33.2473552" lon="35.6683425">
<ele>232.399994</ele>
<time>2016-04-25T03:44:52.000Z</time>
</trkpt>
<trkpt lat="33.2474376" lon="35.6684293">
<ele>232.599991</ele>
<time>2016-04-25T03:44:58.000Z</time>
</trkpt>
<trkpt lat="33.2475222" lon="35.6685174">
<ele>232.999985</ele>
<time>2016-04-25T03:45:04.000Z</time>
</trkpt>
<trkpt lat="33.2476033" lon="35.6686029">
<ele>233.199997</ele>
<time>2016-04-25T03:45:10.000Z</time>
</trkpt>
<trkpt lat="33.2476839" lon="35.6686860">
<ele>233.600006</ele>
<time>2016-04-25T03:45:16.000Z</time>
</trkpt>
<trkpt lat="33.2477570" lon="35.6687781">
<ele>234.000000</ele>
<time>2016-04-25T03:45:22.000Z</time>
</trkpt>
<trkpt lat="33.2478467" lon="35.6688657">
<ele>234.600006</ele>
<time>2016-04-25T03:45:28.000Z</time>
</trkpt>
<trkpt lat="33.2479212" lon="35.6689486">
<ele>235.199982</ele>
<time>2016-04-25T03:45:34.000Z</time>
</trkpt>
<trkpt lat="33.2479963" lon="35.6690331">
<ele>235.800003</ele>
<time>2016-04-25T03:45:40.000Z</time>
</trkpt>
<trkpt lat="33.2480724" lon="35.6691281">
<ele>236.600021</ele>
<time>2016-04-25T03:45:46.000Z</time>
</trkpt>
<trkpt lat="33.2481336" lon="35.6692106">
<ele>237.000015</ele>
<time>2016-04-25T03:45:51.000Z</time>
</trkpt>
<trkpt lat="33.2482143" lon="35.6692977">
<ele>237.800003</ele>
<time>2016-04-25T03:45:57.000Z</time>
</trkpt>
<trkpt lat="33.2482832" lon="35.6693946">
<ele>238.399994</ele>
<time>2016-04-25T03:46:03.000Z</time>
</trkpt>
<trkpt lat="33.2483422" lon="35.6694760">
<ele>239.000000</ele>
<time>2016-04-25T03:46:08.000Z</time>
</trkpt>
<trkpt lat="33.2484180" lon="35.6695673">
<ele>239.599991</ele>
<time>2016-04-25T03:46:14.000Z</time>
</trkpt>
<trkpt lat="33.2484844" lon="35.6696607">
<ele>240.000000</ele>
<time>2016-04-25T03:46:20.000Z</time>
</trkpt>
<trkpt lat="33.2485505" lon="35.6697574">
<ele>240.600006</ele>
<time>2016-04-25T03:46:26.000Z</time>
</trkpt>
<trkpt lat="33.2486263" lon="35.6698592">
<ele>241.199997</ele>
<time>2016-04-25T03:46:32.000Z</time>
</trkpt>
<trkpt lat="33.2486850" lon="35.6699487">
<ele>241.600006</ele>
<time>2016-04-25T03:46:37.000Z</time>
</trkpt>
<trkpt lat="33.2487594" lon="35.6700348">
<ele>242.199982</ele>
<time>2016-04-25T03:46:43.000Z</time>
</trkpt>
<trkpt lat="33.2488429" lon="35.6701234">
<ele>242.800003</ele>
<time>2016-04-25T03:46:49.000Z</time>
</trkpt>
<trkpt lat="33.2489139" lon="35.6701994">
<ele>243.399994</ele>
<time>2016-04-25T03:46:54.000Z</time>
</trkpt>
<trkpt lat="33.2489820" lon="35.6702843">
<ele>243.800003</ele>
<time>2016-04-25T03:46:59.000Z</time>
</trkpt>
<trkpt lat="33.2490488" lon="35.6703668">
<ele>244.400009</ele>
<time>2016-04-25T03:47:04.000Z</time>
</trkpt>
<trkpt lat="33.2491036" lon="35.6704584">
<ele>244.800003</ele>
<time>2016-04-25T03:47:09.000Z</time>
</trkpt>
<trkpt lat="33.2491726" lon="35.6705459">
<ele>245.399994</ele>
<time>2016-04-25T03:47:15.000Z</time>
</trkpt>
<trkpt lat="33.2492548" lon="35.6706376">
<ele>246.000000</ele>
<time>2016-04-25T03:47:21.000Z</time>
</trkpt>
<trkpt lat="33.2493432" lon="35.6707163">
<ele>246.399994</ele>
<time>2016-04-25T03:47:27.000Z</time>
</trkpt>
<trkpt lat="33.2494095" lon="35.6708039">
<ele>246.800003</ele>
<time>2016-04-25T03:47:32.000Z</time>
</trkpt>
<trkpt lat="33.2494769" lon="35.6708942">
<ele>247.399994</ele>
<time>2016-04-25T03:47:37.000Z</time>
</trkpt>
<trkpt lat="33.2495518" lon="35.6709895">
<ele>247.800003</ele>
<time>2016-04-25T03:47:42.000Z</time>
</trkpt>
<trkpt lat="33.2496146" lon="35.6710743">
<ele>248.199997</ele>
<time>2016-04-25T03:47:47.000Z</time>
</trkpt>
<trkpt lat="33.2496808" lon="35.6711580">
<ele>248.600006</ele>
<time>2016-04-25T03:47:52.000Z</time>
</trkpt>
<trkpt lat="33.2497471" lon="35.6712449">
<ele>249.000000</ele>
<time>2016-04-25T03:47:57.000Z</time>
</trkpt>
<trkpt lat="33.2498259" lon="35.6713484">
<ele>249.600006</ele>
<time>2016-04-25T03:48:03.000Z</time>
</trkpt>
<trkpt lat="33.2498924" lon="35.6714386">
<ele>249.800003</ele>
<time>2016-04-25T03:48:09.000Z</time>
</trkpt>
<trkpt lat="33.2499590" lon="35.6715329">
<ele>250.199997</ele>
<time>2016-04-25T03:48:15.000Z</time>
</trkpt>
<trkpt lat="33.2500286" lon="35.6716188">
<ele>250.600021</ele>
<time>2016-04-25T03:48:21.000Z</time>
</trkpt>
<trkpt lat="33.2500990" lon="35.6717096">
<ele>250.800003</ele>
<time>2016-04-25T03:48:27.000Z</time>
</trkpt>
<trkpt lat="33.2501704" lon="35.6717968">
<ele>251.399979</ele>
<time>2016-04-25T03:48:33.000Z</time>
</trkpt>
<trkpt lat="33.2502361" lon="35.6718812">
<ele>252.000000</ele>
<time>2016-04-25T03:48:39.000Z</time>
</trkpt>
<trkpt lat="33.2503170" lon="35.6719644">
<ele>252.600006</ele>
<time>2016-04-25T03:48:45.000Z</time>
</trkpt>
<trkpt lat="33.2504038" lon="35.6720459">
<ele>253.399994</ele>
<time>2016-04-25T03:48:51.000Z</time>
</trkpt>
<trkpt lat="33.2504901" lon="35.6721252">
<ele>254.000000</ele>
<time>2016-04-25T03:48:57.000Z</time>
</trkpt>
<trkpt lat="33.2505656" lon="35.6722014">
<ele>254.800003</ele>
<time>2016-04-25T03:49:03.000Z</time>
</trkpt>
<trkpt lat="33.2506517" lon="35.6722812">
<ele>255.800003</ele>
<time>2016-04-25T03:49:09.000Z</time>
</trkpt>
<trkpt lat="33.2507341" lon="35.6723717">
<ele>256.799988</ele>
<time>2016-04-25T03:49:15.000Z</time>
</trkpt>
<trkpt lat="33.2508148" lon="35.6724705">
<ele>257.799988</ele>
<time>2016-04-25T03:49:20.000Z</time>
</trkpt>
<trkpt lat="33.2508800" lon="35.6725762">
<ele>258.799988</ele>
<time>2016-04-25T03:49:25.000Z</time>
</trkpt>
<trkpt lat="33.2509235" lon="35.6726762">
<ele>259.399994</ele>
<time>2016-04-25T03:49:29.000Z</time>
</trkpt>
<trkpt lat="33.2509591" lon="35.6727969">
<ele>260.200012</ele>
<time>2016-04-25T03:49:34.000Z</time>
</trkpt>
<trkpt lat="33.2509655" lon="35.6729248">
<ele>260.600006</ele>
<time>2016-04-25T03:49:39.000Z</time>
</trkpt>
<trkpt lat="33.2509480" lon="35.6730294">
<ele>261.000000</ele>
<time>2016-04-25T03:49:43.000Z</time>
</trkpt>
<trkpt lat="33.2508927" lon="35.6731223">
<ele>261.200012</ele>
<time>2016-04-25T03:49:47.000Z</time>
</trkpt>
<trkpt lat="33.2508204" lon="35.6732214">
<ele>261.399994</ele>
<time>2016-04-25T03:49:52.000Z</time>
</trkpt>
<trkpt lat="33.2507444" lon="35.6733164">
<ele>261.600006</ele>
<time>2016-04-25T03:49:57.000Z</time>
</trkpt>
<trkpt lat="33.2506730" lon="35.6734182">
<ele>261.799988</ele>
<time>2016-04-25T03:50:03.000Z</time>
</trkpt>
<trkpt lat="33.2506139" lon="35.6735071">
<ele>262.000000</ele>
<time>2016-04-25T03:50:08.000Z</time>
</trkpt>
<trkpt lat="33.2505646" lon="35.6736021">
<ele>262.399994</ele>
<time>2016-04-25T03:50:13.000Z</time>
</trkpt>
<trkpt lat="33.2505184" lon="35.6737033">
<ele>263.000000</ele>
<time>2016-04-25T03:50:18.000Z</time>
</trkpt>
<trkpt lat="33.2504898" lon="35.6738145">
<ele>263.600006</ele>
<time>2016-04-25T03:50:23.000Z</time>
</trkpt>
<trkpt lat="33.2504677" lon="35.6739283">
<ele>264.200012</ele>
<time>2016-04-25T03:50:28.000Z</time>
</trkpt>
<trkpt lat="33.2504470" lon="35.6740434">
<ele>264.799988</ele>
<time>2016-04-25T03:50:33.000Z</time>
</trkpt>
<trkpt lat="33.2504453" lon="35.6741543">
<ele>265.600006</ele>
<time>2016-04-25T03:50:38.000Z</time>
</trkpt>
<trkpt lat="33.2504510" lon="35.6742794">
<ele>266.000000</ele>
<time>2016-04-25T03:50:44.000Z</time>
</trkpt>
<trkpt lat="33.2504520" lon="35.6744068">
<ele>266.600006</ele>
<time>2016-04-25T03:50:50.000Z</time>
</trkpt>
<trkpt lat="33.2504720" lon="35.6745132">
<ele>267.000000</ele>
<time>2016-04-25T03:50:55.000Z</time>
</trkpt>
<trkpt lat="33.2504911" lon="35.6746249">
<ele>267.600006</ele>
<time>2016-04-25T03:51:00.000Z</time>
</trkpt>
<trkpt lat="33.2505180" lon="35.6747353">
<ele>268.000000</ele>
<time>2016-04-25T03:51:05.000Z</time>
</trkpt>
<trkpt lat="33.2505469" lon="35.6748411">
<ele>268.600006</ele>
<time>2016-04-25T03:51:10.000Z</time>
</trkpt>
<trkpt lat="33.2505760" lon="35.6749562">
<ele>269.200012</ele>
<time>2016-04-25T03:51:16.000Z</time>
</trkpt>
<trkpt lat="33.2506158" lon="35.6750689">
<ele>269.600006</ele>
<time>2016-04-25T03:51:22.000Z</time>
</trkpt>
<trkpt lat="33.2506443" lon="35.6751927">
<ele>270.200012</ele>
<time>2016-04-25T03:51:28.000Z</time>
</trkpt>
<trkpt lat="33.2506753" lon="35.6753209">
<ele>271.000000</ele>
<time>2016-04-25T03:51:34.000Z</time>
</trkpt>
<trkpt lat="33.2506942" lon="35.6754284">
<ele>271.600006</ele>
<time>2016-04-25T03:51:39.000Z</time>
</trkpt>
<trkpt lat="33.2507161" lon="35.6755482">
<ele>272.200012</ele>
<time>2016-04-25T03:51:45.000Z</time>
</trkpt>
<trkpt lat="33.2507447" lon="35.6756657">
<ele>272.799988</ele>
<time>2016-04-25T03:51:51.000Z</time>
</trkpt>
<trkpt lat="33.2507698" lon="35.6757830">
<ele>273.600006</ele>
<time>2016-04-25T03:51:57.000Z</time>
</trkpt>
<trkpt lat="33.2508023" lon="35.6759035">
<ele>274.200012</ele>
<time>2016-04-25T03:52:03.000Z</time>
</trkpt>
<trkpt lat="33.2508329" lon="35.6760256">
<ele>275.000000</ele>
<time>2016-04-25T03:52:09.000Z</time>
</trkpt>
<trkpt lat="33.2508721" lon="35.6761444">
<ele>275.600006</ele>
<time>2016-04-25T03:52:15.000Z</time>
</trkpt>
<trkpt lat="33.2509025" lon="35.6762717">
<ele>276.399994</ele>
<time>2016-04-25T03:52:21.000Z</time>
</trkpt>
<trkpt lat="33.2509319" lon="35.6763766">
<ele>277.000000</ele>
<time>2016-04-25T03:52:26.000Z</time>
</trkpt>
<trkpt lat="33.2509618" lon="35.6764925">
<ele>277.799988</ele>
<time>2016-04-25T03:52:32.000Z</time>
</trkpt>
<trkpt lat="33.2509927" lon="35.6765964">
<ele>278.399994</ele>
<time>2016-04-25T03:52:38.000Z</time>
</trkpt>
<trkpt lat="33.2510192" lon="35.6767191">
<ele>279.200012</ele>
<time>2016-04-25T03:52:45.000Z</time>
</trkpt>
<trkpt lat="33.2510450" lon="35.6768354">
<ele>280.000000</ele>
<time>2016-04-25T03:52:52.000Z</time>
</trkpt>
<trkpt lat="33.2510826" lon="35.6769601">
<ele>280.799988</ele>
<time>2016-04-25T03:52:59.000Z</time>
</trkpt>
<trkpt lat="33.2511059" lon="35.6770751">
<ele>281.399994</ele>
<time>2016-04-25T03:53:05.000Z</time>
</trkpt>
<trkpt lat="33.2511195" lon="35.6771992">
<ele>282.200012</ele>
<time>2016-04-25T03:53:12.000Z</time>
</trkpt>
<trkpt lat="33.2511631" lon="35.6772637">
<ele>282.399994</ele>
<time>2016-04-25T03:56:43.000Z</time>
</trkpt>
<trkpt lat="33.2511940" lon="35.6773878">
<ele>283.000000</ele>
<time>2016-04-25T03:56:53.000Z</time>
</trkpt>
<trkpt lat="33.2512235" lon="35.6775041">
<ele>283.799988</ele>
<time>2016-04-25T03:56:59.000Z</time>
</trkpt>
<trkpt lat="33.2512481" lon="35.6776251">
<ele>285.000000</ele>
<time>2016-04-25T03:57:05.000Z</time>
</trkpt>
<trkpt lat="33.2512715" lon="35.6777309">
<ele>286.200012</ele>
<time>2016-04-25T03:57:10.000Z</time>
</trkpt>
<trkpt lat="33.2512939" lon="35.6778521">
<ele>287.399994</ele>
<time>2016-04-25T03:57:16.000Z</time>
</trkpt>
<trkpt lat="33.2512917" lon="35.6779749">
<ele>289.000000</ele>
<time>2016-04-25T03:57:22.000Z</time>
</trkpt>
<trkpt lat="33.2512641" lon="35.6780813">
<ele>290.200012</ele>
<time>2016-04-25T03:57:28.000Z</time>
</trkpt>
<trkpt lat="33.2512049" lon="35.6781787">
<ele>291.399994</ele>
<time>2016-04-25T03:57:35.000Z</time>
</trkpt>
<trkpt lat="33.2511349" lon="35.6782509">
<ele>292.600006</ele>
<time>2016-04-25T03:57:41.000Z</time>
</trkpt>
<trkpt lat="33.2510445" lon="35.6783136">
<ele>294.000000</ele>
<time>2016-04-25T03:57:48.000Z</time>
</trkpt>
<trkpt lat="33.2509566" lon="35.6783637">
<ele>295.200012</ele>
<time>2016-04-25T03:57:55.000Z</time>
</trkpt>
<trkpt lat="33.2508699" lon="35.6784064">
<ele>296.399994</ele>
<time>2016-04-25T03:58:02.000Z</time>
</trkpt>
<trkpt lat="33.2507738" lon="35.6784369">
<ele>297.600006</ele>
<time>2016-04-25T03:58:09.000Z</time>
</trkpt>
<trkpt lat="33.2506778" lon="35.6784624">
<ele>298.799988</ele>
<time>2016-04-25T03:58:16.000Z</time>
</trkpt>
<trkpt lat="33.2505780" lon="35.6784681">
<ele>299.799988</ele>
<time>2016-04-25T03:58:23.000Z</time>
</trkpt>
<trkpt lat="33.2504774" lon="35.6784567">
<ele>301.600006</ele>
<time>2016-04-25T03:58:30.000Z</time>
</trkpt>
<trkpt lat="33.2503807" lon="35.6784258">
<ele>303.000000</ele>
<time>2016-04-25T03:58:37.000Z</time>
</trkpt>
<trkpt lat="33.2502886" lon="35.6783783">
<ele>304.000000</ele>
<time>2016-04-25T03:58:44.000Z</time>
</trkpt>
<trkpt lat="33.2501942" lon="35.6783334">
<ele>305.000000</ele>
<time>2016-04-25T03:58:51.000Z</time>
</trkpt>
<trkpt lat="33.2500982" lon="35.6782858">
<ele>306.000000</ele>
<time>2016-04-25T03:58:58.000Z</time>
</trkpt>
<trkpt lat="33.2500004" lon="35.6782419">
<ele>306.399994</ele>
<time>2016-04-25T03:59:05.000Z</time>
</trkpt>
<trkpt lat="33.2499124" lon="35.6782054">
<ele>306.799988</ele>
<time>2016-04-25T03:59:11.000Z</time>
</trkpt>
<trkpt lat="33.2498203" lon="35.6781733">
<ele>307.399994</ele>
<time>2016-04-25T03:59:17.000Z</time>
</trkpt>
<trkpt lat="33.2497225" lon="35.6781418">
<ele>308.200012</ele>
<time>2016-04-25T03:59:23.000Z</time>
</trkpt>
<trkpt lat="33.2496327" lon="35.6781202">
<ele>309.000000</ele>
<time>2016-04-25T03:59:29.000Z</time>
</trkpt>
<trkpt lat="33.2495367" lon="35.6780936">
<ele>309.799988</ele>
<time>2016-04-25T03:59:35.000Z</time>
</trkpt>
<trkpt lat="33.2494411" lon="35.6780585">
<ele>310.399994</ele>
<time>2016-04-25T03:59:41.000Z</time>
</trkpt>
<trkpt lat="33.2493427" lon="35.6780235">
<ele>311.000000</ele>
<time>2016-04-25T03:59:47.000Z</time>
</trkpt>
<trkpt lat="33.2492441" lon="35.6779926">
<ele>311.200012</ele>
<time>2016-04-25T03:59:53.000Z</time>
</trkpt>
<trkpt lat="33.2491513" lon="35.6779690">
<ele>310.399994</ele>
<time>2016-04-25T03:59:59.000Z</time>
</trkpt>
<trkpt lat="33.2490535" lon="35.6779345">
<ele>309.399994</ele>
<time>2016-04-25T04:00:05.000Z</time>
</trkpt>
<trkpt lat="33.2489557" lon="35.6779065">
<ele>308.399994</ele>
<time>2016-04-25T04:00:11.000Z</time>
</trkpt>
<trkpt lat="33.2488466" lon="35.6778832">
<ele>307.600006</ele>
<time>2016-04-25T04:00:17.000Z</time>
</trkpt>
<trkpt lat="33.2487519" lon="35.6778853">
<ele>307.200012</ele>
<time>2016-04-25T04:00:22.000Z</time>
</trkpt>
<trkpt lat="33.2486493" lon="35.6779058">
<ele>307.399994</ele>
<time>2016-04-25T04:00:27.000Z</time>
</trkpt>
<trkpt lat="33.2485542" lon="35.6779630">
<ele>308.000000</ele>
<time>2016-04-25T04:00:32.000Z</time>
</trkpt>
<trkpt lat="33.2484602" lon="35.6780320">
<ele>309.000000</ele>
<time>2016-04-25T04:00:37.000Z</time>
</trkpt>
<trkpt lat="33.2483815" lon="35.6781277">
<ele>310.200012</ele>
<time>2016-04-25T04:00:42.000Z</time>
</trkpt>
<trkpt lat="33.2483181" lon="35.6782185">
<ele>311.399994</ele>
<time>2016-04-25T04:00:46.000Z</time>
</trkpt>
<trkpt lat="33.2482639" lon="35.6783259">
<ele>312.999969</ele>
<time>2016-04-25T04:00:51.000Z</time>
</trkpt>
<trkpt lat="33.2482248" lon="35.6784351">
<ele>314.600006</ele>
<time>2016-04-25T04:00:56.000Z</time>
</trkpt>
<trkpt lat="33.2481897" lon="35.6785447">
<ele>316.399994</ele>
<time>2016-04-25T04:01:02.000Z</time>
</trkpt>
<trkpt lat="33.2481502" lon="35.6786642">
<ele>317.400024</ele>
<time>2016-04-25T04:01:08.000Z</time>
</trkpt>
<trkpt lat="33.2481133" lon="35.6787813">
<ele>318.000000</ele>
<time>2016-04-25T04:01:14.000Z</time>
</trkpt>
<trkpt lat="33.2480696" lon="35.6788996">
<ele>318.799988</ele>
<time>2016-04-25T04:01:20.000Z</time>
</trkpt>
<trkpt lat="33.2480357" lon="35.6790073">
<ele>319.799988</ele>
<time>2016-04-25T04:01:26.000Z</time>
</trkpt>
<trkpt lat="33.2479965" lon="35.6791195">
<ele>320.799988</ele>
<time>2016-04-25T04:01:32.000Z</time>
</trkpt>
<trkpt lat="33.2479574" lon="35.6792349">
<ele>321.800018</ele>
<time>2016-04-25T04:01:38.000Z</time>
</trkpt>
<trkpt lat="33.2479220" lon="35.6793539">
<ele>322.200012</ele>
<time>2016-04-25T04:01:44.000Z</time>
</trkpt>
<trkpt lat="33.2478878" lon="35.6794602">
<ele>322.399994</ele>
<time>2016-04-25T04:01:50.000Z</time>
</trkpt>
<trkpt lat="33.2478630" lon="35.6795755">
<ele>323.000000</ele>
<time>2016-04-25T04:01:56.000Z</time>
</trkpt>
<trkpt lat="33.2478472" lon="35.6796944">
<ele>323.799988</ele>
<time>2016-04-25T04:02:02.000Z</time>
</trkpt>
<trkpt lat="33.2478258" lon="35.6798190">
<ele>324.200012</ele>
<time>2016-04-25T04:02:08.000Z</time>
</trkpt>
<trkpt lat="33.2478145" lon="35.6799419">
<ele>324.799957</ele>
<time>2016-04-25T04:02:14.000Z</time>
</trkpt>
<trkpt lat="33.2477996" lon="35.6800724">
<ele>325.600006</ele>
<time>2016-04-25T04:02:20.000Z</time>
</trkpt>
<trkpt lat="33.2477949" lon="35.6801922">
<ele>326.600006</ele>
<time>2016-04-25T04:02:25.000Z</time>
</trkpt>
<trkpt lat="33.2477860" lon="35.6803153">
<ele>327.600037</ele>
<time>2016-04-25T04:02:30.000Z</time>
</trkpt>
<trkpt lat="33.2477680" lon="35.6804413">
<ele>328.400024</ele>
<time>2016-04-25T04:02:35.000Z</time>
</trkpt>
<trkpt lat="33.2477548" lon="35.6805626">
<ele>329.000000</ele>
<time>2016-04-25T04:02:40.000Z</time>
</trkpt>
<trkpt lat="33.2477414" lon="35.6806742">
<ele>329.000000</ele>
<time>2016-04-25T04:02:45.000Z</time>
</trkpt>
<trkpt lat="33.2477347" lon="35.6807966">
<ele>329.399994</ele>
<time>2016-04-25T04:02:51.000Z</time>
</trkpt>
<trkpt lat="33.2477255" lon="35.6809181">
<ele>330.000000</ele>
<time>2016-04-25T04:02:57.000Z</time>
</trkpt>
<trkpt lat="33.2477155" lon="35.6810350">
<ele>330.399994</ele>
<time>2016-04-25T04:03:03.000Z</time>
</trkpt>
<trkpt lat="33.2477102" lon="35.6811581">
<ele>331.000000</ele>
<time>2016-04-25T04:03:09.000Z</time>
</trkpt>
<trkpt lat="33.2477075" lon="35.6812840">
<ele>331.600006</ele>
<time>2016-04-25T04:03:15.000Z</time>
</trkpt>
<trkpt lat="33.2477027" lon="35.6814083">
<ele>331.799988</ele>
<time>2016-04-25T04:03:21.000Z</time>
</trkpt>
<trkpt lat="33.2476983" lon="35.6815264">
<ele>332.399994</ele>
<time>2016-04-25T04:03:27.000Z</time>
</trkpt>
<trkpt lat="33.2476875" lon="35.6816377">
<ele>333.000000</ele>
<time>2016-04-25T04:03:33.000Z</time>
</trkpt>
<trkpt lat="33.2476813" lon="35.6817491">
<ele>333.600006</ele>
<time>2016-04-25T04:03:39.000Z</time>
</trkpt>
<trkpt lat="33.2476746" lon="35.6818571">
<ele>334.200043</ele>
<time>2016-04-25T04:03:45.000Z</time>
</trkpt>
<trkpt lat="33.2476642" lon="35.6819777">
<ele>335.000031</ele>
<time>2016-04-25T04:03:51.000Z</time>
</trkpt>
<trkpt lat="33.2476621" lon="35.6820951">
<ele>335.600006</ele>
<time>2016-04-25T04:03:57.000Z</time>
</trkpt>
<trkpt lat="33.2476513" lon="35.6822117">
<ele>336.200012</ele>
<time>2016-04-25T04:04:03.000Z</time>
</trkpt>
<trkpt lat="33.2476452" lon="35.6823283">
<ele>336.600006</ele>
<time>2016-04-25T04:04:09.000Z</time>
</trkpt>
<trkpt lat="33.2476358" lon="35.6824478">
<ele>337.000000</ele>
<time>2016-04-25T04:04:15.000Z</time>
</trkpt>
<trkpt lat="33.2476300" lon="35.6825641">
<ele>337.399994</ele>
<time>2016-04-25T04:04:21.000Z</time>
</trkpt>
<trkpt lat="33.2476221" lon="35.6826762">
<ele>337.799988</ele>
<time>2016-04-25T04:04:27.000Z</time>
</trkpt>
<trkpt lat="33.2476138" lon="35.6827951">
<ele>337.999969</ele>
<time>2016-04-25T04:04:33.000Z</time>
</trkpt>
<trkpt lat="33.2476032" lon="35.6829159">
<ele>338.399994</ele>
<time>2016-04-25T04:04:39.000Z</time>
</trkpt>
<trkpt lat="33.2475949" lon="35.6830426">
<ele>338.799957</ele>
<time>2016-04-25T04:04:45.000Z</time>
</trkpt>
<trkpt lat="33.2475838" lon="35.6831488">
<ele>339.399994</ele>
<time>2016-04-25T04:04:50.000Z</time>
</trkpt>
<trkpt lat="33.2475655" lon="35.6832761">
<ele>340.000000</ele>
<time>2016-04-25T04:04:55.000Z</time>
</trkpt>
<trkpt lat="33.2475684" lon="35.6834000">
<ele>340.799988</ele>
<time>2016-04-25T04:05:00.000Z</time>
</trkpt>
<trkpt lat="33.2475641" lon="35.6835186">
<ele>341.399994</ele>
<time>2016-04-25T04:05:05.000Z</time>
</trkpt>
<trkpt lat="33.2475530" lon="35.6836546">
<ele>342.200012</ele>
<time>2016-04-25T04:05:10.000Z</time>
</trkpt>
<trkpt lat="33.2475461" lon="35.6837715">
<ele>342.799988</ele>
<time>2016-04-25T04:05:14.000Z</time>
</trkpt>
<trkpt lat="33.2475374" lon="35.6839047">
<ele>343.399994</ele>
<time>2016-04-25T04:05:19.000Z</time>
</trkpt>
<trkpt lat="33.2475269" lon="35.6840179">
<ele>343.200012</ele>
<time>2016-04-25T04:05:23.000Z</time>
</trkpt>
<trkpt lat="33.2475186" lon="35.6841365">
<ele>343.200012</ele>
<time>2016-04-25T04:05:27.000Z</time>
</trkpt>
<trkpt lat="33.2475060" lon="35.6842659">
<ele>343.200012</ele>
<time>2016-04-25T04:05:31.000Z</time>
</trkpt>
<trkpt lat="33.2474974" lon="35.6844005">
<ele>343.000000</ele>
<time>2016-04-25T04:05:35.000Z</time>
</trkpt>
<trkpt lat="33.2474888" lon="35.6845407">
<ele>343.000000</ele>
<time>2016-04-25T04:05:39.000Z</time>
</trkpt>
<trkpt lat="33.2474783" lon="35.6846768">
<ele>343.600006</ele>
<time>2016-04-25T04:05:43.000Z</time>
</trkpt>
<trkpt lat="33.2474677" lon="35.6848008">
<ele>344.200012</ele>
<time>2016-04-25T04:05:47.000Z</time>
</trkpt>
<trkpt lat="33.2474553" lon="35.6849241">
<ele>344.599976</ele>
<time>2016-04-25T04:05:51.000Z</time>
</trkpt>
<trkpt lat="33.2474503" lon="35.6850509">
<ele>345.200012</ele>
<time>2016-04-25T04:05:55.000Z</time>
</trkpt>
<trkpt lat="33.2474395" lon="35.6851701">
<ele>345.799988</ele>
<time>2016-04-25T04:05:59.000Z</time>
</trkpt>
<trkpt lat="33.2474386" lon="35.6852956">
<ele>346.399994</ele>
<time>2016-04-25T04:06:03.000Z</time>
</trkpt>
<trkpt lat="33.2474341" lon="35.6854169">
<ele>346.800018</ele>
<time>2016-04-25T04:06:07.000Z</time>
</trkpt>
<trkpt lat="33.2474289" lon="35.6855280">
<ele>347.000000</ele>
<time>2016-04-25T04:06:11.000Z</time>
</trkpt>
<trkpt lat="33.2474239" lon="35.6856415">
<ele>347.399994</ele>
<time>2016-04-25T04:06:15.000Z</time>
</trkpt>
<trkpt lat="33.2474166" lon="35.6857560">
<ele>347.600006</ele>
<time>2016-04-25T04:06:19.000Z</time>
</trkpt>
<trkpt lat="33.2474125" lon="35.6858727">
<ele>347.799988</ele>
<time>2016-04-25T04:06:23.000Z</time>
</trkpt>
<trkpt lat="33.2474050" lon="35.6859984">
<ele>348.000000</ele>
<time>2016-04-25T04:06:27.000Z</time>
</trkpt>
<trkpt lat="33.2474031" lon="35.6861257">
<ele>348.399994</ele>
<time>2016-04-25T04:06:31.000Z</time>
</trkpt>
<trkpt lat="33.2473969" lon="35.6862531">
<ele>349.000031</ele>
<time>2016-04-25T04:06:35.000Z</time>
</trkpt>
<trkpt lat="33.2473939" lon="35.6863900">
<ele>349.799957</ele>
<time>2016-04-25T04:06:39.000Z</time>
</trkpt>
<trkpt lat="33.2473911" lon="35.6865279">
<ele>350.000000</ele>
<time>2016-04-25T04:06:43.000Z</time>
</trkpt>
<trkpt lat="33.2473809" lon="35.6866624">
<ele>350.000000</ele>
<time>2016-04-25T04:06:47.000Z</time>
</trkpt>
<trkpt lat="33.2473748" lon="35.6867964">
<ele>350.200012</ele>
<time>2016-04-25T04:06:51.000Z</time>
</trkpt>
<trkpt lat="33.2473660" lon="35.6869251">
<ele>350.399994</ele>
<time>2016-04-25T04:06:55.000Z</time>
</trkpt>
<trkpt lat="33.2473522" lon="35.6870535">
<ele>350.200012</ele>
<time>2016-04-25T04:06:59.000Z</time>
</trkpt>
<trkpt lat="33.2473488" lon="35.6871846">
<ele>350.000000</ele>
<time>2016-04-25T04:07:03.000Z</time>
</trkpt>
<trkpt lat="33.2473390" lon="35.6873170">
<ele>350.000000</ele>
<time>2016-04-25T04:07:07.000Z</time>
</trkpt>
<trkpt lat="33.2473324" lon="35.6874495">
<ele>350.000000</ele>
<time>2016-04-25T04:07:11.000Z</time>
</trkpt>
<trkpt lat="33.2473337" lon="35.6875876">
<ele>350.000000</ele>
<time>2016-04-25T04:07:15.000Z</time>
</trkpt>
<trkpt lat="33.2473275" lon="35.6877001">
<ele>350.000000</ele>
<time>2016-04-25T04:07:18.000Z</time>
</trkpt>
<trkpt lat="33.2473208" lon="35.6878177">
<ele>349.399994</ele>
<time>2016-04-25T04:07:21.000Z</time>
</trkpt>
<trkpt lat="33.2473227" lon="35.6879404">
<ele>349.000031</ele>
<time>2016-04-25T04:07:24.000Z</time>
</trkpt>
<trkpt lat="33.2473285" lon="35.6880576">
<ele>348.600006</ele>
<time>2016-04-25T04:07:27.000Z</time>
</trkpt>
<trkpt lat="33.2473301" lon="35.6881682">
<ele>348.600006</ele>
<time>2016-04-25T04:07:30.000Z</time>
</trkpt>
<trkpt lat="33.2473266" lon="35.6882913">
<ele>348.399994</ele>
<time>2016-04-25T04:07:33.000Z</time>
</trkpt>
<trkpt lat="33.2473279" lon="35.6884391">
<ele>348.600006</ele>
<time>2016-04-25T04:07:36.000Z</time>
</trkpt>
<trkpt lat="33.2473337" lon="35.6885480">
<ele>348.600006</ele>
<time>2016-04-25T04:07:38.000Z</time>
</trkpt>
<trkpt lat="33.2473441" lon="35.6886619">
<ele>348.200043</ele>
<time>2016-04-25T04:07:40.000Z</time>
</trkpt>
<trkpt lat="33.2473481" lon="35.6887826">
<ele>347.600006</ele>
<time>2016-04-25T04:07:42.000Z</time>
</trkpt>
<trkpt lat="33.2473488" lon="35.6889077">
<ele>347.000000</ele>
<time>2016-04-25T04:07:44.000Z</time>
</trkpt>
<trkpt lat="33.2473551" lon="35.6890411">
<ele>346.600006</ele>
<time>2016-04-25T04:07:46.000Z</time>
</trkpt>
<trkpt lat="33.2473622" lon="35.6891755">
<ele>346.399994</ele>
<time>2016-04-25T04:07:48.000Z</time>
</trkpt>
<trkpt lat="33.2473672" lon="35.6893078">
<ele>346.200012</ele>
<time>2016-04-25T04:07:50.000Z</time>
</trkpt>
<trkpt lat="33.2473743" lon="35.6894421">
<ele>346.000031</ele>
<time>2016-04-25T04:07:52.000Z</time>
</trkpt>
<trkpt lat="33.2473826" lon="35.6895755">
<ele>346.399994</ele>
<time>2016-04-25T04:07:54.000Z</time>
</trkpt>
<trkpt lat="33.2473920" lon="35.6897039">
<ele>346.800018</ele>
<time>2016-04-25T04:07:56.000Z</time>
</trkpt>
<trkpt lat="33.2473997" lon="35.6898264">
<ele>346.600006</ele>
<time>2016-04-25T04:07:58.000Z</time>
</trkpt>
<trkpt lat="33.2474086" lon="35.6899446">
<ele>346.399994</ele>
<time>2016-04-25T04:08:00.000Z</time>
</trkpt>
<trkpt lat="33.2474218" lon="35.6900590">
<ele>346.200012</ele>
<time>2016-04-25T04:08:02.000Z</time>
</trkpt>
<trkpt lat="33.2474377" lon="35.6901744">
<ele>346.000031</ele>
<time>2016-04-25T04:08:04.000Z</time>
</trkpt>
<trkpt lat="33.2474672" lon="35.6902885">
<ele>346.000031</ele>
<time>2016-04-25T04:08:06.000Z</time>
</trkpt>
<trkpt lat="33.2475094" lon="35.6904056">
<ele>346.200012</ele>
<time>2016-04-25T04:08:08.000Z</time>
</trkpt>
<trkpt lat="33.2475637" lon="35.6905167">
<ele>346.600006</ele>
<time>2016-04-25T04:08:10.000Z</time>
</trkpt>
<trkpt lat="33.2476280" lon="35.6906219">
<ele>347.399994</ele>
<time>2016-04-25T04:08:12.000Z</time>
</trkpt>
<trkpt lat="33.2476988" lon="35.6907239">
<ele>347.600006</ele>
<time>2016-04-25T04:08:14.000Z</time>
</trkpt>
<trkpt lat="33.2477736" lon="35.6908261">
<ele>347.799988</ele>
<time>2016-04-25T04:08:16.000Z</time>
</trkpt>
<trkpt lat="33.2478539" lon="35.6909298">
<ele>347.799988</ele>
<time>2016-04-25T04:08:18.000Z</time>
</trkpt>
<trkpt lat="33.2479353" lon="35.6910367">
<ele>348.000000</ele>
<time>2016-04-25T04:08:20.000Z</time>
</trkpt>
<trkpt lat="33.2480154" lon="35.6911460">
<ele>348.200043</ele>
<time>2016-04-25T04:08:22.000Z</time>
</trkpt>
<trkpt lat="33.2480920" lon="35.6912549">
<ele>348.399994</ele>
<time>2016-04-25T04:08:24.000Z</time>
</trkpt>
<trkpt lat="33.2481550" lon="35.6913719">
<ele>348.799988</ele>
<time>2016-04-25T04:08:26.000Z</time>
</trkpt>
<trkpt lat="33.2481994" lon="35.6914967">
<ele>349.200012</ele>
<time>2016-04-25T04:08:28.000Z</time>
</trkpt>
<trkpt lat="33.2482170" lon="35.6916284">
<ele>349.799957</ele>
<time>2016-04-25T04:08:30.000Z</time>
</trkpt>
<trkpt lat="33.2482044" lon="35.6917636">
<ele>350.600006</ele>
<time>2016-04-25T04:08:32.000Z</time>
</trkpt>
<trkpt lat="33.2481594" lon="35.6918855">
<ele>351.199982</ele>
<time>2016-04-25T04:08:34.000Z</time>
</trkpt>
<trkpt lat="33.2480908" lon="35.6919805">
<ele>351.799988</ele>
<time>2016-04-25T04:08:36.000Z</time>
</trkpt>
<trkpt lat="33.2480025" lon="35.6920437">
<ele>352.399994</ele>
<time>2016-04-25T04:08:38.000Z</time>
</trkpt>
<trkpt lat="33.2479110" lon="35.6920831">
<ele>352.799957</ele>
<time>2016-04-25T04:08:40.000Z</time>
</trkpt>
<trkpt lat="33.2477869" lon="35.6921254">
<ele>353.200012</ele>
<time>2016-04-25T04:08:43.000Z</time>
</trkpt>
<trkpt lat="33.2477031" lon="35.6921859">
<ele>353.799988</ele>
<time>2016-04-25T04:08:46.000Z</time>
</trkpt>
<trkpt lat="33.2476374" lon="35.6922844">
<ele>354.399994</ele>
<time>2016-04-25T04:08:50.000Z</time>
</trkpt>
<trkpt lat="33.2475809" lon="35.6923880">
<ele>354.799988</ele>
<time>2016-04-25T04:08:54.000Z</time>
</trkpt>
<trkpt lat="33.2474798" lon="35.6924623">
<ele>355.000000</ele>
<time>2016-04-25T04:08:58.000Z</time>
</trkpt>
<trkpt lat="33.2473690" lon="35.6924527">
<ele>354.600006</ele>
<time>2016-04-25T04:09:01.000Z</time>
</trkpt>
<trkpt lat="33.2472500" lon="35.6924162">
<ele>354.200012</ele>
<time>2016-04-25T04:09:04.000Z</time>
</trkpt>
<trkpt lat="33.2471355" lon="35.6923748">
<ele>353.600006</ele>
<time>2016-04-25T04:09:07.000Z</time>
</trkpt>
<trkpt lat="33.2470228" lon="35.6923227">
<ele>353.200012</ele>
<time>2016-04-25T04:09:10.000Z</time>
</trkpt>
<trkpt lat="33.2469081" lon="35.6922586">
<ele>352.600037</ele>
<time>2016-04-25T04:09:13.000Z</time>
</trkpt>
<trkpt lat="33.2467806" lon="35.6921788">
<ele>351.799988</ele>
<time>2016-04-25T04:09:16.000Z</time>
</trkpt>
<trkpt lat="33.2466894" lon="35.6921245">
<ele>351.600006</ele>
<time>2016-04-25T04:09:18.000Z</time>
</trkpt>
<trkpt lat="33.2466014" lon="35.6920687">
<ele>351.199982</ele>
<time>2016-04-25T04:09:20.000Z</time>
</trkpt>
<trkpt lat="33.2465160" lon="35.6920097">
<ele>350.799988</ele>
<time>2016-04-25T04:09:22.000Z</time>
</trkpt>
<trkpt lat="33.2464373" lon="35.6919421">
<ele>350.399994</ele>
<time>2016-04-25T04:09:24.000Z</time>
</trkpt>
<trkpt lat="33.2463485" lon="35.6918788">
<ele>350.000000</ele>
<time>2016-04-25T04:09:26.000Z</time>
</trkpt>
<trkpt lat="33.2462543" lon="35.6918184">
<ele>349.799957</ele>
<time>2016-04-25T04:09:28.000Z</time>
</trkpt>
<trkpt lat="33.2461527" lon="35.6917579">
<ele>349.399994</ele>
<time>2016-04-25T04:09:30.000Z</time>
</trkpt>
<trkpt lat="33.2460439" lon="35.6916925">
<ele>349.000031</ele>
<time>2016-04-25T04:09:32.000Z</time>
</trkpt>
<trkpt lat="33.2459243" lon="35.6916224">
<ele>348.600006</ele>
<time>2016-04-25T04:09:34.000Z</time>
</trkpt>
<trkpt lat="33.2457989" lon="35.6915524">
<ele>348.000000</ele>
<time>2016-04-25T04:09:36.000Z</time>
</trkpt>
<trkpt lat="33.2456692" lon="35.6914785">
<ele>347.399994</ele>
<time>2016-04-25T04:09:38.000Z</time>
</trkpt>
<trkpt lat="33.2455385" lon="35.6914050">
<ele>346.800018</ele>
<time>2016-04-25T04:09:40.000Z</time>
</trkpt>
<trkpt lat="33.2454140" lon="35.6913336">
<ele>346.399994</ele>
<time>2016-04-25T04:09:42.000Z</time>
</trkpt>
<trkpt lat="33.2452968" lon="35.6912675">
<ele>346.399994</ele>
<time>2016-04-25T04:09:44.000Z</time>
</trkpt>
<trkpt lat="33.2451880" lon="35.6912106">
<ele>346.200012</ele>
<time>2016-04-25T04:09:46.000Z</time>
</trkpt>
<trkpt lat="33.2450876" lon="35.6911548">
<ele>346.600006</ele>
<time>2016-04-25T04:09:48.000Z</time>
</trkpt>
<trkpt lat="33.2449976" lon="35.6911032">
<ele>347.600006</ele>
<time>2016-04-25T04:09:50.000Z</time>
</trkpt>
<trkpt lat="33.2448832" lon="35.6910443">
<ele>349.000031</ele>
<time>2016-04-25T04:09:53.000Z</time>
</trkpt>
<trkpt lat="33.2447941" lon="35.6909961">
<ele>350.000000</ele>
<time>2016-04-25T04:09:56.000Z</time>
</trkpt>
<trkpt lat="33.2446960" lon="35.6909386">
<ele>351.199982</ele>
<time>2016-04-25T04:10:00.000Z</time>
</trkpt>
<trkpt lat="33.2445926" lon="35.6908831">
<ele>352.399994</ele>
<time>2016-04-25T04:10:05.000Z</time>
</trkpt>
<trkpt lat="33.2444988" lon="35.6908336">
<ele>353.799988</ele>
<time>2016-04-25T04:10:10.000Z</time>
</trkpt>
<trkpt lat="33.2444114" lon="35.6907884">
<ele>354.799988</ele>
<time>2016-04-25T04:10:15.000Z</time>
</trkpt>
<trkpt lat="33.2443239" lon="35.6907542">
<ele>356.000000</ele>
<time>2016-04-25T04:10:20.000Z</time>
</trkpt>
<trkpt lat="33.2442397" lon="35.6907188">
<ele>357.200012</ele>
<time>2016-04-25T04:10:25.000Z</time>
</trkpt>
<trkpt lat="33.2441469" lon="35.6906801">
<ele>358.399994</ele>
<time>2016-04-25T04:10:31.000Z</time>
</trkpt>
<trkpt lat="33.2440580" lon="35.6906373">
<ele>359.600006</ele>
<time>2016-04-25T04:10:37.000Z</time>
</trkpt>
<trkpt lat="33.2439772" lon="35.6905814">
<ele>360.600006</ele>
<time>2016-04-25T04:10:43.000Z</time>
</trkpt>
<trkpt lat="33.2439076" lon="35.6904968">
<ele>361.000000</ele>
<time>2016-04-25T04:10:49.000Z</time>
</trkpt>
<trkpt lat="33.2438539" lon="35.6903958">
<ele>360.399994</ele>
<time>2016-04-25T04:10:55.000Z</time>
</trkpt>
<trkpt lat="33.2438011" lon="35.6902958">
<ele>359.600006</ele>
<time>2016-04-25T04:11:01.000Z</time>
</trkpt>
<trkpt lat="33.2437447" lon="35.6901835">
<ele>358.799988</ele>
<time>2016-04-25T04:11:07.000Z</time>
</trkpt>
<trkpt lat="33.2436909" lon="35.6900812">
<ele>358.200012</ele>
<time>2016-04-25T04:11:12.000Z</time>
</trkpt>
<trkpt lat="33.2436087" lon="35.6899900">
<ele>358.000000</ele>
<time>2016-04-25T04:11:17.000Z</time>
</trkpt>
<trkpt lat="33.2435069" lon="35.6899326">
<ele>358.599976</ele>
<time>2016-04-25T04:11:22.000Z</time>
</trkpt>
<trkpt lat="33.2434020" lon="35.6899234">
<ele>359.000000</ele>
<time>2016-04-25T04:11:27.000Z</time>
</trkpt>
<trkpt lat="33.2432995" lon="35.6899644">
<ele>359.200043</ele>
<time>2016-04-25T04:11:33.000Z</time>
</trkpt>
<trkpt lat="33.2432166" lon="35.6900476">
<ele>360.200012</ele>
<time>2016-04-25T04:11:39.000Z</time>
</trkpt>
<trkpt lat="33.2431529" lon="35.6901411">
<ele>361.200012</ele>
<time>2016-04-25T04:11:44.000Z</time>
</trkpt>
<trkpt lat="33.2430933" lon="35.6902511">
<ele>362.600006</ele>
<time>2016-04-25T04:11:50.000Z</time>
</trkpt>
<trkpt lat="33.2430405" lon="35.6903538">
<ele>363.600006</ele>
<time>2016-04-25T04:11:56.000Z</time>
</trkpt>
<trkpt lat="33.2429913" lon="35.6904572">
<ele>364.799988</ele>
<time>2016-04-25T04:12:02.000Z</time>
</trkpt>
<trkpt lat="33.2429327" lon="35.6905553">
<ele>365.600006</ele>
<time>2016-04-25T04:12:08.000Z</time>
</trkpt>
<trkpt lat="33.2428885" lon="35.6906517">
<ele>365.799988</ele>
<time>2016-04-25T04:12:14.000Z</time>
</trkpt>
<trkpt lat="33.2428317" lon="35.6907469">
<ele>366.000000</ele>
<time>2016-04-25T04:12:20.000Z</time>
</trkpt>
<trkpt lat="33.2427772" lon="35.6908425">
<ele>367.400024</ele>
<time>2016-04-25T04:12:26.000Z</time>
</trkpt>
<trkpt lat="33.2427215" lon="35.6909390">
<ele>368.600006</ele>
<time>2016-04-25T04:12:32.000Z</time>
</trkpt>
<trkpt lat="33.2426614" lon="35.6910434">
<ele>370.000000</ele>
<time>2016-04-25T04:12:38.000Z</time>
</trkpt>
<trkpt lat="33.2426067" lon="35.6911447">
<ele>371.200012</ele>
<time>2016-04-25T04:12:44.000Z</time>
</trkpt>
<trkpt lat="33.2425538" lon="35.6912488">
<ele>372.200012</ele>
<time>2016-04-25T04:12:50.000Z</time>
</trkpt>
<trkpt lat="33.2425092" lon="35.6913490">
<ele>373.200043</ele>
<time>2016-04-25T04:12:56.000Z</time>
</trkpt>
<trkpt lat="33.2424786" lon="35.6914551">
<ele>373.200043</ele>
<time>2016-04-25T04:13:02.000Z</time>
</trkpt>
<trkpt lat="33.2424571" lon="35.6915711">
<ele>373.200043</ele>
<time>2016-04-25T04:13:08.000Z</time>
</trkpt>
<trkpt lat="33.2424619" lon="35.6916881">
<ele>373.399994</ele>
<time>2016-04-25T04:13:14.000Z</time>
</trkpt>
<trkpt lat="33.2424794" lon="35.6918054">
<ele>373.600006</ele>
<time>2016-04-25T04:13:20.000Z</time>
</trkpt>
<trkpt lat="33.2425151" lon="35.6919254">
<ele>374.000031</ele>
<time>2016-04-25T04:13:26.000Z</time>
</trkpt>
<trkpt lat="33.2425529" lon="35.6920458">
<ele>374.399994</ele>
<time>2016-04-25T04:13:32.000Z</time>
</trkpt>
<trkpt lat="33.2425860" lon="35.6921694">
<ele>374.800018</ele>
<time>2016-04-25T04:13:38.000Z</time>
</trkpt>
<trkpt lat="33.2426102" lon="35.6922961">
<ele>375.000000</ele>
<time>2016-04-25T04:13:44.000Z</time>
</trkpt>
<trkpt lat="33.2426518" lon="35.6924134">
<ele>375.000000</ele>
<time>2016-04-25T04:13:50.000Z</time>
</trkpt>
<trkpt lat="33.2426795" lon="35.6925273">
<ele>374.800018</ele>
<time>2016-04-25T04:13:55.000Z</time>
</trkpt>
<trkpt lat="33.2427049" lon="35.6926323">
<ele>374.800018</ele>
<time>2016-04-25T04:13:59.000Z</time>
</trkpt>
<trkpt lat="33.2427367" lon="35.6927719">
<ele>374.800018</ele>
<time>2016-04-25T04:14:03.000Z</time>
</trkpt>
<trkpt lat="33.2427635" lon="35.6928848">
<ele>374.600006</ele>
<time>2016-04-25T04:14:06.000Z</time>
</trkpt>
<trkpt lat="33.2428059" lon="35.6930214">
<ele>374.600006</ele>
<time>2016-04-25T04:14:09.000Z</time>
</trkpt>
<trkpt lat="33.2428363" lon="35.6931640">
<ele>375.200012</ele>
<time>2016-04-25T04:14:12.000Z</time>
</trkpt>
<trkpt lat="33.2428683" lon="35.6932945">
<ele>375.799988</ele>
<time>2016-04-25T04:14:15.000Z</time>
</trkpt>
<trkpt lat="33.2428966" lon="35.6934097">
<ele>376.000000</ele>
<time>2016-04-25T04:14:18.000Z</time>
</trkpt>
<trkpt lat="33.2429248" lon="35.6935179">
<ele>376.000000</ele>
<time>2016-04-25T04:14:21.000Z</time>
</trkpt>
<trkpt lat="33.2429558" lon="35.6936292">
<ele>376.199982</ele>
<time>2016-04-25T04:14:24.000Z</time>
</trkpt>
<trkpt lat="33.2429860" lon="35.6937435">
<ele>376.399994</ele>
<time>2016-04-25T04:14:27.000Z</time>
</trkpt>
<trkpt lat="33.2430163" lon="35.6938493">
<ele>376.399994</ele>
<time>2016-04-25T04:14:30.000Z</time>
</trkpt>
<trkpt lat="33.2430515" lon="35.6939752">
<ele>376.600006</ele>
<time>2016-04-25T04:14:34.000Z</time>
</trkpt>
<trkpt lat="33.2430862" lon="35.6941066">
<ele>376.600006</ele>
<time>2016-04-25T04:14:38.000Z</time>
</trkpt>
<trkpt lat="33.2431246" lon="35.6942395">
<ele>376.799988</ele>
<time>2016-04-25T04:14:42.000Z</time>
</trkpt>
<trkpt lat="33.2431582" lon="35.6943590">
<ele>376.999969</ele>
<time>2016-04-25T04:14:46.000Z</time>
</trkpt>
<trkpt lat="33.2431844" lon="35.6944726">
<ele>376.999969</ele>
<time>2016-04-25T04:14:50.000Z</time>
</trkpt>
<trkpt lat="33.2432125" lon="35.6945945">
<ele>376.999969</ele>
<time>2016-04-25T04:14:54.000Z</time>
</trkpt>
<trkpt lat="33.2432435" lon="35.6947116">
<ele>376.999969</ele>
<time>2016-04-25T04:14:58.000Z</time>
</trkpt>
<trkpt lat="33.2432674" lon="35.6948384">
<ele>376.999969</ele>
<time>2016-04-25T04:15:02.000Z</time>
</trkpt>
<trkpt lat="33.2433020" lon="35.6949671">
<ele>377.200012</ele>
<time>2016-04-25T04:15:06.000Z</time>
</trkpt>
<trkpt lat="33.2433355" lon="35.6950946">
<ele>377.399994</ele>
<time>2016-04-25T04:15:10.000Z</time>
</trkpt>
<trkpt lat="33.2433528" lon="35.6952297">
<ele>377.399994</ele>
<time>2016-04-25T04:15:14.000Z</time>
</trkpt>
<trkpt lat="33.2433637" lon="35.6953646">
<ele>377.600037</ele>
<time>2016-04-25T04:15:18.000Z</time>
</trkpt>
<trkpt lat="33.2433606" lon="35.6955025">
<ele>377.799957</ele>
<time>2016-04-25T04:15:22.000Z</time>
</trkpt>
<trkpt lat="33.2433576" lon="35.6956388">
<ele>378.400024</ele>
<time>2016-04-25T04:15:26.000Z</time>
</trkpt>
<trkpt lat="33.2433487" lon="35.6957672">
<ele>378.799988</ele>
<time>2016-04-25T04:15:30.000Z</time>
</trkpt>
<trkpt lat="33.2433366" lon="35.6958742">
<ele>379.200012</ele>
<time>2016-04-25T04:15:34.000Z</time>
</trkpt>
<trkpt lat="33.2433174" lon="35.6959859">
<ele>379.600006</ele>
<time>2016-04-25T04:15:39.000Z</time>
</trkpt>
<trkpt lat="33.2433175" lon="35.6960941">
<ele>380.000000</ele>
<time>2016-04-25T04:15:44.000Z</time>
</trkpt>
<trkpt lat="33.2433004" lon="35.6962078">
<ele>380.399994</ele>
<time>2016-04-25T04:15:50.000Z</time>
</trkpt>
<trkpt lat="33.2432767" lon="35.6963296">
<ele>382.000000</ele>
<time>2016-04-25T04:15:56.000Z</time>
</trkpt>
<trkpt lat="33.2432484" lon="35.6964444">
<ele>382.799988</ele>
<time>2016-04-25T04:16:02.000Z</time>
</trkpt>
<trkpt lat="33.2432074" lon="35.6965447">
<ele>383.599976</ele>
<time>2016-04-25T04:16:08.000Z</time>
</trkpt>
<trkpt lat="33.2431629" lon="35.6966415">
<ele>384.399963</ele>
<time>2016-04-25T04:16:14.000Z</time>
</trkpt>
<trkpt lat="33.2431130" lon="35.6967326">
<ele>385.200012</ele>
<time>2016-04-25T04:16:20.000Z</time>
</trkpt>
<trkpt lat="33.2430597" lon="35.6968450">
<ele>386.200012</ele>
<time>2016-04-25T04:16:27.000Z</time>
</trkpt>
<trkpt lat="33.2430069" lon="35.6969420">
<ele>387.399994</ele>
<time>2016-04-25T04:16:33.000Z</time>
</trkpt>
<trkpt lat="33.2429586" lon="35.6970420">
<ele>388.600006</ele>
<time>2016-04-25T04:16:39.000Z</time>
</trkpt>
<trkpt lat="33.2429111" lon="35.6971402">
<ele>389.799988</ele>
<time>2016-04-25T04:16:45.000Z</time>
</trkpt>
<trkpt lat="33.2428674" lon="35.6972401">
<ele>391.000000</ele>
<time>2016-04-25T04:16:51.000Z</time>
</trkpt>
<trkpt lat="33.2428159" lon="35.6973369">
<ele>392.200012</ele>
<time>2016-04-25T04:16:57.000Z</time>
</trkpt>
<trkpt lat="33.2427652" lon="35.6974334">
<ele>393.200012</ele>
<time>2016-04-25T04:17:03.000Z</time>
</trkpt>
<trkpt lat="33.2427052" lon="35.6975304">
<ele>394.000000</ele>
<time>2016-04-25T04:17:09.000Z</time>
</trkpt>
<trkpt lat="33.2426362" lon="35.6976246">
<ele>395.000000</ele>
<time>2016-04-25T04:17:15.000Z</time>
</trkpt>
<trkpt lat="33.2425623" lon="35.6977047">
<ele>395.600006</ele>
<time>2016-04-25T04:17:20.000Z</time>
</trkpt>
<trkpt lat="33.2424856" lon="35.6977786">
<ele>396.200012</ele>
<time>2016-04-25T04:17:25.000Z</time>
</trkpt>
<trkpt lat="33.2424156" lon="35.6978527">
<ele>396.600006</ele>
<time>2016-04-25T04:17:30.000Z</time>
</trkpt>
<trkpt lat="33.2423380" lon="35.6979221">
<ele>397.399994</ele>
<time>2016-04-25T04:17:35.000Z</time>
</trkpt>
<trkpt lat="33.2422557" lon="35.6980038">
<ele>398.200043</ele>
<time>2016-04-25T04:17:41.000Z</time>
</trkpt>
<trkpt lat="33.2421728" lon="35.6980861">
<ele>398.799988</ele>
<time>2016-04-25T04:17:47.000Z</time>
</trkpt>
<trkpt lat="33.2421002" lon="35.6981529">
<ele>399.399994</ele>
<time>2016-04-25T04:17:52.000Z</time>
</trkpt>
<trkpt lat="33.2420272" lon="35.6982204">
<ele>399.800018</ele>
<time>2016-04-25T04:17:57.000Z</time>
</trkpt>
<trkpt lat="33.2419526" lon="35.6982870">
<ele>400.399994</ele>
<time>2016-04-25T04:18:02.000Z</time>
</trkpt>
<trkpt lat="33.2418782" lon="35.6983498">
<ele>401.000000</ele>
<time>2016-04-25T04:18:07.000Z</time>
</trkpt>
<trkpt lat="33.2417807" lon="35.6984054">
<ele>401.799988</ele>
<time>2016-04-25T04:18:13.000Z</time>
</trkpt>
<trkpt lat="33.2416819" lon="35.6984345">
<ele>402.799957</ele>
<time>2016-04-25T04:18:19.000Z</time>
</trkpt>
<trkpt lat="33.2415804" lon="35.6984252">
<ele>403.600006</ele>
<time>2016-04-25T04:18:25.000Z</time>
</trkpt>
<trkpt lat="33.2414833" lon="35.6983892">
<ele>404.200012</ele>
<time>2016-04-25T04:18:31.000Z</time>
</trkpt>
<trkpt lat="33.2413978" lon="35.6983425">
<ele>404.799988</ele>
<time>2016-04-25T04:18:37.000Z</time>
</trkpt>
<trkpt lat="33.2413064" lon="35.6982874">
<ele>405.200012</ele>
<time>2016-04-25T04:18:44.000Z</time>
</trkpt>
<trkpt lat="33.2412224" lon="35.6982415">
<ele>405.799988</ele>
<time>2016-04-25T04:18:50.000Z</time>
</trkpt>
<trkpt lat="33.2411295" lon="35.6982032">
<ele>406.400024</ele>
<time>2016-04-25T04:18:57.000Z</time>
</trkpt>
<trkpt lat="33.2410327" lon="35.6981818">
<ele>407.000000</ele>
<time>2016-04-25T04:19:04.000Z</time>
</trkpt>
<trkpt lat="33.2409321" lon="35.6982019">
<ele>407.799988</ele>
<time>2016-04-25T04:19:11.000Z</time>
</trkpt>
<trkpt lat="33.2408460" lon="35.6982536">
<ele>408.200012</ele>
<time>2016-04-25T04:19:17.000Z</time>
</trkpt>
<trkpt lat="33.2407806" lon="35.6983376">
<ele>408.599976</ele>
<time>2016-04-25T04:19:23.000Z</time>
</trkpt>
<trkpt lat="33.2407345" lon="35.6984485">
<ele>409.200043</ele>
<time>2016-04-25T04:19:30.000Z</time>
</trkpt>
<trkpt lat="33.2407205" lon="35.6985714">
<ele>409.799988</ele>
<time>2016-04-25T04:19:36.000Z</time>
</trkpt>
<trkpt lat="33.2407111" lon="35.6986934">
<ele>410.600006</ele>
<time>2016-04-25T04:19:41.000Z</time>
</trkpt>
<trkpt lat="33.2407070" lon="35.6988141">
<ele>411.200012</ele>
<time>2016-04-25T04:19:46.000Z</time>
</trkpt>
<trkpt lat="33.2407070" lon="35.6989313">
<ele>412.000000</ele>
<time>2016-04-25T04:19:51.000Z</time>
</trkpt>
<trkpt lat="33.2407058" lon="35.6990463">
<ele>412.600006</ele>
<time>2016-04-25T04:19:56.000Z</time>
</trkpt>
<trkpt lat="33.2407060" lon="35.6991588">
<ele>413.399994</ele>
<time>2016-04-25T04:20:01.000Z</time>
</trkpt>
<trkpt lat="33.2407032" lon="35.6992868">
<ele>414.200012</ele>
<time>2016-04-25T04:20:07.000Z</time>
</trkpt>
<trkpt lat="33.2406967" lon="35.6994084">
<ele>414.799988</ele>
<time>2016-04-25T04:20:13.000Z</time>
</trkpt>
<trkpt lat="33.2406927" lon="35.6995202">
<ele>415.600006</ele>
<time>2016-04-25T04:20:18.000Z</time>
</trkpt>
<trkpt lat="33.2406808" lon="35.6996481">
<ele>416.399994</ele>
<time>2016-04-25T04:20:24.000Z</time>
</trkpt>
<trkpt lat="33.2406610" lon="35.6997545">
<ele>417.000000</ele>
<time>2016-04-25T04:20:30.000Z</time>
</trkpt>
<trkpt lat="33.2406298" lon="35.6998725">
<ele>417.799988</ele>
<time>2016-04-25T04:20:37.000Z</time>
</trkpt>
<trkpt lat="33.2405991" lon="35.6999702">
<ele>418.399994</ele>
<time>2016-04-25T04:20:43.000Z</time>
</trkpt>
<trkpt lat="33.2405530" lon="35.7000794">
<ele>419.200012</ele>
<time>2016-04-25T04:20:50.000Z</time>
</trkpt>
<trkpt lat="33.2405174" lon="35.7001887">
<ele>420.000000</ele>
<time>2016-04-25T04:20:57.000Z</time>
</trkpt>
<trkpt lat="33.2404799" lon="35.7003001">
<ele>420.799988</ele>
<time>2016-04-25T04:21:05.000Z</time>
</trkpt>
<trkpt lat="33.2404349" lon="35.7004151">
<ele>421.600006</ele>
<time>2016-04-25T04:21:13.000Z</time>
</trkpt>
<trkpt lat="33.2403955" lon="35.7005160">
<ele>422.200012</ele>
<time>2016-04-25T04:21:20.000Z</time>
</trkpt>
<trkpt lat="33.2403571" lon="35.7006219">
<ele>423.000000</ele>
<time>2016-04-25T04:21:27.000Z</time>
</trkpt>
<trkpt lat="33.2403178" lon="35.7007327">
<ele>423.799988</ele>
<time>2016-04-25T04:21:34.000Z</time>
</trkpt>
<trkpt lat="33.2402782" lon="35.7008331">
<ele>425.200012</ele>
<time>2016-04-25T04:21:41.000Z</time>
</trkpt>
<trkpt lat="33.2402425" lon="35.7009355">
<ele>426.799988</ele>
<time>2016-04-25T04:21:48.000Z</time>
</trkpt>
<trkpt lat="33.2402041" lon="35.7010289">
<ele>428.200012</ele>
<time>2016-04-25T04:21:55.000Z</time>
</trkpt>
<trkpt lat="33.2401628" lon="35.7011373">
<ele>430.000000</ele>
<time>2016-04-25T04:22:03.000Z</time>
</trkpt>
<trkpt lat="33.2401204" lon="35.7012496">
<ele>431.600006</ele>
<time>2016-04-25T04:22:11.000Z</time>
</trkpt>
<trkpt lat="33.2400800" lon="35.7013625">
<ele>432.799988</ele>
<time>2016-04-25T04:22:19.000Z</time>
</trkpt>
<trkpt lat="33.2400404" lon="35.7014738">
<ele>433.200012</ele>
<time>2016-04-25T04:22:27.000Z</time>
</trkpt>
<trkpt lat="33.2400002" lon="35.7015783">
<ele>433.399994</ele>
<time>2016-04-25T04:22:35.000Z</time>
</trkpt>
<trkpt lat="33.2399562" lon="35.7016852">
<ele>433.799988</ele>
<time>2016-04-25T04:22:43.000Z</time>
</trkpt>
<trkpt lat="33.2399271" lon="35.7017825">
<ele>434.000000</ele>
<time>2016-04-25T04:22:51.000Z</time>
</trkpt>
<trkpt lat="33.2398842" lon="35.7018930">
<ele>434.399963</ele>
<time>2016-04-25T04:22:59.000Z</time>
</trkpt>
<trkpt lat="33.2398479" lon="35.7019917">
<ele>435.399994</ele>
<time>2016-04-25T04:23:06.000Z</time>
</trkpt>
<trkpt lat="33.2398017" lon="35.7020987">
<ele>437.000000</ele>
<time>2016-04-25T04:23:14.000Z</time>
</trkpt>
<trkpt lat="33.2397640" lon="35.7022107">
<ele>438.799957</ele>
<time>2016-04-25T04:23:22.000Z</time>
</trkpt>
<trkpt lat="33.2397278" lon="35.7023212">
<ele>438.799957</ele>
<time>2016-04-25T04:23:30.000Z</time>
</trkpt>
<trkpt lat="33.2396895" lon="35.7024149">
<ele>439.000000</ele>
<time>2016-04-25T04:23:38.000Z</time>
</trkpt>
<trkpt lat="33.2396505" lon="35.7025233">
<ele>439.200012</ele>
<time>2016-04-25T04:23:46.000Z</time>
</trkpt>
<trkpt lat="33.2396064" lon="35.7026273">
<ele>440.600006</ele>
<time>2016-04-25T04:23:54.000Z</time>
</trkpt>
<trkpt lat="33.2395622" lon="35.7027397">
<ele>442.200012</ele>
<time>2016-04-25T04:24:02.000Z</time>
</trkpt>
<trkpt lat="33.2394974" lon="35.7028219">
<ele>444.000000</ele>
<time>2016-04-25T04:24:09.000Z</time>
</trkpt>
<trkpt lat="33.2394211" lon="35.7028959">
<ele>445.799988</ele>
<time>2016-04-25T04:24:16.000Z</time>
</trkpt>
<trkpt lat="33.2393269" lon="35.7029392">
<ele>447.599976</ele>
<time>2016-04-25T04:24:23.000Z</time>
</trkpt>
<trkpt lat="33.2392336" lon="35.7029694">
<ele>448.000000</ele>
<time>2016-04-25T04:24:30.000Z</time>
</trkpt>
<trkpt lat="33.2391340" lon="35.7029892">
<ele>447.799988</ele>
<time>2016-04-25T04:24:37.000Z</time>
</trkpt>
<trkpt lat="33.2390482" lon="35.7030188">
<ele>447.599976</ele>
<time>2016-04-25T04:24:44.000Z</time>
</trkpt>
<trkpt lat="33.2390221" lon="35.7031249">
<ele>448.399994</ele>
<time>2016-04-25T04:24:50.000Z</time>
</trkpt>
<trkpt lat="33.2390321" lon="35.7031675">
<ele>448.799988</ele>
<time>2016-04-25T04:30:58.000Z</time>
</trkpt>
<trkpt lat="33.2390838" lon="35.7033092">
<ele>450.399994</ele>
<time>2016-04-25T04:31:43.000Z</time>
</trkpt>
<trkpt lat="33.2391041" lon="35.7034127">
<ele>451.199982</ele>
<time>2016-04-25T04:32:10.000Z</time>
</trkpt>
<trkpt lat="33.2391621" lon="35.7035079">
<ele>452.399994</ele>
<time>2016-04-25T04:33:22.000Z</time>
</trkpt>
<trkpt lat="33.2391921" lon="35.7036148">
<ele>453.399994</ele>
<time>2016-04-25T04:33:29.000Z</time>
</trkpt>
<trkpt lat="33.2392431" lon="35.7037192">
<ele>454.600006</ele>
<time>2016-04-25T04:33:36.000Z</time>
</trkpt>
<trkpt lat="33.2392861" lon="35.7038128">
<ele>455.600037</ele>
<time>2016-04-25T04:33:42.000Z</time>
</trkpt>
<trkpt lat="33.2393465" lon="35.7039085">
<ele>455.600037</ele>
<time>2016-04-25T04:33:49.000Z</time>
</trkpt>
<trkpt lat="33.2394034" lon="35.7040072">
<ele>455.799988</ele>
<time>2016-04-25T04:33:56.000Z</time>
</trkpt>
<trkpt lat="33.2394538" lon="35.7041009">
<ele>455.799988</ele>
<time>2016-04-25T04:34:02.000Z</time>
</trkpt>
<trkpt lat="33.2395092" lon="35.7041823">
<ele>455.799988</ele>
<time>2016-04-25T04:34:08.000Z</time>
</trkpt>
<trkpt lat="33.2395657" lon="35.7042697">
<ele>455.799988</ele>
<time>2016-04-25T04:34:14.000Z</time>
</trkpt>
<trkpt lat="33.2396224" lon="35.7043507">
<ele>455.799988</ele>
<time>2016-04-25T04:34:20.000Z</time>
</trkpt>
<trkpt lat="33.2396848" lon="35.7044495">
<ele>455.799988</ele>
<time>2016-04-25T04:34:27.000Z</time>
</trkpt>
<trkpt lat="33.2397410" lon="35.7045333">
<ele>455.600037</ele>
<time>2016-04-25T04:34:33.000Z</time>
</trkpt>
<trkpt lat="33.2398013" lon="35.7046231">
<ele>455.600037</ele>
<time>2016-04-25T04:34:39.000Z</time>
</trkpt>
<trkpt lat="33.2398630" lon="35.7047254">
<ele>455.799988</ele>
<time>2016-04-25T04:34:46.000Z</time>
</trkpt>
<trkpt lat="33.2399183" lon="35.7048238">
<ele>456.400024</ele>
<time>2016-04-25T04:34:53.000Z</time>
</trkpt>
<trkpt lat="33.2399625" lon="35.7049280">
<ele>457.200012</ele>
<time>2016-04-25T04:35:00.000Z</time>
</trkpt>
<trkpt lat="33.2400044" lon="35.7050325">
<ele>458.200012</ele>
<time>2016-04-25T04:35:07.000Z</time>
</trkpt>
<trkpt lat="33.2400365" lon="35.7051551">
<ele>459.200012</ele>
<time>2016-04-25T04:35:14.000Z</time>
</trkpt>
<trkpt lat="33.2400749" lon="35.7052776">
<ele>460.399994</ele>
<time>2016-04-25T04:35:21.000Z</time>
</trkpt>
<trkpt lat="33.2400998" lon="35.7053966">
<ele>461.600006</ele>
<time>2016-04-25T04:35:28.000Z</time>
</trkpt>
<trkpt lat="33.2401193" lon="35.7055121">
<ele>462.799988</ele>
<time>2016-04-25T04:35:35.000Z</time>
</trkpt>
<trkpt lat="33.2401373" lon="35.7056265">
<ele>463.600006</ele>
<time>2016-04-25T04:35:42.000Z</time>
</trkpt>
<trkpt lat="33.2401426" lon="35.7057459">
<ele>464.600006</ele>
<time>2016-04-25T04:35:49.000Z</time>
</trkpt>
<trkpt lat="33.2401549" lon="35.7058678">
<ele>465.600006</ele>
<time>2016-04-25T04:35:56.000Z</time>
</trkpt>
<trkpt lat="33.2401495" lon="35.7059821">
<ele>466.600037</ele>
<time>2016-04-25T04:36:03.000Z</time>
</trkpt>
<trkpt lat="33.2401438" lon="35.7060983">
<ele>467.600006</ele>
<time>2016-04-25T04:36:10.000Z</time>
</trkpt>
<trkpt lat="33.2401274" lon="35.7062081">
<ele>468.600006</ele>
<time>2016-04-25T04:36:17.000Z</time>
</trkpt>
<trkpt lat="33.2401063" lon="35.7063198">
<ele>469.799988</ele>
<time>2016-04-25T04:36:24.000Z</time>
</trkpt>
<trkpt lat="33.2400785" lon="35.7064385">
<ele>470.799988</ele>
<time>2016-04-25T04:36:31.000Z</time>
</trkpt>
<trkpt lat="33.2400520" lon="35.7065428">
<ele>471.600006</ele>
<time>2016-04-25T04:36:37.000Z</time>
</trkpt>
<trkpt lat="33.2400145" lon="35.7066579">
<ele>472.599976</ele>
<time>2016-04-25T04:36:44.000Z</time>
</trkpt>
<trkpt lat="33.2399781" lon="35.7067597">
<ele>473.399963</ele>
<time>2016-04-25T04:36:51.000Z</time>
</trkpt>
<trkpt lat="33.2399352" lon="35.7068622">
<ele>474.399994</ele>
<time>2016-04-25T04:36:58.000Z</time>
</trkpt>
<trkpt lat="33.2398893" lon="35.7069696">
<ele>475.200012</ele>
<time>2016-04-25T04:37:05.000Z</time>
</trkpt>
<trkpt lat="33.2398436" lon="35.7070768">
<ele>476.199982</ele>
<time>2016-04-25T04:37:12.000Z</time>
</trkpt>
<trkpt lat="33.2398051" lon="35.7071882">
<ele>477.200012</ele>
<time>2016-04-25T04:37:19.000Z</time>
</trkpt>
<trkpt lat="33.2397573" lon="35.7072918">
<ele>477.600006</ele>
<time>2016-04-25T04:37:26.000Z</time>
</trkpt>
<trkpt lat="33.2397068" lon="35.7074012">
<ele>477.799957</ele>
<time>2016-04-25T04:37:34.000Z</time>
</trkpt>
<trkpt lat="33.2396634" lon="35.7075006">
<ele>478.000000</ele>
<time>2016-04-25T04:37:41.000Z</time>
</trkpt>
<trkpt lat="33.2396241" lon="35.7075974">
<ele>478.399994</ele>
<time>2016-04-25T04:37:48.000Z</time>
</trkpt>
<trkpt lat="33.2395841" lon="35.7077057">
<ele>479.000000</ele>
<time>2016-04-25T04:37:56.000Z</time>
</trkpt>
<trkpt lat="33.2395408" lon="35.7078128">
<ele>479.799988</ele>
<time>2016-04-25T04:38:04.000Z</time>
</trkpt>
<trkpt lat="33.2394955" lon="35.7079117">
<ele>480.399994</ele>
<time>2016-04-25T04:38:11.000Z</time>
</trkpt>
<trkpt lat="33.2394596" lon="35.7080090">
<ele>481.200012</ele>
<time>2016-04-25T04:38:18.000Z</time>
</trkpt>
<trkpt lat="33.2394102" lon="35.7081122">
<ele>481.400024</ele>
<time>2016-04-25T04:38:26.000Z</time>
</trkpt>
<trkpt lat="33.2393719" lon="35.7082100">
<ele>482.000000</ele>
<time>2016-04-25T04:38:33.000Z</time>
</trkpt>
<trkpt lat="33.2393273" lon="35.7083096">
<ele>483.200012</ele>
<time>2016-04-25T04:38:41.000Z</time>
</trkpt>
<trkpt lat="33.2392829" lon="35.7084134">
<ele>484.399963</ele>
<time>2016-04-25T04:38:49.000Z</time>
</trkpt>
<trkpt lat="33.2392331" lon="35.7085235">
<ele>485.399994</ele>
<time>2016-04-25T04:38:57.000Z</time>
</trkpt>
<trkpt lat="33.2391906" lon="35.7086238">
<ele>486.000000</ele>
<time>2016-04-25T04:39:04.000Z</time>
</trkpt>
<trkpt lat="33.2391519" lon="35.7087234">
<ele>486.799988</ele>
<time>2016-04-25T04:39:11.000Z</time>
</trkpt>
<trkpt lat="33.2391109" lon="35.7088314">
<ele>487.000000</ele>
<time>2016-04-25T04:39:19.000Z</time>
</trkpt>
<trkpt lat="33.2390668" lon="35.7089283">
<ele>487.600006</ele>
<time>2016-04-25T04:39:26.000Z</time>
</trkpt>
<trkpt lat="33.2390255" lon="35.7090336">
<ele>488.600006</ele>
<time>2016-04-25T04:39:33.000Z</time>
</trkpt>
<trkpt lat="33.2389762" lon="35.7091357">
<ele>489.399994</ele>
<time>2016-04-25T04:39:40.000Z</time>
</trkpt>
<trkpt lat="33.2389355" lon="35.7092339">
<ele>490.399994</ele>
<time>2016-04-25T04:39:47.000Z</time>
</trkpt>
<trkpt lat="33.2388935" lon="35.7093321">
<ele>491.200012</ele>
<time>2016-04-25T04:39:54.000Z</time>
</trkpt>
<trkpt lat="33.2388508" lon="35.7094325">
<ele>491.799957</ele>
<time>2016-04-25T04:40:01.000Z</time>
</trkpt>
<trkpt lat="33.2388078" lon="35.7095312">
<ele>492.400024</ele>
<time>2016-04-25T04:40:08.000Z</time>
</trkpt>
<trkpt lat="33.2387720" lon="35.7096227">
<ele>493.200012</ele>
<time>2016-04-25T04:40:15.000Z</time>
</trkpt>
<trkpt lat="33.2387267" lon="35.7097267">
<ele>493.799988</ele>
<time>2016-04-25T04:40:23.000Z</time>
</trkpt>
<trkpt lat="33.2386866" lon="35.7098334">
<ele>494.000000</ele>
<time>2016-04-25T04:40:31.000Z</time>
</trkpt>
<trkpt lat="33.2386491" lon="35.7099346">
<ele>494.600037</ele>
<time>2016-04-25T04:40:38.000Z</time>
</trkpt>
<trkpt lat="33.2385965" lon="35.7100426">
<ele>496.200012</ele>
<time>2016-04-25T04:40:46.000Z</time>
</trkpt>
<trkpt lat="33.2385503" lon="35.7101483">
<ele>497.599976</ele>
<time>2016-04-25T04:40:54.000Z</time>
</trkpt>
<trkpt lat="33.2385083" lon="35.7102578">
<ele>499.000031</ele>
<time>2016-04-25T04:41:02.000Z</time>
</trkpt>
<trkpt lat="33.2384628" lon="35.7103593">
<ele>500.399994</ele>
<time>2016-04-25T04:41:10.000Z</time>
</trkpt>
<trkpt lat="33.2384144" lon="35.7104711">
<ele>501.799988</ele>
<time>2016-04-25T04:41:18.000Z</time>
</trkpt>
<trkpt lat="33.2383690" lon="35.7105764">
<ele>501.799988</ele>
<time>2016-04-25T04:41:25.000Z</time>
</trkpt>
<trkpt lat="33.2383267" lon="35.7106846">
<ele>501.799988</ele>
<time>2016-04-25T04:41:33.000Z</time>
</trkpt>
<trkpt lat="33.2382809" lon="35.7107951">
<ele>501.799988</ele>
<time>2016-04-25T04:41:41.000Z</time>
</trkpt>
<trkpt lat="33.2382417" lon="35.7108934">
<ele>501.999969</ele>
<time>2016-04-25T04:41:48.000Z</time>
</trkpt>
<trkpt lat="33.2382034" lon="35.7109903">
<ele>501.999969</ele>
<time>2016-04-25T04:41:55.000Z</time>
</trkpt>
<trkpt lat="33.2381607" lon="35.7110864">
<ele>501.999969</ele>
<time>2016-04-25T04:42:02.000Z</time>
</trkpt>
<trkpt lat="33.2381191" lon="35.7111845">
<ele>503.200012</ele>
<time>2016-04-25T04:42:09.000Z</time>
</trkpt>
<trkpt lat="33.2380733" lon="35.7112827">
<ele>504.399994</ele>
<time>2016-04-25T04:42:17.000Z</time>
</trkpt>
<trkpt lat="33.2380352" lon="35.7113861">
<ele>505.600037</ele>
<time>2016-04-25T04:42:25.000Z</time>
</trkpt>
<trkpt lat="33.2379919" lon="35.7114879">
<ele>506.600006</ele>
<time>2016-04-25T04:42:33.000Z</time>
</trkpt>
<trkpt lat="33.2379502" lon="35.7116015">
<ele>507.799988</ele>
<time>2016-04-25T04:42:41.000Z</time>
</trkpt>
<trkpt lat="33.2378979" lon="35.7117070">
<ele>508.799988</ele>
<time>2016-04-25T04:42:49.000Z</time>
</trkpt>
<trkpt lat="33.2378525" lon="35.7118180">
<ele>509.799988</ele>
<time>2016-04-25T04:42:57.000Z</time>
</trkpt>
<trkpt lat="33.2378115" lon="35.7119144">
<ele>510.799988</ele>
<time>2016-04-25T04:43:04.000Z</time>
</trkpt>
<trkpt lat="33.2377717" lon="35.7120236">
<ele>511.799988</ele>
<time>2016-04-25T04:43:12.000Z</time>
</trkpt>
<trkpt lat="33.2377225" lon="35.7121222">
<ele>512.799988</ele>
<time>2016-04-25T04:43:20.000Z</time>
</trkpt>
<trkpt lat="33.2376842" lon="35.7122151">
<ele>513.799988</ele>
<time>2016-04-25T04:43:27.000Z</time>
</trkpt>
<trkpt lat="33.2376410" lon="35.7123177">
<ele>515.200012</ele>
<time>2016-04-25T04:43:34.000Z</time>
</trkpt>
<trkpt lat="33.2375978" lon="35.7124220">
<ele>516.799988</ele>
<time>2016-04-25T04:43:42.000Z</time>
</trkpt>
<trkpt lat="33.2375555" lon="35.7125288">
<ele>518.200012</ele>
<time>2016-04-25T04:43:50.000Z</time>
</trkpt>
<trkpt lat="33.2375154" lon="35.7126370">
<ele>519.599976</ele>
<time>2016-04-25T04:43:58.000Z</time>
</trkpt>
<trkpt lat="33.2374719" lon="35.7127354">
<ele>521.000000</ele>
<time>2016-04-25T04:44:06.000Z</time>
</trkpt>
<trkpt lat="33.2374273" lon="35.7128300">
<ele>522.200012</ele>
<time>2016-04-25T04:44:13.000Z</time>
</trkpt>
<trkpt lat="33.2373895" lon="35.7129471">
<ele>523.000000</ele>
<time>2016-04-25T04:44:21.000Z</time>
</trkpt>
<trkpt lat="33.2373425" lon="35.7130484">
<ele>523.400024</ele>
<time>2016-04-25T04:44:29.000Z</time>
</trkpt>
<trkpt lat="33.2372957" lon="35.7131522">
<ele>524.200012</ele>
<time>2016-04-25T04:44:37.000Z</time>
</trkpt>
<trkpt lat="33.2372538" lon="35.7132483">
<ele>525.000000</ele>
<time>2016-04-25T04:44:44.000Z</time>
</trkpt>
<trkpt lat="33.2372072" lon="35.7133588">
<ele>525.799988</ele>
<time>2016-04-25T04:44:52.000Z</time>
</trkpt>
<trkpt lat="33.2371612" lon="35.7134554">
<ele>526.599976</ele>
<time>2016-04-25T04:44:59.000Z</time>
</trkpt>
<trkpt lat="33.2371222" lon="35.7135637">
<ele>528.200012</ele>
<time>2016-04-25T04:45:07.000Z</time>
</trkpt>
<trkpt lat="33.2370768" lon="35.7136658">
<ele>529.599976</ele>
<time>2016-04-25T04:45:15.000Z</time>
</trkpt>
<trkpt lat="33.2370279" lon="35.7137738">
<ele>531.200012</ele>
<time>2016-04-25T04:45:23.000Z</time>
</trkpt>
<trkpt lat="33.2369870" lon="35.7138712">
<ele>532.599976</ele>
<time>2016-04-25T04:45:30.000Z</time>
</trkpt>
<trkpt lat="33.2369402" lon="35.7139804">
<ele>533.400024</ele>
<time>2016-04-25T04:45:38.000Z</time>
</trkpt>
<trkpt lat="33.2368984" lon="35.7140874">
<ele>534.200012</ele>
<time>2016-04-25T04:45:46.000Z</time>
</trkpt>
<trkpt lat="33.2368513" lon="35.7141820">
<ele>535.000000</ele>
<time>2016-04-25T04:45:53.000Z</time>
</trkpt>
<trkpt lat="33.2368156" lon="35.7142817">
<ele>535.799988</ele>
<time>2016-04-25T04:46:00.000Z</time>
</trkpt>
<trkpt lat="33.2367744" lon="35.7143783">
<ele>536.799988</ele>
<time>2016-04-25T04:46:07.000Z</time>
</trkpt>
<trkpt lat="33.2367404" lon="35.7144739">
<ele>537.799988</ele>
<time>2016-04-25T04:46:14.000Z</time>
</trkpt>
<trkpt lat="33.2366922" lon="35.7145812">
<ele>539.000000</ele>
<time>2016-04-25T04:46:22.000Z</time>
</trkpt>
<trkpt lat="33.2366515" lon="35.7146935">
<ele>539.200012</ele>
<time>2016-04-25T04:46:30.000Z</time>
</trkpt>
<trkpt lat="33.2366008" lon="35.7147999">
<ele>539.799988</ele>
<time>2016-04-25T04:46:38.000Z</time>
</trkpt>
<trkpt lat="33.2365559" lon="35.7149074">
<ele>540.599976</ele>
<time>2016-04-25T04:46:46.000Z</time>
</trkpt>
<trkpt lat="33.2365099" lon="35.7150154">
<ele>541.200012</ele>
<time>2016-04-25T04:46:54.000Z</time>
</trkpt>
<trkpt lat="33.2364651" lon="35.7151248">
<ele>542.000000</ele>
<time>2016-04-25T04:47:02.000Z</time>
</trkpt>
<trkpt lat="33.2364284" lon="35.7152205">
<ele>542.400024</ele>
<time>2016-04-25T04:47:09.000Z</time>
</trkpt>
<trkpt lat="33.2363825" lon="35.7153286">
<ele>542.599976</ele>
<time>2016-04-25T04:47:17.000Z</time>
</trkpt>
<trkpt lat="33.2363396" lon="35.7154254">
<ele>542.599976</ele>
<time>2016-04-25T04:47:24.000Z</time>
</trkpt>
<trkpt lat="33.2362982" lon="35.7155358">
<ele>542.799988</ele>
<time>2016-04-25T04:47:32.000Z</time>
</trkpt>
<trkpt lat="33.2362547" lon="35.7156426">
<ele>543.200012</ele>
<time>2016-04-25T04:47:40.000Z</time>
</trkpt>
<trkpt lat="33.2362197" lon="35.7157416">
<ele>543.599976</ele>
<time>2016-04-25T04:47:47.000Z</time>
</trkpt>
<trkpt lat="33.2361872" lon="35.7158489">
<ele>544.799988</ele>
<time>2016-04-25T04:47:54.000Z</time>
</trkpt>
<trkpt lat="33.2361546" lon="35.7159477">
<ele>546.400024</ele>
<time>2016-04-25T04:48:01.000Z</time>
</trkpt>
<trkpt lat="33.2361299" lon="35.7160611">
<ele>548.400024</ele>
<time>2016-04-25T04:48:08.000Z</time>
</trkpt>
<trkpt lat="33.2361155" lon="35.7161806">
<ele>550.200012</ele>
<time>2016-04-25T04:48:15.000Z</time>
</trkpt>
<trkpt lat="33.2361048" lon="35.7162837">
<ele>551.599976</ele>
<time>2016-04-25T04:48:21.000Z</time>
</trkpt>
<trkpt lat="33.2360996" lon="35.7163974">
<ele>553.000000</ele>
<time>2016-04-25T04:48:27.000Z</time>
</trkpt>
<trkpt lat="33.2361017" lon="35.7165089">
<ele>553.400024</ele>
<time>2016-04-25T04:48:33.000Z</time>
</trkpt>
<trkpt lat="33.2361114" lon="35.7166382">
<ele>554.000000</ele>
<time>2016-04-25T04:48:40.000Z</time>
</trkpt>
<trkpt lat="33.2361278" lon="35.7167441">
<ele>554.400024</ele>
<time>2016-04-25T04:48:46.000Z</time>
</trkpt>
<trkpt lat="33.2361573" lon="35.7168641">
<ele>554.599976</ele>
<time>2016-04-25T04:48:52.000Z</time>
</trkpt>
<trkpt lat="33.2361889" lon="35.7169821">
<ele>555.000000</ele>
<time>2016-04-25T04:48:58.000Z</time>
</trkpt>
<trkpt lat="33.2362276" lon="35.7170841">
<ele>555.200012</ele>
<time>2016-04-25T04:49:03.000Z</time>
</trkpt>
<trkpt lat="33.2362643" lon="35.7171836">
<ele>555.400024</ele>
<time>2016-04-25T04:49:08.000Z</time>
</trkpt>
<trkpt lat="33.2363123" lon="35.7172914">
<ele>555.799988</ele>
<time>2016-04-25T04:49:13.000Z</time>
</trkpt>
<trkpt lat="33.2363682" lon="35.7173882">
<ele>556.400024</ele>
<time>2016-04-25T04:49:18.000Z</time>
</trkpt>
<trkpt lat="33.2364334" lon="35.7174806">
<ele>556.599976</ele>
<time>2016-04-25T04:49:22.000Z</time>
</trkpt>
<trkpt lat="33.2365029" lon="35.7175657">
<ele>556.799988</ele>
<time>2016-04-25T04:49:26.000Z</time>
</trkpt>
<trkpt lat="33.2365767" lon="35.7176384">
<ele>557.000000</ele>
<time>2016-04-25T04:49:30.000Z</time>
</trkpt>
<trkpt lat="33.2366679" lon="35.7177147">
<ele>557.000000</ele>
<time>2016-04-25T04:49:34.000Z</time>
</trkpt>
<trkpt lat="33.2367677" lon="35.7177867">
<ele>556.799988</ele>
<time>2016-04-25T04:49:38.000Z</time>
</trkpt>
<trkpt lat="33.2368488" lon="35.7178325">
<ele>557.000000</ele>
<time>2016-04-25T04:49:41.000Z</time>
</trkpt>
<trkpt lat="33.2369518" lon="35.7179014">
<ele>557.799988</ele>
<time>2016-04-25T04:49:45.000Z</time>
</trkpt>
<trkpt lat="33.2370547" lon="35.7179489">
<ele>558.200012</ele>
<time>2016-04-25T04:49:49.000Z</time>
</trkpt>
<trkpt lat="33.2371613" lon="35.7179774">
<ele>558.400024</ele>
<time>2016-04-25T04:49:53.000Z</time>
</trkpt>
<trkpt lat="33.2372657" lon="35.7180104">
<ele>558.799988</ele>
<time>2016-04-25T04:49:57.000Z</time>
</trkpt>
<trkpt lat="33.2373689" lon="35.7180347">
<ele>559.000000</ele>
<time>2016-04-25T04:50:01.000Z</time>
</trkpt>
<trkpt lat="33.2374652" lon="35.7180339">
<ele>559.000000</ele>
<time>2016-04-25T04:50:05.000Z</time>
</trkpt>
<trkpt lat="33.2375647" lon="35.7180326">
<ele>559.000000</ele>
<time>2016-04-25T04:50:09.000Z</time>
</trkpt>
<trkpt lat="33.2376609" lon="35.7180196">
<ele>559.000000</ele>
<time>2016-04-25T04:50:13.000Z</time>
</trkpt>
<trkpt lat="33.2377608" lon="35.7180009">
<ele>559.599976</ele>
<time>2016-04-25T04:50:18.000Z</time>
</trkpt>
<trkpt lat="33.2378546" lon="35.7179818">
<ele>560.200012</ele>
<time>2016-04-25T04:50:24.000Z</time>
</trkpt>
<trkpt lat="33.2379479" lon="35.7179434">
<ele>560.599976</ele>
<time>2016-04-25T04:50:30.000Z</time>
</trkpt>
<trkpt lat="33.2380381" lon="35.7179024">
<ele>560.799988</ele>
<time>2016-04-25T04:50:36.000Z</time>
</trkpt>
<trkpt lat="33.2381265" lon="35.7178477">
<ele>560.799988</ele>
<time>2016-04-25T04:50:42.000Z</time>
</trkpt>
<trkpt lat="33.2382093" lon="35.7177891">
<ele>560.599976</ele>
<time>2016-04-25T04:50:48.000Z</time>
</trkpt>
<trkpt lat="33.2382879" lon="35.7177220">
<ele>560.799988</ele>
<time>2016-04-25T04:50:54.000Z</time>
</trkpt>
<trkpt lat="33.2383645" lon="35.7176537">
<ele>560.799988</ele>
<time>2016-04-25T04:51:00.000Z</time>
</trkpt>
<trkpt lat="33.2384424" lon="35.7175694">
<ele>560.799988</ele>
<time>2016-04-25T04:51:07.000Z</time>
</trkpt>
<trkpt lat="33.2385147" lon="35.7174833">
<ele>561.799988</ele>
<time>2016-04-25T04:51:14.000Z</time>
</trkpt>
<trkpt lat="33.2385874" lon="35.7173932">
<ele>563.200012</ele>
<time>2016-04-25T04:51:21.000Z</time>
</trkpt>
<trkpt lat="33.2386441" lon="35.7173056">
<ele>563.599976</ele>
<time>2016-04-25T04:51:27.000Z</time>
</trkpt>
<trkpt lat="33.2387085" lon="35.7172204">
<ele>564.000000</ele>
<time>2016-04-25T04:51:33.000Z</time>
</trkpt>
<trkpt lat="33.2387750" lon="35.7171327">
<ele>564.599976</ele>
<time>2016-04-25T04:51:39.000Z</time>
</trkpt>
<trkpt lat="33.2388367" lon="35.7170467">
<ele>565.200012</ele>
<time>2016-04-25T04:51:45.000Z</time>
</trkpt>
<trkpt lat="33.2389036" lon="35.7169593">
<ele>565.799988</ele>
<time>2016-04-25T04:51:51.000Z</time>
</trkpt>
<trkpt lat="33.2389742" lon="35.7168720">
<ele>566.599976</ele>
<time>2016-04-25T04:51:57.000Z</time>
</trkpt>
<trkpt lat="33.2390493" lon="35.7167747">
<ele>567.200012</ele>
<time>2016-04-25T04:52:03.000Z</time>
</trkpt>
<trkpt lat="33.2391164" lon="35.7166964">
<ele>568.000000</ele>
<time>2016-04-25T04:52:08.000Z</time>
</trkpt>
<trkpt lat="33.2391988" lon="35.7166079">
<ele>568.799988</ele>
<time>2016-04-25T04:52:14.000Z</time>
</trkpt>
<trkpt lat="33.2392753" lon="35.7165427">
<ele>570.000000</ele>
<time>2016-04-25T04:52:19.000Z</time>
</trkpt>
<trkpt lat="33.2393626" lon="35.7164705">
<ele>571.599976</ele>
<time>2016-04-25T04:52:25.000Z</time>
</trkpt>
<trkpt lat="33.2394440" lon="35.7164202">
<ele>572.200012</ele>
<time>2016-04-25T04:52:30.000Z</time>
</trkpt>
<trkpt lat="33.2395357" lon="35.7163630">
<ele>572.599976</ele>
<time>2016-04-25T04:52:35.000Z</time>
</trkpt>
<trkpt lat="33.2396344" lon="35.7163202">
<ele>574.000000</ele>
<time>2016-04-25T04:52:40.000Z</time>
</trkpt>
<trkpt lat="33.2397211" lon="35.7162856">
<ele>575.000000</ele>
<time>2016-04-25T04:52:45.000Z</time>
</trkpt>
<trkpt lat="33.2398131" lon="35.7162471">
<ele>576.200012</ele>
<time>2016-04-25T04:52:49.000Z</time>
</trkpt>
<trkpt lat="33.2399070" lon="35.7162172">
<ele>577.599976</ele>
<time>2016-04-25T04:52:53.000Z</time>
</trkpt>
<trkpt lat="33.2400095" lon="35.7161991">
<ele>579.200012</ele>
<time>2016-04-25T04:52:57.000Z</time>
</trkpt>
<trkpt lat="33.2401206" lon="35.7161759">
<ele>581.000000</ele>
<time>2016-04-25T04:53:01.000Z</time>
</trkpt>
<trkpt lat="33.2402381" lon="35.7161692">
<ele>581.400024</ele>
<time>2016-04-25T04:53:05.000Z</time>
</trkpt>
<trkpt lat="33.2403351" lon="35.7161611">
<ele>581.799988</ele>
<time>2016-04-25T04:53:08.000Z</time>
</trkpt>
<trkpt lat="33.2404372" lon="35.7161529">
<ele>582.200012</ele>
<time>2016-04-25T04:53:11.000Z</time>
</trkpt>
<trkpt lat="33.2405425" lon="35.7161445">
<ele>582.599976</ele>
<time>2016-04-25T04:53:14.000Z</time>
</trkpt>
<trkpt lat="33.2406484" lon="35.7161388">
<ele>583.000000</ele>
<time>2016-04-25T04:53:17.000Z</time>
</trkpt>
<trkpt lat="33.2407537" lon="35.7161248">
<ele>582.599976</ele>
<time>2016-04-25T04:53:20.000Z</time>
</trkpt>
<trkpt lat="33.2408600" lon="35.7161155">
<ele>581.400024</ele>
<time>2016-04-25T04:53:23.000Z</time>
</trkpt>
<trkpt lat="33.2409420" lon="35.7160965">
<ele>580.000000</ele>
<time>2016-04-25T04:55:12.000Z</time>
</trkpt>
<trkpt lat="33.2410360" lon="35.7160736">
<ele>579.599976</ele>
<time>2016-04-25T04:55:18.000Z</time>
</trkpt>
<trkpt lat="33.2411356" lon="35.7160728">
<ele>580.400024</ele>
<time>2016-04-25T04:55:21.000Z</time>
</trkpt>
<trkpt lat="33.2412532" lon="35.7160723">
<ele>581.200012</ele>
<time>2016-04-25T04:55:24.000Z</time>
</trkpt>
<trkpt lat="33.2413890" lon="35.7160621">
<ele>581.799988</ele>
<time>2016-04-25T04:55:27.000Z</time>
</trkpt>
<trkpt lat="33.2414863" lon="35.7160512">
<ele>582.200012</ele>
<time>2016-04-25T04:55:29.000Z</time>
</trkpt>
<trkpt lat="33.2415892" lon="35.7160424">
<ele>582.400024</ele>
<time>2016-04-25T04:55:31.000Z</time>
</trkpt>
<trkpt lat="33.2416985" lon="35.7160335">
<ele>582.599976</ele>
<time>2016-04-25T04:55:33.000Z</time>
</trkpt>
<trkpt lat="33.2418126" lon="35.7160218">
<ele>582.599976</ele>
<time>2016-04-25T04:55:35.000Z</time>
</trkpt>
<trkpt lat="33.2419278" lon="35.7160102">
<ele>581.200012</ele>
<time>2016-04-25T04:55:37.000Z</time>
</trkpt>
<trkpt lat="33.2420433" lon="35.7160009">
<ele>580.000000</ele>
<time>2016-04-25T04:55:39.000Z</time>
</trkpt>
<trkpt lat="33.2421548" lon="35.7159951">
<ele>578.799988</ele>
<time>2016-04-25T04:55:41.000Z</time>
</trkpt>
<trkpt lat="33.2422611" lon="35.7159942">
<ele>578.000000</ele>
<time>2016-04-25T04:55:43.000Z</time>
</trkpt>
<trkpt lat="33.2423609" lon="35.7159980">
<ele>578.400024</ele>
<time>2016-04-25T04:55:45.000Z</time>
</trkpt>
<trkpt lat="33.2424934" lon="35.7160176">
<ele>579.000000</ele>
<time>2016-04-25T04:55:48.000Z</time>
</trkpt>
<trkpt lat="33.2425908" lon="35.7160414">
<ele>579.799988</ele>
<time>2016-04-25T04:55:51.000Z</time>
</trkpt>
<trkpt lat="33.2426816" lon="35.7160750">
<ele>580.599976</ele>
<time>2016-04-25T04:55:55.000Z</time>
</trkpt>
<trkpt lat="33.2427835" lon="35.7161046">
<ele>581.000000</ele>
<time>2016-04-25T04:56:01.000Z</time>
</trkpt>
<trkpt lat="33.2428772" lon="35.7161461">
<ele>581.799988</ele>
<time>2016-04-25T04:56:07.000Z</time>
</trkpt>
<trkpt lat="33.2429657" lon="35.7161761">
<ele>582.400024</ele>
<time>2016-04-25T04:56:13.000Z</time>
</trkpt>
<trkpt lat="33.2430686" lon="35.7162051">
<ele>583.000000</ele>
<time>2016-04-25T04:56:20.000Z</time>
</trkpt>
<trkpt lat="33.2431576" lon="35.7162367">
<ele>583.400024</ele>
<time>2016-04-25T04:56:26.000Z</time>
</trkpt>
<trkpt lat="33.2432496" lon="35.7162661">
<ele>584.000000</ele>
<time>2016-04-25T04:56:32.000Z</time>
</trkpt>
<trkpt lat="33.2433483" lon="35.7163061">
<ele>584.799988</ele>
<time>2016-04-25T04:56:39.000Z</time>
</trkpt>
<trkpt lat="33.2434516" lon="35.7163304">
<ele>585.200012</ele>
<time>2016-04-25T04:56:46.000Z</time>
</trkpt>
<trkpt lat="33.2435425" lon="35.7163635">
<ele>585.599976</ele>
<time>2016-04-25T04:56:52.000Z</time>
</trkpt>
<trkpt lat="33.2436302" lon="35.7163996">
<ele>586.400024</ele>
<time>2016-04-25T04:56:58.000Z</time>
</trkpt>
<trkpt lat="33.2437331" lon="35.7164325">
<ele>586.799988</ele>
<time>2016-04-25T04:57:05.000Z</time>
</trkpt>
<trkpt lat="33.2438288" lon="35.7164628">
<ele>587.400024</ele>
<time>2016-04-25T04:57:12.000Z</time>
</trkpt>
<trkpt lat="33.2439272" lon="35.7164942">
<ele>587.799988</ele>
<time>2016-04-25T04:57:19.000Z</time>
</trkpt>
<trkpt lat="33.2440250" lon="35.7165269">
<ele>588.400024</ele>
<time>2016-04-25T04:57:26.000Z</time>
</trkpt>
<trkpt lat="33.2441146" lon="35.7165642">
<ele>589.000000</ele>
<time>2016-04-25T04:57:33.000Z</time>
</trkpt>
<trkpt lat="33.2442155" lon="35.7165964">
<ele>589.599976</ele>
<time>2016-04-25T04:57:40.000Z</time>
</trkpt>
<trkpt lat="33.2443125" lon="35.7166294">
<ele>590.200012</ele>
<time>2016-04-25T04:57:47.000Z</time>
</trkpt>
<trkpt lat="33.2444105" lon="35.7166624">
<ele>591.000000</ele>
<time>2016-04-25T04:57:54.000Z</time>
</trkpt>
<trkpt lat="33.2445066" lon="35.7166921">
<ele>591.799988</ele>
<time>2016-04-25T04:58:01.000Z</time>
</trkpt>
<trkpt lat="33.2445965" lon="35.7167201">
<ele>592.400024</ele>
<time>2016-04-25T04:58:08.000Z</time>
</trkpt>
<trkpt lat="33.2446816" lon="35.7167437">
<ele>593.000000</ele>
<time>2016-04-25T04:58:15.000Z</time>
</trkpt>
<trkpt lat="33.2447794" lon="35.7167761">
<ele>593.799988</ele>
<time>2016-04-25T04:58:23.000Z</time>
</trkpt>
<trkpt lat="33.2448726" lon="35.7168074">
<ele>594.599976</ele>
<time>2016-04-25T04:58:31.000Z</time>
</trkpt>
<trkpt lat="33.2449669" lon="35.7168382">
<ele>595.200012</ele>
<time>2016-04-25T04:58:39.000Z</time>
</trkpt>
<trkpt lat="33.2450581" lon="35.7168660">
<ele>596.000000</ele>
<time>2016-04-25T04:58:47.000Z</time>
</trkpt>
<trkpt lat="33.2451474" lon="35.7168924">
<ele>596.599976</ele>
<time>2016-04-25T04:58:55.000Z</time>
</trkpt>
<trkpt lat="33.2452430" lon="35.7169308">
<ele>597.799988</ele>
<time>2016-04-25T04:59:03.000Z</time>
</trkpt>
<trkpt lat="33.2453431" lon="35.7169624">
<ele>599.000000</ele>
<time>2016-04-25T04:59:11.000Z</time>
</trkpt>
<trkpt lat="33.2454321" lon="35.7169965">
<ele>600.200012</ele>
<time>2016-04-25T04:59:19.000Z</time>
</trkpt>
<trkpt lat="33.2455228" lon="35.7170204">
<ele>601.000000</ele>
<time>2016-04-25T04:59:27.000Z</time>
</trkpt>
<trkpt lat="33.2456051" lon="35.7170562">
<ele>602.200012</ele>
<time>2016-04-25T04:59:35.000Z</time>
</trkpt>
<trkpt lat="33.2456972" lon="35.7170909">
<ele>603.400024</ele>
<time>2016-04-25T04:59:43.000Z</time>
</trkpt>
<trkpt lat="33.2457892" lon="35.7171518">
<ele>605.200012</ele>
<time>2016-04-25T04:59:52.000Z</time>
</trkpt>
<trkpt lat="33.2458817" lon="35.7172110">
<ele>606.799988</ele>
<time>2016-04-25T05:00:00.000Z</time>
</trkpt>
<trkpt lat="33.2459614" lon="35.7172750">
<ele>608.000000</ele>
<time>2016-04-25T05:00:08.000Z</time>
</trkpt>
<trkpt lat="33.2460432" lon="35.7173492">
<ele>607.799988</ele>
<time>2016-04-25T05:00:17.000Z</time>
</trkpt>
<trkpt lat="33.2461138" lon="35.7174328">
<ele>608.000000</ele>
<time>2016-04-25T05:00:26.000Z</time>
</trkpt>
<trkpt lat="33.2461784" lon="35.7175249">
<ele>608.400024</ele>
<time>2016-04-25T05:00:34.000Z</time>
</trkpt>
<trkpt lat="33.2462366" lon="35.7176110">
<ele>608.799988</ele>
<time>2016-04-25T05:00:42.000Z</time>
</trkpt>
<trkpt lat="33.2462969" lon="35.7177097">
<ele>609.400024</ele>
<time>2016-04-25T05:00:50.000Z</time>
</trkpt>
<trkpt lat="33.2463481" lon="35.7178062">
<ele>610.000000</ele>
<time>2016-04-25T05:00:58.000Z</time>
</trkpt>
<trkpt lat="33.2464023" lon="35.7179005">
<ele>610.599976</ele>
<time>2016-04-25T05:01:07.000Z</time>
</trkpt>
<trkpt lat="33.2464480" lon="35.7180057">
<ele>611.400024</ele>
<time>2016-04-25T05:01:15.000Z</time>
</trkpt>
<trkpt lat="33.2464856" lon="35.7181056">
<ele>612.599976</ele>
<time>2016-04-25T05:01:23.000Z</time>
</trkpt>
<trkpt lat="33.2465159" lon="35.7182089">
<ele>614.000000</ele>
<time>2016-04-25T05:01:31.000Z</time>
</trkpt>
<trkpt lat="33.2465533" lon="35.7183061">
<ele>615.200012</ele>
<time>2016-04-25T05:01:39.000Z</time>
</trkpt>
<trkpt lat="33.2465889" lon="35.7184097">
<ele>616.599976</ele>
<time>2016-04-25T05:01:47.000Z</time>
</trkpt>
<trkpt lat="33.2466262" lon="35.7185237">
<ele>618.200012</ele>
<time>2016-04-25T05:01:56.000Z</time>
</trkpt>
<trkpt lat="33.2466538" lon="35.7186273">
<ele>619.599976</ele>
<time>2016-04-25T05:02:04.000Z</time>
</trkpt>
<trkpt lat="33.2466952" lon="35.7187330">
<ele>621.000000</ele>
<time>2016-04-25T05:02:12.000Z</time>
</trkpt>
<trkpt lat="33.2467243" lon="35.7188430">
<ele>622.400024</ele>
<time>2016-04-25T05:02:20.000Z</time>
</trkpt>
<trkpt lat="33.2467479" lon="35.7189500">
<ele>623.200012</ele>
<time>2016-04-25T05:02:28.000Z</time>
</trkpt>
<trkpt lat="33.2467668" lon="35.7190548">
<ele>624.000000</ele>
<time>2016-04-25T05:02:36.000Z</time>
</trkpt>
<trkpt lat="33.2467753" lon="35.7191675">
<ele>625.000000</ele>
<time>2016-04-25T05:02:44.000Z</time>
</trkpt>
<trkpt lat="33.2467903" lon="35.7192887">
<ele>625.999939</ele>
<time>2016-04-25T05:02:53.000Z</time>
</trkpt>
<trkpt lat="33.2467913" lon="35.7194076">
<ele>627.200012</ele>
<time>2016-04-25T05:03:02.000Z</time>
</trkpt>
<trkpt lat="33.2467945" lon="35.7195261">
<ele>628.200012</ele>
<time>2016-04-25T05:03:11.000Z</time>
</trkpt>
<trkpt lat="33.2467976" lon="35.7196454">
<ele>629.200012</ele>
<time>2016-04-25T05:03:20.000Z</time>
</trkpt>
<trkpt lat="33.2467880" lon="35.7197664">
<ele>630.599976</ele>
<time>2016-04-25T05:03:29.000Z</time>
</trkpt>
<trkpt lat="33.2467848" lon="35.7198769">
<ele>631.400024</ele>
<time>2016-04-25T05:03:37.000Z</time>
</trkpt>
<trkpt lat="33.2467760" lon="35.7199953">
<ele>632.400024</ele>
<time>2016-04-25T05:03:46.000Z</time>
</trkpt>
<trkpt lat="33.2467633" lon="35.7201122">
<ele>633.400024</ele>
<time>2016-04-25T05:03:55.000Z</time>
</trkpt>
<trkpt lat="33.2467524" lon="35.7202236">
<ele>634.400024</ele>
<time>2016-04-25T05:04:04.000Z</time>
</trkpt>
<trkpt lat="33.2467369" lon="35.7203298">
<ele>635.599976</ele>
<time>2016-04-25T05:04:12.000Z</time>
</trkpt>
<trkpt lat="33.2467193" lon="35.7204382">
<ele>636.599976</ele>
<time>2016-04-25T05:04:20.000Z</time>
</trkpt>
<trkpt lat="33.2467286" lon="35.7205336">
<ele>637.200012</ele>
<time>2016-04-25T05:07:08.000Z</time>
</trkpt>
<trkpt lat="33.2466921" lon="35.7206382">
<ele>637.599976</ele>
<time>2016-04-25T05:07:16.000Z</time>
</trkpt>
<trkpt lat="33.2466454" lon="35.7207320">
<ele>638.200012</ele>
<time>2016-04-25T05:07:23.000Z</time>
</trkpt>
<trkpt lat="33.2466127" lon="35.7208371">
<ele>638.400024</ele>
<time>2016-04-25T05:07:31.000Z</time>
</trkpt>
<trkpt lat="33.2465692" lon="35.7209369">
<ele>639.000000</ele>
<time>2016-04-25T05:07:39.000Z</time>
</trkpt>
<trkpt lat="33.2465193" lon="35.7210328">
<ele>639.799988</ele>
<time>2016-04-25T05:07:47.000Z</time>
</trkpt>
<trkpt lat="33.2464578" lon="35.7211269">
<ele>640.400024</ele>
<time>2016-04-25T05:07:55.000Z</time>
</trkpt>
<trkpt lat="33.2464063" lon="35.7212130">
<ele>640.799927</ele>
<time>2016-04-25T05:08:03.000Z</time>
</trkpt>
<trkpt lat="33.2463345" lon="35.7212977">
<ele>641.400024</ele>
<time>2016-04-25T05:08:12.000Z</time>
</trkpt>
<trkpt lat="33.2462701" lon="35.7213743">
<ele>642.200012</ele>
<time>2016-04-25T05:08:20.000Z</time>
</trkpt>
<trkpt lat="33.2462015" lon="35.7214587">
<ele>643.600037</ele>
<time>2016-04-25T05:08:29.000Z</time>
</trkpt>
<trkpt lat="33.2461424" lon="35.7215472">
<ele>644.799988</ele>
<time>2016-04-25T05:08:37.000Z</time>
</trkpt>
<trkpt lat="33.2460732" lon="35.7216264">
<ele>646.200012</ele>
<time>2016-04-25T05:08:45.000Z</time>
</trkpt>
<trkpt lat="33.2460055" lon="35.7217190">
<ele>647.599976</ele>
<time>2016-04-25T05:08:53.000Z</time>
</trkpt>
<trkpt lat="33.2459439" lon="35.7218105">
<ele>648.799988</ele>
<time>2016-04-25T05:09:01.000Z</time>
</trkpt>
<trkpt lat="33.2458999" lon="35.7219147">
<ele>649.599915</ele>
<time>2016-04-25T05:09:09.000Z</time>
</trkpt>
<trkpt lat="33.2458680" lon="35.7220172">
<ele>650.400024</ele>
<time>2016-04-25T05:09:17.000Z</time>
</trkpt>
<trkpt lat="33.2458461" lon="35.7221250">
<ele>650.999939</ele>
<time>2016-04-25T05:09:25.000Z</time>
</trkpt>
<trkpt lat="33.2458187" lon="35.7222385">
<ele>652.000000</ele>
<time>2016-04-25T05:09:34.000Z</time>
</trkpt>
<trkpt lat="33.2458116" lon="35.7223500">
<ele>653.599976</ele>
<time>2016-04-25T05:09:42.000Z</time>
</trkpt>
<trkpt lat="33.2458187" lon="35.7224530">
<ele>655.000000</ele>
<time>2016-04-25T05:09:49.000Z</time>
</trkpt>
<trkpt lat="33.2458298" lon="35.7225738">
<ele>656.800049</ele>
<time>2016-04-25T05:09:57.000Z</time>
</trkpt>
<trkpt lat="33.2458503" lon="35.7226847">
<ele>658.000000</ele>
<time>2016-04-25T05:10:05.000Z</time>
</trkpt>
<trkpt lat="33.2458815" lon="35.7227877">
<ele>659.200012</ele>
<time>2016-04-25T05:10:13.000Z</time>
</trkpt>
<trkpt lat="33.2459200" lon="35.7229041">
<ele>660.400024</ele>
<time>2016-04-25T05:10:21.000Z</time>
</trkpt>
<trkpt lat="33.2459661" lon="35.7230076">
<ele>661.599976</ele>
<time>2016-04-25T05:10:29.000Z</time>
</trkpt>
<trkpt lat="33.2460318" lon="35.7230908">
<ele>662.799927</ele>
<time>2016-04-25T05:10:37.000Z</time>
</trkpt>
<trkpt lat="33.2460930" lon="35.7231886">
<ele>664.599976</ele>
<time>2016-04-25T05:10:45.000Z</time>
</trkpt>
<trkpt lat="33.2461604" lon="35.7232696">
<ele>665.799927</ele>
<time>2016-04-25T05:10:52.000Z</time>
</trkpt>
<trkpt lat="33.2462339" lon="35.7233313">
<ele>666.799988</ele>
<time>2016-04-25T05:10:59.000Z</time>
</trkpt>
<trkpt lat="33.2463174" lon="35.7233868">
<ele>667.799988</ele>
<time>2016-04-25T05:11:06.000Z</time>
</trkpt>
<trkpt lat="33.2464078" lon="35.7234308">
<ele>668.200012</ele>
<time>2016-04-25T05:11:13.000Z</time>
</trkpt>
<trkpt lat="33.2465053" lon="35.7234730">
<ele>668.600037</ele>
<time>2016-04-25T05:11:21.000Z</time>
</trkpt>
<trkpt lat="33.2466005" lon="35.7234708">
<ele>668.000000</ele>
<time>2016-04-25T05:11:26.000Z</time>
</trkpt>
<trkpt lat="33.2466903" lon="35.7234641">
<ele>667.400024</ele>
<time>2016-04-25T05:11:31.000Z</time>
</trkpt>
<trkpt lat="33.2467888" lon="35.7235053">
<ele>667.599976</ele>
<time>2016-04-25T05:11:37.000Z</time>
</trkpt>
<trkpt lat="33.2468827" lon="35.7235039">
<ele>669.000000</ele>
<time>2016-04-25T05:11:44.000Z</time>
</trkpt>
<trkpt lat="33.2469770" lon="35.7235000">
<ele>670.200012</ele>
<time>2016-04-25T05:11:51.000Z</time>
</trkpt>
<trkpt lat="33.2470788" lon="35.7234938">
<ele>671.600037</ele>
<time>2016-04-25T05:11:59.000Z</time>
</trkpt>
<trkpt lat="33.2471766" lon="35.7234858">
<ele>672.799988</ele>
<time>2016-04-25T05:12:07.000Z</time>
</trkpt>
<trkpt lat="33.2472786" lon="35.7234760">
<ele>674.000000</ele>
<time>2016-04-25T05:12:15.000Z</time>
</trkpt>
<trkpt lat="33.2473834" lon="35.7234679">
<ele>675.400024</ele>
<time>2016-04-25T05:12:23.000Z</time>
</trkpt>
<trkpt lat="33.2474813" lon="35.7234576">
<ele>676.599976</ele>
<time>2016-04-25T05:12:31.000Z</time>
</trkpt>
<trkpt lat="33.2475793" lon="35.7234481">
<ele>677.799988</ele>
<time>2016-04-25T05:12:39.000Z</time>
</trkpt>
<trkpt lat="33.2476864" lon="35.7234383">
<ele>679.200012</ele>
<time>2016-04-25T05:12:47.000Z</time>
</trkpt>
<trkpt lat="33.2477821" lon="35.7234334">
<ele>680.400024</ele>
<time>2016-04-25T05:12:54.000Z</time>
</trkpt>
<trkpt lat="33.2478850" lon="35.7234277">
<ele>682.000000</ele>
<time>2016-04-25T05:13:01.000Z</time>
</trkpt>
<trkpt lat="33.2479806" lon="35.7234251">
<ele>683.400024</ele>
<time>2016-04-25T05:13:07.000Z</time>
</trkpt>
<trkpt lat="33.2480841" lon="35.7234201">
<ele>684.200012</ele>
<time>2016-04-25T05:13:14.000Z</time>
</trkpt>
<trkpt lat="33.2481893" lon="35.7234258">
<ele>685.200012</ele>
<time>2016-04-25T05:13:21.000Z</time>
</trkpt>
<trkpt lat="33.2482833" lon="35.7234211">
<ele>685.799988</ele>
<time>2016-04-25T05:13:27.000Z</time>
</trkpt>
<trkpt lat="33.2483782" lon="35.7234176">
<ele>686.199951</ele>
<time>2016-04-25T05:13:33.000Z</time>
</trkpt>
<trkpt lat="33.2484713" lon="35.7234040">
<ele>686.799988</ele>
<time>2016-04-25T05:13:39.000Z</time>
</trkpt>
<trkpt lat="33.2485634" lon="35.7233849">
<ele>688.799988</ele>
<time>2016-04-25T05:13:45.000Z</time>
</trkpt>
<trkpt lat="33.2486603" lon="35.7233633">
<ele>690.799927</ele>
<time>2016-04-25T05:13:52.000Z</time>
</trkpt>
<trkpt lat="33.2487554" lon="35.7233137">
<ele>692.000061</ele>
<time>2016-04-25T05:13:59.000Z</time>
</trkpt>
<trkpt lat="33.2488502" lon="35.7232609">
<ele>693.400085</ele>
<time>2016-04-25T05:14:06.000Z</time>
</trkpt>
<trkpt lat="33.2489328" lon="35.7231938">
<ele>694.200012</ele>
<time>2016-04-25T05:14:13.000Z</time>
</trkpt>
<trkpt lat="33.2490085" lon="35.7231145">
<ele>694.200012</ele>
<time>2016-04-25T05:14:20.000Z</time>
</trkpt>
<trkpt lat="33.2490734" lon="35.7230318">
<ele>694.000000</ele>
<time>2016-04-25T05:14:27.000Z</time>
</trkpt>
<trkpt lat="33.2491465" lon="35.7229439">
<ele>693.200012</ele>
<time>2016-04-25T05:14:35.000Z</time>
</trkpt>
<trkpt lat="33.2492093" lon="35.7228399">
<ele>692.199951</ele>
<time>2016-04-25T05:14:43.000Z</time>
</trkpt>
<trkpt lat="33.2492693" lon="35.7227559">
<ele>692.000061</ele>
<time>2016-04-25T05:14:50.000Z</time>
</trkpt>
<trkpt lat="33.2493154" lon="35.7226610">
<ele>691.200012</ele>
<time>2016-04-25T05:14:57.000Z</time>
</trkpt>
<trkpt lat="33.2493601" lon="35.7225637">
<ele>690.000000</ele>
<time>2016-04-25T05:15:05.000Z</time>
</trkpt>
<trkpt lat="33.2494125" lon="35.7224645">
<ele>689.199951</ele>
<time>2016-04-25T05:15:13.000Z</time>
</trkpt>
<trkpt lat="33.2494527" lon="35.7223628">
<ele>688.000000</ele>
<time>2016-04-25T05:15:21.000Z</time>
</trkpt>
<trkpt lat="33.2495023" lon="35.7222566">
<ele>688.799988</ele>
<time>2016-04-25T05:15:29.000Z</time>
</trkpt>
<trkpt lat="33.2495495" lon="35.7221552">
<ele>689.199951</ele>
<time>2016-04-25T05:15:37.000Z</time>
</trkpt>
<trkpt lat="33.2495879" lon="35.7220564">
<ele>688.799988</ele>
<time>2016-04-25T05:15:45.000Z</time>
</trkpt>
<trkpt lat="33.2496336" lon="35.7219509">
<ele>688.599976</ele>
<time>2016-04-25T05:15:53.000Z</time>
</trkpt>
<trkpt lat="33.2496815" lon="35.7218607">
<ele>688.799988</ele>
<time>2016-04-25T05:16:01.000Z</time>
</trkpt>
<trkpt lat="33.2497260" lon="35.7217629">
<ele>689.000000</ele>
<time>2016-04-25T05:16:09.000Z</time>
</trkpt>
<trkpt lat="33.2497713" lon="35.7216576">
<ele>689.199951</ele>
<time>2016-04-25T05:16:17.000Z</time>
</trkpt>
<trkpt lat="33.2498160" lon="35.7215507">
<ele>689.199951</ele>
<time>2016-04-25T05:16:25.000Z</time>
</trkpt>
<trkpt lat="33.2498665" lon="35.7214467">
<ele>689.599976</ele>
<time>2016-04-25T05:16:33.000Z</time>
</trkpt>
<trkpt lat="33.2499147" lon="35.7213445">
<ele>690.200012</ele>
<time>2016-04-25T05:16:41.000Z</time>
</trkpt>
<trkpt lat="33.2499569" lon="35.7212458">
<ele>691.200012</ele>
<time>2016-04-25T05:16:48.000Z</time>
</trkpt>
<trkpt lat="33.2500034" lon="35.7211490">
<ele>692.400024</ele>
<time>2016-04-25T05:16:55.000Z</time>
</trkpt>
<trkpt lat="33.2500528" lon="35.7210447">
<ele>693.799988</ele>
<time>2016-04-25T05:17:03.000Z</time>
</trkpt>
<trkpt lat="33.2500969" lon="35.7209436">
<ele>694.799988</ele>
<time>2016-04-25T05:17:11.000Z</time>
</trkpt>
<trkpt lat="33.2501439" lon="35.7208526">
<ele>695.799988</ele>
<time>2016-04-25T05:17:19.000Z</time>
</trkpt>
<trkpt lat="33.2502087" lon="35.7207706">
<ele>696.600037</ele>
<time>2016-04-25T05:17:27.000Z</time>
</trkpt>
<trkpt lat="33.2502775" lon="35.7206863">
<ele>697.599976</ele>
<time>2016-04-25T05:17:35.000Z</time>
</trkpt>
<trkpt lat="33.2503506" lon="35.7206242">
<ele>699.599915</ele>
<time>2016-04-25T05:17:43.000Z</time>
</trkpt>
<trkpt lat="33.2504366" lon="35.7205634">
<ele>702.000000</ele>
<time>2016-04-25T05:17:51.000Z</time>
</trkpt>
<trkpt lat="33.2505073" lon="35.7204838">
<ele>703.000000</ele>
<time>2016-04-25T05:17:59.000Z</time>
</trkpt>
<trkpt lat="33.2505668" lon="35.7204085">
<ele>703.400024</ele>
<time>2016-04-25T05:18:06.000Z</time>
</trkpt>
<trkpt lat="33.2506606" lon="35.7203601">
<ele>705.599915</ele>
<time>2016-04-25T05:19:32.000Z</time>
</trkpt>
<trkpt lat="33.2507456" lon="35.7203631">
<ele>708.599976</ele>
<time>2016-04-25T05:19:39.000Z</time>
</trkpt>
<trkpt lat="33.2508424" lon="35.7203669">
<ele>712.200012</ele>
<time>2016-04-25T05:19:45.000Z</time>
</trkpt>
<trkpt lat="33.2509250" lon="35.7203200">
<ele>714.199951</ele>
<time>2016-04-25T05:19:51.000Z</time>
</trkpt>
<trkpt lat="33.2510126" lon="35.7202773">
<ele>715.200012</ele>
<time>2016-04-25T05:19:57.000Z</time>
</trkpt>
<trkpt lat="33.2511097" lon="35.7202234">
<ele>715.400024</ele>
<time>2016-04-25T05:20:04.000Z</time>
</trkpt>
<trkpt lat="33.2512001" lon="35.7201744">
<ele>715.599976</ele>
<time>2016-04-25T05:20:11.000Z</time>
</trkpt>
<trkpt lat="33.2512913" lon="35.7201300">
<ele>716.000000</ele>
<time>2016-04-25T05:20:18.000Z</time>
</trkpt>
<trkpt lat="33.2513764" lon="35.7200787">
<ele>716.200012</ele>
<time>2016-04-25T05:20:25.000Z</time>
</trkpt>
<trkpt lat="33.2514688" lon="35.7200340">
<ele>717.199951</ele>
<time>2016-04-25T05:20:33.000Z</time>
</trkpt>
<trkpt lat="33.2515645" lon="35.7199876">
<ele>718.000000</ele>
<time>2016-04-25T05:20:41.000Z</time>
</trkpt>
<trkpt lat="33.2516507" lon="35.7199506">
<ele>719.000000</ele>
<time>2016-04-25T05:20:48.000Z</time>
</trkpt>
<trkpt lat="33.2517436" lon="35.7199013">
<ele>719.599976</ele>
<time>2016-04-25T05:20:56.000Z</time>
</trkpt>
<trkpt lat="33.2518352" lon="35.7198379">
<ele>719.799988</ele>
<time>2016-04-25T05:21:04.000Z</time>
</trkpt>
<trkpt lat="33.2519268" lon="35.7197969">
<ele>720.200012</ele>
<time>2016-04-25T05:21:12.000Z</time>
</trkpt>
<trkpt lat="33.2520123" lon="35.7197502">
<ele>721.200012</ele>
<time>2016-04-25T05:21:19.000Z</time>
</trkpt>
<trkpt lat="33.2520963" lon="35.7197067">
<ele>722.200012</ele>
<time>2016-04-25T05:21:26.000Z</time>
</trkpt>
<trkpt lat="33.2521902" lon="35.7196607">
<ele>723.200012</ele>
<time>2016-04-25T05:21:34.000Z</time>
</trkpt>
<trkpt lat="33.2522656" lon="35.7195944">
<ele>723.599976</ele>
<time>2016-04-25T05:21:41.000Z</time>
</trkpt>
<trkpt lat="33.2523446" lon="35.7195270">
<ele>724.000000</ele>
<time>2016-04-25T05:21:48.000Z</time>
</trkpt>
<trkpt lat="33.2524423" lon="35.7194965">
<ele>725.400024</ele>
<time>2016-04-25T05:21:55.000Z</time>
</trkpt>
<trkpt lat="33.2525237" lon="35.7194318">
<ele>727.599915</ele>
<time>2016-04-25T05:22:03.000Z</time>
</trkpt>
<trkpt lat="33.2525494" lon="35.7194859">
<ele>728.400024</ele>
<time>2016-04-25T05:29:24.000Z</time>
</trkpt>
<trkpt lat="33.2526226" lon="35.7195582">
<ele>730.599915</ele>
<time>2016-04-25T05:29:32.000Z</time>
</trkpt>
<trkpt lat="33.2526864" lon="35.7196292">
<ele>730.400024</ele>
<time>2016-04-25T05:29:38.000Z</time>
</trkpt>
<trkpt lat="33.2527385" lon="35.7197234">
<ele>730.400024</ele>
<time>2016-04-25T05:29:44.000Z</time>
</trkpt>
<trkpt lat="33.2528135" lon="35.7198005">
<ele>730.599915</ele>
<time>2016-04-25T05:29:51.000Z</time>
</trkpt>
<trkpt lat="33.2528676" lon="35.7198889">
<ele>731.000000</ele>
<time>2016-04-25T05:29:58.000Z</time>
</trkpt>
<trkpt lat="33.2529102" lon="35.7200045">
<ele>731.800049</ele>
<time>2016-04-25T05:30:06.000Z</time>
</trkpt>
<trkpt lat="33.2529358" lon="35.7201129">
<ele>732.799988</ele>
<time>2016-04-25T05:30:13.000Z</time>
</trkpt>
<trkpt lat="33.2529362" lon="35.7202276">
<ele>734.000000</ele>
<time>2016-04-25T05:30:20.000Z</time>
</trkpt>
<trkpt lat="33.2529174" lon="35.7203414">
<ele>735.400024</ele>
<time>2016-04-25T05:30:27.000Z</time>
</trkpt>
<trkpt lat="33.2528926" lon="35.7204477">
<ele>736.799988</ele>
<time>2016-04-25T05:30:34.000Z</time>
</trkpt>
<trkpt lat="33.2528373" lon="35.7205444">
<ele>738.400024</ele>
<time>2016-04-25T05:30:41.000Z</time>
</trkpt>
<trkpt lat="33.2527716" lon="35.7206333">
<ele>740.799927</ele>
<time>2016-04-25T05:30:48.000Z</time>
</trkpt>
<trkpt lat="33.2527011" lon="35.7207001">
<ele>742.599976</ele>
<time>2016-04-25T05:30:54.000Z</time>
</trkpt>
<trkpt lat="33.2526189" lon="35.7207648">
<ele>744.000000</ele>
<time>2016-04-25T05:31:00.000Z</time>
</trkpt>
<trkpt lat="33.2525390" lon="35.7208301">
<ele>744.400024</ele>
<time>2016-04-25T05:31:06.000Z</time>
</trkpt>
<trkpt lat="33.2524523" lon="35.7208959">
<ele>744.799988</ele>
<time>2016-04-25T05:31:12.000Z</time>
</trkpt>
<trkpt lat="33.2523641" lon="35.7209643">
<ele>745.200012</ele>
<time>2016-04-25T05:31:18.000Z</time>
</trkpt>
<trkpt lat="33.2522747" lon="35.7210367">
<ele>745.599976</ele>
<time>2016-04-25T05:31:23.000Z</time>
</trkpt>
<trkpt lat="33.2521997" lon="35.7210971">
<ele>745.400024</ele>
<time>2016-04-25T05:31:27.000Z</time>
</trkpt>
<trkpt lat="33.2521188" lon="35.7211702">
<ele>745.400024</ele>
<time>2016-04-25T05:31:31.000Z</time>
</trkpt>
<trkpt lat="33.2520383" lon="35.7212411">
<ele>745.400024</ele>
<time>2016-04-25T05:31:35.000Z</time>
</trkpt>
<trkpt lat="33.2519684" lon="35.7213206">
<ele>745.599976</ele>
<time>2016-04-25T05:31:39.000Z</time>
</trkpt>
<trkpt lat="33.2519016" lon="35.7214066">
<ele>746.000000</ele>
<time>2016-04-25T05:31:43.000Z</time>
</trkpt>
<trkpt lat="33.2518420" lon="35.7215004">
<ele>747.200012</ele>
<time>2016-04-25T05:31:47.000Z</time>
</trkpt>
<trkpt lat="33.2517924" lon="35.7215986">
<ele>748.599976</ele>
<time>2016-04-25T05:31:51.000Z</time>
</trkpt>
<trkpt lat="33.2517384" lon="35.7216941">
<ele>749.600037</ele>
<time>2016-04-25T05:31:56.000Z</time>
</trkpt>
<trkpt lat="33.2516798" lon="35.7217990">
<ele>750.400024</ele>
<time>2016-04-25T05:32:02.000Z</time>
</trkpt>
<trkpt lat="33.2516234" lon="35.7218983">
<ele>751.400024</ele>
<time>2016-04-25T05:32:08.000Z</time>
</trkpt>
<trkpt lat="33.2515709" lon="35.7219889">
<ele>752.000000</ele>
<time>2016-04-25T05:32:14.000Z</time>
</trkpt>
<trkpt lat="33.2515124" lon="35.7220919">
<ele>752.799988</ele>
<time>2016-04-25T05:32:21.000Z</time>
</trkpt>
<trkpt lat="33.2514576" lon="35.7221985">
<ele>753.599976</ele>
<time>2016-04-25T05:32:28.000Z</time>
</trkpt>
<trkpt lat="33.2513987" lon="35.7222954">
<ele>753.799988</ele>
<time>2016-04-25T05:32:35.000Z</time>
</trkpt>
<trkpt lat="33.2513450" lon="35.7224072">
<ele>754.200012</ele>
<time>2016-04-25T05:32:42.000Z</time>
</trkpt>
<trkpt lat="33.2512873" lon="35.7225164">
<ele>754.599976</ele>
<time>2016-04-25T05:32:49.000Z</time>
</trkpt>
<trkpt lat="33.2512415" lon="35.7226184">
<ele>755.200073</ele>
<time>2016-04-25T05:32:56.000Z</time>
</trkpt>
<trkpt lat="33.2512076" lon="35.7227279">
<ele>756.200012</ele>
<time>2016-04-25T05:33:03.000Z</time>
</trkpt>
<trkpt lat="33.2511671" lon="35.7228289">
<ele>757.000000</ele>
<time>2016-04-25T05:33:10.000Z</time>
</trkpt>
<trkpt lat="33.2511250" lon="35.7229277">
<ele>757.599976</ele>
<time>2016-04-25T05:33:17.000Z</time>
</trkpt>
<trkpt lat="33.2510891" lon="35.7230374">
<ele>758.599976</ele>
<time>2016-04-25T05:33:24.000Z</time>
</trkpt>
<trkpt lat="33.2510486" lon="35.7231497">
<ele>759.200012</ele>
<time>2016-04-25T05:33:31.000Z</time>
</trkpt>
<trkpt lat="33.2510137" lon="35.7232501">
<ele>759.800049</ele>
<time>2016-04-25T05:33:38.000Z</time>
</trkpt>
<trkpt lat="33.2509804" lon="35.7233572">
<ele>760.400024</ele>
<time>2016-04-25T05:33:45.000Z</time>
</trkpt>
<trkpt lat="33.2509448" lon="35.7234734">
<ele>760.799988</ele>
<time>2016-04-25T05:33:52.000Z</time>
</trkpt>
<trkpt lat="33.2509113" lon="35.7235729">
<ele>761.200073</ele>
<time>2016-04-25T05:33:58.000Z</time>
</trkpt>
<trkpt lat="33.2508839" lon="35.7236796">
<ele>761.799988</ele>
<time>2016-04-25T05:34:04.000Z</time>
</trkpt>
<trkpt lat="33.2508593" lon="35.7237982">
<ele>762.599976</ele>
<time>2016-04-25T05:34:11.000Z</time>
</trkpt>
<trkpt lat="33.2508328" lon="35.7239116">
<ele>763.799988</ele>
<time>2016-04-25T05:34:18.000Z</time>
</trkpt>
<trkpt lat="33.2508037" lon="35.7240290">
<ele>764.599976</ele>
<time>2016-04-25T05:34:25.000Z</time>
</trkpt>
<trkpt lat="33.2507831" lon="35.7241351">
<ele>765.400024</ele>
<time>2016-04-25T05:34:31.000Z</time>
</trkpt>
<trkpt lat="33.2507628" lon="35.7242425">
<ele>766.200012</ele>
<time>2016-04-25T05:34:37.000Z</time>
</trkpt>
<trkpt lat="33.2507479" lon="35.7243544">
<ele>767.199951</ele>
<time>2016-04-25T05:34:43.000Z</time>
</trkpt>
<trkpt lat="33.2507245" lon="35.7244684">
<ele>768.200012</ele>
<time>2016-04-25T05:34:49.000Z</time>
</trkpt>
<trkpt lat="33.2507099" lon="35.7245798">
<ele>769.000000</ele>
<time>2016-04-25T05:34:55.000Z</time>
</trkpt>
<trkpt lat="33.2506889" lon="35.7246878">
<ele>769.599976</ele>
<time>2016-04-25T05:35:01.000Z</time>
</trkpt>
<trkpt lat="33.2506746" lon="35.7247963">
<ele>770.799988</ele>
<time>2016-04-25T05:35:07.000Z</time>
</trkpt>
<trkpt lat="33.2506534" lon="35.7249189">
<ele>772.200012</ele>
<time>2016-04-25T05:35:14.000Z</time>
</trkpt>
<trkpt lat="33.2506355" lon="35.7250461">
<ele>773.599976</ele>
<time>2016-04-25T05:35:21.000Z</time>
</trkpt>
<trkpt lat="33.2506140" lon="35.7251631">
<ele>774.799988</ele>
<time>2016-04-25T05:35:29.000Z</time>
</trkpt>
<trkpt lat="33.2505998" lon="35.7252710">
<ele>775.799988</ele>
<time>2016-04-25T05:35:36.000Z</time>
</trkpt>
<trkpt lat="33.2505760" lon="35.7253788">
<ele>776.400024</ele>
<time>2016-04-25T05:35:43.000Z</time>
</trkpt>
<trkpt lat="33.2505575" lon="35.7254912">
<ele>777.399963</ele>
<time>2016-04-25T05:35:50.000Z</time>
</trkpt>
<trkpt lat="33.2505411" lon="35.7255930">
<ele>778.000000</ele>
<time>2016-04-25T05:36:41.000Z</time>
</trkpt>
<trkpt lat="33.2505219" lon="35.7257112">
<ele>778.599976</ele>
<time>2016-04-25T05:36:47.000Z</time>
</trkpt>
<trkpt lat="33.2505117" lon="35.7258258">
<ele>779.599976</ele>
<time>2016-04-25T05:36:53.000Z</time>
</trkpt>
<trkpt lat="33.2504915" lon="35.7259426">
<ele>780.200012</ele>
<time>2016-04-25T05:36:59.000Z</time>
</trkpt>
<trkpt lat="33.2504721" lon="35.7260557">
<ele>780.799988</ele>
<time>2016-04-25T05:37:05.000Z</time>
</trkpt>
<trkpt lat="33.2504542" lon="35.7261685">
<ele>781.400024</ele>
<time>2016-04-25T05:37:11.000Z</time>
</trkpt>
<trkpt lat="33.2504289" lon="35.7262815">
<ele>781.800049</ele>
<time>2016-04-25T05:37:17.000Z</time>
</trkpt>
<trkpt lat="33.2504100" lon="35.7263885">
<ele>782.200012</ele>
<time>2016-04-25T05:37:22.000Z</time>
</trkpt>
<trkpt lat="33.2503924" lon="35.7265080">
<ele>782.400024</ele>
<time>2016-04-25T05:37:27.000Z</time>
</trkpt>
<trkpt lat="33.2503753" lon="35.7266335">
<ele>782.599976</ele>
<time>2016-04-25T05:37:32.000Z</time>
</trkpt>
<trkpt lat="33.2503584" lon="35.7267519">
<ele>784.000000</ele>
<time>2016-04-25T05:37:37.000Z</time>
</trkpt>
<trkpt lat="33.2503330" lon="35.7268745">
<ele>785.200012</ele>
<time>2016-04-25T05:37:42.000Z</time>
</trkpt>
<trkpt lat="33.2503134" lon="35.7270064">
<ele>786.599976</ele>
<time>2016-04-25T05:37:47.000Z</time>
</trkpt>
<trkpt lat="33.2502897" lon="35.7271278">
<ele>787.799927</ele>
<time>2016-04-25T05:37:52.000Z</time>
</trkpt>
<trkpt lat="33.2502646" lon="35.7272377">
<ele>788.599976</ele>
<time>2016-04-25T05:37:57.000Z</time>
</trkpt>
<trkpt lat="33.2502308" lon="35.7273405">
<ele>789.199951</ele>
<time>2016-04-25T05:38:02.000Z</time>
</trkpt>
<trkpt lat="33.2501890" lon="35.7274496">
<ele>790.799927</ele>
<time>2016-04-25T05:38:07.000Z</time>
</trkpt>
<trkpt lat="33.2501426" lon="35.7275477">
<ele>792.199951</ele>
<time>2016-04-25T05:38:12.000Z</time>
</trkpt>
<trkpt lat="33.2500855" lon="35.7276550">
<ele>793.400085</ele>
<time>2016-04-25T05:38:18.000Z</time>
</trkpt>
<trkpt lat="33.2500287" lon="35.7277508">
<ele>794.000000</ele>
<time>2016-04-25T05:38:24.000Z</time>
</trkpt>
<trkpt lat="33.2499740" lon="35.7278463">
<ele>794.799988</ele>
<time>2016-04-25T05:38:30.000Z</time>
</trkpt>
<trkpt lat="33.2499165" lon="35.7279312">
<ele>794.799988</ele>
<time>2016-04-25T05:38:36.000Z</time>
</trkpt>
<trkpt lat="33.2498579" lon="35.7280249">
<ele>794.400024</ele>
<time>2016-04-25T05:38:43.000Z</time>
</trkpt>
<trkpt lat="33.2498018" lon="35.7281266">
<ele>793.799927</ele>
<time>2016-04-25T05:38:50.000Z</time>
</trkpt>
<trkpt lat="33.2497487" lon="35.7282353">
<ele>793.400085</ele>
<time>2016-04-25T05:38:57.000Z</time>
</trkpt>
<trkpt lat="33.2497084" lon="35.7283462">
<ele>793.200012</ele>
<time>2016-04-25T05:39:04.000Z</time>
</trkpt>
<trkpt lat="33.2496723" lon="35.7284503">
<ele>793.200012</ele>
<time>2016-04-25T05:39:11.000Z</time>
</trkpt>
<trkpt lat="33.2496398" lon="35.7285658">
<ele>793.200012</ele>
<time>2016-04-25T05:39:18.000Z</time>
</trkpt>
<trkpt lat="33.2496312" lon="35.7286824">
<ele>793.799927</ele>
<time>2016-04-25T05:39:25.000Z</time>
</trkpt>
<trkpt lat="33.2496233" lon="35.7288009">
<ele>794.400024</ele>
<time>2016-04-25T05:39:32.000Z</time>
</trkpt>
<trkpt lat="33.2496331" lon="35.7289095">
<ele>795.400024</ele>
<time>2016-04-25T05:39:39.000Z</time>
</trkpt>
<trkpt lat="33.2496539" lon="35.7290229">
<ele>796.400085</ele>
<time>2016-04-25T05:39:46.000Z</time>
</trkpt>
<trkpt lat="33.2496781" lon="35.7291356">
<ele>797.599976</ele>
<time>2016-04-25T05:39:53.000Z</time>
</trkpt>
<trkpt lat="33.2497127" lon="35.7292465">
<ele>799.000000</ele>
<time>2016-04-25T05:40:00.000Z</time>
</trkpt>
<trkpt lat="33.2497529" lon="35.7293585">
<ele>800.599976</ele>
<time>2016-04-25T05:40:07.000Z</time>
</trkpt>
<trkpt lat="33.2497911" lon="35.7294671">
<ele>802.799988</ele>
<time>2016-04-25T05:40:14.000Z</time>
</trkpt>
<trkpt lat="33.2498370" lon="35.7295736">
<ele>805.200012</ele>
<time>2016-04-25T05:40:21.000Z</time>
</trkpt>
<trkpt lat="33.2498849" lon="35.7296827">
<ele>807.400024</ele>
<time>2016-04-25T05:40:28.000Z</time>
</trkpt>
<trkpt lat="33.2499348" lon="35.7297852">
<ele>809.000000</ele>
<time>2016-04-25T05:40:35.000Z</time>
</trkpt>
<trkpt lat="33.2499787" lon="35.7298829">
<ele>810.200012</ele>
<time>2016-04-25T05:40:42.000Z</time>
</trkpt>
<trkpt lat="33.2500356" lon="35.7299684">
<ele>811.400024</ele>
<time>2016-04-25T05:42:20.000Z</time>
</trkpt>
<trkpt lat="33.2500801" lon="35.7300745">
<ele>812.599976</ele>
<time>2016-04-25T05:42:25.000Z</time>
</trkpt>
<trkpt lat="33.2501122" lon="35.7301916">
<ele>813.799988</ele>
<time>2016-04-25T05:42:31.000Z</time>
</trkpt>
<trkpt lat="33.2501528" lon="35.7302921">
<ele>814.199951</ele>
<time>2016-04-25T05:42:35.000Z</time>
</trkpt>
<trkpt lat="33.2502025" lon="35.7304083">
<ele>814.199951</ele>
<time>2016-04-25T05:42:39.000Z</time>
</trkpt>
<trkpt lat="33.2502523" lon="35.7305416">
<ele>814.199951</ele>
<time>2016-04-25T05:42:43.000Z</time>
</trkpt>
<trkpt lat="33.2502951" lon="35.7306444">
<ele>813.599976</ele>
<time>2016-04-25T05:42:46.000Z</time>
</trkpt>
<trkpt lat="33.2503431" lon="35.7307563">
<ele>812.800049</ele>
<time>2016-04-25T05:42:49.000Z</time>
</trkpt>
<trkpt lat="33.2503955" lon="35.7308817">
<ele>812.200012</ele>
<time>2016-04-25T05:42:52.000Z</time>
</trkpt>
<trkpt lat="33.2504586" lon="35.7310253">
<ele>811.200073</ele>
<time>2016-04-25T05:42:55.000Z</time>
</trkpt>
<trkpt lat="33.2505109" lon="35.7311312">
<ele>810.400024</ele>
<time>2016-04-25T05:42:57.000Z</time>
</trkpt>
<trkpt lat="33.2505747" lon="35.7312441">
<ele>809.599976</ele>
<time>2016-04-25T05:42:59.000Z</time>
</trkpt>
<trkpt lat="33.2506579" lon="35.7313580">
<ele>808.400024</ele>
<time>2016-04-25T05:43:01.000Z</time>
</trkpt>
<trkpt lat="33.2507611" lon="35.7314636">
<ele>807.200012</ele>
<time>2016-04-25T05:43:03.000Z</time>
</trkpt>
<trkpt lat="33.2508804" lon="35.7315516">
<ele>806.000000</ele>
<time>2016-04-25T05:43:05.000Z</time>
</trkpt>
<trkpt lat="33.2510147" lon="35.7316179">
<ele>805.399963</ele>
<time>2016-04-25T05:43:07.000Z</time>
</trkpt>
<trkpt lat="33.2511520" lon="35.7316521">
<ele>805.799988</ele>
<time>2016-04-25T05:43:09.000Z</time>
</trkpt>
<trkpt lat="33.2512833" lon="35.7316542">
<ele>806.200012</ele>
<time>2016-04-25T05:43:11.000Z</time>
</trkpt>
<trkpt lat="33.2514059" lon="35.7316366">
<ele>806.800049</ele>
<time>2016-04-25T05:43:13.000Z</time>
</trkpt>
<trkpt lat="33.2515167" lon="35.7316067">
<ele>807.200012</ele>
<time>2016-04-25T05:43:15.000Z</time>
</trkpt>
<trkpt lat="33.2516134" lon="35.7315767">
<ele>807.599976</ele>
<time>2016-04-25T05:43:17.000Z</time>
</trkpt>
<trkpt lat="33.2517304" lon="35.7315402">
<ele>808.200073</ele>
<time>2016-04-25T05:43:20.000Z</time>
</trkpt>
<trkpt lat="33.2518230" lon="35.7315022">
<ele>808.799988</ele>
<time>2016-04-25T05:43:23.000Z</time>
</trkpt>
<trkpt lat="33.2519171" lon="35.7314588">
<ele>810.400024</ele>
<time>2016-04-25T05:43:27.000Z</time>
</trkpt>
<trkpt lat="33.2520242" lon="35.7314161">
<ele>811.599976</ele>
<time>2016-04-25T05:43:32.000Z</time>
</trkpt>
<trkpt lat="33.2521272" lon="35.7313663">
<ele>812.800049</ele>
<time>2016-04-25T05:43:38.000Z</time>
</trkpt>
<trkpt lat="33.2522219" lon="35.7313287">
<ele>813.799988</ele>
<time>2016-04-25T05:43:44.000Z</time>
</trkpt>
<trkpt lat="33.2523171" lon="35.7312817">
<ele>815.000000</ele>
<time>2016-04-25T05:43:50.000Z</time>
</trkpt>
<trkpt lat="33.2524149" lon="35.7312424">
<ele>816.000000</ele>
<time>2016-04-25T05:43:57.000Z</time>
</trkpt>
<trkpt lat="33.2525130" lon="35.7311973">
<ele>816.799988</ele>
<time>2016-04-25T05:44:04.000Z</time>
</trkpt>
<trkpt lat="33.2526047" lon="35.7311580">
<ele>817.199951</ele>
<time>2016-04-25T05:44:11.000Z</time>
</trkpt>
<trkpt lat="33.2526940" lon="35.7311244">
<ele>817.599976</ele>
<time>2016-04-25T05:44:18.000Z</time>
</trkpt>
<trkpt lat="33.2527846" lon="35.7310816">
<ele>818.000000</ele>
<time>2016-04-25T05:44:25.000Z</time>
</trkpt>
<trkpt lat="33.2528834" lon="35.7310461">
<ele>818.599976</ele>
<time>2016-04-25T05:44:33.000Z</time>
</trkpt>
<trkpt lat="33.2529794" lon="35.7310112">
<ele>819.000000</ele>
<time>2016-04-25T05:44:41.000Z</time>
</trkpt>
<trkpt lat="33.2530804" lon="35.7309844">
<ele>819.799988</ele>
<time>2016-04-25T05:44:49.000Z</time>
</trkpt>
<trkpt lat="33.2531728" lon="35.7309696">
<ele>820.400024</ele>
<time>2016-04-25T05:44:57.000Z</time>
</trkpt>
<trkpt lat="33.2532656" lon="35.7309644">
<ele>821.200012</ele>
<time>2016-04-25T05:45:04.000Z</time>
</trkpt>
<trkpt lat="33.2533608" lon="35.7309652">
<ele>822.200012</ele>
<time>2016-04-25T05:45:11.000Z</time>
</trkpt>
<trkpt lat="33.2534546" lon="35.7309658">
<ele>823.000061</ele>
<time>2016-04-25T05:45:18.000Z</time>
</trkpt>
<trkpt lat="33.2535543" lon="35.7309558">
<ele>824.200012</ele>
<time>2016-04-25T05:45:25.000Z</time>
</trkpt>
<trkpt lat="33.2536540" lon="35.7309540">
<ele>825.400024</ele>
<time>2016-04-25T05:45:32.000Z</time>
</trkpt>
<trkpt lat="33.2537414" lon="35.7309589">
<ele>826.400024</ele>
<time>2016-04-25T05:45:39.000Z</time>
</trkpt>
<trkpt lat="33.2538446" lon="35.7309541">
<ele>827.599915</ele>
<time>2016-04-25T05:45:47.000Z</time>
</trkpt>
<trkpt lat="33.2539320" lon="35.7309534">
<ele>828.599976</ele>
<time>2016-04-25T05:45:54.000Z</time>
</trkpt>
<trkpt lat="33.2540271" lon="35.7309526">
<ele>829.799988</ele>
<time>2016-04-25T05:46:01.000Z</time>
</trkpt>
<trkpt lat="33.2541207" lon="35.7309585">
<ele>831.000000</ele>
<time>2016-04-25T05:46:08.000Z</time>
</trkpt>
<trkpt lat="33.2542103" lon="35.7309589">
<ele>831.999939</ele>
<time>2016-04-25T05:46:15.000Z</time>
</trkpt>
<trkpt lat="33.2543052" lon="35.7309603">
<ele>833.200073</ele>
<time>2016-04-25T05:46:22.000Z</time>
</trkpt>
<trkpt lat="33.2544014" lon="35.7309610">
<ele>834.000000</ele>
<time>2016-04-25T05:46:29.000Z</time>
</trkpt>
<trkpt lat="33.2545004" lon="35.7309575">
<ele>834.800049</ele>
<time>2016-04-25T05:46:36.000Z</time>
</trkpt>
<trkpt lat="33.2546062" lon="35.7309622">
<ele>835.799988</ele>
<time>2016-04-25T05:46:43.000Z</time>
</trkpt>
<trkpt lat="33.2547076" lon="35.7309632">
<ele>836.599976</ele>
<time>2016-04-25T05:46:50.000Z</time>
</trkpt>
<trkpt lat="33.2547983" lon="35.7309601">
<ele>837.400024</ele>
<time>2016-04-25T05:46:56.000Z</time>
</trkpt>
<trkpt lat="33.2549013" lon="35.7309619">
<ele>838.400024</ele>
<time>2016-04-25T05:47:03.000Z</time>
</trkpt>
<trkpt lat="33.2549968" lon="35.7309599">
<ele>839.400024</ele>
<time>2016-04-25T05:47:09.000Z</time>
</trkpt>
<trkpt lat="33.2551028" lon="35.7309627">
<ele>840.400024</ele>
<time>2016-04-25T05:47:15.000Z</time>
</trkpt>
<trkpt lat="33.2552053" lon="35.7309552">
<ele>841.400024</ele>
<time>2016-04-25T05:47:21.000Z</time>
</trkpt>
<trkpt lat="33.2553073" lon="35.7309563">
<ele>842.400024</ele>
<time>2016-04-25T05:47:27.000Z</time>
</trkpt>
<trkpt lat="33.2554139" lon="35.7309461">
<ele>843.599976</ele>
<time>2016-04-25T05:47:33.000Z</time>
</trkpt>
<trkpt lat="33.2555056" lon="35.7309401">
<ele>844.400024</ele>
<time>2016-04-25T05:47:38.000Z</time>
</trkpt>
<trkpt lat="33.2556122" lon="35.7309259">
<ele>845.000061</ele>
<time>2016-04-25T05:47:44.000Z</time>
</trkpt>
<trkpt lat="33.2557105" lon="35.7309171">
<ele>845.400024</ele>
<time>2016-04-25T05:47:50.000Z</time>
</trkpt>
<trkpt lat="33.2558028" lon="35.7308977">
<ele>845.599976</ele>
<time>2016-04-25T05:47:56.000Z</time>
</trkpt>
<trkpt lat="33.2558915" lon="35.7308800">
<ele>846.000000</ele>
<time>2016-04-25T05:48:02.000Z</time>
</trkpt>
<trkpt lat="33.2559889" lon="35.7308629">
<ele>846.400085</ele>
<time>2016-04-25T05:48:08.000Z</time>
</trkpt>
<trkpt lat="33.2560829" lon="35.7308307">
<ele>846.799988</ele>
<time>2016-04-25T05:48:15.000Z</time>
</trkpt>
<trkpt lat="33.2561778" lon="35.7308003">
<ele>847.200012</ele>
<time>2016-04-25T05:48:21.000Z</time>
</trkpt>
<trkpt lat="33.2562694" lon="35.7307776">
<ele>847.799988</ele>
<time>2016-04-25T05:48:27.000Z</time>
</trkpt>
<trkpt lat="33.2563742" lon="35.7307457">
<ele>848.200012</ele>
<time>2016-04-25T05:48:34.000Z</time>
</trkpt>
<trkpt lat="33.2564638" lon="35.7307135">
<ele>848.599976</ele>
<time>2016-04-25T05:48:40.000Z</time>
</trkpt>
<trkpt lat="33.2565657" lon="35.7306879">
<ele>849.200012</ele>
<time>2016-04-25T05:48:46.000Z</time>
</trkpt>
<trkpt lat="33.2566595" lon="35.7306557">
<ele>849.600037</ele>
<time>2016-04-25T05:48:52.000Z</time>
</trkpt>
<trkpt lat="33.2567531" lon="35.7306246">
<ele>850.000000</ele>
<time>2016-04-25T05:48:58.000Z</time>
</trkpt>
<trkpt lat="33.2568468" lon="35.7305996">
<ele>850.400024</ele>
<time>2016-04-25T05:49:04.000Z</time>
</trkpt>
<trkpt lat="33.2569334" lon="35.7305691">
<ele>850.599976</ele>
<time>2016-04-25T05:49:10.000Z</time>
</trkpt>
<trkpt lat="33.2570243" lon="35.7305424">
<ele>850.999939</ele>
<time>2016-04-25T05:49:16.000Z</time>
</trkpt>
<trkpt lat="33.2571122" lon="35.7305093">
<ele>851.200012</ele>
<time>2016-04-25T05:49:22.000Z</time>
</trkpt>
<trkpt lat="33.2572034" lon="35.7304731">
<ele>851.400024</ele>
<time>2016-04-25T05:49:28.000Z</time>
</trkpt>
<trkpt lat="33.2572933" lon="35.7304215">
<ele>851.400024</ele>
<time>2016-04-25T05:49:34.000Z</time>
</trkpt>
<trkpt lat="33.2573764" lon="35.7303697">
<ele>851.200012</ele>
<time>2016-04-25T05:49:40.000Z</time>
</trkpt>
<trkpt lat="33.2574610" lon="35.7303117">
<ele>851.799988</ele>
<time>2016-04-25T05:49:46.000Z</time>
</trkpt>
<trkpt lat="33.2575372" lon="35.7302425">
<ele>853.400024</ele>
<time>2016-04-25T05:49:52.000Z</time>
</trkpt>
<trkpt lat="33.2576038" lon="35.7301625">
<ele>854.599976</ele>
<time>2016-04-25T05:49:58.000Z</time>
</trkpt>
<trkpt lat="33.2576810" lon="35.7300792">
<ele>855.200012</ele>
<time>2016-04-25T05:50:05.000Z</time>
</trkpt>
<trkpt lat="33.2577413" lon="35.7300049">
<ele>855.200012</ele>
<time>2016-04-25T05:50:11.000Z</time>
</trkpt>
<trkpt lat="33.2577972" lon="35.7299151">
<ele>855.399963</ele>
<time>2016-04-25T05:50:17.000Z</time>
</trkpt>
<trkpt lat="33.2578569" lon="35.7298133">
<ele>856.200012</ele>
<time>2016-04-25T05:50:23.000Z</time>
</trkpt>
<trkpt lat="33.2579247" lon="35.7297184">
<ele>857.599976</ele>
<time>2016-04-25T05:50:29.000Z</time>
</trkpt>
<trkpt lat="33.2579913" lon="35.7296293">
<ele>857.400024</ele>
<time>2016-04-25T05:50:35.000Z</time>
</trkpt>
<trkpt lat="33.2580526" lon="35.7295417">
<ele>856.999939</ele>
<time>2016-04-25T05:50:41.000Z</time>
</trkpt>
<trkpt lat="33.2581195" lon="35.7294523">
<ele>856.599976</ele>
<time>2016-04-25T05:50:47.000Z</time>
</trkpt>
<trkpt lat="33.2581846" lon="35.7293534">
<ele>856.799988</ele>
<time>2016-04-25T05:50:53.000Z</time>
</trkpt>
<trkpt lat="33.2582484" lon="35.7292545">
<ele>857.799988</ele>
<time>2016-04-25T05:50:59.000Z</time>
</trkpt>
<trkpt lat="33.2583127" lon="35.7291607">
<ele>858.799988</ele>
<time>2016-04-25T05:51:05.000Z</time>
</trkpt>
<trkpt lat="33.2583798" lon="35.7290623">
<ele>860.000000</ele>
<time>2016-04-25T05:51:11.000Z</time>
</trkpt>
<trkpt lat="33.2584392" lon="35.7289580">
<ele>860.799988</ele>
<time>2016-04-25T05:51:17.000Z</time>
</trkpt>
<trkpt lat="33.2584322" lon="35.7288466">
<ele>859.599976</ele>
<time>2016-04-25T05:51:23.000Z</time>
</trkpt>
<trkpt lat="33.2584934" lon="35.7287824">
<ele>860.599976</ele>
<time>2016-04-25T05:54:20.000Z</time>
</trkpt>
<trkpt lat="33.2585885" lon="35.7287440">
<ele>862.000000</ele>
<time>2016-04-25T05:54:30.000Z</time>
</trkpt>
<trkpt lat="33.2586640" lon="35.7286560">
<ele>862.599976</ele>
<time>2016-04-25T05:54:36.000Z</time>
</trkpt>
<trkpt lat="33.2587268" lon="35.7285560">
<ele>862.599976</ele>
<time>2016-04-25T05:54:43.000Z</time>
</trkpt>
<trkpt lat="33.2587916" lon="35.7284579">
<ele>862.800049</ele>
<time>2016-04-25T05:54:50.000Z</time>
</trkpt>
<trkpt lat="33.2588577" lon="35.7283656">
<ele>863.400024</ele>
<time>2016-04-25T05:54:57.000Z</time>
</trkpt>
<trkpt lat="33.2589233" lon="35.7282772">
<ele>864.400024</ele>
<time>2016-04-25T05:55:04.000Z</time>
</trkpt>
<trkpt lat="33.2589875" lon="35.7281904">
<ele>865.400024</ele>
<time>2016-04-25T05:55:12.000Z</time>
</trkpt>
<trkpt lat="33.2590537" lon="35.7281129">
<ele>866.599976</ele>
<time>2016-04-25T05:55:19.000Z</time>
</trkpt>
<trkpt lat="33.2591197" lon="35.7280286">
<ele>867.400024</ele>
<time>2016-04-25T05:55:26.000Z</time>
</trkpt>
<trkpt lat="33.2591918" lon="35.7279421">
<ele>867.799988</ele>
<time>2016-04-25T05:55:33.000Z</time>
</trkpt>
<trkpt lat="33.2592650" lon="35.7278660">
<ele>869.200012</ele>
<time>2016-04-25T05:55:40.000Z</time>
</trkpt>
<trkpt lat="33.2593427" lon="35.7277933">
<ele>870.000061</ele>
<time>2016-04-25T05:55:47.000Z</time>
</trkpt>
<trkpt lat="33.2594327" lon="35.7277237">
<ele>870.199951</ele>
<time>2016-04-25T05:55:55.000Z</time>
</trkpt>
<trkpt lat="33.2595173" lon="35.7276854">
<ele>870.799988</ele>
<time>2016-04-25T05:56:02.000Z</time>
</trkpt>
<trkpt lat="33.2596153" lon="35.7276516">
<ele>871.600037</ele>
<time>2016-04-25T05:56:09.000Z</time>
</trkpt>
<trkpt lat="33.2597142" lon="35.7276421">
<ele>872.799988</ele>
<time>2016-04-25T05:56:16.000Z</time>
</trkpt>
<trkpt lat="33.2598053" lon="35.7276474">
<ele>874.000000</ele>
<time>2016-04-25T05:56:23.000Z</time>
</trkpt>
<trkpt lat="33.2599031" lon="35.7276562">
<ele>875.400024</ele>
<time>2016-04-25T05:56:30.000Z</time>
</trkpt>
<trkpt lat="33.2599923" lon="35.7276946">
<ele>877.000000</ele>
<time>2016-04-25T05:56:37.000Z</time>
</trkpt>
<trkpt lat="33.2600788" lon="35.7277540">
<ele>878.599976</ele>
<time>2016-04-25T05:56:44.000Z</time>
</trkpt>
<trkpt lat="33.2601565" lon="35.7278281">
<ele>879.400024</ele>
<time>2016-04-25T05:56:51.000Z</time>
</trkpt>
<trkpt lat="33.2602168" lon="35.7279099">
<ele>878.999939</ele>
<time>2016-04-25T05:56:58.000Z</time>
</trkpt>
<trkpt lat="33.2602735" lon="35.7280013">
<ele>878.799988</ele>
<time>2016-04-25T05:57:05.000Z</time>
</trkpt>
<trkpt lat="33.2603228" lon="35.7280967">
<ele>879.400024</ele>
<time>2016-04-25T05:57:12.000Z</time>
</trkpt>
<trkpt lat="33.2603519" lon="35.7282032">
<ele>881.000000</ele>
<time>2016-04-25T05:57:19.000Z</time>
</trkpt>
<trkpt lat="33.2603771" lon="35.7283139">
<ele>882.599976</ele>
<time>2016-04-25T05:57:26.000Z</time>
</trkpt>
<trkpt lat="33.2603902" lon="35.7284290">
<ele>883.799988</ele>
<time>2016-04-25T05:57:33.000Z</time>
</trkpt>
<trkpt lat="33.2603776" lon="35.7285605">
<ele>885.599976</ele>
<time>2016-04-25T05:57:41.000Z</time>
</trkpt>
<trkpt lat="33.2603564" lon="35.7286617">
<ele>887.000000</ele>
<time>2016-04-25T05:57:48.000Z</time>
</trkpt>
<trkpt lat="33.2603286" lon="35.7287749">
<ele>888.599976</ele>
<time>2016-04-25T05:57:55.000Z</time>
</trkpt>
<trkpt lat="33.2603043" lon="35.7288906">
<ele>890.400024</ele>
<time>2016-04-25T05:58:02.000Z</time>
</trkpt>
<trkpt lat="33.2602782" lon="35.7289951">
<ele>892.799988</ele>
<time>2016-04-25T05:58:09.000Z</time>
</trkpt>
<trkpt lat="33.2602534" lon="35.7291069">
<ele>893.599976</ele>
<time>2016-04-25T05:58:16.000Z</time>
</trkpt>
<trkpt lat="33.2602317" lon="35.7292157">
<ele>894.000000</ele>
<time>2016-04-25T05:58:23.000Z</time>
</trkpt>
<trkpt lat="33.2602068" lon="35.7293320">
<ele>894.400024</ele>
<time>2016-04-25T05:58:30.000Z</time>
</trkpt>
<trkpt lat="33.2601900" lon="35.7294558">
<ele>895.000061</ele>
<time>2016-04-25T05:58:37.000Z</time>
</trkpt>
<trkpt lat="33.2601674" lon="35.7295703">
<ele>895.599976</ele>
<time>2016-04-25T05:58:44.000Z</time>
</trkpt>
<trkpt lat="33.2601550" lon="35.7296809">
<ele>896.000000</ele>
<time>2016-04-25T05:58:51.000Z</time>
</trkpt>
<trkpt lat="33.2601559" lon="35.7298037">
<ele>896.799988</ele>
<time>2016-04-25T05:58:59.000Z</time>
</trkpt>
<trkpt lat="33.2601545" lon="35.7299182">
<ele>897.400024</ele>
<time>2016-04-25T05:59:07.000Z</time>
</trkpt>
<trkpt lat="33.2601626" lon="35.7300336">
<ele>898.000061</ele>
<time>2016-04-25T05:59:14.000Z</time>
</trkpt>
<trkpt lat="33.2601790" lon="35.7301556">
<ele>898.799988</ele>
<time>2016-04-25T05:59:21.000Z</time>
</trkpt>
<trkpt lat="33.2601842" lon="35.7302789">
<ele>899.400085</ele>
<time>2016-04-25T05:59:28.000Z</time>
</trkpt>
<trkpt lat="33.2601954" lon="35.7303935">
<ele>900.000000</ele>
<time>2016-04-25T05:59:34.000Z</time>
</trkpt>
<trkpt lat="33.2602065" lon="35.7305075">
<ele>900.799988</ele>
<time>2016-04-25T05:59:40.000Z</time>
</trkpt>
<trkpt lat="33.2602174" lon="35.7306170">
<ele>901.799988</ele>
<time>2016-04-25T05:59:46.000Z</time>
</trkpt>
<trkpt lat="33.2602254" lon="35.7307281">
<ele>902.399963</ele>
<time>2016-04-25T05:59:52.000Z</time>
</trkpt>
<trkpt lat="33.2602319" lon="35.7308401">
<ele>902.799988</ele>
<time>2016-04-25T05:59:58.000Z</time>
</trkpt>
<trkpt lat="33.2602449" lon="35.7309513">
<ele>903.200012</ele>
<time>2016-04-25T06:00:04.000Z</time>
</trkpt>
<trkpt lat="33.2602495" lon="35.7310633">
<ele>903.599976</ele>
<time>2016-04-25T06:00:10.000Z</time>
</trkpt>
<trkpt lat="33.2602643" lon="35.7311829">
<ele>904.200012</ele>
<time>2016-04-25T06:00:17.000Z</time>
</trkpt>
<trkpt lat="33.2602705" lon="35.7312905">
<ele>904.599976</ele>
<time>2016-04-25T06:00:23.000Z</time>
</trkpt>
<trkpt lat="33.2602778" lon="35.7313999">
<ele>905.200012</ele>
<time>2016-04-25T06:00:29.000Z</time>
</trkpt>
<trkpt lat="33.2602909" lon="35.7315141">
<ele>906.200012</ele>
<time>2016-04-25T06:00:36.000Z</time>
</trkpt>
<trkpt lat="33.2602987" lon="35.7316225">
<ele>906.799988</ele>
<time>2016-04-25T06:00:43.000Z</time>
</trkpt>
<trkpt lat="33.2603162" lon="35.7317481">
<ele>907.599976</ele>
<time>2016-04-25T06:00:51.000Z</time>
</trkpt>
<trkpt lat="33.2603270" lon="35.7318682">
<ele>908.400024</ele>
<time>2016-04-25T06:00:59.000Z</time>
</trkpt>
<trkpt lat="33.2603379" lon="35.7319890">
<ele>909.000000</ele>
<time>2016-04-25T06:01:07.000Z</time>
</trkpt>
<trkpt lat="33.2603466" lon="35.7321006">
<ele>909.599976</ele>
<time>2016-04-25T06:01:14.000Z</time>
</trkpt>
<trkpt lat="33.2603586" lon="35.7322225">
<ele>910.400024</ele>
<time>2016-04-25T06:01:22.000Z</time>
</trkpt>
<trkpt lat="33.2603622" lon="35.7323349">
<ele>911.400024</ele>
<time>2016-04-25T06:01:29.000Z</time>
</trkpt>
<trkpt lat="33.2603731" lon="35.7324573">
<ele>912.800049</ele>
<time>2016-04-25T06:01:37.000Z</time>
</trkpt>
<trkpt lat="33.2603850" lon="35.7325698">
<ele>913.400024</ele>
<time>2016-04-25T06:01:45.000Z</time>
</trkpt>
<trkpt lat="33.2603928" lon="35.7326897">
<ele>914.000000</ele>
<time>2016-04-25T06:01:53.000Z</time>
</trkpt>
<trkpt lat="33.2604036" lon="35.7328143">
<ele>914.799988</ele>
<time>2016-04-25T06:02:01.000Z</time>
</trkpt>
<trkpt lat="33.2604141" lon="35.7329443">
<ele>915.599976</ele>
<time>2016-04-25T06:02:09.000Z</time>
</trkpt>
<trkpt lat="33.2604237" lon="35.7330565">
<ele>916.400024</ele>
<time>2016-04-25T06:02:16.000Z</time>
</trkpt>
<trkpt lat="33.2604336" lon="35.7331648">
<ele>917.199951</ele>
<time>2016-04-25T06:02:23.000Z</time>
</trkpt>
<trkpt lat="33.2604404" lon="35.7332821">
<ele>918.200012</ele>
<time>2016-04-25T06:02:30.000Z</time>
</trkpt>
<trkpt lat="33.2604521" lon="35.7333912">
<ele>919.200012</ele>
<time>2016-04-25T06:02:36.000Z</time>
</trkpt>
<trkpt lat="33.2604625" lon="35.7335039">
<ele>920.400024</ele>
<time>2016-04-25T06:02:42.000Z</time>
</trkpt>
<trkpt lat="33.2604681" lon="35.7336189">
<ele>921.400085</ele>
<time>2016-04-25T06:02:48.000Z</time>
</trkpt>
<trkpt lat="33.2604775" lon="35.7337290">
<ele>922.599976</ele>
<time>2016-04-25T06:02:54.000Z</time>
</trkpt>
<trkpt lat="33.2604930" lon="35.7338443">
<ele>924.000000</ele>
<time>2016-04-25T06:03:01.000Z</time>
</trkpt>
<trkpt lat="33.2605044" lon="35.7339678">
<ele>925.000000</ele>
<time>2016-04-25T06:03:09.000Z</time>
</trkpt>
<trkpt lat="33.2605177" lon="35.7340775">
<ele>926.000061</ele>
<time>2016-04-25T06:03:16.000Z</time>
</trkpt>
<trkpt lat="33.2605289" lon="35.7341888">
<ele>927.000000</ele>
<time>2016-04-25T06:03:23.000Z</time>
</trkpt>
<trkpt lat="33.2605441" lon="35.7343078">
<ele>928.000000</ele>
<time>2016-04-25T06:03:31.000Z</time>
</trkpt>
<trkpt lat="33.2605598" lon="35.7344258">
<ele>928.799988</ele>
<time>2016-04-25T06:03:39.000Z</time>
</trkpt>
<trkpt lat="33.2605696" lon="35.7345385">
<ele>929.400024</ele>
<time>2016-04-25T06:03:46.000Z</time>
</trkpt>
<trkpt lat="33.2605839" lon="35.7346531">
<ele>930.000000</ele>
<time>2016-04-25T06:03:53.000Z</time>
</trkpt>
<trkpt lat="33.2605937" lon="35.7347650">
<ele>931.000000</ele>
<time>2016-04-25T06:04:00.000Z</time>
</trkpt>
<trkpt lat="33.2606101" lon="35.7348827">
<ele>932.400024</ele>
<time>2016-04-25T06:04:08.000Z</time>
</trkpt>
<trkpt lat="33.2606159" lon="35.7349980">
<ele>933.599915</ele>
<time>2016-04-25T06:04:15.000Z</time>
</trkpt>
<trkpt lat="33.2606299" lon="35.7351193">
<ele>935.000000</ele>
<time>2016-04-25T06:04:23.000Z</time>
</trkpt>
<trkpt lat="33.2606387" lon="35.7352345">
<ele>936.200073</ele>
<time>2016-04-25T06:04:31.000Z</time>
</trkpt>
<trkpt lat="33.2606351" lon="35.7353530">
<ele>936.599976</ele>
<time>2016-04-25T06:04:39.000Z</time>
</trkpt>
<trkpt lat="33.2606289" lon="35.7354723">
<ele>937.000000</ele>
<time>2016-04-25T06:04:47.000Z</time>
</trkpt>
<trkpt lat="33.2606340" lon="35.7355819">
<ele>937.599976</ele>
<time>2016-04-25T06:04:55.000Z</time>
</trkpt>
<trkpt lat="33.2606379" lon="35.7357069">
<ele>938.200012</ele>
<time>2016-04-25T06:05:04.000Z</time>
</trkpt>
<trkpt lat="33.2606436" lon="35.7358237">
<ele>938.799988</ele>
<time>2016-04-25T06:05:12.000Z</time>
</trkpt>
<trkpt lat="33.2606444" lon="35.7359378">
<ele>939.200073</ele>
<time>2016-04-25T06:05:20.000Z</time>
</trkpt>
<trkpt lat="33.2606483" lon="35.7360462">
<ele>939.799988</ele>
<time>2016-04-25T06:05:28.000Z</time>
</trkpt>
<trkpt lat="33.2606551" lon="35.7361654">
<ele>940.599976</ele>
<time>2016-04-25T06:05:37.000Z</time>
</trkpt>
<trkpt lat="33.2606652" lon="35.7362755">
<ele>941.599976</ele>
<time>2016-04-25T06:05:45.000Z</time>
</trkpt>
<trkpt lat="33.2606712" lon="35.7363831">
<ele>942.199951</ele>
<time>2016-04-25T06:05:53.000Z</time>
</trkpt>
<trkpt lat="33.2606853" lon="35.7364954">
<ele>941.799988</ele>
<time>2016-04-25T06:06:01.000Z</time>
</trkpt>
<trkpt lat="33.2607119" lon="35.7366046">
<ele>941.799988</ele>
<time>2016-04-25T06:06:10.000Z</time>
</trkpt>
<trkpt lat="33.2607476" lon="35.7367086">
<ele>942.199951</ele>
<time>2016-04-25T06:06:18.000Z</time>
</trkpt>
<trkpt lat="33.2607905" lon="35.7368323">
<ele>942.599976</ele>
<time>2016-04-25T06:06:27.000Z</time>
</trkpt>
<trkpt lat="33.2608303" lon="35.7369322">
<ele>943.000000</ele>
<time>2016-04-25T06:06:35.000Z</time>
</trkpt>
<trkpt lat="33.2608799" lon="35.7370292">
<ele>943.799927</ele>
<time>2016-04-25T06:06:42.000Z</time>
</trkpt>
<trkpt lat="33.2609413" lon="35.7371303">
<ele>945.000000</ele>
<time>2016-04-25T06:06:50.000Z</time>
</trkpt>
<trkpt lat="33.2610170" lon="35.7372195">
<ele>946.400085</ele>
<time>2016-04-25T06:06:57.000Z</time>
</trkpt>
<trkpt lat="33.2611032" lon="35.7373186">
<ele>948.000061</ele>
<time>2016-04-25T06:07:04.000Z</time>
</trkpt>
<trkpt lat="33.2611628" lon="35.7374083">
<ele>948.799988</ele>
<time>2016-04-25T06:07:10.000Z</time>
</trkpt>
<trkpt lat="33.2612276" lon="35.7375030">
<ele>950.200012</ele>
<time>2016-04-25T06:07:17.000Z</time>
</trkpt>
<trkpt lat="33.2612984" lon="35.7375908">
<ele>951.400024</ele>
<time>2016-04-25T06:07:24.000Z</time>
</trkpt>
<trkpt lat="33.2613676" lon="35.7376823">
<ele>952.799988</ele>
<time>2016-04-25T06:07:31.000Z</time>
</trkpt>
<trkpt lat="33.2613847" lon="35.7377413">
<ele>953.200012</ele>
<time>2016-04-25T06:09:01.000Z</time>
</trkpt>
<trkpt lat="33.2614593" lon="35.7377963">
<ele>954.599976</ele>
<time>2016-04-25T06:11:26.000Z</time>
</trkpt>
<trkpt lat="33.2615297" lon="35.7378792">
<ele>956.000000</ele>
<time>2016-04-25T06:11:34.000Z</time>
</trkpt>
<trkpt lat="33.2615873" lon="35.7379684">
<ele>956.999939</ele>
<time>2016-04-25T06:11:40.000Z</time>
</trkpt>
<trkpt lat="33.2616461" lon="35.7380680">
<ele>958.200073</ele>
<time>2016-04-25T06:11:47.000Z</time>
</trkpt>
<trkpt lat="33.2617031" lon="35.7381490">
<ele>959.599976</ele>
<time>2016-04-25T06:11:58.000Z</time>
</trkpt>
<trkpt lat="33.2617654" lon="35.7382482">
<ele>961.200073</ele>
<time>2016-04-25T06:12:06.000Z</time>
</trkpt>
<trkpt lat="33.2618240" lon="35.7383517">
<ele>962.400024</ele>
<time>2016-04-25T06:12:12.000Z</time>
</trkpt>
<trkpt lat="33.2618862" lon="35.7384531">
<ele>963.200012</ele>
<time>2016-04-25T06:12:18.000Z</time>
</trkpt>
<trkpt lat="33.2619239" lon="35.7385753">
<ele>963.799988</ele>
<time>2016-04-25T06:12:24.000Z</time>
</trkpt>
<trkpt lat="33.2619442" lon="35.7386848">
<ele>964.400024</ele>
<time>2016-04-25T06:12:30.000Z</time>
</trkpt>
<trkpt lat="33.2619626" lon="35.7386732">
<ele>964.400024</ele>
<time>2016-04-25T06:12:40.000Z</time>
</trkpt>
<trkpt lat="33.2618710" lon="35.7386850">
<ele>963.799988</ele>
<time>2016-04-25T06:12:46.000Z</time>
</trkpt>
<trkpt lat="33.2617974" lon="35.7387666">
<ele>963.599976</ele>
<time>2016-04-25T06:12:51.000Z</time>
</trkpt>
<trkpt lat="33.2617992" lon="35.7388093">
<ele>963.799988</ele>
<time>2016-04-25T06:13:16.000Z</time>
</trkpt>
<trkpt lat="33.2617510" lon="35.7387845">
<ele>962.800049</ele>
<time>2016-04-25T06:15:31.000Z</time>
</trkpt>
<trkpt lat="33.2616798" lon="35.7388639">
<ele>962.200012</ele>
<time>2016-04-25T06:15:37.000Z</time>
</trkpt>
<trkpt lat="33.2616156" lon="35.7389467">
<ele>962.400024</ele>
<time>2016-04-25T06:15:44.000Z</time>
</trkpt>
<trkpt lat="33.2615319" lon="35.7390063">
<ele>962.000000</ele>
<time>2016-04-25T06:15:51.000Z</time>
</trkpt>
<trkpt lat="33.2614518" lon="35.7390886">
<ele>962.000000</ele>
<time>2016-04-25T06:15:57.000Z</time>
</trkpt>
<trkpt lat="33.2613821" lon="35.7391719">
<ele>962.000000</ele>
<time>2016-04-25T06:16:01.000Z</time>
</trkpt>
<trkpt lat="33.2613060" lon="35.7392476">
<ele>961.799988</ele>
<time>2016-04-25T06:16:05.000Z</time>
</trkpt>
<trkpt lat="33.2612747" lon="35.7393572">
<ele>962.800049</ele>
<time>2016-04-25T06:16:14.000Z</time>
</trkpt>
<trkpt lat="33.2612396" lon="35.7394611">
<ele>963.400024</ele>
<time>2016-04-25T06:16:20.000Z</time>
</trkpt>
<trkpt lat="33.2611957" lon="35.7395726">
<ele>964.000000</ele>
<time>2016-04-25T06:16:26.000Z</time>
</trkpt>
<trkpt lat="33.2611822" lon="35.7396989">
<ele>965.400024</ele>
<time>2016-04-25T06:16:33.000Z</time>
</trkpt>
<trkpt lat="33.2611641" lon="35.7398144">
<ele>966.000000</ele>
<time>2016-04-25T06:16:41.000Z</time>
</trkpt>
<trkpt lat="33.2611310" lon="35.7399243">
<ele>966.400024</ele>
<time>2016-04-25T06:16:50.000Z</time>
</trkpt>
<trkpt lat="33.2611170" lon="35.7400429">
<ele>966.599976</ele>
<time>2016-04-25T06:16:57.000Z</time>
</trkpt>
<trkpt lat="33.2611077" lon="35.7401728">
<ele>967.000000</ele>
<time>2016-04-25T06:17:05.000Z</time>
</trkpt>
<trkpt lat="33.2611662" lon="35.7402750">
<ele>968.599976</ele>
<time>2016-04-25T06:17:13.000Z</time>
</trkpt>
<trkpt lat="33.2612550" lon="35.7403164">
<ele>970.599976</ele>
<time>2016-04-25T06:17:20.000Z</time>
</trkpt>
<trkpt lat="33.2613478" lon="35.7403451">
<ele>972.599976</ele>
<time>2016-04-25T06:17:28.000Z</time>
</trkpt>
<trkpt lat="33.2614338" lon="35.7402803">
<ele>973.799988</ele>
<time>2016-04-25T06:17:40.000Z</time>
</trkpt>
<trkpt lat="33.2615267" lon="35.7402081">
<ele>975.000000</ele>
<time>2016-04-25T06:17:51.000Z</time>
</trkpt>
<trkpt lat="33.2615857" lon="35.7401176">
<ele>975.200012</ele>
<time>2016-04-25T06:18:01.000Z</time>
</trkpt>
<trkpt lat="33.2616701" lon="35.7400648">
<ele>976.000061</ele>
<time>2016-04-25T06:18:10.000Z</time>
</trkpt>
<trkpt lat="33.2617339" lon="35.7399765">
<ele>976.400024</ele>
<time>2016-04-25T06:18:19.000Z</time>
</trkpt>
<trkpt lat="33.2618186" lon="35.7399246">
<ele>977.000000</ele>
<time>2016-04-25T06:18:28.000Z</time>
</trkpt>
<trkpt lat="33.2617895" lon="35.7399205">
<ele>976.799988</ele>
<time>2016-04-25T06:18:40.000Z</time>
</trkpt>
<trkpt lat="33.2618575" lon="35.7398664">
<ele>976.799988</ele>
<time>2016-04-25T06:19:15.000Z</time>
</trkpt>
<trkpt lat="33.2619515" lon="35.7398095">
<ele>977.000000</ele>
<time>2016-04-25T06:19:48.000Z</time>
</trkpt>
<trkpt lat="33.2620784" lon="35.7397769">
<ele>977.600037</ele>
<time>2016-04-25T06:20:01.000Z</time>
</trkpt>
<trkpt lat="33.2621705" lon="35.7397972">
<ele>978.400024</ele>
<time>2016-04-25T06:20:09.000Z</time>
</trkpt>
<trkpt lat="33.2622470" lon="35.7398576">
<ele>979.599976</ele>
<time>2016-04-25T06:20:16.000Z</time>
</trkpt>
<trkpt lat="33.2623037" lon="35.7399636">
<ele>980.799988</ele>
<time>2016-04-25T06:20:24.000Z</time>
</trkpt>
<trkpt lat="33.2623479" lon="35.7400879">
<ele>982.200012</ele>
<time>2016-04-25T06:20:32.000Z</time>
</trkpt>
<trkpt lat="33.2623418" lon="35.7401948">
<ele>983.000000</ele>
<time>2016-04-25T06:20:42.000Z</time>
</trkpt>
<trkpt lat="33.2623767" lon="35.7401330">
<ele>982.799988</ele>
<time>2016-04-25T06:25:02.000Z</time>
</trkpt>
<trkpt lat="33.2623302" lon="35.7400125">
<ele>981.400024</ele>
<time>2016-04-25T06:25:12.000Z</time>
</trkpt>
<trkpt lat="33.2622744" lon="35.7399140">
<ele>980.200012</ele>
<time>2016-04-25T06:25:16.000Z</time>
</trkpt>
<trkpt lat="33.2621867" lon="35.7398191">
<ele>978.799988</ele>
<time>2016-04-25T06:25:20.000Z</time>
</trkpt>
<trkpt lat="33.2620683" lon="35.7397706">
<ele>977.600037</ele>
<time>2016-04-25T06:25:23.000Z</time>
</trkpt>
<trkpt lat="33.2619675" lon="35.7397752">
<ele>976.799988</ele>
<time>2016-04-25T06:25:25.000Z</time>
</trkpt>
<trkpt lat="33.2618432" lon="35.7398442">
<ele>976.599976</ele>
<time>2016-04-25T06:25:27.000Z</time>
</trkpt>
<trkpt lat="33.2617246" lon="35.7399583">
<ele>976.000061</ele>
<time>2016-04-25T06:25:29.000Z</time>
</trkpt>
<trkpt lat="33.2616049" lon="35.7400821">
<ele>975.200012</ele>
<time>2016-04-25T06:25:31.000Z</time>
</trkpt>
<trkpt lat="33.2614904" lon="35.7401983">
<ele>974.400085</ele>
<time>2016-04-25T06:25:33.000Z</time>
</trkpt>
<trkpt lat="33.2613842" lon="35.7402865">
<ele>973.000061</ele>
<time>2016-04-25T06:25:35.000Z</time>
</trkpt>
<trkpt lat="33.2612668" lon="35.7403257">
<ele>970.799988</ele>
<time>2016-04-25T06:25:37.000Z</time>
</trkpt>
<trkpt lat="33.2611470" lon="35.7403133">
<ele>968.400024</ele>
<time>2016-04-25T06:25:39.000Z</time>
</trkpt>
<trkpt lat="33.2610625" lon="35.7402388">
<ele>966.599976</ele>
<time>2016-04-25T06:25:41.000Z</time>
</trkpt>
<trkpt lat="33.2610308" lon="35.7401178">
<ele>965.400024</ele>
<time>2016-04-25T06:25:43.000Z</time>
</trkpt>
<trkpt lat="33.2610400" lon="35.7399618">
<ele>964.799988</ele>
<time>2016-04-25T06:25:45.000Z</time>
</trkpt>
<trkpt lat="33.2610601" lon="35.7397968">
<ele>964.400024</ele>
<time>2016-04-25T06:25:47.000Z</time>
</trkpt>
<trkpt lat="33.2610866" lon="35.7396135">
<ele>962.800049</ele>
<time>2016-04-25T06:25:49.000Z</time>
</trkpt>
<trkpt lat="33.2611690" lon="35.7393977">
<ele>961.599976</ele>
<time>2016-04-25T06:25:51.000Z</time>
</trkpt>
<trkpt lat="33.2612845" lon="35.7392009">
<ele>961.000000</ele>
<time>2016-04-25T06:25:53.000Z</time>
</trkpt>
<trkpt lat="33.2614074" lon="35.7390648">
<ele>961.000000</ele>
<time>2016-04-25T06:25:55.000Z</time>
</trkpt>
<trkpt lat="33.2615404" lon="35.7389591">
<ele>961.400024</ele>
<time>2016-04-25T06:25:57.000Z</time>
</trkpt>
<trkpt lat="33.2616557" lon="35.7388759">
<ele>962.000000</ele>
<time>2016-04-25T06:25:59.000Z</time>
</trkpt>
<trkpt lat="33.2617420" lon="35.7388058">
<ele>962.800049</ele>
<time>2016-04-25T06:26:01.000Z</time>
</trkpt>
<trkpt lat="33.2618311" lon="35.7387318">
<ele>963.799988</ele>
<time>2016-04-25T06:26:04.000Z</time>
</trkpt>
<trkpt lat="33.2619069" lon="35.7386467">
<ele>964.000000</ele>
<time>2016-04-25T06:26:10.000Z</time>
</trkpt>
<trkpt lat="33.2619364" lon="35.7385350">
<ele>963.799988</ele>
<time>2016-04-25T06:26:14.000Z</time>
</trkpt>
<trkpt lat="33.2619385" lon="35.7384213">
<ele>963.400024</ele>
<time>2016-04-25T06:26:17.000Z</time>
</trkpt>
<trkpt lat="33.2618921" lon="35.7383036">
<ele>962.599976</ele>
<time>2016-04-25T06:26:20.000Z</time>
</trkpt>
<trkpt lat="33.2618309" lon="35.7382122">
<ele>961.799988</ele>
<time>2016-04-25T06:26:23.000Z</time>
</trkpt>
<trkpt lat="33.2617748" lon="35.7381064">
<ele>960.799988</ele>
<time>2016-04-25T06:26:28.000Z</time>
</trkpt>
<trkpt lat="33.2616920" lon="35.7380512">
<ele>959.000000</ele>
<time>2016-04-25T06:26:34.000Z</time>
</trkpt>
<trkpt lat="33.2616593" lon="35.7381152">
<ele>958.599915</ele>
<time>2016-04-25T06:29:26.000Z</time>
</trkpt>
<trkpt lat="33.2617472" lon="35.7380405">
<ele>960.200012</ele>
<time>2016-04-25T06:32:56.000Z</time>
</trkpt>
<trkpt lat="33.2618427" lon="35.7380795">
<ele>961.400024</ele>
<time>2016-04-25T06:33:03.000Z</time>
</trkpt>
<trkpt lat="33.2619286" lon="35.7381309">
<ele>962.200012</ele>
<time>2016-04-25T06:33:13.000Z</time>
</trkpt>
<trkpt lat="33.2620344" lon="35.7381631">
<ele>962.800049</ele>
<time>2016-04-25T06:33:23.000Z</time>
</trkpt>
<trkpt lat="33.2621221" lon="35.7381853">
<ele>963.400024</ele>
<time>2016-04-25T06:33:33.000Z</time>
</trkpt>
<trkpt lat="33.2621773" lon="35.7382660">
<ele>964.200073</ele>
<time>2016-04-25T06:33:41.000Z</time>
</trkpt>
<trkpt lat="33.2622458" lon="35.7383657">
<ele>965.200012</ele>
<time>2016-04-25T06:33:49.000Z</time>
</trkpt>
<trkpt lat="33.2623136" lon="35.7384468">
<ele>966.000000</ele>
<time>2016-04-25T06:33:55.000Z</time>
</trkpt>
<trkpt lat="33.2623767" lon="35.7385335">
<ele>966.799988</ele>
<time>2016-04-25T06:34:00.000Z</time>
</trkpt>
<trkpt lat="33.2624540" lon="35.7386481">
<ele>967.799988</ele>
<time>2016-04-25T06:34:05.000Z</time>
</trkpt>
<trkpt lat="33.2625221" lon="35.7387613">
<ele>968.799927</ele>
<time>2016-04-25T06:34:08.000Z</time>
</trkpt>
<trkpt lat="33.2625827" lon="35.7388736">
<ele>969.599976</ele>
<time>2016-04-25T06:34:10.000Z</time>
</trkpt>
<trkpt lat="33.2626575" lon="35.7390119">
<ele>971.799927</ele>
<time>2016-04-25T06:34:12.000Z</time>
</trkpt>
<trkpt lat="33.2627606" lon="35.7391581">
<ele>973.400024</ele>
<time>2016-04-25T06:34:14.000Z</time>
</trkpt>
<trkpt lat="33.2628682" lon="35.7392928">
<ele>975.000000</ele>
<time>2016-04-25T06:34:16.000Z</time>
</trkpt>
<trkpt lat="33.2629682" lon="35.7394041">
<ele>976.200012</ele>
<time>2016-04-25T06:34:18.000Z</time>
</trkpt>
<trkpt lat="33.2630456" lon="35.7394784">
<ele>977.000000</ele>
<time>2016-04-25T06:34:20.000Z</time>
</trkpt>
<trkpt lat="33.2631232" lon="35.7395259">
<ele>977.400085</ele>
<time>2016-04-25T06:34:26.000Z</time>
</trkpt>
<trkpt lat="33.2631883" lon="35.7396100">
<ele>978.400024</ele>
<time>2016-04-25T06:34:36.000Z</time>
</trkpt>
<trkpt lat="33.2632553" lon="35.7396843">
<ele>979.200012</ele>
<time>2016-04-25T06:34:46.000Z</time>
</trkpt>
<trkpt lat="33.2633310" lon="35.7397624">
<ele>980.000000</ele>
<time>2016-04-25T06:34:58.000Z</time>
</trkpt>
<trkpt lat="33.2633983" lon="35.7398438">
<ele>980.599915</ele>
<time>2016-04-25T06:35:10.000Z</time>
</trkpt>
<trkpt lat="33.2634548" lon="35.7399359">
<ele>981.400024</ele>
<time>2016-04-25T06:35:23.000Z</time>
</trkpt>
<trkpt lat="33.2635226" lon="35.7400135">
<ele>981.999939</ele>
<time>2016-04-25T06:35:36.000Z</time>
</trkpt>
<trkpt lat="33.2635890" lon="35.7400839">
<ele>982.599976</ele>
<time>2016-04-25T06:35:48.000Z</time>
</trkpt>
<trkpt lat="33.2636607" lon="35.7401630">
<ele>983.200012</ele>
<time>2016-04-25T06:36:01.000Z</time>
</trkpt>
<trkpt lat="33.2637122" lon="35.7402599">
<ele>984.000000</ele>
<time>2016-04-25T06:36:13.000Z</time>
</trkpt>
<trkpt lat="33.2637473" lon="35.7403552">
<ele>985.000000</ele>
<time>2016-04-25T06:36:24.000Z</time>
</trkpt>
<trkpt lat="33.2637946" lon="35.7404489">
<ele>985.799988</ele>
<time>2016-04-25T06:36:35.000Z</time>
</trkpt>
<trkpt lat="33.2638354" lon="35.7405524">
<ele>986.799988</ele>
<time>2016-04-25T06:36:44.000Z</time>
</trkpt>
<trkpt lat="33.2638631" lon="35.7406630">
<ele>988.400024</ele>
<time>2016-04-25T06:36:55.000Z</time>
</trkpt>
<trkpt lat="33.2639064" lon="35.7407568">
<ele>989.599976</ele>
<time>2016-04-25T06:37:06.000Z</time>
</trkpt>
<trkpt lat="33.2639622" lon="35.7408472">
<ele>990.599976</ele>
<time>2016-04-25T06:37:17.000Z</time>
</trkpt>
<trkpt lat="33.2640160" lon="35.7409346">
<ele>991.599976</ele>
<time>2016-04-25T06:37:27.000Z</time>
</trkpt>
<trkpt lat="33.2640634" lon="35.7410528">
<ele>993.200012</ele>
<time>2016-04-25T06:37:37.000Z</time>
</trkpt>
<trkpt lat="33.2641212" lon="35.7411632">
<ele>994.599976</ele>
<time>2016-04-25T06:37:45.000Z</time>
</trkpt>
<trkpt lat="33.2641789" lon="35.7412638">
<ele>995.799988</ele>
<time>2016-04-25T06:37:51.000Z</time>
</trkpt>
<trkpt lat="33.2642313" lon="35.7413659">
<ele>997.000000</ele>
<time>2016-04-25T06:37:56.000Z</time>
</trkpt>
<trkpt lat="33.2642714" lon="35.7414814">
<ele>998.000061</ele>
<time>2016-04-25T06:38:02.000Z</time>
</trkpt>
<trkpt lat="33.2643075" lon="35.7415793">
<ele>998.799988</ele>
<time>2016-04-25T06:38:08.000Z</time>
</trkpt>
<trkpt lat="33.2643546" lon="35.7416822">
<ele>999.000000</ele>
<time>2016-04-25T06:38:16.000Z</time>
</trkpt>
<trkpt lat="33.2644178" lon="35.7417829">
<ele>999.200012</ele>
<time>2016-04-25T06:38:24.000Z</time>
</trkpt>
<trkpt lat="33.2644685" lon="35.7418751">
<ele>999.400085</ele>
<time>2016-04-25T06:38:32.000Z</time>
</trkpt>
<trkpt lat="33.2645043" lon="35.7419755">
<ele>999.799988</ele>
<time>2016-04-25T06:38:40.000Z</time>
</trkpt>
<trkpt lat="33.2645580" lon="35.7420763">
<ele>1000.000000</ele>
<time>2016-04-25T06:38:47.000Z</time>
</trkpt>
<trkpt lat="33.2646112" lon="35.7421710">
<ele>1000.000000</ele>
<time>2016-04-25T06:38:54.000Z</time>
</trkpt>
<trkpt lat="33.2646658" lon="35.7422709">
<ele>999.400085</ele>
<time>2016-04-25T06:39:00.000Z</time>
</trkpt>
<trkpt lat="33.2646980" lon="35.7423740">
<ele>998.799988</ele>
<time>2016-04-25T06:39:05.000Z</time>
</trkpt>
<trkpt lat="33.2646740" lon="35.7425103">
<ele>998.799988</ele>
<time>2016-04-25T06:39:09.000Z</time>
</trkpt>
<trkpt lat="33.2646588" lon="35.7426859">
<ele>998.799988</ele>
<time>2016-04-25T06:39:12.000Z</time>
</trkpt>
<trkpt lat="33.2646501" lon="35.7428607">
<ele>998.599976</ele>
<time>2016-04-25T06:39:14.000Z</time>
</trkpt>
<trkpt lat="33.2646431" lon="35.7429681">
<ele>998.599976</ele>
<time>2016-04-25T06:39:15.000Z</time>
</trkpt>
<trkpt lat="33.2646347" lon="35.7430906">
<ele>998.799988</ele>
<time>2016-04-25T06:39:16.000Z</time>
</trkpt>
<trkpt lat="33.2646271" lon="35.7432257">
<ele>999.200012</ele>
<time>2016-04-25T06:39:17.000Z</time>
</trkpt>
<trkpt lat="33.2646280" lon="35.7433672">
<ele>999.600037</ele>
<time>2016-04-25T06:39:18.000Z</time>
</trkpt>
<trkpt lat="33.2646383" lon="35.7435067">
<ele>1000.200012</ele>
<time>2016-04-25T06:39:19.000Z</time>
</trkpt>
<trkpt lat="33.2646509" lon="35.7436371">
<ele>1000.799988</ele>
<time>2016-04-25T06:39:20.000Z</time>
</trkpt>
<trkpt lat="33.2646638" lon="35.7437582">
<ele>1001.200012</ele>
<time>2016-04-25T06:39:21.000Z</time>
</trkpt>
<trkpt lat="33.2646743" lon="35.7438725">
<ele>1001.599976</ele>
<time>2016-04-25T06:39:22.000Z</time>
</trkpt>
<trkpt lat="33.2646835" lon="35.7439797">
<ele>1002.200012</ele>
<time>2016-04-25T06:39:23.000Z</time>
</trkpt>
<trkpt lat="33.2647008" lon="35.7441735">
<ele>1003.400024</ele>
<time>2016-04-25T06:39:25.000Z</time>
</trkpt>
<trkpt lat="33.2647179" lon="35.7443378">
<ele>1003.999939</ele>
<time>2016-04-25T06:39:27.000Z</time>
</trkpt>
<trkpt lat="33.2647289" lon="35.7444763">
<ele>1003.999939</ele>
<time>2016-04-25T06:39:29.000Z</time>
</trkpt>
<trkpt lat="33.2647338" lon="35.7445998">
<ele>1003.999939</ele>
<time>2016-04-25T06:39:31.000Z</time>
</trkpt>
<trkpt lat="33.2647390" lon="35.7447143">
<ele>1004.200012</ele>
<time>2016-04-25T06:39:33.000Z</time>
</trkpt>
<trkpt lat="33.2647478" lon="35.7448210">
<ele>1004.599976</ele>
<time>2016-04-25T06:39:35.000Z</time>
</trkpt>
<trkpt lat="33.2647535" lon="35.7449746">
<ele>1005.599915</ele>
<time>2016-04-25T06:39:38.000Z</time>
</trkpt>
<trkpt lat="33.2647421" lon="35.7451227">
<ele>1006.599976</ele>
<time>2016-04-25T06:39:41.000Z</time>
</trkpt>
<trkpt lat="33.2647000" lon="35.7452416">
<ele>1006.999939</ele>
<time>2016-04-25T06:39:44.000Z</time>
</trkpt>
<trkpt lat="33.2646249" lon="35.7453411">
<ele>1007.200012</ele>
<time>2016-04-25T06:39:48.000Z</time>
</trkpt>
<trkpt lat="33.2645611" lon="35.7454407">
<ele>1007.599976</ele>
<time>2016-04-25T06:39:54.000Z</time>
</trkpt>
<trkpt lat="33.2645348" lon="35.7455484">
<ele>1007.599976</ele>
<time>2016-04-25T06:40:02.000Z</time>
</trkpt>
<trkpt lat="33.2646468" lon="35.7455226">
<ele>1006.999939</ele>
<time>2016-04-25T06:40:51.000Z</time>
</trkpt>
<trkpt lat="33.2647459" lon="35.7454424">
<ele>1006.400024</ele>
<time>2016-04-25T06:40:56.000Z</time>
</trkpt>
<trkpt lat="33.2648534" lon="35.7453899">
<ele>1005.799988</ele>
<time>2016-04-25T06:42:35.000Z</time>
</trkpt>
<trkpt lat="33.2649461" lon="35.7453404">
<ele>1005.200012</ele>
<time>2016-04-25T06:42:38.000Z</time>
</trkpt>
<trkpt lat="33.2650434" lon="35.7453058">
<ele>1003.599976</ele>
<time>2016-04-25T06:42:40.000Z</time>
</trkpt>
<trkpt lat="33.2651569" lon="35.7452774">
<ele>1002.400085</ele>
<time>2016-04-25T06:42:42.000Z</time>
</trkpt>
<trkpt lat="33.2652806" lon="35.7452475">
<ele>1001.799988</ele>
<time>2016-04-25T06:42:44.000Z</time>
</trkpt>
<trkpt lat="33.2654072" lon="35.7452198">
<ele>1001.400024</ele>
<time>2016-04-25T06:42:46.000Z</time>
</trkpt>
<trkpt lat="33.2655330" lon="35.7451870">
<ele>1001.000061</ele>
<time>2016-04-25T06:42:48.000Z</time>
</trkpt>
<trkpt lat="33.2656527" lon="35.7451243">
<ele>1000.200012</ele>
<time>2016-04-25T06:42:50.000Z</time>
</trkpt>
<trkpt lat="33.2657649" lon="35.7450214">
<ele>999.400085</ele>
<time>2016-04-25T06:42:52.000Z</time>
</trkpt>
<trkpt lat="33.2658752" lon="35.7449017">
<ele>998.400024</ele>
<time>2016-04-25T06:42:54.000Z</time>
</trkpt>
<trkpt lat="33.2659836" lon="35.7447806">
<ele>997.599976</ele>
<time>2016-04-25T06:42:56.000Z</time>
</trkpt>
<trkpt lat="33.2660857" lon="35.7446576">
<ele>998.799988</ele>
<time>2016-04-25T06:42:58.000Z</time>
</trkpt>
<trkpt lat="33.2661766" lon="35.7445229">
<ele>1000.000000</ele>
<time>2016-04-25T06:43:00.000Z</time>
</trkpt>
<trkpt lat="33.2662426" lon="35.7443823">
<ele>1000.599976</ele>
<time>2016-04-25T06:43:02.000Z</time>
</trkpt>
<trkpt lat="33.2662857" lon="35.7442688">
<ele>1001.000061</ele>
<time>2016-04-25T06:43:04.000Z</time>
</trkpt>
<trkpt lat="33.2663525" lon="35.7441767">
<ele>1001.400024</ele>
<time>2016-04-25T06:43:06.000Z</time>
</trkpt>
<trkpt lat="33.2664236" lon="35.7440971">
<ele>1001.599976</ele>
<time>2016-04-25T06:43:08.000Z</time>
</trkpt>
<trkpt lat="33.2664914" lon="35.7440058">
<ele>1001.599976</ele>
<time>2016-04-25T06:43:10.000Z</time>
</trkpt>
<trkpt lat="33.2665271" lon="35.7439077">
<ele>1001.400024</ele>
<time>2016-04-25T06:43:12.000Z</time>
</trkpt>
<trkpt lat="33.2665147" lon="35.7437974">
<ele>1000.599976</ele>
<time>2016-04-25T06:43:14.000Z</time>
</trkpt>
<trkpt lat="33.2664918" lon="35.7436944">
<ele>999.799988</ele>
<time>2016-04-25T06:43:16.000Z</time>
</trkpt>
<trkpt lat="33.2664597" lon="35.7435768">
<ele>999.000000</ele>
<time>2016-04-25T06:43:19.000Z</time>
</trkpt>
<trkpt lat="33.2662874" lon="35.7435192">
<ele>996.799927</ele>
<time>2016-04-25T06:43:23.000Z</time>
</trkpt>
<trkpt lat="33.2661346" lon="35.7434539">
<ele>994.799988</ele>
<time>2016-04-25T06:43:27.000Z</time>
</trkpt>
<trkpt lat="33.2660171" lon="35.7433440">
<ele>993.000000</ele>
<time>2016-04-25T06:43:31.000Z</time>
</trkpt>
<trkpt lat="33.2659523" lon="35.7432329">
<ele>992.000000</ele>
<time>2016-04-25T06:43:35.000Z</time>
</trkpt>
<trkpt lat="33.2658919" lon="35.7431408">
<ele>991.400024</ele>
<time>2016-04-25T06:44:08.000Z</time>
</trkpt>
<trkpt lat="33.2658163" lon="35.7430272">
<ele>991.000000</ele>
<time>2016-04-25T06:44:13.000Z</time>
</trkpt>
<trkpt lat="33.2657581" lon="35.7429343">
<ele>991.200012</ele>
<time>2016-04-25T06:44:16.000Z</time>
</trkpt>
<trkpt lat="33.2656792" lon="35.7428268">
<ele>991.599976</ele>
<time>2016-04-25T06:44:20.000Z</time>
</trkpt>
<trkpt lat="33.2656277" lon="35.7427231">
<ele>991.799988</ele>
<time>2016-04-25T06:44:23.000Z</time>
</trkpt>
<trkpt lat="33.2655811" lon="35.7425964">
<ele>991.599976</ele>
<time>2016-04-25T06:44:26.000Z</time>
</trkpt>
<trkpt lat="33.2655356" lon="35.7424666">
<ele>991.400024</ele>
<time>2016-04-25T06:44:29.000Z</time>
</trkpt>
<trkpt lat="33.2654908" lon="35.7423451">
<ele>991.400024</ele>
<time>2016-04-25T06:44:32.000Z</time>
</trkpt>
<trkpt lat="33.2654354" lon="35.7422328">
<ele>991.200012</ele>
<time>2016-04-25T06:44:35.000Z</time>
</trkpt>
<trkpt lat="33.2653776" lon="35.7421502">
<ele>990.800049</ele>
<time>2016-04-25T06:44:38.000Z</time>
</trkpt>
<trkpt lat="33.2653246" lon="35.7420517">
<ele>990.000000</ele>
<time>2016-04-25T06:44:42.000Z</time>
</trkpt>
<trkpt lat="33.2652909" lon="35.7419207">
<ele>988.599976</ele>
<time>2016-04-25T06:44:47.000Z</time>
</trkpt>
<trkpt lat="33.2652732" lon="35.7418121">
<ele>987.400024</ele>
<time>2016-04-25T06:44:50.000Z</time>
</trkpt>
<trkpt lat="33.2652458" lon="35.7416875">
<ele>986.000000</ele>
<time>2016-04-25T06:44:53.000Z</time>
</trkpt>
<trkpt lat="33.2651930" lon="35.7415795">
<ele>985.000000</ele>
<time>2016-04-25T06:44:56.000Z</time>
</trkpt>
<trkpt lat="33.2651085" lon="35.7414855">
<ele>984.599976</ele>
<time>2016-04-25T06:45:00.000Z</time>
</trkpt>
<trkpt lat="33.2650315" lon="35.7414108">
<ele>985.000000</ele>
<time>2016-04-25T06:45:03.000Z</time>
</trkpt>
<trkpt lat="33.2649530" lon="35.7413127">
<ele>985.000000</ele>
<time>2016-04-25T06:45:06.000Z</time>
</trkpt>
<trkpt lat="33.2648931" lon="35.7412297">
<ele>984.800049</ele>
<time>2016-04-25T06:45:08.000Z</time>
</trkpt>
<trkpt lat="33.2648209" lon="35.7411300">
<ele>984.599976</ele>
<time>2016-04-25T06:45:10.000Z</time>
</trkpt>
<trkpt lat="33.2647632" lon="35.7410278">
<ele>984.200012</ele>
<time>2016-04-25T06:45:12.000Z</time>
</trkpt>
<trkpt lat="33.2647202" lon="35.7409074">
<ele>983.200012</ele>
<time>2016-04-25T06:45:15.000Z</time>
</trkpt>
<trkpt lat="33.2646867" lon="35.7408008">
<ele>982.400024</ele>
<time>2016-04-25T06:45:18.000Z</time>
</trkpt>
<trkpt lat="33.2646449" lon="35.7407075">
<ele>981.999939</ele>
<time>2016-04-25T06:45:21.000Z</time>
</trkpt>
<trkpt lat="33.2645872" lon="35.7406272">
<ele>981.799988</ele>
<time>2016-04-25T06:45:24.000Z</time>
</trkpt>
<trkpt lat="33.2645245" lon="35.7405359">
<ele>981.599976</ele>
<time>2016-04-25T06:45:28.000Z</time>
</trkpt>
<trkpt lat="33.2646668" lon="35.7404230">
<ele>976.599976</ele>
<time>2016-04-25T06:46:41.000Z</time>
</trkpt>
<trkpt lat="33.2647094" lon="35.7402596">
<ele>972.000000</ele>
<time>2016-04-25T06:47:58.000Z</time>
</trkpt>
<trkpt lat="33.2646840" lon="35.7401517">
<ele>969.599976</ele>
<time>2016-04-25T06:48:11.000Z</time>
</trkpt>
<trkpt lat="33.2646769" lon="35.7400733">
<ele>968.200012</ele>
<time>2016-04-25T06:49:13.000Z</time>
</trkpt>
<trkpt lat="33.2646357" lon="35.7399474">
<ele>968.599976</ele>
<time>2016-04-25T06:49:29.000Z</time>
</trkpt>
<trkpt lat="33.2646161" lon="35.7398273">
<ele>969.400024</ele>
<time>2016-04-25T06:49:35.000Z</time>
</trkpt>
<trkpt lat="33.2646056" lon="35.7396967">
<ele>970.199951</ele>
<time>2016-04-25T06:49:40.000Z</time>
</trkpt>
<trkpt lat="33.2645911" lon="35.7395791">
<ele>969.000000</ele>
<time>2016-04-25T06:49:44.000Z</time>
</trkpt>
<trkpt lat="33.2645731" lon="35.7394575">
<ele>967.599976</ele>
<time>2016-04-25T06:49:49.000Z</time>
</trkpt>
<trkpt lat="33.2645624" lon="35.7393387">
<ele>966.400024</ele>
<time>2016-04-25T06:49:56.000Z</time>
</trkpt>
<trkpt lat="33.2645436" lon="35.7392365">
<ele>965.200012</ele>
<time>2016-04-25T06:50:04.000Z</time>
</trkpt>
<trkpt lat="33.2645198" lon="35.7391234">
<ele>963.799988</ele>
<time>2016-04-25T06:50:12.000Z</time>
</trkpt>
<trkpt lat="33.2644856" lon="35.7390001">
<ele>963.599976</ele>
<time>2016-04-25T06:50:21.000Z</time>
</trkpt>
<trkpt lat="33.2644456" lon="35.7388891">
<ele>963.599976</ele>
<time>2016-04-25T06:50:28.000Z</time>
</trkpt>
<trkpt lat="33.2643999" lon="35.7387718">
<ele>962.599976</ele>
<time>2016-04-25T06:50:35.000Z</time>
</trkpt>
<trkpt lat="33.2643571" lon="35.7386639">
<ele>961.599976</ele>
<time>2016-04-25T06:50:42.000Z</time>
</trkpt>
<trkpt lat="33.2643038" lon="35.7385592">
<ele>960.000000</ele>
<time>2016-04-25T06:50:49.000Z</time>
</trkpt>
<trkpt lat="33.2642597" lon="35.7384350">
<ele>959.800049</ele>
<time>2016-04-25T06:50:56.000Z</time>
</trkpt>
<trkpt lat="33.2642265" lon="35.7383210">
<ele>960.200012</ele>
<time>2016-04-25T06:51:03.000Z</time>
</trkpt>
<trkpt lat="33.2642026" lon="35.7382204">
<ele>960.400024</ele>
<time>2016-04-25T06:51:11.000Z</time>
</trkpt>
<trkpt lat="33.2641814" lon="35.7381087">
<ele>960.799988</ele>
<time>2016-04-25T06:51:18.000Z</time>
</trkpt>
<trkpt lat="33.2641749" lon="35.7379817">
<ele>961.200073</ele>
<time>2016-04-25T06:51:24.000Z</time>
</trkpt>
<trkpt lat="33.2641973" lon="35.7378573">
<ele>961.400024</ele>
<time>2016-04-25T06:51:30.000Z</time>
</trkpt>
<trkpt lat="33.2642410" lon="35.7377598">
<ele>962.200012</ele>
<time>2016-04-25T06:51:37.000Z</time>
</trkpt>
<trkpt lat="33.2642949" lon="35.7376476">
<ele>963.200012</ele>
<time>2016-04-25T06:51:46.000Z</time>
</trkpt>
<trkpt lat="33.2643569" lon="35.7375484">
<ele>966.000000</ele>
<time>2016-04-25T06:51:54.000Z</time>
</trkpt>
<trkpt lat="33.2644050" lon="35.7374483">
<ele>968.400024</ele>
<time>2016-04-25T06:52:02.000Z</time>
</trkpt>
<trkpt lat="33.2644621" lon="35.7373633">
<ele>971.000000</ele>
<time>2016-04-25T06:52:11.000Z</time>
</trkpt>
<trkpt lat="33.2645127" lon="35.7372480">
<ele>973.599976</ele>
<time>2016-04-25T06:52:19.000Z</time>
</trkpt>
<trkpt lat="33.2645612" lon="35.7371438">
<ele>974.799988</ele>
<time>2016-04-25T06:52:27.000Z</time>
</trkpt>
<trkpt lat="33.2646195" lon="35.7370570">
<ele>976.000061</ele>
<time>2016-04-25T06:52:36.000Z</time>
</trkpt>
<trkpt lat="33.2646659" lon="35.7369461">
<ele>976.000061</ele>
<time>2016-04-25T06:52:46.000Z</time>
</trkpt>
<trkpt lat="33.2647281" lon="35.7368492">
<ele>977.200012</ele>
<time>2016-04-25T06:52:55.000Z</time>
</trkpt>
<trkpt lat="33.2647736" lon="35.7367477">
<ele>978.000000</ele>
<time>2016-04-25T06:53:04.000Z</time>
</trkpt>
<trkpt lat="33.2648394" lon="35.7366551">
<ele>980.399963</ele>
<time>2016-04-25T06:53:14.000Z</time>
</trkpt>
<trkpt lat="33.2648969" lon="35.7365702">
<ele>982.599976</ele>
<time>2016-04-25T06:53:23.000Z</time>
</trkpt>
<trkpt lat="33.2649608" lon="35.7364848">
<ele>985.000000</ele>
<time>2016-04-25T06:53:33.000Z</time>
</trkpt>
<trkpt lat="33.2650346" lon="35.7363926">
<ele>987.800049</ele>
<time>2016-04-25T06:53:43.000Z</time>
</trkpt>
<trkpt lat="33.2650901" lon="35.7362981">
<ele>989.599976</ele>
<time>2016-04-25T06:53:53.000Z</time>
</trkpt>
<trkpt lat="33.2651359" lon="35.7361836">
<ele>990.200012</ele>
<time>2016-04-25T06:54:02.000Z</time>
</trkpt>
<trkpt lat="33.2651878" lon="35.7360934">
<ele>991.400024</ele>
<time>2016-04-25T06:54:11.000Z</time>
</trkpt>
<trkpt lat="33.2652318" lon="35.7359943">
<ele>992.199951</ele>
<time>2016-04-25T06:54:19.000Z</time>
</trkpt>
<trkpt lat="33.2652618" lon="35.7358866">
<ele>992.000000</ele>
<time>2016-04-25T06:54:25.000Z</time>
</trkpt>
<trkpt lat="33.2652979" lon="35.7357732">
<ele>992.000000</ele>
<time>2016-04-25T06:54:32.000Z</time>
</trkpt>
<trkpt lat="33.2653260" lon="35.7356618">
<ele>991.799988</ele>
<time>2016-04-25T06:54:41.000Z</time>
</trkpt>
<trkpt lat="33.2653657" lon="35.7355538">
<ele>992.599976</ele>
<time>2016-04-25T06:54:50.000Z</time>
</trkpt>
<trkpt lat="33.2654097" lon="35.7354528">
<ele>994.200012</ele>
<time>2016-04-25T06:54:57.000Z</time>
</trkpt>
<trkpt lat="33.2654491" lon="35.7353385">
<ele>995.599976</ele>
<time>2016-04-25T06:55:03.000Z</time>
</trkpt>
<trkpt lat="33.2654905" lon="35.7352406">
<ele>997.400024</ele>
<time>2016-04-25T06:55:09.000Z</time>
</trkpt>
<trkpt lat="33.2655371" lon="35.7351346">
<ele>999.200012</ele>
<time>2016-04-25T06:55:15.000Z</time>
</trkpt>
<trkpt lat="33.2655877" lon="35.7350348">
<ele>1000.599976</ele>
<time>2016-04-25T06:55:21.000Z</time>
</trkpt>
<trkpt lat="33.2656334" lon="35.7349485">
<ele>1002.000000</ele>
<time>2016-04-25T06:55:27.000Z</time>
</trkpt>
<trkpt lat="33.2656598" lon="35.7348464">
<ele>1002.200012</ele>
<time>2016-04-25T06:55:33.000Z</time>
</trkpt>
<trkpt lat="33.2656594" lon="35.7347231">
<ele>1000.599976</ele>
<time>2016-04-25T06:55:41.000Z</time>
</trkpt>
<trkpt lat="33.2656052" lon="35.7346374">
<ele>998.599976</ele>
<time>2016-04-25T06:55:51.000Z</time>
</trkpt>
<trkpt lat="33.2655402" lon="35.7345391">
<ele>996.400085</ele>
<time>2016-04-25T06:56:01.000Z</time>
</trkpt>
<trkpt lat="33.2654710" lon="35.7344447">
<ele>994.200012</ele>
<time>2016-04-25T06:56:10.000Z</time>
</trkpt>
<trkpt lat="33.2654257" lon="35.7343334">
<ele>993.400024</ele>
<time>2016-04-25T06:56:20.000Z</time>
</trkpt>
<trkpt lat="33.2654197" lon="35.7342189">
<ele>994.599976</ele>
<time>2016-04-25T06:56:27.000Z</time>
</trkpt>
<trkpt lat="33.2654635" lon="35.7341118">
<ele>996.799927</ele>
<time>2016-04-25T06:56:33.000Z</time>
</trkpt>
<trkpt lat="33.2655201" lon="35.7340161">
<ele>998.799988</ele>
<time>2016-04-25T06:56:39.000Z</time>
</trkpt>
<trkpt lat="33.2655812" lon="35.7339208">
<ele>1001.000061</ele>
<time>2016-04-25T06:56:44.000Z</time>
</trkpt>
<trkpt lat="33.2656542" lon="35.7338357">
<ele>1003.599976</ele>
<time>2016-04-25T06:56:50.000Z</time>
</trkpt>
<trkpt lat="33.2657373" lon="35.7337524">
<ele>1006.400024</ele>
<time>2016-04-25T06:56:55.000Z</time>
</trkpt>
<trkpt lat="33.2658225" lon="35.7336849">
<ele>1009.000000</ele>
<time>2016-04-25T06:57:00.000Z</time>
</trkpt>
<trkpt lat="33.2658842" lon="35.7335948">
<ele>1009.999939</ele>
<time>2016-04-25T06:57:04.000Z</time>
</trkpt>
<trkpt lat="33.2658796" lon="35.7334791">
<ele>1008.799988</ele>
<time>2016-04-25T06:57:08.000Z</time>
</trkpt>
<trkpt lat="33.2658492" lon="35.7333681">
<ele>1006.799988</ele>
<time>2016-04-25T06:57:13.000Z</time>
</trkpt>
<trkpt lat="33.2658452" lon="35.7332375">
<ele>1005.399963</ele>
<time>2016-04-25T06:57:20.000Z</time>
</trkpt>
<trkpt lat="33.2658790" lon="35.7331302">
<ele>1005.399963</ele>
<time>2016-04-25T06:57:27.000Z</time>
</trkpt>
<trkpt lat="33.2659401" lon="35.7330494">
<ele>1006.400024</ele>
<time>2016-04-25T06:57:36.000Z</time>
</trkpt>
<trkpt lat="33.2660171" lon="35.7329838">
<ele>1008.399963</ele>
<time>2016-04-25T06:57:45.000Z</time>
</trkpt>
<trkpt lat="33.2661091" lon="35.7329347">
<ele>1011.200073</ele>
<time>2016-04-25T06:57:55.000Z</time>
</trkpt>
<trkpt lat="33.2661942" lon="35.7328704">
<ele>1013.400024</ele>
<time>2016-04-25T06:58:06.000Z</time>
</trkpt>
<trkpt lat="33.2662774" lon="35.7328024">
<ele>1015.800049</ele>
<time>2016-04-25T06:58:16.000Z</time>
</trkpt>
<trkpt lat="33.2663646" lon="35.7327301">
<ele>1018.200012</ele>
<time>2016-04-25T06:58:24.000Z</time>
</trkpt>
<trkpt lat="33.2664403" lon="35.7326564">
<ele>1020.199951</ele>
<time>2016-04-25T06:58:31.000Z</time>
</trkpt>
<trkpt lat="33.2664996" lon="35.7325747">
<ele>1021.599976</ele>
<time>2016-04-25T06:58:39.000Z</time>
</trkpt>
<trkpt lat="33.2665540" lon="35.7324747">
<ele>1022.799988</ele>
<time>2016-04-25T06:58:48.000Z</time>
</trkpt>
<trkpt lat="33.2665975" lon="35.7323723">
<ele>1023.599976</ele>
<time>2016-04-25T06:58:56.000Z</time>
</trkpt>
<trkpt lat="33.2666346" lon="35.7322621">
<ele>1024.199951</ele>
<time>2016-04-25T06:59:04.000Z</time>
</trkpt>
<trkpt lat="33.2666817" lon="35.7321519">
<ele>1025.199951</ele>
<time>2016-04-25T06:59:12.000Z</time>
</trkpt>
<trkpt lat="33.2667332" lon="35.7320558">
<ele>1026.000000</ele>
<time>2016-04-25T06:59:18.000Z</time>
</trkpt>
<trkpt lat="33.2667999" lon="35.7319525">
<ele>1026.400024</ele>
<time>2016-04-25T06:59:23.000Z</time>
</trkpt>
<trkpt lat="33.2668565" lon="35.7318547">
<ele>1027.199951</ele>
<time>2016-04-25T06:59:28.000Z</time>
</trkpt>
<trkpt lat="33.2669024" lon="35.7317537">
<ele>1027.599976</ele>
<time>2016-04-25T06:59:33.000Z</time>
</trkpt>
<trkpt lat="33.2669323" lon="35.7316438">
<ele>1027.400024</ele>
<time>2016-04-25T06:59:39.000Z</time>
</trkpt>
<trkpt lat="33.2669715" lon="35.7315289">
<ele>1027.400024</ele>
<time>2016-04-25T06:59:45.000Z</time>
</trkpt>
<trkpt lat="33.2670310" lon="35.7314221">
<ele>1028.000000</ele>
<time>2016-04-25T06:59:50.000Z</time>
</trkpt>
<trkpt lat="33.2671071" lon="35.7313279">
<ele>1029.599976</ele>
<time>2016-04-25T06:59:55.000Z</time>
</trkpt>
<trkpt lat="33.2671776" lon="35.7312509">
<ele>1031.599976</ele>
<time>2016-04-25T07:00:01.000Z</time>
</trkpt>
<trkpt lat="33.2672537" lon="35.7311769">
<ele>1033.800049</ele>
<time>2016-04-25T07:00:12.000Z</time>
</trkpt>
<trkpt lat="33.2673151" lon="35.7310826">
<ele>1035.599976</ele>
<time>2016-04-25T07:00:23.000Z</time>
</trkpt>
<trkpt lat="33.2673776" lon="35.7309835">
<ele>1035.800049</ele>
<time>2016-04-25T07:00:34.000Z</time>
</trkpt>
<trkpt lat="33.2674546" lon="35.7309100">
<ele>1036.400024</ele>
<time>2016-04-25T07:00:45.000Z</time>
</trkpt>
<trkpt lat="33.2675185" lon="35.7308100">
<ele>1036.400024</ele>
<time>2016-04-25T07:00:56.000Z</time>
</trkpt>
<trkpt lat="33.2675621" lon="35.7306933">
<ele>1035.800049</ele>
<time>2016-04-25T07:01:07.000Z</time>
</trkpt>
<trkpt lat="33.2676101" lon="35.7305959">
<ele>1035.400024</ele>
<time>2016-04-25T07:01:17.000Z</time>
</trkpt>
<trkpt lat="33.2676837" lon="35.7305036">
<ele>1036.400024</ele>
<time>2016-04-25T07:01:27.000Z</time>
</trkpt>
<trkpt lat="33.2677544" lon="35.7304136">
<ele>1038.400024</ele>
<time>2016-04-25T07:01:36.000Z</time>
</trkpt>
<trkpt lat="33.2678112" lon="35.7303380">
<ele>1039.800049</ele>
<time>2016-04-25T07:01:45.000Z</time>
</trkpt>
<trkpt lat="33.2678509" lon="35.7302314">
<ele>1040.800049</ele>
<time>2016-04-25T07:01:54.000Z</time>
</trkpt>
<trkpt lat="33.2679117" lon="35.7301368">
<ele>1042.400024</ele>
<time>2016-04-25T07:02:03.000Z</time>
</trkpt>
<trkpt lat="33.2679721" lon="35.7300137">
<ele>1043.599976</ele>
<time>2016-04-25T07:02:11.000Z</time>
</trkpt>
<trkpt lat="33.2679936" lon="35.7298932">
<ele>1042.800049</ele>
<time>2016-04-25T07:02:18.000Z</time>
</trkpt>
<trkpt lat="33.2680187" lon="35.7297706">
<ele>1042.199951</ele>
<time>2016-04-25T07:02:26.000Z</time>
</trkpt>
<trkpt lat="33.2680547" lon="35.7296750">
<ele>1042.000000</ele>
<time>2016-04-25T07:02:33.000Z</time>
</trkpt>
<trkpt lat="33.2681014" lon="35.7295715">
<ele>1042.400024</ele>
<time>2016-04-25T07:02:40.000Z</time>
</trkpt>
<trkpt lat="33.2681526" lon="35.7294746">
<ele>1043.000000</ele>
<time>2016-04-25T07:02:47.000Z</time>
</trkpt>
<trkpt lat="33.2682211" lon="35.7293874">
<ele>1044.000000</ele>
<time>2016-04-25T07:02:55.000Z</time>
</trkpt>
<trkpt lat="33.2682963" lon="35.7293085">
<ele>1045.199951</ele>
<time>2016-04-25T07:03:03.000Z</time>
</trkpt>
<trkpt lat="33.2683833" lon="35.7292605">
<ele>1046.800049</ele>
<time>2016-04-25T07:03:09.000Z</time>
</trkpt>
<trkpt lat="33.2684380" lon="35.7292070">
<ele>1047.800049</ele>
<time>2016-04-25T07:04:54.000Z</time>
</trkpt>
<trkpt lat="33.2685151" lon="35.7291563">
<ele>1049.199951</ele>
<time>2016-04-25T07:08:27.000Z</time>
</trkpt>
<trkpt lat="33.2685671" lon="35.7290853">
<ele>1050.000000</ele>
<time>2016-04-25T07:08:32.000Z</time>
</trkpt>
<trkpt lat="33.2686106" lon="35.7290004">
<ele>1050.599976</ele>
<time>2016-04-25T07:08:39.000Z</time>
</trkpt>
<trkpt lat="33.2686626" lon="35.7288897">
<ele>1050.599976</ele>
<time>2016-04-25T07:08:49.000Z</time>
</trkpt>
<trkpt lat="33.2687524" lon="35.7288106">
<ele>1051.800049</ele>
<time>2016-04-25T07:08:59.000Z</time>
</trkpt>
<trkpt lat="33.2687962" lon="35.7286833">
<ele>1052.599976</ele>
<time>2016-04-25T07:09:09.000Z</time>
</trkpt>
<trkpt lat="33.2688436" lon="35.7285995">
<ele>1053.400024</ele>
<time>2016-04-25T07:09:19.000Z</time>
</trkpt>
<trkpt lat="33.2688679" lon="35.7284689">
<ele>1053.800049</ele>
<time>2016-04-25T07:09:30.000Z</time>
</trkpt>
<trkpt lat="33.2688783" lon="35.7283512">
<ele>1054.199951</ele>
<time>2016-04-25T07:09:40.000Z</time>
</trkpt>
<trkpt lat="33.2688855" lon="35.7282340">
<ele>1054.599976</ele>
<time>2016-04-25T07:09:51.000Z</time>
</trkpt>
<trkpt lat="33.2688876" lon="35.7281199">
<ele>1055.000000</ele>
<time>2016-04-25T07:10:01.000Z</time>
</trkpt>
<trkpt lat="33.2689347" lon="35.7280214">
<ele>1056.000000</ele>
<time>2016-04-25T07:10:11.000Z</time>
</trkpt>
<trkpt lat="33.2690054" lon="35.7279050">
<ele>1057.400024</ele>
<time>2016-04-25T07:10:30.000Z</time>
</trkpt>
<trkpt lat="33.2690084" lon="35.7277718">
<ele>1057.599976</ele>
<time>2016-04-25T07:10:48.000Z</time>
</trkpt>
<trkpt lat="33.2690150" lon="35.7276442">
<ele>1058.000000</ele>
<time>2016-04-25T07:10:56.000Z</time>
</trkpt>
<trkpt lat="33.2690655" lon="35.7275522">
<ele>1059.199951</ele>
<time>2016-04-25T07:11:02.000Z</time>
</trkpt>
<trkpt lat="33.2691491" lon="35.7274786">
<ele>1061.199951</ele>
<time>2016-04-25T07:11:07.000Z</time>
</trkpt>
<trkpt lat="33.2692401" lon="35.7274064">
<ele>1063.400024</ele>
<time>2016-04-25T07:11:14.000Z</time>
</trkpt>
<trkpt lat="33.2693304" lon="35.7273575">
<ele>1065.000000</ele>
<time>2016-04-25T07:11:21.000Z</time>
</trkpt>
<trkpt lat="33.2694251" lon="35.7273092">
<ele>1066.199951</ele>
<time>2016-04-25T07:11:27.000Z</time>
</trkpt>
<trkpt lat="33.2695268" lon="35.7272633">
<ele>1067.199951</ele>
<time>2016-04-25T07:11:33.000Z</time>
</trkpt>
<trkpt lat="33.2696317" lon="35.7272654">
<ele>1068.199951</ele>
<time>2016-04-25T07:11:40.000Z</time>
</trkpt>
<trkpt lat="33.2697095" lon="35.7273003">
<ele>1068.800049</ele>
<time>2016-04-25T07:11:56.000Z</time>
</trkpt>
<trkpt lat="33.2698090" lon="35.7273272">
<ele>1069.800049</ele>
<time>2016-04-25T07:12:10.000Z</time>
</trkpt>
<trkpt lat="33.2699065" lon="35.7273496">
<ele>1070.599976</ele>
<time>2016-04-25T07:12:23.000Z</time>
</trkpt>
<trkpt lat="33.2700003" lon="35.7273661">
<ele>1071.599976</ele>
<time>2016-04-25T07:12:30.000Z</time>
</trkpt>
<trkpt lat="33.2700927" lon="35.7273703">
<ele>1072.400024</ele>
<time>2016-04-25T07:12:36.000Z</time>
</trkpt>
<trkpt lat="33.2701878" lon="35.7273824">
<ele>1073.800049</ele>
<time>2016-04-25T07:12:43.000Z</time>
</trkpt>
<trkpt lat="33.2702908" lon="35.7273896">
<ele>1075.400024</ele>
<time>2016-04-25T07:12:50.000Z</time>
</trkpt>
<trkpt lat="33.2703893" lon="35.7273982">
<ele>1076.800049</ele>
<time>2016-04-25T07:12:57.000Z</time>
</trkpt>
<trkpt lat="33.2704847" lon="35.7274151">
<ele>1078.199951</ele>
<time>2016-04-25T07:13:05.000Z</time>
</trkpt>
<trkpt lat="33.2705649" lon="35.7274334">
<ele>1079.199951</ele>
<time>2016-04-25T07:13:15.000Z</time>
</trkpt>
<trkpt lat="33.2706718" lon="35.7274636">
<ele>1080.800049</ele>
<time>2016-04-25T07:13:27.000Z</time>
</trkpt>
<trkpt lat="33.2707684" lon="35.7274780">
<ele>1082.199951</ele>
<time>2016-04-25T07:13:37.000Z</time>
</trkpt>
<trkpt lat="33.2708536" lon="35.7275017">
<ele>1083.400024</ele>
<time>2016-04-25T07:13:47.000Z</time>
</trkpt>
<trkpt lat="33.2709422" lon="35.7275412">
<ele>1084.800049</ele>
<time>2016-04-25T07:13:57.000Z</time>
</trkpt>
<trkpt lat="33.2710208" lon="35.7275901">
<ele>1086.000000</ele>
<time>2016-04-25T07:14:07.000Z</time>
</trkpt>
<trkpt lat="33.2711123" lon="35.7276298">
<ele>1087.400024</ele>
<time>2016-04-25T07:14:18.000Z</time>
</trkpt>
<trkpt lat="33.2712316" lon="35.7276280">
<ele>1089.199951</ele>
<time>2016-04-25T07:14:30.000Z</time>
</trkpt>
<trkpt lat="33.2713383" lon="35.7276309">
<ele>1090.800049</ele>
<time>2016-04-25T07:14:42.000Z</time>
</trkpt>
<trkpt lat="33.2714231" lon="35.7276359">
<ele>1092.000000</ele>
<time>2016-04-25T07:15:00.000Z</time>
</trkpt>
<trkpt lat="33.2715276" lon="35.7276458">
<ele>1093.400024</ele>
<time>2016-04-25T07:15:34.000Z</time>
</trkpt>
<trkpt lat="33.2716265" lon="35.7276377">
<ele>1094.599976</ele>
<time>2016-04-25T07:15:49.000Z</time>
</trkpt>
<trkpt lat="33.2717132" lon="35.7276487">
<ele>1095.599976</ele>
<time>2016-04-25T07:16:08.000Z</time>
</trkpt>
<trkpt lat="33.2718139" lon="35.7276715">
<ele>1096.800049</ele>
<time>2016-04-25T07:16:26.000Z</time>
</trkpt>
<trkpt lat="33.2719056" lon="35.7277039">
<ele>1097.800049</ele>
<time>2016-04-25T07:16:45.000Z</time>
</trkpt>
<trkpt lat="33.2719913" lon="35.7277181">
<ele>1098.400024</ele>
<time>2016-04-25T07:17:01.000Z</time>
</trkpt>
<trkpt lat="33.2720772" lon="35.7277685">
<ele>1099.400024</ele>
<time>2016-04-25T07:17:29.000Z</time>
</trkpt>
<trkpt lat="33.2721656" lon="35.7278281">
<ele>1100.400024</ele>
<time>2016-04-25T07:17:36.000Z</time>
</trkpt>
<trkpt lat="33.2722513" lon="35.7278846">
<ele>1101.199951</ele>
<time>2016-04-25T07:17:43.000Z</time>
</trkpt>
<trkpt lat="33.2723383" lon="35.7279342">
<ele>1102.199951</ele>
<time>2016-04-25T07:17:50.000Z</time>
</trkpt>
<trkpt lat="33.2724282" lon="35.7279866">
<ele>1103.199951</ele>
<time>2016-04-25T07:17:57.000Z</time>
</trkpt>
<trkpt lat="33.2725322" lon="35.7280456">
<ele>1104.199951</ele>
<time>2016-04-25T07:18:03.000Z</time>
</trkpt>
<trkpt lat="33.2726194" lon="35.7280830">
<ele>1105.599976</ele>
<time>2016-04-25T07:18:08.000Z</time>
</trkpt>
<trkpt lat="33.2727079" lon="35.7281324">
<ele>1107.400024</ele>
<time>2016-04-25T07:18:14.000Z</time>
</trkpt>
<trkpt lat="33.2728008" lon="35.7281738">
<ele>1109.000000</ele>
<time>2016-04-25T07:18:20.000Z</time>
</trkpt>
<trkpt lat="33.2728868" lon="35.7282291">
<ele>1110.800049</ele>
<time>2016-04-25T07:18:28.000Z</time>
</trkpt>
<trkpt lat="33.2729622" lon="35.7282830">
<ele>1112.599976</ele>
<time>2016-04-25T07:18:36.000Z</time>
</trkpt>
<trkpt lat="33.2730397" lon="35.7283218">
<ele>1113.800049</ele>
<time>2016-04-25T07:18:46.000Z</time>
</trkpt>
<trkpt lat="33.2731294" lon="35.7283591">
<ele>1115.400024</ele>
<time>2016-04-25T07:18:56.000Z</time>
</trkpt>
<trkpt lat="33.2732120" lon="35.7284350">
<ele>1117.599976</ele>
<time>2016-04-25T07:19:07.000Z</time>
</trkpt>
<trkpt lat="33.2733081" lon="35.7284987">
<ele>1119.599976</ele>
<time>2016-04-25T07:19:19.000Z</time>
</trkpt>
<trkpt lat="33.2733718" lon="35.7285347">
<ele>1120.800049</ele>
<time>2016-04-25T07:19:41.000Z</time>
</trkpt>
<trkpt lat="33.2734527" lon="35.7285867">
<ele>1122.400024</ele>
<time>2016-04-25T07:20:01.000Z</time>
</trkpt>
<trkpt lat="33.2735346" lon="35.7286279">
<ele>1124.800049</ele>
<time>2016-04-25T07:20:22.000Z</time>
</trkpt>
<trkpt lat="33.2736356" lon="35.7286457">
<ele>1127.000000</ele>
<time>2016-04-25T07:20:42.000Z</time>
</trkpt>
<trkpt lat="33.2737328" lon="35.7286411">
<ele>1128.800049</ele>
<time>2016-04-25T07:21:00.000Z</time>
</trkpt>
<trkpt lat="33.2738375" lon="35.7286286">
<ele>1130.599976</ele>
<time>2016-04-25T07:21:16.000Z</time>
</trkpt>
<trkpt lat="33.2739297" lon="35.7286286">
<ele>1132.400024</ele>
<time>2016-04-25T07:21:25.000Z</time>
</trkpt>
<trkpt lat="33.2740230" lon="35.7286269">
<ele>1134.000000</ele>
<time>2016-04-25T07:21:35.000Z</time>
</trkpt>
<trkpt lat="33.2741362" lon="35.7286193">
<ele>1135.599976</ele>
<time>2016-04-25T07:21:45.000Z</time>
</trkpt>
<trkpt lat="33.2742387" lon="35.7286045">
<ele>1136.800049</ele>
<time>2016-04-25T07:21:55.000Z</time>
</trkpt>
<trkpt lat="33.2743330" lon="35.7285891">
<ele>1137.599976</ele>
<time>2016-04-25T07:22:05.000Z</time>
</trkpt>
<trkpt lat="33.2744243" lon="35.7285757">
<ele>1138.400024</ele>
<time>2016-04-25T07:22:15.000Z</time>
</trkpt>
<trkpt lat="33.2745141" lon="35.7285736">
<ele>1139.400024</ele>
<time>2016-04-25T07:22:25.000Z</time>
</trkpt>
<trkpt lat="33.2745995" lon="35.7285937">
<ele>1141.000000</ele>
<time>2016-04-25T07:22:53.000Z</time>
</trkpt>
<trkpt lat="33.2746845" lon="35.7286360">
<ele>1143.000000</ele>
<time>2016-04-25T07:23:13.000Z</time>
</trkpt>
<trkpt lat="33.2747849" lon="35.7286982">
<ele>1145.800049</ele>
<time>2016-04-25T07:23:52.000Z</time>
</trkpt>
<trkpt lat="33.2748727" lon="35.7287558">
<ele>1148.199951</ele>
<time>2016-04-25T07:24:14.000Z</time>
</trkpt>
<trkpt lat="33.2749514" lon="35.7287775">
<ele>1149.599976</ele>
<time>2016-04-25T07:24:33.000Z</time>
</trkpt>
<trkpt lat="33.2750303" lon="35.7288331">
<ele>1151.800049</ele>
<time>2016-04-25T07:24:54.000Z</time>
</trkpt>
<trkpt lat="33.2750969" lon="35.7289078">
<ele>1155.000000</ele>
<time>2016-04-25T07:25:14.000Z</time>
</trkpt>
<trkpt lat="33.2751861" lon="35.7289880">
<ele>1158.199951</ele>
<time>2016-04-25T07:25:39.000Z</time>
</trkpt>
<trkpt lat="33.2752579" lon="35.7290678">
<ele>1160.599976</ele>
<time>2016-04-25T07:25:57.000Z</time>
</trkpt>
<trkpt lat="33.2753157" lon="35.7291280">
<ele>1162.400024</ele>
<time>2016-04-25T07:26:15.000Z</time>
</trkpt>
<trkpt lat="33.2753918" lon="35.7292206">
<ele>1165.400024</ele>
<time>2016-04-25T07:26:37.000Z</time>
</trkpt>
<trkpt lat="33.2754653" lon="35.7292999">
<ele>1167.800049</ele>
<time>2016-04-25T07:27:05.000Z</time>
</trkpt>
<trkpt lat="33.2755220" lon="35.7293769">
<ele>1170.400024</ele>
<time>2016-04-25T07:27:28.000Z</time>
</trkpt>
<trkpt lat="33.2755941" lon="35.7294685">
<ele>1173.400024</ele>
<time>2016-04-25T07:27:51.000Z</time>
</trkpt>
<trkpt lat="33.2756471" lon="35.7295521">
<ele>1176.199951</ele>
<time>2016-04-25T07:28:11.000Z</time>
</trkpt>
<trkpt lat="33.2756943" lon="35.7296373">
<ele>1179.199951</ele>
<time>2016-04-25T07:28:32.000Z</time>
</trkpt>
<trkpt lat="33.2757433" lon="35.7297386">
<ele>1182.800049</ele>
<time>2016-04-25T07:28:55.000Z</time>
</trkpt>
<trkpt lat="33.2757989" lon="35.7298327">
<ele>1186.199951</ele>
<time>2016-04-25T07:29:16.000Z</time>
</trkpt>
<trkpt lat="33.2758658" lon="35.7299156">
<ele>1188.800049</ele>
<time>2016-04-25T07:29:37.000Z</time>
</trkpt>
<trkpt lat="33.2759371" lon="35.7299995">
<ele>1191.599976</ele>
<time>2016-04-25T07:29:59.000Z</time>
</trkpt>
<trkpt lat="33.2760056" lon="35.7300706">
<ele>1193.800049</ele>
<time>2016-04-25T07:30:18.000Z</time>
</trkpt>
<trkpt lat="33.2760674" lon="35.7301524">
<ele>1196.400024</ele>
<time>2016-04-25T07:31:24.000Z</time>
</trkpt>
<trkpt lat="33.2761250" lon="35.7302353">
<ele>1199.199951</ele>
<time>2016-04-25T07:31:43.000Z</time>
</trkpt>
<trkpt lat="33.2761824" lon="35.7303261">
<ele>1202.199951</ele>
<time>2016-04-25T07:32:02.000Z</time>
</trkpt>
<trkpt lat="33.2762346" lon="35.7304195">
<ele>1205.400024</ele>
<time>2016-04-25T07:32:20.000Z</time>
</trkpt>
<trkpt lat="33.2762991" lon="35.7304998">
<ele>1208.000000</ele>
<time>2016-04-25T07:32:42.000Z</time>
</trkpt>
<trkpt lat="33.2763540" lon="35.7305687">
<ele>1209.800049</ele>
<time>2016-04-25T07:33:00.000Z</time>
</trkpt>
<trkpt lat="33.2764189" lon="35.7306601">
<ele>1211.400024</ele>
<time>2016-04-25T07:33:19.000Z</time>
</trkpt>
<trkpt lat="33.2764522" lon="35.7307538">
<ele>1213.800049</ele>
<time>2016-04-25T07:33:46.000Z</time>
</trkpt>
<trkpt lat="33.2765071" lon="35.7308492">
<ele>1215.800049</ele>
<time>2016-04-25T07:34:05.000Z</time>
</trkpt>
<trkpt lat="33.2765568" lon="35.7309448">
<ele>1217.800049</ele>
<time>2016-04-25T07:34:24.000Z</time>
</trkpt>
<trkpt lat="33.2766333" lon="35.7310214">
<ele>1219.000000</ele>
<time>2016-04-25T07:34:47.000Z</time>
</trkpt>
<trkpt lat="33.2767117" lon="35.7310909">
<ele>1220.000000</ele>
<time>2016-04-25T07:35:08.000Z</time>
</trkpt>
<trkpt lat="33.2767894" lon="35.7311690">
<ele>1221.199951</ele>
<time>2016-04-25T07:35:26.000Z</time>
</trkpt>
<trkpt lat="33.2768681" lon="35.7312293">
<ele>1221.800049</ele>
<time>2016-04-25T07:35:35.000Z</time>
</trkpt>
<trkpt lat="33.2769190" lon="35.7313209">
<ele>1223.599976</ele>
<time>2016-04-25T07:35:44.000Z</time>
</trkpt>
<trkpt lat="33.2769896" lon="35.7314113">
<ele>1225.000000</ele>
<time>2016-04-25T07:35:54.000Z</time>
</trkpt>
<trkpt lat="33.2770593" lon="35.7314928">
<ele>1226.000000</ele>
<time>2016-04-25T07:36:04.000Z</time>
</trkpt>
<trkpt lat="33.2771353" lon="35.7315764">
<ele>1226.800049</ele>
<time>2016-04-25T07:36:13.000Z</time>
</trkpt>
<trkpt lat="33.2772006" lon="35.7316605">
<ele>1228.000000</ele>
<time>2016-04-25T07:36:21.000Z</time>
</trkpt>
<trkpt lat="33.2772654" lon="35.7317358">
<ele>1228.800049</ele>
<time>2016-04-25T07:36:30.000Z</time>
</trkpt>
<trkpt lat="33.2773260" lon="35.7318208">
<ele>1230.000000</ele>
<time>2016-04-25T07:36:40.000Z</time>
</trkpt>
<trkpt lat="33.2773943" lon="35.7319141">
<ele>1231.400024</ele>
<time>2016-04-25T07:36:50.000Z</time>
</trkpt>
<trkpt lat="33.2774582" lon="35.7319974">
<ele>1232.400024</ele>
<time>2016-04-25T07:37:00.000Z</time>
</trkpt>
<trkpt lat="33.2775221" lon="35.7320960">
<ele>1234.000000</ele>
<time>2016-04-25T07:37:10.000Z</time>
</trkpt>
<trkpt lat="33.2775752" lon="35.7321903">
<ele>1236.000000</ele>
<time>2016-04-25T07:37:20.000Z</time>
</trkpt>
<trkpt lat="33.2776256" lon="35.7322831">
<ele>1237.199951</ele>
<time>2016-04-25T07:37:30.000Z</time>
</trkpt>
<trkpt lat="33.2776736" lon="35.7323914">
<ele>1239.199951</ele>
<time>2016-04-25T07:37:41.000Z</time>
</trkpt>
<trkpt lat="33.2777153" lon="35.7324939">
<ele>1241.400024</ele>
<time>2016-04-25T07:37:51.000Z</time>
</trkpt>
<trkpt lat="33.2777577" lon="35.7325809">
<ele>1242.800049</ele>
<time>2016-04-25T07:38:01.000Z</time>
</trkpt>
<trkpt lat="33.2777965" lon="35.7326887">
<ele>1245.199951</ele>
<time>2016-04-25T07:38:12.000Z</time>
</trkpt>
<trkpt lat="33.2778403" lon="35.7327941">
<ele>1247.199951</ele>
<time>2016-04-25T07:38:23.000Z</time>
</trkpt>
<trkpt lat="33.2778946" lon="35.7329026">
<ele>1249.199829</ele>
<time>2016-04-25T07:38:32.000Z</time>
</trkpt>
<trkpt lat="33.2779397" lon="35.7330030">
<ele>1251.000000</ele>
<time>2016-04-25T07:38:41.000Z</time>
</trkpt>
<trkpt lat="33.2779859" lon="35.7331015">
<ele>1251.599976</ele>
<time>2016-04-25T07:38:50.000Z</time>
</trkpt>
<trkpt lat="33.2780312" lon="35.7332085">
<ele>1251.400024</ele>
<time>2016-04-25T07:38:58.000Z</time>
</trkpt>
<trkpt lat="33.2780911" lon="35.7333121">
<ele>1250.800049</ele>
<time>2016-04-25T07:39:06.000Z</time>
</trkpt>
<trkpt lat="33.2781589" lon="35.7333931">
<ele>1250.000000</ele>
<time>2016-04-25T07:39:14.000Z</time>
</trkpt>
<trkpt lat="33.2782212" lon="35.7334898">
<ele>1249.400024</ele>
<time>2016-04-25T07:39:23.000Z</time>
</trkpt>
<trkpt lat="33.2783066" lon="35.7335616">
<ele>1248.199951</ele>
<time>2016-04-25T07:39:29.000Z</time>
</trkpt>
<trkpt lat="33.2783993" lon="35.7336252">
<ele>1246.800049</ele>
<time>2016-04-25T07:39:33.000Z</time>
</trkpt>
<trkpt lat="33.2784850" lon="35.7336930">
<ele>1246.000000</ele>
<time>2016-04-25T07:39:40.000Z</time>
</trkpt>
<trkpt lat="33.2785628" lon="35.7337551">
<ele>1246.800049</ele>
<time>2016-04-25T07:39:45.000Z</time>
</trkpt>
<trkpt lat="33.2786629" lon="35.7338308">
<ele>1247.800049</ele>
<time>2016-04-25T07:39:51.000Z</time>
</trkpt>
<trkpt lat="33.2787519" lon="35.7338968">
<ele>1248.400024</ele>
<time>2016-04-25T07:39:57.000Z</time>
</trkpt>
<trkpt lat="33.2788327" lon="35.7339692">
<ele>1249.000000</ele>
<time>2016-04-25T07:40:02.000Z</time>
</trkpt>
<trkpt lat="33.2789152" lon="35.7340303">
<ele>1249.599976</ele>
<time>2016-04-25T07:40:07.000Z</time>
</trkpt>
<trkpt lat="33.2789901" lon="35.7341123">
<ele>1250.199951</ele>
<time>2016-04-25T07:40:13.000Z</time>
</trkpt>
<trkpt lat="33.2790636" lon="35.7341722">
<ele>1250.599854</ele>
<time>2016-04-25T07:40:20.000Z</time>
</trkpt>
<trkpt lat="33.2791482" lon="35.7342509">
<ele>1251.199951</ele>
<time>2016-04-25T07:40:28.000Z</time>
</trkpt>
<trkpt lat="33.2792220" lon="35.7343188">
<ele>1251.800049</ele>
<time>2016-04-25T07:40:35.000Z</time>
</trkpt>
<trkpt lat="33.2792908" lon="35.7343959">
<ele>1252.199951</ele>
<time>2016-04-25T07:40:42.000Z</time>
</trkpt>
<trkpt lat="33.2793565" lon="35.7344830">
<ele>1252.599976</ele>
<time>2016-04-25T07:40:49.000Z</time>
</trkpt>
<trkpt lat="33.2794429" lon="35.7345512">
<ele>1253.000000</ele>
<time>2016-04-25T07:40:56.000Z</time>
</trkpt>
<trkpt lat="33.2795162" lon="35.7346319">
<ele>1253.399902</ele>
<time>2016-04-25T07:41:04.000Z</time>
</trkpt>
<trkpt lat="33.2795980" lon="35.7347017">
<ele>1253.800049</ele>
<time>2016-04-25T07:41:13.000Z</time>
</trkpt>
<trkpt lat="33.2796891" lon="35.7347623">
<ele>1254.400024</ele>
<time>2016-04-25T07:41:23.000Z</time>
</trkpt>
<trkpt lat="33.2797762" lon="35.7348213">
<ele>1255.000000</ele>
<time>2016-04-25T07:41:33.000Z</time>
</trkpt>
<trkpt lat="33.2798542" lon="35.7348635">
<ele>1255.400024</ele>
<time>2016-04-25T07:41:43.000Z</time>
</trkpt>
<trkpt lat="33.2799567" lon="35.7349118">
<ele>1256.000000</ele>
<time>2016-04-25T07:41:54.000Z</time>
</trkpt>
<trkpt lat="33.2800537" lon="35.7349539">
<ele>1256.599854</ele>
<time>2016-04-25T07:42:04.000Z</time>
</trkpt>
<trkpt lat="33.2801505" lon="35.7350057">
<ele>1257.000000</ele>
<time>2016-04-25T07:42:15.000Z</time>
</trkpt>
<trkpt lat="33.2802496" lon="35.7350517">
<ele>1257.000000</ele>
<time>2016-04-25T07:42:26.000Z</time>
</trkpt>
<trkpt lat="33.2803574" lon="35.7350627">
<ele>1256.400024</ele>
<time>2016-04-25T07:42:37.000Z</time>
</trkpt>
<trkpt lat="33.2804575" lon="35.7351028">
<ele>1256.199951</ele>
<time>2016-04-25T07:42:47.000Z</time>
</trkpt>
<trkpt lat="33.2805556" lon="35.7351217">
<ele>1256.199951</ele>
<time>2016-04-25T07:42:59.000Z</time>
</trkpt>
<trkpt lat="33.2806599" lon="35.7351604">
<ele>1257.800049</ele>
<time>2016-04-25T07:43:10.000Z</time>
</trkpt>
<trkpt lat="33.2807570" lon="35.7351892">
<ele>1259.199951</ele>
<time>2016-04-25T07:43:22.000Z</time>
</trkpt>
<trkpt lat="33.2808606" lon="35.7351930">
<ele>1261.400024</ele>
<time>2016-04-25T07:43:34.000Z</time>
</trkpt>
<trkpt lat="33.2809569" lon="35.7352242">
<ele>1263.000000</ele>
<time>2016-04-25T07:43:45.000Z</time>
</trkpt>
<trkpt lat="33.2810432" lon="35.7352613">
<ele>1263.600098</ele>
<time>2016-04-25T07:44:16.000Z</time>
</trkpt>
<trkpt lat="33.2811374" lon="35.7352982">
<ele>1264.599976</ele>
<time>2016-04-25T07:44:34.000Z</time>
</trkpt>
<trkpt lat="33.2812313" lon="35.7353275">
<ele>1265.599976</ele>
<time>2016-04-25T07:44:51.000Z</time>
</trkpt>
<trkpt lat="33.2813247" lon="35.7353437">
<ele>1266.800049</ele>
<time>2016-04-25T07:45:09.000Z</time>
</trkpt>
<trkpt lat="33.2814263" lon="35.7353632">
<ele>1268.200073</ele>
<time>2016-04-25T07:45:27.000Z</time>
</trkpt>
<trkpt lat="33.2815122" lon="35.7353812">
<ele>1269.199951</ele>
<time>2016-04-25T07:45:44.000Z</time>
</trkpt>
<trkpt lat="33.2816078" lon="35.7353854">
<ele>1270.800049</ele>
<time>2016-04-25T07:46:03.000Z</time>
</trkpt>
<trkpt lat="33.2817135" lon="35.7354137">
<ele>1272.399902</ele>
<time>2016-04-25T07:46:35.000Z</time>
</trkpt>
<trkpt lat="33.2817916" lon="35.7354515">
<ele>1273.199951</ele>
<time>2016-04-25T07:46:51.000Z</time>
</trkpt>
<trkpt lat="33.2818928" lon="35.7354718">
<ele>1275.199951</ele>
<time>2016-04-25T07:47:07.000Z</time>
</trkpt>
<trkpt lat="33.2819858" lon="35.7355098">
<ele>1276.400024</ele>
<time>2016-04-25T07:47:24.000Z</time>
</trkpt>
<trkpt lat="33.2820668" lon="35.7355559">
<ele>1277.599976</ele>
<time>2016-04-25T07:47:39.000Z</time>
</trkpt>
<trkpt lat="33.2821514" lon="35.7355926">
<ele>1280.000000</ele>
<time>2016-04-25T07:47:55.000Z</time>
</trkpt>
<trkpt lat="33.2822408" lon="35.7356428">
<ele>1282.800049</ele>
<time>2016-04-25T07:48:13.000Z</time>
</trkpt>
<trkpt lat="33.2823357" lon="35.7356481">
<ele>1285.199951</ele>
<time>2016-04-25T07:48:27.000Z</time>
</trkpt>
<trkpt lat="33.2824174" lon="35.7356804">
<ele>1287.400024</ele>
<time>2016-04-25T07:48:42.000Z</time>
</trkpt>
<trkpt lat="33.2824967" lon="35.7357230">
<ele>1289.800049</ele>
<time>2016-04-25T07:48:56.000Z</time>
</trkpt>
<trkpt lat="33.2825802" lon="35.7357698">
<ele>1292.199951</ele>
<time>2016-04-25T07:49:12.000Z</time>
</trkpt>
<trkpt lat="33.2826606" lon="35.7358140">
<ele>1294.600098</ele>
<time>2016-04-25T07:49:31.000Z</time>
</trkpt>
<trkpt lat="33.2827491" lon="35.7358540">
<ele>1297.000000</ele>
<time>2016-04-25T07:49:59.000Z</time>
</trkpt>
<trkpt lat="33.2828477" lon="35.7359064">
<ele>1299.599976</ele>
<time>2016-04-25T07:50:20.000Z</time>
</trkpt>
<trkpt lat="33.2829269" lon="35.7359456">
<ele>1301.800049</ele>
<time>2016-04-25T07:50:38.000Z</time>
</trkpt>
<trkpt lat="33.2830213" lon="35.7359796">
<ele>1304.199951</ele>
<time>2016-04-25T07:50:57.000Z</time>
</trkpt>
<trkpt lat="33.2831084" lon="35.7360210">
<ele>1306.599854</ele>
<time>2016-04-25T07:51:19.000Z</time>
</trkpt>
<trkpt lat="33.2831997" lon="35.7360404">
<ele>1309.199951</ele>
<time>2016-04-25T07:51:40.000Z</time>
</trkpt>
<trkpt lat="33.2832831" lon="35.7360990">
<ele>1312.000000</ele>
<time>2016-04-25T07:52:07.000Z</time>
</trkpt>
<trkpt lat="33.2833682" lon="35.7361531">
<ele>1314.599976</ele>
<time>2016-04-25T07:52:33.000Z</time>
</trkpt>
<trkpt lat="33.2834810" lon="35.7361848">
<ele>1317.800171</ele>
<time>2016-04-25T07:53:02.000Z</time>
</trkpt>
<trkpt lat="33.2835610" lon="35.7361976">
<ele>1319.400024</ele>
<time>2016-04-25T07:53:25.000Z</time>
</trkpt>
<trkpt lat="33.2836488" lon="35.7362315">
<ele>1321.199951</ele>
<time>2016-04-25T07:53:55.000Z</time>
</trkpt>
<trkpt lat="33.2837373" lon="35.7362492">
<ele>1323.000000</ele>
<time>2016-04-25T07:54:17.000Z</time>
</trkpt>
<trkpt lat="33.2838325" lon="35.7362919">
<ele>1324.800049</ele>
<time>2016-04-25T07:54:35.000Z</time>
</trkpt>
<trkpt lat="33.2839222" lon="35.7363002">
<ele>1326.599976</ele>
<time>2016-04-25T07:54:54.000Z</time>
</trkpt>
<trkpt lat="33.2840073" lon="35.7363448">
<ele>1328.399902</ele>
<time>2016-04-25T07:55:11.000Z</time>
</trkpt>
<trkpt lat="33.2840936" lon="35.7363528">
<ele>1330.000000</ele>
<time>2016-04-25T07:59:47.000Z</time>
</trkpt>
<trkpt lat="33.2841785" lon="35.7363909">
<ele>1332.199951</ele>
<time>2016-04-25T08:00:04.000Z</time>
</trkpt>
<trkpt lat="33.2842641" lon="35.7364316">
<ele>1335.000000</ele>
<time>2016-04-25T08:00:22.000Z</time>
</trkpt>
<trkpt lat="33.2843535" lon="35.7364548">
<ele>1337.200073</ele>
<time>2016-04-25T08:00:39.000Z</time>
</trkpt>
<trkpt lat="33.2844390" lon="35.7364525">
<ele>1338.800049</ele>
<time>2016-04-25T08:00:57.000Z</time>
</trkpt>
<trkpt lat="33.2845332" lon="35.7364703">
<ele>1341.199951</ele>
<time>2016-04-25T08:01:16.000Z</time>
</trkpt>
<trkpt lat="33.2846160" lon="35.7365184">
<ele>1344.199951</ele>
<time>2016-04-25T08:01:37.000Z</time>
</trkpt>
<trkpt lat="33.2847150" lon="35.7365131">
<ele>1346.000122</ele>
<time>2016-04-25T08:01:58.000Z</time>
</trkpt>
<trkpt lat="33.2848185" lon="35.7365271">
<ele>1348.599976</ele>
<time>2016-04-25T08:02:19.000Z</time>
</trkpt>
<trkpt lat="33.2849159" lon="35.7365535">
<ele>1351.199951</ele>
<time>2016-04-25T08:02:38.000Z</time>
</trkpt>
<trkpt lat="33.2849995" lon="35.7365800">
<ele>1353.599976</ele>
<time>2016-04-25T08:02:57.000Z</time>
</trkpt>
<trkpt lat="33.2850894" lon="35.7366064">
<ele>1356.000000</ele>
<time>2016-04-25T08:03:15.000Z</time>
</trkpt>
<trkpt lat="33.2851818" lon="35.7366296">
<ele>1357.999878</ele>
<time>2016-04-25T08:03:31.000Z</time>
</trkpt>
<trkpt lat="33.2852866" lon="35.7366514">
<ele>1359.800049</ele>
<time>2016-04-25T08:03:48.000Z</time>
</trkpt>
<trkpt lat="33.2853791" lon="35.7366613">
<ele>1361.000000</ele>
<time>2016-04-25T08:04:03.000Z</time>
</trkpt>
<trkpt lat="33.2854742" lon="35.7366702">
<ele>1362.400024</ele>
<time>2016-04-25T08:04:18.000Z</time>
</trkpt>
<trkpt lat="33.2855680" lon="35.7366878">
<ele>1364.000000</ele>
<time>2016-04-25T08:04:31.000Z</time>
</trkpt>
<trkpt lat="33.2856647" lon="35.7366966">
<ele>1365.599976</ele>
<time>2016-04-25T08:04:46.000Z</time>
</trkpt>
<trkpt lat="33.2857550" lon="35.7367031">
<ele>1367.199951</ele>
<time>2016-04-25T08:05:00.000Z</time>
</trkpt>
<trkpt lat="33.2858498" lon="35.7367015">
<ele>1368.400024</ele>
<time>2016-04-25T08:05:15.000Z</time>
</trkpt>
<trkpt lat="33.2859401" lon="35.7367244">
<ele>1370.199951</ele>
<time>2016-04-25T08:05:29.000Z</time>
</trkpt>
<trkpt lat="33.2860306" lon="35.7367305">
<ele>1370.800049</ele>
<time>2016-04-25T08:05:44.000Z</time>
</trkpt>
<trkpt lat="33.2861222" lon="35.7367260">
<ele>1371.000122</ele>
<time>2016-04-25T08:05:58.000Z</time>
</trkpt>
<trkpt lat="33.2862101" lon="35.7367638">
<ele>1372.000000</ele>
<time>2016-04-25T08:06:06.000Z</time>
</trkpt>
<trkpt lat="33.2863167" lon="35.7367833">
<ele>1372.800049</ele>
<time>2016-04-25T08:06:14.000Z</time>
</trkpt>
<trkpt lat="33.2864094" lon="35.7367898">
<ele>1373.199951</ele>
<time>2016-04-25T08:06:22.000Z</time>
</trkpt>
<trkpt lat="33.2865035" lon="35.7367840">
<ele>1373.599976</ele>
<time>2016-04-25T08:06:30.000Z</time>
</trkpt>
<trkpt lat="33.2865995" lon="35.7367578">
<ele>1373.799927</ele>
<time>2016-04-25T08:06:38.000Z</time>
</trkpt>
<trkpt lat="33.2866973" lon="35.7367278">
<ele>1373.799927</ele>
<time>2016-04-25T08:06:46.000Z</time>
</trkpt>
<trkpt lat="33.2867845" lon="35.7366872">
<ele>1373.599976</ele>
<time>2016-04-25T08:06:56.000Z</time>
</trkpt>
<trkpt lat="33.2868811" lon="35.7366535">
<ele>1371.000122</ele>
<time>2016-04-25T08:07:06.000Z</time>
</trkpt>
<trkpt lat="33.2869775" lon="35.7366659">
<ele>1369.000000</ele>
<time>2016-04-25T08:07:11.000Z</time>
</trkpt>
<trkpt lat="33.2870827" lon="35.7366961">
<ele>1367.000000</ele>
<time>2016-04-25T08:07:15.000Z</time>
</trkpt>
<trkpt lat="33.2872117" lon="35.7367959">
<ele>1365.599976</ele>
<time>2016-04-25T08:07:18.000Z</time>
</trkpt>
<trkpt lat="33.2873153" lon="35.7369019">
<ele>1365.199951</ele>
<time>2016-04-25T08:07:20.000Z</time>
</trkpt>
<trkpt lat="33.2874077" lon="35.7369970">
<ele>1364.599976</ele>
<time>2016-04-25T08:07:22.000Z</time>
</trkpt>
<trkpt lat="33.2875302" lon="35.7371348">
<ele>1364.199951</ele>
<time>2016-04-25T08:07:25.000Z</time>
</trkpt>
<trkpt lat="33.2876029" lon="35.7372278">
<ele>1364.000000</ele>
<time>2016-04-25T08:07:27.000Z</time>
</trkpt>
<trkpt lat="33.2876604" lon="35.7373454">
<ele>1363.800049</ele>
<time>2016-04-25T08:07:29.000Z</time>
</trkpt>
<trkpt lat="33.2877033" lon="35.7374894">
<ele>1364.000000</ele>
<time>2016-04-25T08:07:31.000Z</time>
</trkpt>
<trkpt lat="33.2877407" lon="35.7376440">
<ele>1364.599976</ele>
<time>2016-04-25T08:07:33.000Z</time>
</trkpt>
<trkpt lat="33.2877657" lon="35.7378025">
<ele>1366.000000</ele>
<time>2016-04-25T08:07:35.000Z</time>
</trkpt>
<trkpt lat="33.2877856" lon="35.7379512">
<ele>1367.599976</ele>
<time>2016-04-25T08:07:37.000Z</time>
</trkpt>
<trkpt lat="33.2878142" lon="35.7380728">
<ele>1368.200073</ele>
<time>2016-04-25T08:07:39.000Z</time>
</trkpt>
<trkpt lat="33.2878618" lon="35.7382055">
<ele>1367.400024</ele>
<time>2016-04-25T08:07:42.000Z</time>
</trkpt>
<trkpt lat="33.2879129" lon="35.7383455">
<ele>1366.599976</ele>
<time>2016-04-25T08:07:45.000Z</time>
</trkpt>
<trkpt lat="33.2879574" lon="35.7384464">
<ele>1365.199951</ele>
<time>2016-04-25T08:07:47.000Z</time>
</trkpt>
<trkpt lat="33.2880269" lon="35.7385767">
<ele>1363.000000</ele>
<time>2016-04-25T08:07:50.000Z</time>
</trkpt>
<trkpt lat="33.2880930" lon="35.7386874">
<ele>1360.599976</ele>
<time>2016-04-25T08:07:53.000Z</time>
</trkpt>
<trkpt lat="33.2881446" lon="35.7387832">
<ele>1358.800049</ele>
<time>2016-04-25T08:07:56.000Z</time>
</trkpt>
<trkpt lat="33.2882083" lon="35.7388630">
<ele>1356.199951</ele>
<time>2016-04-25T08:07:59.000Z</time>
</trkpt>
<trkpt lat="33.2882969" lon="35.7389579">
<ele>1352.400024</ele>
<time>2016-04-25T08:08:02.000Z</time>
</trkpt>
<trkpt lat="33.2883860" lon="35.7390502">
<ele>1348.400024</ele>
<time>2016-04-25T08:08:05.000Z</time>
</trkpt>
<trkpt lat="33.2884611" lon="35.7391433">
<ele>1345.400024</ele>
<time>2016-04-25T08:08:08.000Z</time>
</trkpt>
<trkpt lat="33.2885123" lon="35.7392471">
<ele>1344.000000</ele>
<time>2016-04-25T08:08:10.000Z</time>
</trkpt>
<trkpt lat="33.2885373" lon="35.7393663">
<ele>1344.400024</ele>
<time>2016-04-25T08:08:12.000Z</time>
</trkpt>
<trkpt lat="33.2885443" lon="35.7394986">
<ele>1346.000122</ele>
<time>2016-04-25T08:08:15.000Z</time>
</trkpt>
<trkpt lat="33.2885700" lon="35.7395942">
<ele>1346.000122</ele>
<time>2016-04-25T08:08:19.000Z</time>
</trkpt>
<trkpt lat="33.2885891" lon="35.7397192">
<ele>1346.800049</ele>
<time>2016-04-25T08:08:26.000Z</time>
</trkpt>
<trkpt lat="33.2886122" lon="35.7398476">
<ele>1347.599976</ele>
<time>2016-04-25T08:08:34.000Z</time>
</trkpt>
<trkpt lat="33.2886337" lon="35.7399662">
<ele>1348.400024</ele>
<time>2016-04-25T08:08:40.000Z</time>
</trkpt>
<trkpt lat="33.2886523" lon="35.7400869">
<ele>1349.199829</ele>
<time>2016-04-25T08:08:47.000Z</time>
</trkpt>
<trkpt lat="33.2886742" lon="35.7402010">
<ele>1349.599976</ele>
<time>2016-04-25T08:08:54.000Z</time>
</trkpt>
<trkpt lat="33.2886872" lon="35.7403180">
<ele>1350.800049</ele>
<time>2016-04-25T08:09:02.000Z</time>
</trkpt>
<trkpt lat="33.2886916" lon="35.7404367">
<ele>1352.400024</ele>
<time>2016-04-25T08:09:11.000Z</time>
</trkpt>
<trkpt lat="33.2886844" lon="35.7405570">
<ele>1354.599976</ele>
<time>2016-04-25T08:09:20.000Z</time>
</trkpt>
<trkpt lat="33.2886932" lon="35.7406671">
<ele>1355.599976</ele>
<time>2016-04-25T08:09:28.000Z</time>
</trkpt>
<trkpt lat="33.2887190" lon="35.7407754">
<ele>1355.800049</ele>
<time>2016-04-25T08:09:36.000Z</time>
</trkpt>
<trkpt lat="33.2887268" lon="35.7408996">
<ele>1356.400024</ele>
<time>2016-04-25T08:09:45.000Z</time>
</trkpt>
<trkpt lat="33.2887285" lon="35.7410264">
<ele>1357.199951</ele>
<time>2016-04-25T08:09:54.000Z</time>
</trkpt>
<trkpt lat="33.2887144" lon="35.7411315">
<ele>1358.599976</ele>
<time>2016-04-25T08:10:03.000Z</time>
</trkpt>
<trkpt lat="33.2887105" lon="35.7412448">
<ele>1359.599976</ele>
<time>2016-04-25T08:10:13.000Z</time>
</trkpt>
<trkpt lat="33.2887035" lon="35.7413648">
<ele>1360.800049</ele>
<time>2016-04-25T08:10:23.000Z</time>
</trkpt>
<trkpt lat="33.2886885" lon="35.7414736">
<ele>1363.600098</ele>
<time>2016-04-25T08:10:33.000Z</time>
</trkpt>
<trkpt lat="33.2886858" lon="35.7415971">
<ele>1365.800049</ele>
<time>2016-04-25T08:10:42.000Z</time>
</trkpt>
<trkpt lat="33.2886738" lon="35.7417125">
<ele>1365.800049</ele>
<time>2016-04-25T08:10:49.000Z</time>
</trkpt>
<trkpt lat="33.2886665" lon="35.7418352">
<ele>1365.599976</ele>
<time>2016-04-25T08:10:56.000Z</time>
</trkpt>
<trkpt lat="33.2886476" lon="35.7419642">
<ele>1365.599976</ele>
<time>2016-04-25T08:11:03.000Z</time>
</trkpt>
<trkpt lat="33.2886310" lon="35.7420715">
<ele>1365.599976</ele>
<time>2016-04-25T08:11:09.000Z</time>
</trkpt>
<trkpt lat="33.2886119" lon="35.7421797">
<ele>1365.800049</ele>
<time>2016-04-25T08:11:15.000Z</time>
</trkpt>
<trkpt lat="33.2885948" lon="35.7423001">
<ele>1367.800171</ele>
<time>2016-04-25T08:11:22.000Z</time>
</trkpt>
<trkpt lat="33.2885727" lon="35.7424137">
<ele>1369.400024</ele>
<time>2016-04-25T08:11:29.000Z</time>
</trkpt>
<trkpt lat="33.2885584" lon="35.7425277">
<ele>1370.599976</ele>
<time>2016-04-25T08:11:35.000Z</time>
</trkpt>
<trkpt lat="33.2885316" lon="35.7426508">
<ele>1372.000000</ele>
<time>2016-04-25T08:11:42.000Z</time>
</trkpt>
<trkpt lat="33.2885347" lon="35.7427816">
<ele>1372.800049</ele>
<time>2016-04-25T08:11:49.000Z</time>
</trkpt>
<trkpt lat="33.2885396" lon="35.7429136">
<ele>1373.599976</ele>
<time>2016-04-25T08:11:55.000Z</time>
</trkpt>
<trkpt lat="33.2885502" lon="35.7430401">
<ele>1374.400024</ele>
<time>2016-04-25T08:12:01.000Z</time>
</trkpt>
<trkpt lat="33.2885511" lon="35.7431590">
<ele>1376.000000</ele>
<time>2016-04-25T08:12:06.000Z</time>
</trkpt>
<trkpt lat="33.2885613" lon="35.7432968">
<ele>1376.999878</ele>
<time>2016-04-25T08:12:11.000Z</time>
</trkpt>
<trkpt lat="33.2885704" lon="35.7434219">
<ele>1377.800049</ele>
<time>2016-04-25T08:12:14.000Z</time>
</trkpt>
<trkpt lat="33.2885726" lon="35.7435586">
<ele>1378.599976</ele>
<time>2016-04-25T08:12:17.000Z</time>
</trkpt>
<trkpt lat="33.2885901" lon="35.7436728">
<ele>1379.400024</ele>
<time>2016-04-25T08:12:22.000Z</time>
</trkpt>
<trkpt lat="33.2885814" lon="35.7437950">
<ele>1380.400024</ele>
<time>2016-04-25T08:12:30.000Z</time>
</trkpt>
<trkpt lat="33.2885810" lon="35.7439077">
<ele>1381.400024</ele>
<time>2016-04-25T08:12:38.000Z</time>
</trkpt>
<trkpt lat="33.2885932" lon="35.7440240">
<ele>1382.800049</ele>
<time>2016-04-25T08:12:46.000Z</time>
</trkpt>
<trkpt lat="33.2886052" lon="35.7441485">
<ele>1384.199951</ele>
<time>2016-04-25T08:12:54.000Z</time>
</trkpt>
<trkpt lat="33.2886076" lon="35.7442648">
<ele>1385.400146</ele>
<time>2016-04-25T08:13:02.000Z</time>
</trkpt>
<trkpt lat="33.2886013" lon="35.7443850">
<ele>1387.000000</ele>
<time>2016-04-25T08:13:10.000Z</time>
</trkpt>
<trkpt lat="33.2886096" lon="35.7444936">
<ele>1388.199951</ele>
<time>2016-04-25T08:13:19.000Z</time>
</trkpt>
<trkpt lat="33.2886066" lon="35.7446070">
<ele>1389.599976</ele>
<time>2016-04-25T08:13:29.000Z</time>
</trkpt>
<trkpt lat="33.2885943" lon="35.7447156">
<ele>1391.000000</ele>
<time>2016-04-25T08:13:39.000Z</time>
</trkpt>
<trkpt lat="33.2885864" lon="35.7448416">
<ele>1392.400024</ele>
<time>2016-04-25T08:13:50.000Z</time>
</trkpt>
<trkpt lat="33.2885688" lon="35.7449624">
<ele>1393.000000</ele>
<time>2016-04-25T08:14:02.000Z</time>
</trkpt>
<trkpt lat="33.2885752" lon="35.7450842">
<ele>1393.599976</ele>
<time>2016-04-25T08:14:13.000Z</time>
</trkpt>
<trkpt lat="33.2885920" lon="35.7452099">
<ele>1394.199951</ele>
<time>2016-04-25T08:14:24.000Z</time>
</trkpt>
<trkpt lat="33.2886140" lon="35.7453169">
<ele>1394.800049</ele>
<time>2016-04-25T08:14:35.000Z</time>
</trkpt>
<trkpt lat="33.2886114" lon="35.7454333">
<ele>1395.400024</ele>
<time>2016-04-25T08:14:45.000Z</time>
</trkpt>
<trkpt lat="33.2886062" lon="35.7455539">
<ele>1395.800049</ele>
<time>2016-04-25T08:14:56.000Z</time>
</trkpt>
<trkpt lat="33.2885559" lon="35.7456578">
<ele>1396.599976</ele>
<time>2016-04-25T08:15:05.000Z</time>
</trkpt>
<trkpt lat="33.2885285" lon="35.7457876">
<ele>1399.199829</ele>
<time>2016-04-25T08:15:15.000Z</time>
</trkpt>
<trkpt lat="33.2885083" lon="35.7458942">
<ele>1401.400024</ele>
<time>2016-04-25T08:15:24.000Z</time>
</trkpt>
<trkpt lat="33.2885133" lon="35.7460079">
<ele>1403.199951</ele>
<time>2016-04-25T08:15:33.000Z</time>
</trkpt>
<trkpt lat="33.2885279" lon="35.7461229">
<ele>1404.799927</ele>
<time>2016-04-25T08:15:42.000Z</time>
</trkpt>
<trkpt lat="33.2885414" lon="35.7462356">
<ele>1406.599854</ele>
<time>2016-04-25T08:15:48.000Z</time>
</trkpt>
<trkpt lat="33.2885681" lon="35.7463458">
<ele>1407.999878</ele>
<time>2016-04-25T08:15:52.000Z</time>
</trkpt>
<trkpt lat="33.2886107" lon="35.7464749">
<ele>1408.800049</ele>
<time>2016-04-25T08:15:56.000Z</time>
</trkpt>
<trkpt lat="33.2886562" lon="35.7465994">
<ele>1409.199951</ele>
<time>2016-04-25T08:15:59.000Z</time>
</trkpt>
<trkpt lat="33.2887035" lon="35.7467267">
<ele>1409.599976</ele>
<time>2016-04-25T08:16:02.000Z</time>
</trkpt>
<trkpt lat="33.2887506" lon="35.7468503">
<ele>1409.800049</ele>
<time>2016-04-25T08:16:05.000Z</time>
</trkpt>
<trkpt lat="33.2887770" lon="35.7469585">
<ele>1410.400146</ele>
<time>2016-04-25T08:16:08.000Z</time>
</trkpt>
<trkpt lat="33.2887691" lon="35.7470849">
<ele>1411.599976</ele>
<time>2016-04-25T08:16:14.000Z</time>
</trkpt>
<trkpt lat="33.2887416" lon="35.7472000">
<ele>1413.000000</ele>
<time>2016-04-25T08:16:23.000Z</time>
</trkpt>
<trkpt lat="33.2887271" lon="35.7473164">
<ele>1414.800049</ele>
<time>2016-04-25T08:16:32.000Z</time>
</trkpt>
<trkpt lat="33.2887232" lon="35.7474224">
<ele>1416.400146</ele>
<time>2016-04-25T08:16:41.000Z</time>
</trkpt>
<trkpt lat="33.2887061" lon="35.7475407">
<ele>1418.000000</ele>
<time>2016-04-25T08:16:51.000Z</time>
</trkpt>
<trkpt lat="33.2886760" lon="35.7476579">
<ele>1419.800049</ele>
<time>2016-04-25T08:17:01.000Z</time>
</trkpt>
<trkpt lat="33.2886695" lon="35.7477780">
<ele>1421.400024</ele>
<time>2016-04-25T08:17:11.000Z</time>
</trkpt>
<trkpt lat="33.2886531" lon="35.7479035">
<ele>1423.000000</ele>
<time>2016-04-25T08:17:20.000Z</time>
</trkpt>
<trkpt lat="33.2886408" lon="35.7480214">
<ele>1424.599976</ele>
<time>2016-04-25T08:17:28.000Z</time>
</trkpt>
<trkpt lat="33.2886364" lon="35.7481428">
<ele>1424.800049</ele>
<time>2016-04-25T08:17:35.000Z</time>
</trkpt>
<trkpt lat="33.2886322" lon="35.7482496">
<ele>1424.800049</ele>
<time>2016-04-25T08:17:41.000Z</time>
</trkpt>
<trkpt lat="33.2886356" lon="35.7483674">
<ele>1424.599976</ele>
<time>2016-04-25T08:17:46.000Z</time>
</trkpt>
<trkpt lat="33.2886607" lon="35.7484768">
<ele>1424.199829</ele>
<time>2016-04-25T08:17:51.000Z</time>
</trkpt>
<trkpt lat="33.2886838" lon="35.7485901">
<ele>1423.799927</ele>
<time>2016-04-25T08:17:55.000Z</time>
</trkpt>
<trkpt lat="33.2886987" lon="35.7487190">
<ele>1423.400024</ele>
<time>2016-04-25T08:17:59.000Z</time>
</trkpt>
<trkpt lat="33.2887150" lon="35.7488602">
<ele>1423.000000</ele>
<time>2016-04-25T08:18:03.000Z</time>
</trkpt>
<trkpt lat="33.2887232" lon="35.7489751">
<ele>1422.199951</ele>
<time>2016-04-25T08:18:06.000Z</time>
</trkpt>
<trkpt lat="33.2887346" lon="35.7491013">
<ele>1421.400024</ele>
<time>2016-04-25T08:18:09.000Z</time>
</trkpt>
<trkpt lat="33.2887483" lon="35.7492313">
<ele>1420.400024</ele>
<time>2016-04-25T08:18:12.000Z</time>
</trkpt>
<trkpt lat="33.2887681" lon="35.7493634">
<ele>1419.199951</ele>
<time>2016-04-25T08:18:15.000Z</time>
</trkpt>
<trkpt lat="33.2887797" lon="35.7495022">
<ele>1418.000000</ele>
<time>2016-04-25T08:18:18.000Z</time>
</trkpt>
<trkpt lat="33.2887774" lon="35.7496343">
<ele>1417.199951</ele>
<time>2016-04-25T08:18:21.000Z</time>
</trkpt>
<trkpt lat="33.2887553" lon="35.7497598">
<ele>1416.800049</ele>
<time>2016-04-25T08:18:24.000Z</time>
</trkpt>
<trkpt lat="33.2887466" lon="35.7498844">
<ele>1417.000000</ele>
<time>2016-04-25T08:18:27.000Z</time>
</trkpt>
<trkpt lat="33.2887598" lon="35.7500077">
<ele>1416.800049</ele>
<time>2016-04-25T08:18:30.000Z</time>
</trkpt>
<trkpt lat="33.2887489" lon="35.7501343">
<ele>1416.800049</ele>
<time>2016-04-25T08:18:33.000Z</time>
</trkpt>
<trkpt lat="33.2888302" lon="35.7501951">
<ele>1416.000000</ele>
<time>2016-04-25T08:18:39.000Z</time>
</trkpt>
<trkpt lat="33.2889239" lon="35.7502534">
<ele>1415.000122</ele>
<time>2016-04-25T08:18:43.000Z</time>
</trkpt>
<trkpt lat="33.2889890" lon="35.7503611">
<ele>1414.199951</ele>
<time>2016-04-25T08:18:48.000Z</time>
</trkpt>
<trkpt lat="33.2890430" lon="35.7504572">
<ele>1413.600098</ele>
<time>2016-04-25T08:18:55.000Z</time>
</trkpt>
<trkpt lat="33.2891006" lon="35.7504951">
<ele>1413.000000</ele>
<time>2016-04-25T08:20:40.000Z</time>
</trkpt>
<trkpt lat="33.2891644" lon="35.7506002">
<ele>1412.800049</ele>
<time>2016-04-25T08:20:45.000Z</time>
</trkpt>
<trkpt lat="33.2892113" lon="35.7507164">
<ele>1413.199951</ele>
<time>2016-04-25T08:20:49.000Z</time>
</trkpt>
<trkpt lat="33.2892666" lon="35.7508195">
<ele>1413.600098</ele>
<time>2016-04-25T08:20:53.000Z</time>
</trkpt>
<trkpt lat="33.2893411" lon="35.7508873">
<ele>1413.800049</ele>
<time>2016-04-25T08:20:57.000Z</time>
</trkpt>
<trkpt lat="33.2894347" lon="35.7509499">
<ele>1414.199951</ele>
<time>2016-04-25T08:21:01.000Z</time>
</trkpt>
<trkpt lat="33.2895439" lon="35.7510202">
<ele>1414.800049</ele>
<time>2016-04-25T08:21:05.000Z</time>
</trkpt>
<trkpt lat="33.2896245" lon="35.7510644">
<ele>1415.000122</ele>
<time>2016-04-25T08:21:08.000Z</time>
</trkpt>
<trkpt lat="33.2897167" lon="35.7511134">
<ele>1415.199951</ele>
<time>2016-04-25T08:21:11.000Z</time>
</trkpt>
<trkpt lat="33.2898115" lon="35.7511749">
<ele>1415.800049</ele>
<time>2016-04-25T08:21:14.000Z</time>
</trkpt>
<trkpt lat="33.2899057" lon="35.7512557">
<ele>1416.199951</ele>
<time>2016-04-25T08:21:17.000Z</time>
</trkpt>
<trkpt lat="33.2899978" lon="35.7513380">
<ele>1416.800049</ele>
<time>2016-04-25T08:21:20.000Z</time>
</trkpt>
<trkpt lat="33.2900925" lon="35.7514078">
<ele>1417.400024</ele>
<time>2016-04-25T08:21:23.000Z</time>
</trkpt>
<trkpt lat="33.2901923" lon="35.7514615">
<ele>1417.199951</ele>
<time>2016-04-25T08:21:26.000Z</time>
</trkpt>
<trkpt lat="33.2902964" lon="35.7515145">
<ele>1417.000000</ele>
<time>2016-04-25T08:21:29.000Z</time>
</trkpt>
<trkpt lat="33.2903802" lon="35.7515770">
<ele>1416.800049</ele>
<time>2016-04-25T08:21:32.000Z</time>
</trkpt>
<trkpt lat="33.2904522" lon="35.7516387">
<ele>1416.800049</ele>
<time>2016-04-25T08:21:35.000Z</time>
</trkpt>
<trkpt lat="33.2905223" lon="35.7517435">
<ele>1417.000000</ele>
<time>2016-04-25T08:21:39.000Z</time>
</trkpt>
<trkpt lat="33.2905575" lon="35.7518369">
<ele>1417.400024</ele>
<time>2016-04-25T08:21:42.000Z</time>
</trkpt>
<trkpt lat="33.2905997" lon="35.7519302">
<ele>1417.800171</ele>
<time>2016-04-25T08:21:45.000Z</time>
</trkpt>
<trkpt lat="33.2906282" lon="35.7520633">
<ele>1418.599976</ele>
<time>2016-04-25T08:21:49.000Z</time>
</trkpt>
<trkpt lat="33.2906448" lon="35.7521971">
<ele>1419.600098</ele>
<time>2016-04-25T08:21:53.000Z</time>
</trkpt>
<trkpt lat="33.2906778" lon="35.7523276">
<ele>1419.199951</ele>
<time>2016-04-25T08:21:57.000Z</time>
</trkpt>
<trkpt lat="33.2907079" lon="35.7524327">
<ele>1418.599976</ele>
<time>2016-04-25T08:22:00.000Z</time>
</trkpt>
<trkpt lat="33.2907439" lon="35.7525674">
<ele>1418.000000</ele>
<time>2016-04-25T08:22:04.000Z</time>
</trkpt>
<trkpt lat="33.2907689" lon="35.7527046">
<ele>1417.400024</ele>
<time>2016-04-25T08:22:08.000Z</time>
</trkpt>
<trkpt lat="33.2907896" lon="35.7528146">
<ele>1417.000000</ele>
<time>2016-04-25T08:22:11.000Z</time>
</trkpt>
<trkpt lat="33.2908109" lon="35.7529395">
<ele>1417.000000</ele>
<time>2016-04-25T08:22:15.000Z</time>
</trkpt>
<trkpt lat="33.2908492" lon="35.7530454">
<ele>1416.800049</ele>
<time>2016-04-25T08:22:20.000Z</time>
</trkpt>
<trkpt lat="33.2908992" lon="35.7531594">
<ele>1417.199951</ele>
<time>2016-04-25T08:22:25.000Z</time>
</trkpt>
<trkpt lat="33.2909435" lon="35.7532780">
<ele>1417.599976</ele>
<time>2016-04-25T08:22:30.000Z</time>
</trkpt>
<trkpt lat="33.2909693" lon="35.7533804">
<ele>1418.200073</ele>
<time>2016-04-25T08:22:36.000Z</time>
</trkpt>
<trkpt lat="33.2909900" lon="35.7534999">
<ele>1419.199951</ele>
<time>2016-04-25T08:22:42.000Z</time>
</trkpt>
<trkpt lat="33.2910238" lon="35.7536012">
<ele>1419.800049</ele>
<time>2016-04-25T08:22:47.000Z</time>
</trkpt>
<trkpt lat="33.2910613" lon="35.7537170">
<ele>1420.599976</ele>
<time>2016-04-25T08:22:52.000Z</time>
</trkpt>
<trkpt lat="33.2911024" lon="35.7538430">
<ele>1421.400024</ele>
<time>2016-04-25T08:22:57.000Z</time>
</trkpt>
<trkpt lat="33.2911241" lon="35.7539509">
<ele>1421.800049</ele>
<time>2016-04-25T08:23:01.000Z</time>
</trkpt>
<trkpt lat="33.2911539" lon="35.7540804">
<ele>1422.000000</ele>
<time>2016-04-25T08:23:06.000Z</time>
</trkpt>
<trkpt lat="33.2911738" lon="35.7542085">
<ele>1422.000000</ele>
<time>2016-04-25T08:23:11.000Z</time>
</trkpt>
<trkpt lat="33.2911828" lon="35.7543327">
<ele>1422.199951</ele>
<time>2016-04-25T08:23:16.000Z</time>
</trkpt>
<trkpt lat="33.2911720" lon="35.7544581">
<ele>1422.599976</ele>
<time>2016-04-25T08:23:21.000Z</time>
</trkpt>
<trkpt lat="33.2911636" lon="35.7545741">
<ele>1423.000000</ele>
<time>2016-04-25T08:23:26.000Z</time>
</trkpt>
<trkpt lat="33.2911575" lon="35.7546880">
<ele>1423.400024</ele>
<time>2016-04-25T08:23:31.000Z</time>
</trkpt>
<trkpt lat="33.2911463" lon="35.7548069">
<ele>1425.199951</ele>
<time>2016-04-25T08:23:36.000Z</time>
</trkpt>
<trkpt lat="33.2911038" lon="35.7549083">
<ele>1426.800049</ele>
<time>2016-04-25T08:23:41.000Z</time>
</trkpt>
<trkpt lat="33.2910835" lon="35.7550134">
<ele>1427.800049</ele>
<time>2016-04-25T08:23:48.000Z</time>
</trkpt>
<trkpt lat="33.2910699" lon="35.7551287">
<ele>1429.000000</ele>
<time>2016-04-25T08:23:56.000Z</time>
</trkpt>
<trkpt lat="33.2910513" lon="35.7552203">
<ele>1429.799927</ele>
<time>2016-04-25T08:24:11.000Z</time>
</trkpt>
<trkpt lat="33.2910219" lon="35.7553130">
<ele>1430.800049</ele>
<time>2016-04-25T08:24:28.000Z</time>
</trkpt>
<trkpt lat="33.2909994" lon="35.7554149">
<ele>1431.800049</ele>
<time>2016-04-25T08:24:43.000Z</time>
</trkpt>
<trkpt lat="33.2909963" lon="35.7555214">
<ele>1432.800049</ele>
<time>2016-04-25T08:25:04.000Z</time>
</trkpt>
<trkpt lat="33.2909821" lon="35.7556327">
<ele>1434.399902</ele>
<time>2016-04-25T08:25:18.000Z</time>
</trkpt>
<trkpt lat="33.2909431" lon="35.7557364">
<ele>1436.599976</ele>
<time>2016-04-25T08:25:33.000Z</time>
</trkpt>
<trkpt lat="33.2909522" lon="35.7558601">
<ele>1438.000000</ele>
<time>2016-04-25T08:25:48.000Z</time>
</trkpt>
<trkpt lat="33.2909496" lon="35.7559664">
<ele>1439.800049</ele>
<time>2016-04-25T08:26:06.000Z</time>
</trkpt>
<trkpt lat="33.2909707" lon="35.7560714">
<ele>1440.599976</ele>
<time>2016-04-25T08:26:23.000Z</time>
</trkpt>
<trkpt lat="33.2910017" lon="35.7561805">
<ele>1442.199951</ele>
<time>2016-04-25T08:26:37.000Z</time>
</trkpt>
<trkpt lat="33.2910258" lon="35.7562850">
<ele>1443.800049</ele>
<time>2016-04-25T08:26:50.000Z</time>
</trkpt>
<trkpt lat="33.2910659" lon="35.7563997">
<ele>1445.400024</ele>
<time>2016-04-25T08:27:04.000Z</time>
</trkpt>
<trkpt lat="33.2910914" lon="35.7564869">
<ele>1446.800049</ele>
<time>2016-04-25T08:27:18.000Z</time>
</trkpt>
<trkpt lat="33.2911610" lon="35.7565767">
<ele>1448.400024</ele>
<time>2016-04-25T08:27:32.000Z</time>
</trkpt>
<trkpt lat="33.2912005" lon="35.7566886">
<ele>1449.800049</ele>
<time>2016-04-25T08:27:47.000Z</time>
</trkpt>
<trkpt lat="33.2912434" lon="35.7567835">
<ele>1451.199951</ele>
<time>2016-04-25T08:28:02.000Z</time>
</trkpt>
<trkpt lat="33.2912577" lon="35.7568846">
<ele>1452.599976</ele>
<time>2016-04-25T08:28:19.000Z</time>
</trkpt>
<trkpt lat="33.2912659" lon="35.7569937">
<ele>1453.800049</ele>
<time>2016-04-25T08:28:36.000Z</time>
</trkpt>
<trkpt lat="33.2912680" lon="35.7571092">
<ele>1455.199829</ele>
<time>2016-04-25T08:28:54.000Z</time>
</trkpt>
<trkpt lat="33.2912655" lon="35.7572215">
<ele>1456.400024</ele>
<time>2016-04-25T08:29:09.000Z</time>
</trkpt>
<trkpt lat="33.2912776" lon="35.7573283">
<ele>1456.800049</ele>
<time>2016-04-25T08:29:28.000Z</time>
</trkpt>
<trkpt lat="33.2912584" lon="35.7574422">
<ele>1457.000000</ele>
<time>2016-04-25T08:29:45.000Z</time>
</trkpt>
<trkpt lat="33.2912631" lon="35.7575500">
<ele>1457.199951</ele>
<time>2016-04-25T08:30:06.000Z</time>
</trkpt>
<trkpt lat="33.2912767" lon="35.7576654">
<ele>1457.400024</ele>
<time>2016-04-25T08:30:27.000Z</time>
</trkpt>
<trkpt lat="33.2912708" lon="35.7577762">
<ele>1457.599976</ele>
<time>2016-04-25T08:30:44.000Z</time>
</trkpt>
<trkpt lat="33.2912513" lon="35.7578767">
<ele>1457.599976</ele>
<time>2016-04-25T08:30:58.000Z</time>
</trkpt>
<trkpt lat="33.2911707" lon="35.7579282">
<ele>1457.000000</ele>
<time>2016-04-25T08:31:12.000Z</time>
</trkpt>
<trkpt lat="33.2911014" lon="35.7580034">
<ele>1456.800049</ele>
<time>2016-04-25T08:31:28.000Z</time>
</trkpt>
<trkpt lat="33.2910098" lon="35.7580516">
<ele>1456.199951</ele>
<time>2016-04-25T08:31:42.000Z</time>
</trkpt>
<trkpt lat="33.2909191" lon="35.7580767">
<ele>1456.800049</ele>
<time>2016-04-25T08:31:55.000Z</time>
</trkpt>
<trkpt lat="33.2908267" lon="35.7580735">
<ele>1457.999878</ele>
<time>2016-04-25T08:32:07.000Z</time>
</trkpt>
<trkpt lat="33.2907399" lon="35.7580946">
<ele>1459.199951</ele>
<time>2016-04-25T08:32:19.000Z</time>
</trkpt>
<trkpt lat="33.2906495" lon="35.7580780">
<ele>1460.000000</ele>
<time>2016-04-25T08:32:38.000Z</time>
</trkpt>
<trkpt lat="33.2905526" lon="35.7580692">
<ele>1461.199829</ele>
<time>2016-04-25T08:33:06.000Z</time>
</trkpt>
<trkpt lat="33.2905099" lon="35.7581639">
<ele>1462.400024</ele>
<time>2016-04-25T08:33:30.000Z</time>
</trkpt>
<trkpt lat="33.2905306" lon="35.7582743">
<ele>1463.199951</ele>
<time>2016-04-25T08:33:57.000Z</time>
</trkpt>
<trkpt lat="33.2905647" lon="35.7583742">
<ele>1463.600098</ele>
<time>2016-04-25T08:35:06.000Z</time>
</trkpt>
<trkpt lat="33.2905733" lon="35.7583365">
<ele>1463.199951</ele>
<time>2016-04-25T08:41:52.000Z</time>
</trkpt>
<trkpt lat="33.2905275" lon="35.7584278">
<ele>1464.400024</ele>
<time>2016-04-25T08:42:38.000Z</time>
</trkpt>
<trkpt lat="33.2905819" lon="35.7585431">
<ele>1464.199951</ele>
<time>2016-04-25T08:42:46.000Z</time>
</trkpt>
<trkpt lat="33.2906281" lon="35.7586520">
<ele>1464.000000</ele>
<time>2016-04-25T08:42:51.000Z</time>
</trkpt>
<trkpt lat="33.2906598" lon="35.7587527">
<ele>1463.600098</ele>
<time>2016-04-25T08:42:55.000Z</time>
</trkpt>
<trkpt lat="33.2907148" lon="35.7588557">
<ele>1463.400024</ele>
<time>2016-04-25T08:43:01.000Z</time>
</trkpt>
<trkpt lat="33.2907554" lon="35.7589568">
<ele>1463.600098</ele>
<time>2016-04-25T08:43:07.000Z</time>
</trkpt>
<trkpt lat="33.2907737" lon="35.7590646">
<ele>1464.199951</ele>
<time>2016-04-25T08:43:13.000Z</time>
</trkpt>
<trkpt lat="33.2908104" lon="35.7591566">
<ele>1464.599976</ele>
<time>2016-04-25T08:43:19.000Z</time>
</trkpt>
<trkpt lat="33.2908523" lon="35.7592646">
<ele>1465.000122</ele>
<time>2016-04-25T08:43:25.000Z</time>
</trkpt>
<trkpt lat="33.2908951" lon="35.7593602">
<ele>1465.400024</ele>
<time>2016-04-25T08:43:31.000Z</time>
</trkpt>
<trkpt lat="33.2909315" lon="35.7594750">
<ele>1466.000000</ele>
<time>2016-04-25T08:43:38.000Z</time>
</trkpt>
<trkpt lat="33.2909989" lon="35.7595704">
<ele>1466.400146</ele>
<time>2016-04-25T08:43:46.000Z</time>
</trkpt>
<trkpt lat="33.2910459" lon="35.7596682">
<ele>1467.000000</ele>
<time>2016-04-25T08:43:54.000Z</time>
</trkpt>
<trkpt lat="33.2910852" lon="35.7597810">
<ele>1467.800171</ele>
<time>2016-04-25T08:44:02.000Z</time>
</trkpt>
<trkpt lat="33.2911191" lon="35.7598948">
<ele>1468.599976</ele>
<time>2016-04-25T08:44:10.000Z</time>
</trkpt>
<trkpt lat="33.2911865" lon="35.7599894">
<ele>1469.600098</ele>
<time>2016-04-25T08:44:17.000Z</time>
</trkpt>
<trkpt lat="33.2912641" lon="35.7600657">
<ele>1470.199951</ele>
<time>2016-04-25T08:44:23.000Z</time>
</trkpt>
<trkpt lat="33.2913451" lon="35.7600987">
<ele>1470.800049</ele>
<time>2016-04-25T08:44:29.000Z</time>
</trkpt>
<trkpt lat="33.2914477" lon="35.7600826">
<ele>1470.800049</ele>
<time>2016-04-25T08:44:35.000Z</time>
</trkpt>
<trkpt lat="33.2915503" lon="35.7600719">
<ele>1471.000122</ele>
<time>2016-04-25T08:44:41.000Z</time>
</trkpt>
<trkpt lat="33.2916451" lon="35.7600568">
<ele>1471.199951</ele>
<time>2016-04-25T08:44:46.000Z</time>
</trkpt>
<trkpt lat="33.2917503" lon="35.7600239">
<ele>1471.199951</ele>
<time>2016-04-25T08:44:51.000Z</time>
</trkpt>
<trkpt lat="33.2918501" lon="35.7599386">
<ele>1471.000122</ele>
<time>2016-04-25T08:44:56.000Z</time>
</trkpt>
<trkpt lat="33.2919179" lon="35.7598521">
<ele>1471.000122</ele>
<time>2016-04-25T08:44:59.000Z</time>
</trkpt>
<trkpt lat="33.2919555" lon="35.7597350">
<ele>1472.000000</ele>
<time>2016-04-25T08:45:02.000Z</time>
</trkpt>
<trkpt lat="33.2919700" lon="35.7596081">
<ele>1471.599976</ele>
<time>2016-04-25T08:45:05.000Z</time>
</trkpt>
<trkpt lat="33.2919762" lon="35.7594834">
<ele>1471.000122</ele>
<time>2016-04-25T08:45:08.000Z</time>
</trkpt>
<trkpt lat="33.2919841" lon="35.7593664">
<ele>1470.599976</ele>
<time>2016-04-25T08:45:11.000Z</time>
</trkpt>
<trkpt lat="33.2919882" lon="35.7592522">
<ele>1469.800049</ele>
<time>2016-04-25T08:45:14.000Z</time>
</trkpt>
<trkpt lat="33.2919900" lon="35.7591350">
<ele>1469.199951</ele>
<time>2016-04-25T08:45:17.000Z</time>
</trkpt>
<trkpt lat="33.2919926" lon="35.7590124">
<ele>1469.400024</ele>
<time>2016-04-25T08:45:20.000Z</time>
</trkpt>
<trkpt lat="33.2919869" lon="35.7588906">
<ele>1470.199951</ele>
<time>2016-04-25T08:45:23.000Z</time>
</trkpt>
<trkpt lat="33.2919820" lon="35.7587751">
<ele>1469.800049</ele>
<time>2016-04-25T08:45:26.000Z</time>
</trkpt>
<trkpt lat="33.2919710" lon="35.7586410">
<ele>1469.000000</ele>
<time>2016-04-25T08:45:30.000Z</time>
</trkpt>
<trkpt lat="33.2919546" lon="35.7585194">
<ele>1468.000000</ele>
<time>2016-04-25T08:45:35.000Z</time>
</trkpt>
<trkpt lat="33.2919323" lon="35.7584101">
<ele>1466.800049</ele>
<time>2016-04-25T08:45:41.000Z</time>
</trkpt>
<trkpt lat="33.2919260" lon="35.7582885">
<ele>1466.199951</ele>
<time>2016-04-25T08:45:46.000Z</time>
</trkpt>
<trkpt lat="33.2919044" lon="35.7581727">
<ele>1465.000122</ele>
<time>2016-04-25T08:45:51.000Z</time>
</trkpt>
<trkpt lat="33.2918997" lon="35.7580463">
<ele>1464.800049</ele>
<time>2016-04-25T08:45:57.000Z</time>
</trkpt>
<trkpt lat="33.2918930" lon="35.7579328">
<ele>1464.199951</ele>
<time>2016-04-25T08:46:02.000Z</time>
</trkpt>
<trkpt lat="33.2918916" lon="35.7578225">
<ele>1464.000000</ele>
<time>2016-04-25T08:46:08.000Z</time>
</trkpt>
<trkpt lat="33.2919188" lon="35.7577199">
<ele>1464.599976</ele>
<time>2016-04-25T08:46:14.000Z</time>
</trkpt>
<trkpt lat="33.2919820" lon="35.7576275">
<ele>1466.800049</ele>
<time>2016-04-25T08:46:20.000Z</time>
</trkpt>
<trkpt lat="33.2920618" lon="35.7575428">
<ele>1469.600098</ele>
<time>2016-04-25T08:46:26.000Z</time>
</trkpt>
<trkpt lat="33.2921582" lon="35.7575014">
<ele>1472.000000</ele>
<time>2016-04-25T08:46:33.000Z</time>
</trkpt>
<trkpt lat="33.2922606" lon="35.7574886">
<ele>1473.799927</ele>
<time>2016-04-25T08:46:40.000Z</time>
</trkpt>
<trkpt lat="33.2923464" lon="35.7574782">
<ele>1475.400024</ele>
<time>2016-04-25T08:46:47.000Z</time>
</trkpt>
<trkpt lat="33.2924467" lon="35.7574672">
<ele>1477.199951</ele>
<time>2016-04-25T08:46:55.000Z</time>
</trkpt>
<trkpt lat="33.2925359" lon="35.7574698">
<ele>1479.000000</ele>
<time>2016-04-25T08:47:03.000Z</time>
</trkpt>
<trkpt lat="33.2926360" lon="35.7574654">
<ele>1481.000000</ele>
<time>2016-04-25T08:47:12.000Z</time>
</trkpt>
<trkpt lat="33.2927328" lon="35.7574716">
<ele>1481.199951</ele>
<time>2016-04-25T08:47:20.000Z</time>
</trkpt>
<trkpt lat="33.2928149" lon="35.7575181">
<ele>1482.199951</ele>
<time>2016-04-25T08:47:26.000Z</time>
</trkpt>
<trkpt lat="33.2929143" lon="35.7575661">
<ele>1483.199951</ele>
<time>2016-04-25T08:47:33.000Z</time>
</trkpt>
<trkpt lat="33.2930006" lon="35.7576191">
<ele>1484.399902</ele>
<time>2016-04-25T08:47:39.000Z</time>
</trkpt>
<trkpt lat="33.2930750" lon="35.7576875">
<ele>1485.799927</ele>
<time>2016-04-25T08:47:45.000Z</time>
</trkpt>
<trkpt lat="33.2931533" lon="35.7577545">
<ele>1487.000000</ele>
<time>2016-04-25T08:47:51.000Z</time>
</trkpt>
<trkpt lat="33.2932349" lon="35.7578274">
<ele>1488.600098</ele>
<time>2016-04-25T08:47:56.000Z</time>
</trkpt>
<trkpt lat="33.2933057" lon="35.7579064">
<ele>1490.199951</ele>
<time>2016-04-25T08:48:01.000Z</time>
</trkpt>
<trkpt lat="33.2933807" lon="35.7579831">
<ele>1491.800049</ele>
<time>2016-04-25T08:48:07.000Z</time>
</trkpt>
<trkpt lat="33.2934431" lon="35.7580781">
<ele>1493.599976</ele>
<time>2016-04-25T08:48:13.000Z</time>
</trkpt>
<trkpt lat="33.2934969" lon="35.7581837">
<ele>1494.400024</ele>
<time>2016-04-25T08:48:19.000Z</time>
</trkpt>
<trkpt lat="33.2935444" lon="35.7582840">
<ele>1494.800049</ele>
<time>2016-04-25T08:48:25.000Z</time>
</trkpt>
<trkpt lat="33.2935832" lon="35.7583904">
<ele>1495.599976</ele>
<time>2016-04-25T08:48:31.000Z</time>
</trkpt>
<trkpt lat="33.2935983" lon="35.7584969">
<ele>1497.000000</ele>
<time>2016-04-25T08:48:37.000Z</time>
</trkpt>
<trkpt lat="33.2936216" lon="35.7586155">
<ele>1498.400024</ele>
<time>2016-04-25T08:48:43.000Z</time>
</trkpt>
<trkpt lat="33.2936529" lon="35.7587282">
<ele>1499.400024</ele>
<time>2016-04-25T08:48:49.000Z</time>
</trkpt>
<trkpt lat="33.2936785" lon="35.7588391">
<ele>1500.400024</ele>
<time>2016-04-25T08:48:55.000Z</time>
</trkpt>
<trkpt lat="33.2937104" lon="35.7589311">
<ele>1501.599976</ele>
<time>2016-04-25T08:49:01.000Z</time>
</trkpt>
<trkpt lat="33.2937621" lon="35.7590468">
<ele>1502.800049</ele>
<time>2016-04-25T08:49:08.000Z</time>
</trkpt>
<trkpt lat="33.2938013" lon="35.7591611">
<ele>1504.599976</ele>
<time>2016-04-25T08:49:15.000Z</time>
</trkpt>
<trkpt lat="33.2938329" lon="35.7592712">
<ele>1505.599976</ele>
<time>2016-04-25T08:49:22.000Z</time>
</trkpt>
<trkpt lat="33.2938800" lon="35.7593859">
<ele>1505.599976</ele>
<time>2016-04-25T08:49:29.000Z</time>
</trkpt>
<trkpt lat="33.2939294" lon="35.7594835">
<ele>1505.400024</ele>
<time>2016-04-25T08:49:36.000Z</time>
</trkpt>
<trkpt lat="33.2939866" lon="35.7595816">
<ele>1505.199829</ele>
<time>2016-04-25T08:49:43.000Z</time>
</trkpt>
<trkpt lat="33.2940382" lon="35.7596851">
<ele>1505.000000</ele>
<time>2016-04-25T08:49:50.000Z</time>
</trkpt>
<trkpt lat="33.2940806" lon="35.7597921">
<ele>1505.199829</ele>
<time>2016-04-25T08:49:57.000Z</time>
</trkpt>
<trkpt lat="33.2941347" lon="35.7598955">
<ele>1505.400024</ele>
<time>2016-04-25T08:50:04.000Z</time>
</trkpt>
<trkpt lat="33.2941867" lon="35.7600149">
<ele>1505.800049</ele>
<time>2016-04-25T08:50:11.000Z</time>
</trkpt>
<trkpt lat="33.2942404" lon="35.7601211">
<ele>1506.199951</ele>
<time>2016-04-25T08:50:17.000Z</time>
</trkpt>
<trkpt lat="33.2942986" lon="35.7602221">
<ele>1506.400024</ele>
<time>2016-04-25T08:50:23.000Z</time>
</trkpt>
<trkpt lat="33.2943575" lon="35.7603184">
<ele>1507.000000</ele>
<time>2016-04-25T08:50:29.000Z</time>
</trkpt>
<trkpt lat="33.2944262" lon="35.7604204">
<ele>1507.800049</ele>
<time>2016-04-25T08:50:36.000Z</time>
</trkpt>
<trkpt lat="33.2944723" lon="35.7605039">
<ele>1508.199951</ele>
<time>2016-04-25T08:50:42.000Z</time>
</trkpt>
<trkpt lat="33.2945422" lon="35.7605861">
<ele>1509.000000</ele>
<time>2016-04-25T08:50:49.000Z</time>
</trkpt>
<trkpt lat="33.2946043" lon="35.7606750">
<ele>1510.000000</ele>
<time>2016-04-25T08:50:57.000Z</time>
</trkpt>
<trkpt lat="33.2946688" lon="35.7607642">
<ele>1511.000000</ele>
<time>2016-04-25T08:51:05.000Z</time>
</trkpt>
<trkpt lat="33.2947347" lon="35.7608544">
<ele>1512.000000</ele>
<time>2016-04-25T08:51:13.000Z</time>
</trkpt>
<trkpt lat="33.2947844" lon="35.7609438">
<ele>1513.000000</ele>
<time>2016-04-25T08:51:20.000Z</time>
</trkpt>
<trkpt lat="33.2948513" lon="35.7610213">
<ele>1514.000000</ele>
<time>2016-04-25T08:51:27.000Z</time>
</trkpt>
<trkpt lat="33.2949282" lon="35.7611014">
<ele>1514.800049</ele>
<time>2016-04-25T08:51:34.000Z</time>
</trkpt>
<trkpt lat="33.2949819" lon="35.7611895">
<ele>1515.800049</ele>
<time>2016-04-25T08:51:41.000Z</time>
</trkpt>
<trkpt lat="33.2950305" lon="35.7612839">
<ele>1516.800049</ele>
<time>2016-04-25T08:51:48.000Z</time>
</trkpt>
<trkpt lat="33.2950865" lon="35.7613696">
<ele>1517.800171</ele>
<time>2016-04-25T08:51:55.000Z</time>
</trkpt>
<trkpt lat="33.2951542" lon="35.7614566">
<ele>1518.800049</ele>
<time>2016-04-25T08:52:02.000Z</time>
</trkpt>
<trkpt lat="33.2951940" lon="35.7615485">
<ele>1519.800049</ele>
<time>2016-04-25T08:52:09.000Z</time>
</trkpt>
<trkpt lat="33.2952406" lon="35.7616449">
<ele>1520.800049</ele>
<time>2016-04-25T08:52:17.000Z</time>
</trkpt>
<trkpt lat="33.2952719" lon="35.7617547">
<ele>1522.000000</ele>
<time>2016-04-25T08:52:25.000Z</time>
</trkpt>
<trkpt lat="33.2953305" lon="35.7618489">
<ele>1522.800049</ele>
<time>2016-04-25T08:52:33.000Z</time>
</trkpt>
<trkpt lat="33.2953904" lon="35.7619414">
<ele>1523.799927</ele>
<time>2016-04-25T08:52:41.000Z</time>
</trkpt>
<trkpt lat="33.2954410" lon="35.7620330">
<ele>1524.800049</ele>
<time>2016-04-25T08:52:49.000Z</time>
</trkpt>
<trkpt lat="33.2955130" lon="35.7621126">
<ele>1525.400024</ele>
<time>2016-04-25T08:52:57.000Z</time>
</trkpt>
<trkpt lat="33.2955810" lon="35.7621907">
<ele>1526.199951</ele>
<time>2016-04-25T08:53:05.000Z</time>
</trkpt>
<trkpt lat="33.2956540" lon="35.7622790">
<ele>1528.000000</ele>
<time>2016-04-25T08:53:13.000Z</time>
</trkpt>
<trkpt lat="33.2957425" lon="35.7623552">
<ele>1529.599976</ele>
<time>2016-04-25T08:53:20.000Z</time>
</trkpt>
<trkpt lat="33.2958144" lon="35.7624356">
<ele>1531.400024</ele>
<time>2016-04-25T08:53:27.000Z</time>
</trkpt>
<trkpt lat="33.2958823" lon="35.7625164">
<ele>1532.999878</ele>
<time>2016-04-25T08:53:33.000Z</time>
</trkpt>
<trkpt lat="33.2959611" lon="35.7625803">
<ele>1534.399902</ele>
<time>2016-04-25T08:53:39.000Z</time>
</trkpt>
<trkpt lat="33.2960385" lon="35.7626518">
<ele>1535.799927</ele>
<time>2016-04-25T08:53:46.000Z</time>
</trkpt>
<trkpt lat="33.2961225" lon="35.7627187">
<ele>1537.200073</ele>
<time>2016-04-25T08:53:53.000Z</time>
</trkpt>
<trkpt lat="33.2962095" lon="35.7627939">
<ele>1538.800049</ele>
<time>2016-04-25T08:54:00.000Z</time>
</trkpt>
<trkpt lat="33.2962923" lon="35.7628540">
<ele>1539.800049</ele>
<time>2016-04-25T08:54:07.000Z</time>
</trkpt>
<trkpt lat="33.2963842" lon="35.7629156">
<ele>1541.000000</ele>
<time>2016-04-25T08:54:15.000Z</time>
</trkpt>
<trkpt lat="33.2964733" lon="35.7629649">
<ele>1542.000000</ele>
<time>2016-04-25T08:54:23.000Z</time>
</trkpt>
<trkpt lat="33.2965662" lon="35.7630067">
<ele>1542.800171</ele>
<time>2016-04-25T08:54:32.000Z</time>
</trkpt>
<trkpt lat="33.2966572" lon="35.7630415">
<ele>1543.200073</ele>
<time>2016-04-25T08:54:40.000Z</time>
</trkpt>
<trkpt lat="33.2967574" lon="35.7630926">
<ele>1545.000000</ele>
<time>2016-04-25T08:54:48.000Z</time>
</trkpt>
<trkpt lat="33.2968566" lon="35.7631255">
<ele>1546.400024</ele>
<time>2016-04-25T08:54:56.000Z</time>
</trkpt>
<trkpt lat="33.2969459" lon="35.7631596">
<ele>1548.199951</ele>
<time>2016-04-25T08:55:03.000Z</time>
</trkpt>
<trkpt lat="33.2970411" lon="35.7631908">
<ele>1549.599976</ele>
<time>2016-04-25T08:55:10.000Z</time>
</trkpt>
<trkpt lat="33.2971247" lon="35.7632146">
<ele>1551.000000</ele>
<time>2016-04-25T08:55:17.000Z</time>
</trkpt>
<trkpt lat="33.2972198" lon="35.7632222">
<ele>1551.599976</ele>
<time>2016-04-25T08:55:25.000Z</time>
</trkpt>
<trkpt lat="33.2973181" lon="35.7632134">
<ele>1551.599976</ele>
<time>2016-04-25T08:55:33.000Z</time>
</trkpt>
<trkpt lat="33.2974076" lon="35.7632129">
<ele>1551.800049</ele>
<time>2016-04-25T08:55:41.000Z</time>
</trkpt>
<trkpt lat="33.2975030" lon="35.7631943">
<ele>1551.400024</ele>
<time>2016-04-25T08:55:50.000Z</time>
</trkpt>
<trkpt lat="33.2976030" lon="35.7631750">
<ele>1551.000000</ele>
<time>2016-04-25T08:55:59.000Z</time>
</trkpt>
<trkpt lat="33.2976971" lon="35.7631725">
<ele>1552.400024</ele>
<time>2016-04-25T08:56:07.000Z</time>
</trkpt>
<trkpt lat="33.2977910" lon="35.7631572">
<ele>1553.599976</ele>
<time>2016-04-25T08:56:15.000Z</time>
</trkpt>
<trkpt lat="33.2978788" lon="35.7631286">
<ele>1553.800049</ele>
<time>2016-04-25T08:56:23.000Z</time>
</trkpt>
<trkpt lat="33.2979748" lon="35.7630974">
<ele>1554.000000</ele>
<time>2016-04-25T08:56:32.000Z</time>
</trkpt>
<trkpt lat="33.2980769" lon="35.7630671">
<ele>1554.400024</ele>
<time>2016-04-25T08:56:41.000Z</time>
</trkpt>
<trkpt lat="33.2981676" lon="35.7630384">
<ele>1554.799927</ele>
<time>2016-04-25T08:56:50.000Z</time>
</trkpt>
<trkpt lat="33.2982709" lon="35.7630016">
<ele>1555.199829</ele>
<time>2016-04-25T08:56:59.000Z</time>
</trkpt>
<trkpt lat="33.2983623" lon="35.7629746">
<ele>1555.800049</ele>
<time>2016-04-25T08:57:07.000Z</time>
</trkpt>
<trkpt lat="33.2984600" lon="35.7629525">
<ele>1556.800049</ele>
<time>2016-04-25T08:57:15.000Z</time>
</trkpt>
<trkpt lat="33.2985503" lon="35.7629389">
<ele>1557.000000</ele>
<time>2016-04-25T08:57:23.000Z</time>
</trkpt>
<trkpt lat="33.2986529" lon="35.7629410">
<ele>1557.599976</ele>
<time>2016-04-25T08:57:32.000Z</time>
</trkpt>
<trkpt lat="33.2987296" lon="35.7629450">
<ele>1558.199951</ele>
<time>2016-04-25T08:57:41.000Z</time>
</trkpt>
<trkpt lat="33.2988260" lon="35.7629588">
<ele>1559.199951</ele>
<time>2016-04-25T08:57:50.000Z</time>
</trkpt>
<trkpt lat="33.2989269" lon="35.7629769">
<ele>1560.599976</ele>
<time>2016-04-25T08:57:59.000Z</time>
</trkpt>
<trkpt lat="33.2990100" lon="35.7630130">
<ele>1562.200073</ele>
<time>2016-04-25T08:58:08.000Z</time>
</trkpt>
<trkpt lat="33.2990995" lon="35.7630581">
<ele>1564.400024</ele>
<time>2016-04-25T08:58:16.000Z</time>
</trkpt>
<trkpt lat="33.2991850" lon="35.7631138">
<ele>1567.000000</ele>
<time>2016-04-25T08:58:24.000Z</time>
</trkpt>
<trkpt lat="33.2992663" lon="35.7631921">
<ele>1570.400024</ele>
<time>2016-04-25T08:58:32.000Z</time>
</trkpt>
<trkpt lat="33.2993334" lon="35.7632762">
<ele>1572.400146</ele>
<time>2016-04-25T08:58:40.000Z</time>
</trkpt>
<trkpt lat="33.2994025" lon="35.7633539">
<ele>1572.400146</ele>
<time>2016-04-25T08:58:49.000Z</time>
</trkpt>
<trkpt lat="33.2994708" lon="35.7634335">
<ele>1572.400146</ele>
<time>2016-04-25T08:58:57.000Z</time>
</trkpt>
<trkpt lat="33.2995372" lon="35.7635194">
<ele>1572.800049</ele>
<time>2016-04-25T08:59:05.000Z</time>
</trkpt>
<trkpt lat="33.2995875" lon="35.7636219">
<ele>1574.400024</ele>
<time>2016-04-25T08:59:13.000Z</time>
</trkpt>
<trkpt lat="33.2996320" lon="35.7637216">
<ele>1576.199951</ele>
<time>2016-04-25T08:59:21.000Z</time>
</trkpt>
<trkpt lat="33.2996860" lon="35.7638159">
<ele>1577.400024</ele>
<time>2016-04-25T08:59:29.000Z</time>
</trkpt>
<trkpt lat="33.2997394" lon="35.7639123">
<ele>1578.399902</ele>
<time>2016-04-25T08:59:38.000Z</time>
</trkpt>
<trkpt lat="33.2997824" lon="35.7640187">
<ele>1579.400024</ele>
<time>2016-04-25T08:59:47.000Z</time>
</trkpt>
<trkpt lat="33.2998221" lon="35.7641229">
<ele>1580.599976</ele>
<time>2016-04-25T08:59:56.000Z</time>
</trkpt>
<trkpt lat="33.2998650" lon="35.7642346">
<ele>1581.800049</ele>
<time>2016-04-25T09:00:05.000Z</time>
</trkpt>
<trkpt lat="33.2999076" lon="35.7643360">
<ele>1582.599976</ele>
<time>2016-04-25T09:00:13.000Z</time>
</trkpt>
<trkpt lat="33.2999345" lon="35.7644447">
<ele>1584.399902</ele>
<time>2016-04-25T09:00:20.000Z</time>
</trkpt>
<trkpt lat="33.2999740" lon="35.7645489">
<ele>1585.599976</ele>
<time>2016-04-25T09:00:27.000Z</time>
</trkpt>
<trkpt lat="33.3000135" lon="35.7646565">
<ele>1587.800049</ele>
<time>2016-04-25T09:00:35.000Z</time>
</trkpt>
<trkpt lat="33.3000380" lon="35.7647648">
<ele>1589.599976</ele>
<time>2016-04-25T09:00:42.000Z</time>
</trkpt>
<trkpt lat="33.3000720" lon="35.7648649">
<ele>1589.199951</ele>
<time>2016-04-25T09:00:49.000Z</time>
</trkpt>
<trkpt lat="33.3001122" lon="35.7649731">
<ele>1588.600098</ele>
<time>2016-04-25T09:00:56.000Z</time>
</trkpt>
<trkpt lat="33.3001389" lon="35.7650809">
<ele>1589.000000</ele>
<time>2016-04-25T09:01:03.000Z</time>
</trkpt>
<trkpt lat="33.3001826" lon="35.7651814">
<ele>1589.000000</ele>
<time>2016-04-25T09:01:10.000Z</time>
</trkpt>
<trkpt lat="33.3002108" lon="35.7652899">
<ele>1589.599976</ele>
<time>2016-04-25T09:01:17.000Z</time>
</trkpt>
<trkpt lat="33.3002500" lon="35.7653919">
<ele>1589.800049</ele>
<time>2016-04-25T09:01:24.000Z</time>
</trkpt>
<trkpt lat="33.3002856" lon="35.7654977">
<ele>1590.199951</ele>
<time>2016-04-25T09:01:31.000Z</time>
</trkpt>
<trkpt lat="33.3002935" lon="35.7655959">
<ele>1591.599976</ele>
<time>2016-04-25T09:01:39.000Z</time>
</trkpt>
<trkpt lat="33.3003189" lon="35.7657078">
<ele>1592.599976</ele>
<time>2016-04-25T09:01:46.000Z</time>
</trkpt>
<trkpt lat="33.3003630" lon="35.7658102">
<ele>1592.400024</ele>
<time>2016-04-25T09:01:54.000Z</time>
</trkpt>
<trkpt lat="33.3003841" lon="35.7659215">
<ele>1592.800171</ele>
<time>2016-04-25T09:02:02.000Z</time>
</trkpt>
<trkpt lat="33.3004023" lon="35.7660374">
<ele>1593.400024</ele>
<time>2016-04-25T09:02:09.000Z</time>
</trkpt>
<trkpt lat="33.3004234" lon="35.7661568">
<ele>1593.800049</ele>
<time>2016-04-25T09:02:16.000Z</time>
</trkpt>
<trkpt lat="33.3004224" lon="35.7662741">
<ele>1595.000000</ele>
<time>2016-04-25T09:02:23.000Z</time>
</trkpt>
<trkpt lat="33.3004509" lon="35.7663992">
<ele>1596.000122</ele>
<time>2016-04-25T09:02:30.000Z</time>
</trkpt>
<trkpt lat="33.3004661" lon="35.7665131">
<ele>1599.800049</ele>
<time>2016-04-25T09:02:36.000Z</time>
</trkpt>
<trkpt lat="33.3004884" lon="35.7666324">
<ele>1603.599976</ele>
<time>2016-04-25T09:02:43.000Z</time>
</trkpt>
<trkpt lat="33.3005061" lon="35.7667425">
<ele>1607.400024</ele>
<time>2016-04-25T09:02:51.000Z</time>
</trkpt>
<trkpt lat="33.3005560" lon="35.7668476">
<ele>1609.199951</ele>
<time>2016-04-25T09:03:00.000Z</time>
</trkpt>
<trkpt lat="33.3006291" lon="35.7669203">
<ele>1609.599976</ele>
<time>2016-04-25T09:03:08.000Z</time>
</trkpt>
<trkpt lat="33.3007305" lon="35.7669638">
<ele>1608.800049</ele>
<time>2016-04-25T09:03:16.000Z</time>
</trkpt>
<trkpt lat="33.3008348" lon="35.7669837">
<ele>1606.400024</ele>
<time>2016-04-25T09:03:24.000Z</time>
</trkpt>
<trkpt lat="33.3009218" lon="35.7670066">
<ele>1604.599976</ele>
<time>2016-04-25T09:03:32.000Z</time>
</trkpt>
<trkpt lat="33.3010278" lon="35.7670291">
<ele>1604.599976</ele>
<time>2016-04-25T09:03:42.000Z</time>
</trkpt>
<trkpt lat="33.3011211" lon="35.7670484">
<ele>1606.400024</ele>
<time>2016-04-25T09:03:51.000Z</time>
</trkpt>
<trkpt lat="33.3012173" lon="35.7670664">
<ele>1608.199951</ele>
<time>2016-04-25T09:04:00.000Z</time>
</trkpt>
<trkpt lat="33.3013135" lon="35.7670773">
<ele>1609.599976</ele>
<time>2016-04-25T09:04:09.000Z</time>
</trkpt>
<trkpt lat="33.3014090" lon="35.7670919">
<ele>1611.199829</ele>
<time>2016-04-25T09:04:18.000Z</time>
</trkpt>
<trkpt lat="33.3015002" lon="35.7671084">
<ele>1612.800049</ele>
<time>2016-04-25T09:04:27.000Z</time>
</trkpt>
<trkpt lat="33.3015988" lon="35.7671009">
<ele>1613.600098</ele>
<time>2016-04-25T09:04:36.000Z</time>
</trkpt>
<trkpt lat="33.3016963" lon="35.7671184">
<ele>1615.400024</ele>
<time>2016-04-25T09:04:45.000Z</time>
</trkpt>
<trkpt lat="33.3017940" lon="35.7671238">
<ele>1616.599976</ele>
<time>2016-04-25T09:04:53.000Z</time>
</trkpt>
<trkpt lat="33.3018872" lon="35.7671295">
<ele>1617.000000</ele>
<time>2016-04-25T09:05:00.000Z</time>
</trkpt>
<trkpt lat="33.3019874" lon="35.7671259">
<ele>1617.000000</ele>
<time>2016-04-25T09:05:07.000Z</time>
</trkpt>
<trkpt lat="33.3020798" lon="35.7671330">
<ele>1617.400024</ele>
<time>2016-04-25T09:05:13.000Z</time>
</trkpt>
<trkpt lat="33.3021846" lon="35.7671462">
<ele>1618.000000</ele>
<time>2016-04-25T09:05:20.000Z</time>
</trkpt>
<trkpt lat="33.3022789" lon="35.7671568">
<ele>1618.599976</ele>
<time>2016-04-25T09:05:26.000Z</time>
</trkpt>
<trkpt lat="33.3023723" lon="35.7671498">
<ele>1618.400024</ele>
<time>2016-04-25T09:05:32.000Z</time>
</trkpt>
<trkpt lat="33.3024730" lon="35.7671609">
<ele>1619.000000</ele>
<time>2016-04-25T09:05:38.000Z</time>
</trkpt>
<trkpt lat="33.3025686" lon="35.7671748">
<ele>1619.600098</ele>
<time>2016-04-25T09:05:44.000Z</time>
</trkpt>
<trkpt lat="33.3026758" lon="35.7671766">
<ele>1619.400024</ele>
<time>2016-04-25T09:05:50.000Z</time>
</trkpt>
<trkpt lat="33.3027779" lon="35.7671814">
<ele>1618.800049</ele>
<time>2016-04-25T09:05:56.000Z</time>
</trkpt>
<trkpt lat="33.3028689" lon="35.7672078">
<ele>1619.199951</ele>
<time>2016-04-25T09:06:02.000Z</time>
</trkpt>
<trkpt lat="33.3029602" lon="35.7672359">
<ele>1619.600098</ele>
<time>2016-04-25T09:06:09.000Z</time>
</trkpt>
<trkpt lat="33.3030462" lon="35.7672682">
<ele>1620.199951</ele>
<time>2016-04-25T09:06:16.000Z</time>
</trkpt>
<trkpt lat="33.3031264" lon="35.7673379">
<ele>1622.400146</ele>
<time>2016-04-25T09:06:22.000Z</time>
</trkpt>
<trkpt lat="33.3032007" lon="35.7674083">
<ele>1624.400024</ele>
<time>2016-04-25T09:06:28.000Z</time>
</trkpt>
<trkpt lat="33.3032812" lon="35.7674818">
<ele>1626.800049</ele>
<time>2016-04-25T09:06:35.000Z</time>
</trkpt>
<trkpt lat="33.3033528" lon="35.7675469">
<ele>1628.800049</ele>
<time>2016-04-25T09:06:43.000Z</time>
</trkpt>
<trkpt lat="33.3034265" lon="35.7676194">
<ele>1631.000000</ele>
<time>2016-04-25T09:06:51.000Z</time>
</trkpt>
<trkpt lat="33.3035129" lon="35.7676896">
<ele>1631.800049</ele>
<time>2016-04-25T09:06:59.000Z</time>
</trkpt>
<trkpt lat="33.3035812" lon="35.7677676">
<ele>1632.199951</ele>
<time>2016-04-25T09:07:07.000Z</time>
</trkpt>
<trkpt lat="33.3036410" lon="35.7678601">
<ele>1633.599976</ele>
<time>2016-04-25T09:07:15.000Z</time>
</trkpt>
<trkpt lat="33.3037137" lon="35.7678669">
<ele>1631.199951</ele>
<time>2016-04-25T09:08:36.000Z</time>
</trkpt>
<trkpt lat="33.3037200" lon="35.7679724">
<ele>1635.199951</ele>
<time>2016-04-25T09:08:47.000Z</time>
</trkpt>
<trkpt lat="33.3037771" lon="35.7680597">
<ele>1636.400024</ele>
<time>2016-04-25T09:08:54.000Z</time>
</trkpt>
<trkpt lat="33.3038331" lon="35.7681526">
<ele>1637.400024</ele>
<time>2016-04-25T09:09:02.000Z</time>
</trkpt>
<trkpt lat="33.3038934" lon="35.7682486">
<ele>1638.600098</ele>
<time>2016-04-25T09:09:10.000Z</time>
</trkpt>
<trkpt lat="33.3039378" lon="35.7683575">
<ele>1640.599976</ele>
<time>2016-04-25T09:09:18.000Z</time>
</trkpt>
<trkpt lat="33.3039737" lon="35.7684628">
<ele>1642.800171</ele>
<time>2016-04-25T09:09:26.000Z</time>
</trkpt>
<trkpt lat="33.3040247" lon="35.7685688">
<ele>1644.600098</ele>
<time>2016-04-25T09:09:34.000Z</time>
</trkpt>
<trkpt lat="33.3040559" lon="35.7686763">
<ele>1647.599976</ele>
<time>2016-04-25T09:09:42.000Z</time>
</trkpt>
<trkpt lat="33.3040996" lon="35.7687875">
<ele>1650.600098</ele>
<time>2016-04-25T09:09:49.000Z</time>
</trkpt>
<trkpt lat="33.3041560" lon="35.7688951">
<ele>1652.599976</ele>
<time>2016-04-25T09:09:56.000Z</time>
</trkpt>
<trkpt lat="33.3042124" lon="35.7689893">
<ele>1653.199951</ele>
<time>2016-04-25T09:10:03.000Z</time>
</trkpt>
<trkpt lat="33.3042728" lon="35.7690819">
<ele>1653.399902</ele>
<time>2016-04-25T09:10:10.000Z</time>
</trkpt>
<trkpt lat="33.3043390" lon="35.7691730">
<ele>1653.399902</ele>
<time>2016-04-25T09:10:18.000Z</time>
</trkpt>
<trkpt lat="33.3044034" lon="35.7692616">
<ele>1653.599976</ele>
<time>2016-04-25T09:10:26.000Z</time>
</trkpt>
<trkpt lat="33.3044579" lon="35.7693546">
<ele>1654.199951</ele>
<time>2016-04-25T09:10:33.000Z</time>
</trkpt>
<trkpt lat="33.3045375" lon="35.7694575">
<ele>1654.000000</ele>
<time>2016-04-25T09:10:39.000Z</time>
</trkpt>
<trkpt lat="33.3046101" lon="35.7695606">
<ele>1654.199951</ele>
<time>2016-04-25T09:10:44.000Z</time>
</trkpt>
<trkpt lat="33.3046888" lon="35.7696631">
<ele>1654.199951</ele>
<time>2016-04-25T09:10:48.000Z</time>
</trkpt>
<trkpt lat="33.3047565" lon="35.7697531">
<ele>1654.000000</ele>
<time>2016-04-25T09:10:51.000Z</time>
</trkpt>
<trkpt lat="33.3048286" lon="35.7698557">
<ele>1653.599976</ele>
<time>2016-04-25T09:10:54.000Z</time>
</trkpt>
<trkpt lat="33.3049095" lon="35.7699652">
<ele>1653.199951</ele>
<time>2016-04-25T09:10:57.000Z</time>
</trkpt>
<trkpt lat="33.3050064" lon="35.7700812">
<ele>1651.999878</ele>
<time>2016-04-25T09:11:00.000Z</time>
</trkpt>
<trkpt lat="33.3050712" lon="35.7701589">
<ele>1651.400024</ele>
<time>2016-04-25T09:11:02.000Z</time>
</trkpt>
<trkpt lat="33.3051307" lon="35.7702396">
<ele>1651.000000</ele>
<time>2016-04-25T09:11:04.000Z</time>
</trkpt>
<trkpt lat="33.3052162" lon="35.7703569">
<ele>1652.199951</ele>
<time>2016-04-25T09:11:07.000Z</time>
</trkpt>
<trkpt lat="33.3052935" lon="35.7704652">
<ele>1653.399902</ele>
<time>2016-04-25T09:11:10.000Z</time>
</trkpt>
<trkpt lat="33.3053534" lon="35.7705454">
<ele>1654.199951</ele>
<time>2016-04-25T09:11:13.000Z</time>
</trkpt>
<trkpt lat="33.3054115" lon="35.7706373">
<ele>1655.599976</ele>
<time>2016-04-25T09:11:17.000Z</time>
</trkpt>
<trkpt lat="33.3054793" lon="35.7707326">
<ele>1656.800049</ele>
<time>2016-04-25T09:11:21.000Z</time>
</trkpt>
<trkpt lat="33.3055524" lon="35.7708203">
<ele>1657.599976</ele>
<time>2016-04-25T09:11:25.000Z</time>
</trkpt>
<trkpt lat="33.3056291" lon="35.7709030">
<ele>1657.999878</ele>
<time>2016-04-25T09:11:29.000Z</time>
</trkpt>
<trkpt lat="33.3057269" lon="35.7709786">
<ele>1657.800049</ele>
<time>2016-04-25T09:11:33.000Z</time>
</trkpt>
<trkpt lat="33.3058242" lon="35.7710597">
<ele>1657.800049</ele>
<time>2016-04-25T09:11:37.000Z</time>
</trkpt>
<trkpt lat="33.3058991" lon="35.7711416">
<ele>1658.400024</ele>
<time>2016-04-25T09:11:41.000Z</time>
</trkpt>
<trkpt lat="33.3059829" lon="35.7712289">
<ele>1659.000000</ele>
<time>2016-04-25T09:11:45.000Z</time>
</trkpt>
<trkpt lat="33.3060695" lon="35.7713027">
<ele>1659.399902</ele>
<time>2016-04-25T09:11:49.000Z</time>
</trkpt>
<trkpt lat="33.3061543" lon="35.7713846">
<ele>1660.000000</ele>
<time>2016-04-25T09:11:53.000Z</time>
</trkpt>
<trkpt lat="33.3062554" lon="35.7714677">
<ele>1660.199951</ele>
<time>2016-04-25T09:11:57.000Z</time>
</trkpt>
<trkpt lat="33.3063460" lon="35.7715260">
<ele>1660.000000</ele>
<time>2016-04-25T09:12:00.000Z</time>
</trkpt>
<trkpt lat="33.3064352" lon="35.7715835">
<ele>1659.800049</ele>
<time>2016-04-25T09:12:03.000Z</time>
</trkpt>
<trkpt lat="33.3065231" lon="35.7716473">
<ele>1659.800049</ele>
<time>2016-04-25T09:12:06.000Z</time>
</trkpt>
<trkpt lat="33.3066120" lon="35.7717084">
<ele>1659.599976</ele>
<time>2016-04-25T09:12:09.000Z</time>
</trkpt>
<trkpt lat="33.3066987" lon="35.7717608">
<ele>1659.199951</ele>
<time>2016-04-25T09:12:12.000Z</time>
</trkpt>
<trkpt lat="33.3067865" lon="35.7718054">
<ele>1658.599976</ele>
<time>2016-04-25T09:12:15.000Z</time>
</trkpt>
<trkpt lat="33.3068693" lon="35.7718521">
<ele>1657.999878</ele>
<time>2016-04-25T09:12:18.000Z</time>
</trkpt>
<trkpt lat="33.3069719" lon="35.7718917">
<ele>1656.800049</ele>
<time>2016-04-25T09:12:22.000Z</time>
</trkpt>
<trkpt lat="33.3070649" lon="35.7719208">
<ele>1655.199829</ele>
<time>2016-04-25T09:12:26.000Z</time>
</trkpt>
<trkpt lat="33.3071495" lon="35.7719486">
<ele>1654.000000</ele>
<time>2016-04-25T09:12:30.000Z</time>
</trkpt>
<trkpt lat="33.3072402" lon="35.7719738">
<ele>1652.400024</ele>
<time>2016-04-25T09:12:34.000Z</time>
</trkpt>
<trkpt lat="33.3073460" lon="35.7720167">
<ele>1651.199951</ele>
<time>2016-04-25T09:12:39.000Z</time>
</trkpt>
<trkpt lat="33.3074288" lon="35.7720673">
<ele>1650.600098</ele>
<time>2016-04-25T09:12:43.000Z</time>
</trkpt>
<trkpt lat="33.3075265" lon="35.7721217">
<ele>1650.000000</ele>
<time>2016-04-25T09:12:48.000Z</time>
</trkpt>
<trkpt lat="33.3076154" lon="35.7721630">
<ele>1649.800049</ele>
<time>2016-04-25T09:12:53.000Z</time>
</trkpt>
<trkpt lat="33.3077076" lon="35.7722071">
<ele>1649.800049</ele>
<time>2016-04-25T09:12:58.000Z</time>
</trkpt>
<trkpt lat="33.3078154" lon="35.7722346">
<ele>1649.599976</ele>
<time>2016-04-25T09:13:03.000Z</time>
</trkpt>
<trkpt lat="33.3079034" lon="35.7722732">
<ele>1649.200073</ele>
<time>2016-04-25T09:13:08.000Z</time>
</trkpt>
<trkpt lat="33.3078888" lon="35.7723600">
<ele>1649.200073</ele>
<time>2016-04-25T09:16:30.000Z</time>
</trkpt>
<trkpt lat="33.3079057" lon="35.7722537">
<ele>1649.200073</ele>
<time>2016-04-25T09:18:37.000Z</time>
</trkpt>
<trkpt lat="33.3079210" lon="35.7723048">
<ele>1649.200073</ele>
<time>2016-04-25T09:31:13.000Z</time>
</trkpt>
<trkpt lat="33.3078873" lon="35.7723053">
<ele>1649.200073</ele>
<time>2016-04-25T09:37:20.000Z</time>
</trkpt>
<trkpt lat="33.3079213" lon="35.7722975">
<ele>1649.200073</ele>
<time>2016-04-25T09:40:15.000Z</time>
</trkpt>
<trkpt lat="33.3078765" lon="35.7722216">
<ele>1649.400024</ele>
<time>2016-04-25T09:47:24.000Z</time>
</trkpt>
<trkpt lat="33.3077427" lon="35.7721982">
<ele>1649.800049</ele>
<time>2016-04-25T09:49:23.000Z</time>
</trkpt>
<trkpt lat="33.3077088" lon="35.7722407">
<ele>1649.800049</ele>
<time>2016-04-25T09:49:30.000Z</time>
</trkpt>
<trkpt lat="33.3077705" lon="35.7721565">
<ele>1649.599976</ele>
<time>2016-04-25T09:50:36.000Z</time>
</trkpt>
<trkpt lat="33.3076696" lon="35.7721360">
<ele>1649.800049</ele>
<time>2016-04-25T09:50:41.000Z</time>
</trkpt>
<trkpt lat="33.3075777" lon="35.7720826">
<ele>1649.400024</ele>
<time>2016-04-25T09:50:45.000Z</time>
</trkpt>
<trkpt lat="33.3074626" lon="35.7720281">
<ele>1649.000000</ele>
<time>2016-04-25T09:50:49.000Z</time>
</trkpt>
<trkpt lat="33.3073614" lon="35.7719732">
<ele>1649.400024</ele>
<time>2016-04-25T09:50:52.000Z</time>
</trkpt>
<trkpt lat="33.3072579" lon="35.7719071">
<ele>1650.000000</ele>
<time>2016-04-25T09:50:55.000Z</time>
</trkpt>
<trkpt lat="33.3071446" lon="35.7718323">
<ele>1650.400024</ele>
<time>2016-04-25T09:50:58.000Z</time>
</trkpt>
<trkpt lat="33.3070592" lon="35.7717753">
<ele>1650.800049</ele>
<time>2016-04-25T09:51:00.000Z</time>
</trkpt>
<trkpt lat="33.3069749" lon="35.7717147">
<ele>1651.199951</ele>
<time>2016-04-25T09:51:02.000Z</time>
</trkpt>
<trkpt lat="33.3068808" lon="35.7716689">
<ele>1651.999878</ele>
<time>2016-04-25T09:51:04.000Z</time>
</trkpt>
<trkpt lat="33.3067883" lon="35.7716269">
<ele>1653.000000</ele>
<time>2016-04-25T09:51:06.000Z</time>
</trkpt>
<trkpt lat="33.3067003" lon="35.7715689">
<ele>1653.199951</ele>
<time>2016-04-25T09:51:08.000Z</time>
</trkpt>
<trkpt lat="33.3066231" lon="35.7715023">
<ele>1653.000000</ele>
<time>2016-04-25T09:51:10.000Z</time>
</trkpt>
<trkpt lat="33.3065470" lon="35.7714350">
<ele>1652.599976</ele>
<time>2016-04-25T09:51:12.000Z</time>
</trkpt>
<trkpt lat="33.3064707" lon="35.7713678">
<ele>1652.199951</ele>
<time>2016-04-25T09:51:14.000Z</time>
</trkpt>
<trkpt lat="33.3063955" lon="35.7713080">
<ele>1651.999878</ele>
<time>2016-04-25T09:51:16.000Z</time>
</trkpt>
<trkpt lat="33.3062838" lon="35.7712215">
<ele>1651.800049</ele>
<time>2016-04-25T09:51:19.000Z</time>
</trkpt>
<trkpt lat="33.3061767" lon="35.7711390">
<ele>1651.800049</ele>
<time>2016-04-25T09:51:22.000Z</time>
</trkpt>
<trkpt lat="33.3060666" lon="35.7710507">
<ele>1651.599976</ele>
<time>2016-04-25T09:51:25.000Z</time>
</trkpt>
<trkpt lat="33.3059867" lon="35.7709844">
<ele>1651.199951</ele>
<time>2016-04-25T09:51:27.000Z</time>
</trkpt>
<trkpt lat="33.3059008" lon="35.7709135">
<ele>1651.199951</ele>
<time>2016-04-25T09:51:29.000Z</time>
</trkpt>
<trkpt lat="33.3058053" lon="35.7708282">
<ele>1651.199951</ele>
<time>2016-04-25T09:51:31.000Z</time>
</trkpt>
<trkpt lat="33.3057001" lon="35.7707277">
<ele>1650.800049</ele>
<time>2016-04-25T09:51:33.000Z</time>
</trkpt>
<trkpt lat="33.3055956" lon="35.7706069">
<ele>1649.800049</ele>
<time>2016-04-25T09:51:35.000Z</time>
</trkpt>
<trkpt lat="33.3054895" lon="35.7704978">
<ele>1649.200073</ele>
<time>2016-04-25T09:51:37.000Z</time>
</trkpt>
<trkpt lat="33.3053786" lon="35.7703917">
<ele>1649.000000</ele>
<time>2016-04-25T09:51:39.000Z</time>
</trkpt>
<trkpt lat="33.3052733" lon="35.7702797">
<ele>1648.400024</ele>
<time>2016-04-25T09:51:41.000Z</time>
</trkpt>
<trkpt lat="33.3051628" lon="35.7701648">
<ele>1647.800049</ele>
<time>2016-04-25T09:51:43.000Z</time>
</trkpt>
<trkpt lat="33.3050463" lon="35.7700512">
<ele>1649.200073</ele>
<time>2016-04-25T09:51:45.000Z</time>
</trkpt>
<trkpt lat="33.3049437" lon="35.7699304">
<ele>1650.400024</ele>
<time>2016-04-25T09:51:47.000Z</time>
</trkpt>
<trkpt lat="33.3048572" lon="35.7698065">
<ele>1650.800049</ele>
<time>2016-04-25T09:51:49.000Z</time>
</trkpt>
<trkpt lat="33.3047756" lon="35.7696937">
<ele>1651.199951</ele>
<time>2016-04-25T09:51:51.000Z</time>
</trkpt>
<trkpt lat="33.3046997" lon="35.7695875">
<ele>1651.000000</ele>
<time>2016-04-25T09:51:53.000Z</time>
</trkpt>
<trkpt lat="33.3046250" lon="35.7694835">
<ele>1650.800049</ele>
<time>2016-04-25T09:51:55.000Z</time>
</trkpt>
<trkpt lat="33.3045490" lon="35.7693749">
<ele>1650.600098</ele>
<time>2016-04-25T09:51:57.000Z</time>
</trkpt>
<trkpt lat="33.3044726" lon="35.7692550">
<ele>1650.000000</ele>
<time>2016-04-25T09:51:59.000Z</time>
</trkpt>
<trkpt lat="33.3043895" lon="35.7691231">
<ele>1649.400024</ele>
<time>2016-04-25T09:52:01.000Z</time>
</trkpt>
<trkpt lat="33.3042930" lon="35.7689711">
<ele>1648.599976</ele>
<time>2016-04-25T09:52:03.000Z</time>
</trkpt>
<trkpt lat="33.3041907" lon="35.7687986">
<ele>1646.599976</ele>
<time>2016-04-25T09:52:05.000Z</time>
</trkpt>
<trkpt lat="33.3041056" lon="35.7686251">
<ele>1643.599976</ele>
<time>2016-04-25T09:52:07.000Z</time>
</trkpt>
<trkpt lat="33.3040366" lon="35.7684556">
<ele>1640.400024</ele>
<time>2016-04-25T09:52:09.000Z</time>
</trkpt>
<trkpt lat="33.3039792" lon="35.7682868">
<ele>1636.599976</ele>
<time>2016-04-25T09:52:11.000Z</time>
</trkpt>
<trkpt lat="33.3039074" lon="35.7681351">
<ele>1634.199951</ele>
<time>2016-04-25T09:52:13.000Z</time>
</trkpt>
<trkpt lat="33.3038165" lon="35.7679905">
<ele>1632.400024</ele>
<time>2016-04-25T09:52:15.000Z</time>
</trkpt>
<trkpt lat="33.3037103" lon="35.7678474">
<ele>1630.599976</ele>
<time>2016-04-25T09:52:17.000Z</time>
</trkpt>
<trkpt lat="33.3035964" lon="35.7677051">
<ele>1629.400024</ele>
<time>2016-04-25T09:52:19.000Z</time>
</trkpt>
<trkpt lat="33.3034715" lon="35.7675677">
<ele>1628.599976</ele>
<time>2016-04-25T09:52:21.000Z</time>
</trkpt>
<trkpt lat="33.3033403" lon="35.7674448">
<ele>1624.800049</ele>
<time>2016-04-25T09:52:23.000Z</time>
</trkpt>
<trkpt lat="33.3032120" lon="35.7673295">
<ele>1621.400024</ele>
<time>2016-04-25T09:52:25.000Z</time>
</trkpt>
<trkpt lat="33.3030932" lon="35.7672307">
<ele>1618.400024</ele>
<time>2016-04-25T09:52:27.000Z</time>
</trkpt>
<trkpt lat="33.3029746" lon="35.7671675">
<ele>1617.000000</ele>
<time>2016-04-25T09:52:29.000Z</time>
</trkpt>
<trkpt lat="33.3028536" lon="35.7671348">
<ele>1616.599976</ele>
<time>2016-04-25T09:52:31.000Z</time>
</trkpt>
<trkpt lat="33.3027320" lon="35.7671276">
<ele>1617.199951</ele>
<time>2016-04-25T09:52:33.000Z</time>
</trkpt>
<trkpt lat="33.3026097" lon="35.7671159">
<ele>1617.599976</ele>
<time>2016-04-25T09:52:35.000Z</time>
</trkpt>
<trkpt lat="33.3024858" lon="35.7671040">
<ele>1616.800049</ele>
<time>2016-04-25T09:52:37.000Z</time>
</trkpt>
<trkpt lat="33.3023728" lon="35.7670954">
<ele>1616.400146</ele>
<time>2016-04-25T09:52:39.000Z</time>
</trkpt>
<trkpt lat="33.3022726" lon="35.7670930">
<ele>1616.199951</ele>
<time>2016-04-25T09:52:41.000Z</time>
</trkpt>
<trkpt lat="33.3021412" lon="35.7670788">
<ele>1615.400024</ele>
<time>2016-04-25T09:52:44.000Z</time>
</trkpt>
<trkpt lat="33.3020243" lon="35.7670863">
<ele>1615.599976</ele>
<time>2016-04-25T09:52:47.000Z</time>
</trkpt>
<trkpt lat="33.3018864" lon="35.7670811">
<ele>1615.199951</ele>
<time>2016-04-25T09:52:50.000Z</time>
</trkpt>
<trkpt lat="33.3017729" lon="35.7670638">
<ele>1614.199951</ele>
<time>2016-04-25T09:52:52.000Z</time>
</trkpt>
<trkpt lat="33.3016413" lon="35.7670489">
<ele>1612.000000</ele>
<time>2016-04-25T09:52:54.000Z</time>
</trkpt>
<trkpt lat="33.3014904" lon="35.7670419">
<ele>1610.199951</ele>
<time>2016-04-25T09:52:56.000Z</time>
</trkpt>
<trkpt lat="33.3013155" lon="35.7670272">
<ele>1607.599976</ele>
<time>2016-04-25T09:52:58.000Z</time>
</trkpt>
<trkpt lat="33.3012201" lon="35.7670162">
<ele>1606.199951</ele>
<time>2016-04-25T09:52:59.000Z</time>
</trkpt>
<trkpt lat="33.3011188" lon="35.7670014">
<ele>1604.599976</ele>
<time>2016-04-25T09:53:00.000Z</time>
</trkpt>
<trkpt lat="33.3010122" lon="35.7669804">
<ele>1602.599976</ele>
<time>2016-04-25T09:53:01.000Z</time>
</trkpt>
<trkpt lat="33.3009029" lon="35.7669533">
<ele>1603.000000</ele>
<time>2016-04-25T09:53:02.000Z</time>
</trkpt>
<trkpt lat="33.3007964" lon="35.7669198">
<ele>1605.199829</ele>
<time>2016-04-25T09:53:03.000Z</time>
</trkpt>
<trkpt lat="33.3006914" lon="35.7668794">
<ele>1606.800049</ele>
<time>2016-04-25T09:53:04.000Z</time>
</trkpt>
<trkpt lat="33.3005986" lon="35.7668291">
<ele>1607.800049</ele>
<time>2016-04-25T09:53:05.000Z</time>
</trkpt>
<trkpt lat="33.3005282" lon="35.7667594">
<ele>1607.400024</ele>
<time>2016-04-25T09:53:06.000Z</time>
</trkpt>
<trkpt lat="33.3004414" lon="35.7665729">
<ele>1602.800049</ele>
<time>2016-04-25T09:53:08.000Z</time>
</trkpt>
<trkpt lat="33.3004247" lon="35.7664627">
<ele>1599.200073</ele>
<time>2016-04-25T09:53:09.000Z</time>
</trkpt>
<trkpt lat="33.3004184" lon="35.7663496">
<ele>1595.800049</ele>
<time>2016-04-25T09:53:10.000Z</time>
</trkpt>
<trkpt lat="33.3004168" lon="35.7662357">
<ele>1594.800049</ele>
<time>2016-04-25T09:53:11.000Z</time>
</trkpt>
<trkpt lat="33.3004146" lon="35.7661212">
<ele>1593.800049</ele>
<time>2016-04-25T09:53:12.000Z</time>
</trkpt>
<trkpt lat="33.3004058" lon="35.7660083">
<ele>1593.000000</ele>
<time>2016-04-25T09:53:13.000Z</time>
</trkpt>
<trkpt lat="33.3003692" lon="35.7657836">
<ele>1592.000000</ele>
<time>2016-04-25T09:53:15.000Z</time>
</trkpt>
<trkpt lat="33.3003419" lon="35.7656714">
<ele>1591.000000</ele>
<time>2016-04-25T09:53:16.000Z</time>
</trkpt>
<trkpt lat="33.3003136" lon="35.7655586">
<ele>1590.199951</ele>
<time>2016-04-25T09:53:17.000Z</time>
</trkpt>
<trkpt lat="33.3002846" lon="35.7654461">
<ele>1589.400024</ele>
<time>2016-04-25T09:53:18.000Z</time>
</trkpt>
<trkpt lat="33.3002546" lon="35.7653369">
<ele>1588.800049</ele>
<time>2016-04-25T09:53:19.000Z</time>
</trkpt>
<trkpt lat="33.3002223" lon="35.7652304">
<ele>1588.199951</ele>
<time>2016-04-25T09:53:20.000Z</time>
</trkpt>
<trkpt lat="33.3001895" lon="35.7651244">
<ele>1587.800049</ele>
<time>2016-04-25T09:53:21.000Z</time>
</trkpt>
<trkpt lat="33.3001573" lon="35.7650186">
<ele>1587.199951</ele>
<time>2016-04-25T09:53:22.000Z</time>
</trkpt>
<trkpt lat="33.3001252" lon="35.7649115">
<ele>1586.800171</ele>
<time>2016-04-25T09:53:23.000Z</time>
</trkpt>
<trkpt lat="33.3000922" lon="35.7648022">
<ele>1587.000000</ele>
<time>2016-04-25T09:53:24.000Z</time>
</trkpt>
<trkpt lat="33.3000579" lon="35.7646913">
<ele>1586.599976</ele>
<time>2016-04-25T09:53:25.000Z</time>
</trkpt>
<trkpt lat="33.3000226" lon="35.7645816">
<ele>1584.399902</ele>
<time>2016-04-25T09:53:26.000Z</time>
</trkpt>
<trkpt lat="33.2999874" lon="35.7644708">
<ele>1582.800049</ele>
<time>2016-04-25T09:53:27.000Z</time>
</trkpt>
<trkpt lat="33.2999516" lon="35.7643593">
<ele>1581.400024</ele>
<time>2016-04-25T09:53:28.000Z</time>
</trkpt>
<trkpt lat="33.2999125" lon="35.7642469">
<ele>1580.000000</ele>
<time>2016-04-25T09:53:29.000Z</time>
</trkpt>
<trkpt lat="33.2998713" lon="35.7641365">
<ele>1578.800049</ele>
<time>2016-04-25T09:53:30.000Z</time>
</trkpt>
<trkpt lat="33.2998281" lon="35.7640251">
<ele>1577.599976</ele>
<time>2016-04-25T09:53:31.000Z</time>
</trkpt>
<trkpt lat="33.2997840" lon="35.7639135">
<ele>1576.400024</ele>
<time>2016-04-25T09:53:32.000Z</time>
</trkpt>
<trkpt lat="33.2997380" lon="35.7637998">
<ele>1574.599976</ele>
<time>2016-04-25T09:53:33.000Z</time>
</trkpt>
<trkpt lat="33.2996862" lon="35.7636885">
<ele>1572.599976</ele>
<time>2016-04-25T09:53:34.000Z</time>
</trkpt>
<trkpt lat="33.2996302" lon="35.7635812">
<ele>1571.000122</ele>
<time>2016-04-25T09:53:35.000Z</time>
</trkpt>
<trkpt lat="33.2995684" lon="35.7634785">
<ele>1569.800049</ele>
<time>2016-04-25T09:53:36.000Z</time>
</trkpt>
<trkpt lat="33.2995025" lon="35.7633821">
<ele>1569.000000</ele>
<time>2016-04-25T09:53:37.000Z</time>
</trkpt>
<trkpt lat="33.2994338" lon="35.7632943">
<ele>1568.599976</ele>
<time>2016-04-25T09:53:38.000Z</time>
</trkpt>
<trkpt lat="33.2993642" lon="35.7632124">
<ele>1568.599976</ele>
<time>2016-04-25T09:53:39.000Z</time>
</trkpt>
<trkpt lat="33.2992952" lon="35.7631341">
<ele>1568.400024</ele>
<time>2016-04-25T09:53:40.000Z</time>
</trkpt>
<trkpt lat="33.2991497" lon="35.7629978">
<ele>1562.599854</ele>
<time>2016-04-25T09:53:42.000Z</time>
</trkpt>
<trkpt lat="33.2990691" lon="35.7629458">
<ele>1560.400024</ele>
<time>2016-04-25T09:53:43.000Z</time>
</trkpt>
<trkpt lat="33.2989000" lon="35.7628807">
<ele>1557.199951</ele>
<time>2016-04-25T09:53:45.000Z</time>
</trkpt>
<trkpt lat="33.2987259" lon="35.7628565">
<ele>1555.199829</ele>
<time>2016-04-25T09:53:47.000Z</time>
</trkpt>
<trkpt lat="33.2985526" lon="35.7628519">
<ele>1554.000000</ele>
<time>2016-04-25T09:53:49.000Z</time>
</trkpt>
<trkpt lat="33.2983715" lon="35.7628742">
<ele>1552.400024</ele>
<time>2016-04-25T09:53:51.000Z</time>
</trkpt>
<trkpt lat="33.2981965" lon="35.7629270">
<ele>1551.199951</ele>
<time>2016-04-25T09:53:53.000Z</time>
</trkpt>
<trkpt lat="33.2981102" lon="35.7629601">
<ele>1551.000000</ele>
<time>2016-04-25T09:53:54.000Z</time>
</trkpt>
<trkpt lat="33.2980237" lon="35.7629936">
<ele>1550.800049</ele>
<time>2016-04-25T09:53:55.000Z</time>
</trkpt>
<trkpt lat="33.2979356" lon="35.7630263">
<ele>1550.400024</ele>
<time>2016-04-25T09:53:56.000Z</time>
</trkpt>
<trkpt lat="33.2978444" lon="35.7630542">
<ele>1550.000000</ele>
<time>2016-04-25T09:53:57.000Z</time>
</trkpt>
<trkpt lat="33.2977520" lon="35.7630777">
<ele>1549.400024</ele>
<time>2016-04-25T09:53:58.000Z</time>
</trkpt>
<trkpt lat="33.2976572" lon="35.7630972">
<ele>1548.599976</ele>
<time>2016-04-25T09:53:59.000Z</time>
</trkpt>
<trkpt lat="33.2975589" lon="35.7631127">
<ele>1548.400024</ele>
<time>2016-04-25T09:54:00.000Z</time>
</trkpt>
<trkpt lat="33.2974566" lon="35.7631267">
<ele>1548.599976</ele>
<time>2016-04-25T09:54:01.000Z</time>
</trkpt>
<trkpt lat="33.2973509" lon="35.7631399">
<ele>1548.799927</ele>
<time>2016-04-25T09:54:02.000Z</time>
</trkpt>
<trkpt lat="33.2972404" lon="35.7631491">
<ele>1548.799927</ele>
<time>2016-04-25T09:54:03.000Z</time>
</trkpt>
<trkpt lat="33.2971300" lon="35.7631535">
<ele>1548.599976</ele>
<time>2016-04-25T09:54:04.000Z</time>
</trkpt>
<trkpt lat="33.2970207" lon="35.7631407">
<ele>1547.599976</ele>
<time>2016-04-25T09:54:05.000Z</time>
</trkpt>
<trkpt lat="33.2969131" lon="35.7631117">
<ele>1546.000122</ele>
<time>2016-04-25T09:54:06.000Z</time>
</trkpt>
<trkpt lat="33.2968082" lon="35.7630755">
<ele>1544.199951</ele>
<time>2016-04-25T09:54:07.000Z</time>
</trkpt>
<trkpt lat="33.2967060" lon="35.7630322">
<ele>1543.000000</ele>
<time>2016-04-25T09:54:08.000Z</time>
</trkpt>
<trkpt lat="33.2966054" lon="35.7629851">
<ele>1542.199951</ele>
<time>2016-04-25T09:54:09.000Z</time>
</trkpt>
<trkpt lat="33.2965051" lon="35.7629346">
<ele>1541.199951</ele>
<time>2016-04-25T09:54:10.000Z</time>
</trkpt>
<trkpt lat="33.2964038" lon="35.7628778">
<ele>1540.199951</ele>
<time>2016-04-25T09:54:11.000Z</time>
</trkpt>
<trkpt lat="33.2963012" lon="35.7628073">
<ele>1538.800049</ele>
<time>2016-04-25T09:54:12.000Z</time>
</trkpt>
<trkpt lat="33.2962002" lon="35.7627294">
<ele>1537.200073</ele>
<time>2016-04-25T09:54:13.000Z</time>
</trkpt>
<trkpt lat="33.2961012" lon="35.7626490">
<ele>1535.599976</ele>
<time>2016-04-25T09:54:14.000Z</time>
</trkpt>
<trkpt lat="33.2960043" lon="35.7625680">
<ele>1534.000000</ele>
<time>2016-04-25T09:54:15.000Z</time>
</trkpt>
<trkpt lat="33.2959112" lon="35.7624898">
<ele>1532.400024</ele>
<time>2016-04-25T09:54:16.000Z</time>
</trkpt>
<trkpt lat="33.2958285" lon="35.7624110">
<ele>1530.800049</ele>
<time>2016-04-25T09:54:17.000Z</time>
</trkpt>
<trkpt lat="33.2957578" lon="35.7623342">
<ele>1529.000000</ele>
<time>2016-04-25T09:54:18.000Z</time>
</trkpt>
<trkpt lat="33.2956335" lon="35.7621853">
<ele>1526.199951</ele>
<time>2016-04-25T09:54:20.000Z</time>
</trkpt>
<trkpt lat="33.2955092" lon="35.7620418">
<ele>1524.800049</ele>
<time>2016-04-25T09:54:22.000Z</time>
</trkpt>
<trkpt lat="33.2954494" lon="35.7619590">
<ele>1524.000000</ele>
<time>2016-04-25T09:54:23.000Z</time>
</trkpt>
<trkpt lat="33.2953909" lon="35.7618660">
<ele>1523.000000</ele>
<time>2016-04-25T09:54:24.000Z</time>
</trkpt>
<trkpt lat="33.2953332" lon="35.7617651">
<ele>1522.000000</ele>
<time>2016-04-25T09:54:25.000Z</time>
</trkpt>
<trkpt lat="33.2952754" lon="35.7616517">
<ele>1520.800049</ele>
<time>2016-04-25T09:54:26.000Z</time>
</trkpt>
<trkpt lat="33.2952143" lon="35.7615318">
<ele>1519.600098</ele>
<time>2016-04-25T09:54:27.000Z</time>
</trkpt>
<trkpt lat="33.2951491" lon="35.7614094">
<ele>1518.400024</ele>
<time>2016-04-25T09:54:28.000Z</time>
</trkpt>
<trkpt lat="33.2950782" lon="35.7612859">
<ele>1517.000000</ele>
<time>2016-04-25T09:54:29.000Z</time>
</trkpt>
<trkpt lat="33.2950013" lon="35.7611628">
<ele>1515.599976</ele>
<time>2016-04-25T09:54:30.000Z</time>
</trkpt>
<trkpt lat="33.2949182" lon="35.7610420">
<ele>1514.199951</ele>
<time>2016-04-25T09:54:31.000Z</time>
</trkpt>
<trkpt lat="33.2948350" lon="35.7609268">
<ele>1513.000000</ele>
<time>2016-04-25T09:54:32.000Z</time>
</trkpt>
<trkpt lat="33.2947552" lon="35.7608166">
<ele>1511.800171</ele>
<time>2016-04-25T09:54:33.000Z</time>
</trkpt>
<trkpt lat="33.2946792" lon="35.7607109">
<ele>1510.599976</ele>
<time>2016-04-25T09:54:34.000Z</time>
</trkpt>
<trkpt lat="33.2946037" lon="35.7606047">
<ele>1509.399902</ele>
<time>2016-04-25T09:54:35.000Z</time>
</trkpt>
<trkpt lat="33.2945275" lon="35.7604943">
<ele>1508.400024</ele>
<time>2016-04-25T09:54:36.000Z</time>
</trkpt>
<trkpt lat="33.2944512" lon="35.7603778">
<ele>1507.599976</ele>
<time>2016-04-25T09:54:37.000Z</time>
</trkpt>
<trkpt lat="33.2943722" lon="35.7602546">
<ele>1506.800049</ele>
<time>2016-04-25T09:54:38.000Z</time>
</trkpt>
<trkpt lat="33.2942933" lon="35.7601277">
<ele>1506.000000</ele>
<time>2016-04-25T09:54:39.000Z</time>
</trkpt>
<trkpt lat="33.2942149" lon="35.7599960">
<ele>1505.599976</ele>
<time>2016-04-25T09:54:40.000Z</time>
</trkpt>
<trkpt lat="33.2941435" lon="35.7598603">
<ele>1505.199829</ele>
<time>2016-04-25T09:54:41.000Z</time>
</trkpt>
<trkpt lat="33.2940771" lon="35.7597252">
<ele>1504.799927</ele>
<time>2016-04-25T09:54:42.000Z</time>
</trkpt>
<trkpt lat="33.2940135" lon="35.7595917">
<ele>1505.000000</ele>
<time>2016-04-25T09:54:43.000Z</time>
</trkpt>
<trkpt lat="33.2939519" lon="35.7594612">
<ele>1505.199829</ele>
<time>2016-04-25T09:54:44.000Z</time>
</trkpt>
<trkpt lat="33.2938934" lon="35.7593328">
<ele>1505.400024</ele>
<time>2016-04-25T09:54:45.000Z</time>
</trkpt>
<trkpt lat="33.2938364" lon="35.7592034">
<ele>1504.599976</ele>
<time>2016-04-25T09:54:46.000Z</time>
</trkpt>
<trkpt lat="33.2937850" lon="35.7590725">
<ele>1502.800049</ele>
<time>2016-04-25T09:54:47.000Z</time>
</trkpt>
<trkpt lat="33.2937418" lon="35.7589404">
<ele>1501.000000</ele>
<time>2016-04-25T09:54:48.000Z</time>
</trkpt>
<trkpt lat="33.2937030" lon="35.7588075">
<ele>1499.200073</ele>
<time>2016-04-25T09:54:49.000Z</time>
</trkpt>
<trkpt lat="33.2936678" lon="35.7586748">
<ele>1498.000000</ele>
<time>2016-04-25T09:54:50.000Z</time>
</trkpt>
<trkpt lat="33.2936340" lon="35.7585413">
<ele>1496.800049</ele>
<time>2016-04-25T09:54:51.000Z</time>
</trkpt>
<trkpt lat="33.2935991" lon="35.7584087">
<ele>1495.400024</ele>
<time>2016-04-25T09:54:52.000Z</time>
</trkpt>
<trkpt lat="33.2935616" lon="35.7582793">
<ele>1494.400024</ele>
<time>2016-04-25T09:54:53.000Z</time>
</trkpt>
<trkpt lat="33.2935164" lon="35.7581542">
<ele>1493.400024</ele>
<time>2016-04-25T09:54:54.000Z</time>
</trkpt>
<trkpt lat="33.2934629" lon="35.7580348">
<ele>1492.800171</ele>
<time>2016-04-25T09:54:55.000Z</time>
</trkpt>
<trkpt lat="33.2933965" lon="35.7579220">
<ele>1490.000122</ele>
<time>2016-04-25T09:54:56.000Z</time>
</trkpt>
<trkpt lat="33.2933200" lon="35.7578194">
<ele>1487.599976</ele>
<time>2016-04-25T09:54:57.000Z</time>
</trkpt>
<trkpt lat="33.2932340" lon="35.7577282">
<ele>1485.599976</ele>
<time>2016-04-25T09:54:58.000Z</time>
</trkpt>
<trkpt lat="33.2931448" lon="35.7576398">
<ele>1483.800049</ele>
<time>2016-04-25T09:54:59.000Z</time>
</trkpt>
<trkpt lat="33.2930507" lon="35.7575618">
<ele>1482.400024</ele>
<time>2016-04-25T09:55:00.000Z</time>
</trkpt>
<trkpt lat="33.2929499" lon="35.7574948">
<ele>1481.400024</ele>
<time>2016-04-25T09:55:01.000Z</time>
</trkpt>
<trkpt lat="33.2928391" lon="35.7574424">
<ele>1480.800049</ele>
<time>2016-04-25T09:55:02.000Z</time>
</trkpt>
<trkpt lat="33.2927231" lon="35.7574059">
<ele>1479.799927</ele>
<time>2016-04-25T09:55:03.000Z</time>
</trkpt>
<trkpt lat="33.2926024" lon="35.7573910">
<ele>1478.800049</ele>
<time>2016-04-25T09:55:04.000Z</time>
</trkpt>
<trkpt lat="33.2924799" lon="35.7573966">
<ele>1476.400024</ele>
<time>2016-04-25T09:55:05.000Z</time>
</trkpt>
<trkpt lat="33.2923581" lon="35.7574116">
<ele>1474.199829</ele>
<time>2016-04-25T09:55:06.000Z</time>
</trkpt>
<trkpt lat="33.2922404" lon="35.7574284">
<ele>1472.199951</ele>
<time>2016-04-25T09:55:07.000Z</time>
</trkpt>
<trkpt lat="33.2921309" lon="35.7574521">
<ele>1470.400024</ele>
<time>2016-04-25T09:55:08.000Z</time>
</trkpt>
<trkpt lat="33.2920368" lon="35.7574915">
<ele>1468.599976</ele>
<time>2016-04-25T09:55:09.000Z</time>
</trkpt>
<trkpt lat="33.2919594" lon="35.7575447">
<ele>1465.800049</ele>
<time>2016-04-25T09:55:10.000Z</time>
</trkpt>
<trkpt lat="33.2918598" lon="35.7576790">
<ele>1462.400024</ele>
<time>2016-04-25T09:55:12.000Z</time>
</trkpt>
<trkpt lat="33.2918349" lon="35.7578588">
<ele>1462.000000</ele>
<time>2016-04-25T09:55:14.000Z</time>
</trkpt>
<trkpt lat="33.2918502" lon="35.7580649">
<ele>1463.000000</ele>
<time>2016-04-25T09:55:16.000Z</time>
</trkpt>
<trkpt lat="33.2918624" lon="35.7581744">
<ele>1463.600098</ele>
<time>2016-04-25T09:55:17.000Z</time>
</trkpt>
<trkpt lat="33.2918767" lon="35.7582864">
<ele>1464.599976</ele>
<time>2016-04-25T09:55:18.000Z</time>
</trkpt>
<trkpt lat="33.2918933" lon="35.7584008">
<ele>1465.400024</ele>
<time>2016-04-25T09:55:19.000Z</time>
</trkpt>
<trkpt lat="33.2919105" lon="35.7585158">
<ele>1466.400146</ele>
<time>2016-04-25T09:55:20.000Z</time>
</trkpt>
<trkpt lat="33.2919259" lon="35.7586302">
<ele>1467.400024</ele>
<time>2016-04-25T09:55:21.000Z</time>
</trkpt>
<trkpt lat="33.2919382" lon="35.7587430">
<ele>1468.200073</ele>
<time>2016-04-25T09:55:22.000Z</time>
</trkpt>
<trkpt lat="33.2919479" lon="35.7588550">
<ele>1469.000000</ele>
<time>2016-04-25T09:55:23.000Z</time>
</trkpt>
<trkpt lat="33.2919530" lon="35.7589658">
<ele>1468.400024</ele>
<time>2016-04-25T09:55:24.000Z</time>
</trkpt>
<trkpt lat="33.2919550" lon="35.7590734">
<ele>1468.200073</ele>
<time>2016-04-25T09:55:25.000Z</time>
</trkpt>
<trkpt lat="33.2919494" lon="35.7592817">
<ele>1469.400024</ele>
<time>2016-04-25T09:55:27.000Z</time>
</trkpt>
<trkpt lat="33.2919397" lon="35.7594817">
<ele>1470.400024</ele>
<time>2016-04-25T09:55:29.000Z</time>
</trkpt>
<trkpt lat="33.2919199" lon="35.7596829">
<ele>1471.199951</ele>
<time>2016-04-25T09:55:31.000Z</time>
</trkpt>
<trkpt lat="33.2918666" lon="35.7598699">
<ele>1470.800049</ele>
<time>2016-04-25T09:55:33.000Z</time>
</trkpt>
<trkpt lat="33.2917477" lon="35.7600005">
<ele>1471.000122</ele>
<time>2016-04-25T09:55:35.000Z</time>
</trkpt>
<trkpt lat="33.2915991" lon="35.7600598">
<ele>1471.000122</ele>
<time>2016-04-25T09:55:37.000Z</time>
</trkpt>
<trkpt lat="33.2914454" lon="35.7600731">
<ele>1470.800049</ele>
<time>2016-04-25T09:55:39.000Z</time>
</trkpt>
<trkpt lat="33.2912897" lon="35.7600728">
<ele>1470.400024</ele>
<time>2016-04-25T09:55:41.000Z</time>
</trkpt>
<trkpt lat="33.2911376" lon="35.7600722">
<ele>1470.000000</ele>
<time>2016-04-25T09:55:43.000Z</time>
</trkpt>
<trkpt lat="33.2909951" lon="35.7600649">
<ele>1469.600098</ele>
<time>2016-04-25T09:55:45.000Z</time>
</trkpt>
<trkpt lat="33.2908668" lon="35.7600440">
<ele>1469.400024</ele>
<time>2016-04-25T09:55:47.000Z</time>
</trkpt>
<trkpt lat="33.2907502" lon="35.7600062">
<ele>1469.199951</ele>
<time>2016-04-25T09:55:49.000Z</time>
</trkpt>
<trkpt lat="33.2906448" lon="35.7599695">
<ele>1468.800049</ele>
<time>2016-04-25T09:55:51.000Z</time>
</trkpt>
<trkpt lat="33.2905444" lon="35.7599308">
<ele>1468.599976</ele>
<time>2016-04-25T09:55:53.000Z</time>
</trkpt>
<trkpt lat="33.2904444" lon="35.7598916">
<ele>1468.400024</ele>
<time>2016-04-25T09:55:55.000Z</time>
</trkpt>
<trkpt lat="33.2903485" lon="35.7598381">
<ele>1468.000000</ele>
<time>2016-04-25T09:55:57.000Z</time>
</trkpt>
<trkpt lat="33.2902585" lon="35.7597720">
<ele>1467.400024</ele>
<time>2016-04-25T09:55:59.000Z</time>
</trkpt>
<trkpt lat="33.2901757" lon="35.7596804">
<ele>1466.800049</ele>
<time>2016-04-25T09:56:01.000Z</time>
</trkpt>
<trkpt lat="33.2901142" lon="35.7595657">
<ele>1466.800049</ele>
<time>2016-04-25T09:56:03.000Z</time>
</trkpt>
<trkpt lat="33.2900771" lon="35.7594471">
<ele>1467.000000</ele>
<time>2016-04-25T09:56:05.000Z</time>
</trkpt>
<trkpt lat="33.2900498" lon="35.7593413">
<ele>1467.000000</ele>
<time>2016-04-25T09:56:07.000Z</time>
</trkpt>
<trkpt lat="33.2900147" lon="35.7591984">
<ele>1467.000000</ele>
<time>2016-04-25T09:56:10.000Z</time>
</trkpt>
<trkpt lat="33.2899777" lon="35.7590698">
<ele>1467.000000</ele>
<time>2016-04-25T09:56:13.000Z</time>
</trkpt>
<trkpt lat="33.2899394" lon="35.7589430">
<ele>1467.199951</ele>
<time>2016-04-25T09:56:16.000Z</time>
</trkpt>
<trkpt lat="33.2898965" lon="35.7588063">
<ele>1468.200073</ele>
<time>2016-04-25T09:56:19.000Z</time>
</trkpt>
<trkpt lat="33.2898719" lon="35.7586610">
<ele>1469.600098</ele>
<time>2016-04-25T09:56:22.000Z</time>
</trkpt>
<trkpt lat="33.2898834" lon="35.7585115">
<ele>1470.000000</ele>
<time>2016-04-25T09:56:25.000Z</time>
</trkpt>
<trkpt lat="33.2899132" lon="35.7583856">
<ele>1469.600098</ele>
<time>2016-04-25T09:56:28.000Z</time>
</trkpt>
<trkpt lat="33.2899435" lon="35.7582674">
<ele>1469.199951</ele>
<time>2016-04-25T09:56:32.000Z</time>
</trkpt>
<trkpt lat="33.2900132" lon="35.7581867">
<ele>1468.000000</ele>
<time>2016-04-25T09:56:37.000Z</time>
</trkpt>
<trkpt lat="33.2900895" lon="35.7580991">
<ele>1466.800049</ele>
<time>2016-04-25T09:56:43.000Z</time>
</trkpt>
<trkpt lat="33.2901609" lon="35.7580076">
<ele>1466.199951</ele>
<time>2016-04-25T09:56:49.000Z</time>
</trkpt>
<trkpt lat="33.2902291" lon="35.7579111">
<ele>1466.800049</ele>
<time>2016-04-25T09:56:55.000Z</time>
</trkpt>
<trkpt lat="33.2902785" lon="35.7577971">
<ele>1468.000000</ele>
<time>2016-04-25T09:57:01.000Z</time>
</trkpt>
<trkpt lat="33.2903115" lon="35.7576670">
<ele>1469.800049</ele>
<time>2016-04-25T09:57:07.000Z</time>
</trkpt>
<trkpt lat="33.2903047" lon="35.7575272">
<ele>1472.000000</ele>
<time>2016-04-25T09:57:12.000Z</time>
</trkpt>
<trkpt lat="33.2902871" lon="35.7573786">
<ele>1474.400024</ele>
<time>2016-04-25T09:57:16.000Z</time>
</trkpt>
<trkpt lat="33.2902730" lon="35.7572602">
<ele>1475.000000</ele>
<time>2016-04-25T09:57:19.000Z</time>
</trkpt>
<trkpt lat="33.2902510" lon="35.7571414">
<ele>1475.599854</ele>
<time>2016-04-25T09:57:22.000Z</time>
</trkpt>
<trkpt lat="33.2902293" lon="35.7570325">
<ele>1476.400024</ele>
<time>2016-04-25T09:57:25.000Z</time>
</trkpt>
<trkpt lat="33.2902102" lon="35.7568932">
<ele>1477.199951</ele>
<time>2016-04-25T09:57:29.000Z</time>
</trkpt>
<trkpt lat="33.2901845" lon="35.7567646">
<ele>1478.000000</ele>
<time>2016-04-25T09:57:33.000Z</time>
</trkpt>
<trkpt lat="33.2901652" lon="35.7566339">
<ele>1478.800049</ele>
<time>2016-04-25T09:57:37.000Z</time>
</trkpt>
<trkpt lat="33.2901422" lon="35.7564933">
<ele>1479.599976</ele>
<time>2016-04-25T09:57:41.000Z</time>
</trkpt>
<trkpt lat="33.2901239" lon="35.7563772">
<ele>1480.199829</ele>
<time>2016-04-25T09:57:44.000Z</time>
</trkpt>
<trkpt lat="33.2901000" lon="35.7562491">
<ele>1479.599976</ele>
<time>2016-04-25T09:57:47.000Z</time>
</trkpt>
<trkpt lat="33.2900771" lon="35.7561089">
<ele>1478.599976</ele>
<time>2016-04-25T09:57:50.000Z</time>
</trkpt>
<trkpt lat="33.2900498" lon="35.7559639">
<ele>1477.800049</ele>
<time>2016-04-25T09:57:53.000Z</time>
</trkpt>
<trkpt lat="33.2900140" lon="35.7558037">
<ele>1477.199951</ele>
<time>2016-04-25T09:57:56.000Z</time>
</trkpt>
<trkpt lat="33.2899868" lon="35.7556927">
<ele>1476.800049</ele>
<time>2016-04-25T09:57:58.000Z</time>
</trkpt>
<trkpt lat="33.2899649" lon="35.7555852">
<ele>1476.199951</ele>
<time>2016-04-25T09:58:00.000Z</time>
</trkpt>
<trkpt lat="33.2899436" lon="35.7554780">
<ele>1476.000000</ele>
<time>2016-04-25T09:58:02.000Z</time>
</trkpt>
<trkpt lat="33.2899219" lon="35.7553702">
<ele>1475.800049</ele>
<time>2016-04-25T09:58:04.000Z</time>
</trkpt>
<trkpt lat="33.2899018" lon="35.7552656">
<ele>1475.400024</ele>
<time>2016-04-25T09:58:06.000Z</time>
</trkpt>
<trkpt lat="33.2898665" lon="35.7551140">
<ele>1475.400024</ele>
<time>2016-04-25T09:58:09.000Z</time>
</trkpt>
<trkpt lat="33.2898252" lon="35.7549626">
<ele>1475.599854</ele>
<time>2016-04-25T09:58:12.000Z</time>
</trkpt>
<trkpt lat="33.2897991" lon="35.7548621">
<ele>1475.599854</ele>
<time>2016-04-25T09:58:14.000Z</time>
</trkpt>
<trkpt lat="33.2897534" lon="35.7547133">
<ele>1476.000000</ele>
<time>2016-04-25T09:58:17.000Z</time>
</trkpt>
<trkpt lat="33.2896954" lon="35.7545648">
<ele>1474.599976</ele>
<time>2016-04-25T09:58:20.000Z</time>
</trkpt>
<trkpt lat="33.2896543" lon="35.7544615">
<ele>1473.400024</ele>
<time>2016-04-25T09:58:22.000Z</time>
</trkpt>
<trkpt lat="33.2896070" lon="35.7543513">
<ele>1472.599976</ele>
<time>2016-04-25T09:58:24.000Z</time>
</trkpt>
<trkpt lat="33.2895495" lon="35.7542428">
<ele>1472.199951</ele>
<time>2016-04-25T09:58:26.000Z</time>
</trkpt>
<trkpt lat="33.2894801" lon="35.7541353">
<ele>1472.400146</ele>
<time>2016-04-25T09:58:28.000Z</time>
</trkpt>
<trkpt lat="33.2894011" lon="35.7540322">
<ele>1473.400024</ele>
<time>2016-04-25T09:58:30.000Z</time>
</trkpt>
<trkpt lat="33.2893117" lon="35.7539387">
<ele>1475.199951</ele>
<time>2016-04-25T09:58:32.000Z</time>
</trkpt>
<trkpt lat="33.2892152" lon="35.7538551">
<ele>1474.400024</ele>
<time>2016-04-25T09:58:34.000Z</time>
</trkpt>
<trkpt lat="33.2891155" lon="35.7537776">
<ele>1472.800049</ele>
<time>2016-04-25T09:58:36.000Z</time>
</trkpt>
<trkpt lat="33.2890125" lon="35.7536981">
<ele>1471.400024</ele>
<time>2016-04-25T09:58:38.000Z</time>
</trkpt>
<trkpt lat="33.2889043" lon="35.7536248">
<ele>1470.199951</ele>
<time>2016-04-25T09:58:40.000Z</time>
</trkpt>
<trkpt lat="33.2887921" lon="35.7535529">
<ele>1469.199951</ele>
<time>2016-04-25T09:58:42.000Z</time>
</trkpt>
<trkpt lat="33.2886767" lon="35.7534846">
<ele>1468.400024</ele>
<time>2016-04-25T09:58:44.000Z</time>
</trkpt>
<trkpt lat="33.2885528" lon="35.7534251">
<ele>1467.800171</ele>
<time>2016-04-25T09:58:46.000Z</time>
</trkpt>
<trkpt lat="33.2884187" lon="35.7533728">
<ele>1467.000000</ele>
<time>2016-04-25T09:58:48.000Z</time>
</trkpt>
<trkpt lat="33.2882698" lon="35.7533346">
<ele>1465.199951</ele>
<time>2016-04-25T09:58:50.000Z</time>
</trkpt>
<trkpt lat="33.2881032" lon="35.7533237">
<ele>1464.199951</ele>
<time>2016-04-25T09:58:52.000Z</time>
</trkpt>
<trkpt lat="33.2879221" lon="35.7533292">
<ele>1463.600098</ele>
<time>2016-04-25T09:58:54.000Z</time>
</trkpt>
<trkpt lat="33.2878238" lon="35.7533380">
<ele>1462.400024</ele>
<time>2016-04-25T09:58:55.000Z</time>
</trkpt>
<trkpt lat="33.2877266" lon="35.7533501">
<ele>1461.199829</ele>
<time>2016-04-25T09:58:56.000Z</time>
</trkpt>
<trkpt lat="33.2876261" lon="35.7533643">
<ele>1460.000000</ele>
<time>2016-04-25T09:58:57.000Z</time>
</trkpt>
<trkpt lat="33.2875266" lon="35.7533793">
<ele>1459.399902</ele>
<time>2016-04-25T09:58:58.000Z</time>
</trkpt>
<trkpt lat="33.2874303" lon="35.7534002">
<ele>1459.000000</ele>
<time>2016-04-25T09:58:59.000Z</time>
</trkpt>
<trkpt lat="33.2873341" lon="35.7534293">
<ele>1458.800049</ele>
<time>2016-04-25T09:59:00.000Z</time>
</trkpt>
<trkpt lat="33.2872378" lon="35.7534671">
<ele>1458.800049</ele>
<time>2016-04-25T09:59:01.000Z</time>
</trkpt>
<trkpt lat="33.2871398" lon="35.7535165">
<ele>1457.400024</ele>
<time>2016-04-25T09:59:02.000Z</time>
</trkpt>
<trkpt lat="33.2870433" lon="35.7535799">
<ele>1455.800049</ele>
<time>2016-04-25T09:59:03.000Z</time>
</trkpt>
<trkpt lat="33.2869471" lon="35.7536531">
<ele>1454.400024</ele>
<time>2016-04-25T09:59:04.000Z</time>
</trkpt>
<trkpt lat="33.2868519" lon="35.7537364">
<ele>1453.000000</ele>
<time>2016-04-25T09:59:05.000Z</time>
</trkpt>
<trkpt lat="33.2867542" lon="35.7538227">
<ele>1452.199951</ele>
<time>2016-04-25T09:59:06.000Z</time>
</trkpt>
<trkpt lat="33.2866523" lon="35.7539086">
<ele>1451.199951</ele>
<time>2016-04-25T09:59:07.000Z</time>
</trkpt>
<trkpt lat="33.2865468" lon="35.7539911">
<ele>1451.199951</ele>
<time>2016-04-25T09:59:08.000Z</time>
</trkpt>
<trkpt lat="33.2864325" lon="35.7540610">
<ele>1450.599854</ele>
<time>2016-04-25T09:59:09.000Z</time>
</trkpt>
<trkpt lat="33.2863107" lon="35.7541150">
<ele>1449.599976</ele>
<time>2016-04-25T09:59:10.000Z</time>
</trkpt>
<trkpt lat="33.2861820" lon="35.7541500">
<ele>1448.400024</ele>
<time>2016-04-25T09:59:11.000Z</time>
</trkpt>
<trkpt lat="33.2860545" lon="35.7541642">
<ele>1446.800049</ele>
<time>2016-04-25T09:59:12.000Z</time>
</trkpt>
<trkpt lat="33.2859271" lon="35.7541644">
<ele>1445.199951</ele>
<time>2016-04-25T09:59:13.000Z</time>
</trkpt>
<trkpt lat="33.2858037" lon="35.7541618">
<ele>1443.599976</ele>
<time>2016-04-25T09:59:14.000Z</time>
</trkpt>
<trkpt lat="33.2856869" lon="35.7541644">
<ele>1442.199951</ele>
<time>2016-04-25T09:59:15.000Z</time>
</trkpt>
<trkpt lat="33.2855757" lon="35.7541746">
<ele>1441.199951</ele>
<time>2016-04-25T09:59:16.000Z</time>
</trkpt>
<trkpt lat="33.2854694" lon="35.7541922">
<ele>1440.199951</ele>
<time>2016-04-25T09:59:17.000Z</time>
</trkpt>
<trkpt lat="33.2853672" lon="35.7542213">
<ele>1438.400024</ele>
<time>2016-04-25T09:59:18.000Z</time>
</trkpt>
<trkpt lat="33.2852703" lon="35.7542642">
<ele>1436.599976</ele>
<time>2016-04-25T09:59:19.000Z</time>
</trkpt>
<trkpt lat="33.2851745" lon="35.7543225">
<ele>1434.800049</ele>
<time>2016-04-25T09:59:20.000Z</time>
</trkpt>
<trkpt lat="33.2850831" lon="35.7543940">
<ele>1433.599976</ele>
<time>2016-04-25T09:59:21.000Z</time>
</trkpt>
<trkpt lat="33.2849957" lon="35.7544810">
<ele>1432.999878</ele>
<time>2016-04-25T09:59:22.000Z</time>
</trkpt>
<trkpt lat="33.2849097" lon="35.7545735">
<ele>1431.400024</ele>
<time>2016-04-25T09:59:23.000Z</time>
</trkpt>
<trkpt lat="33.2848286" lon="35.7546767">
<ele>1429.199951</ele>
<time>2016-04-25T09:59:24.000Z</time>
</trkpt>
<trkpt lat="33.2847525" lon="35.7547850">
<ele>1428.199951</ele>
<time>2016-04-25T09:59:25.000Z</time>
</trkpt>
<trkpt lat="33.2846811" lon="35.7549013">
<ele>1427.800049</ele>
<time>2016-04-25T09:59:26.000Z</time>
</trkpt>
<trkpt lat="33.2846106" lon="35.7550216">
<ele>1427.599976</ele>
<time>2016-04-25T09:59:27.000Z</time>
</trkpt>
<trkpt lat="33.2845379" lon="35.7551365">
<ele>1426.400024</ele>
<time>2016-04-25T09:59:28.000Z</time>
</trkpt>
<trkpt lat="33.2844587" lon="35.7552490">
<ele>1425.000000</ele>
<time>2016-04-25T09:59:29.000Z</time>
</trkpt>
<trkpt lat="33.2843720" lon="35.7553537">
<ele>1423.400024</ele>
<time>2016-04-25T09:59:30.000Z</time>
</trkpt>
<trkpt lat="33.2842800" lon="35.7554497">
<ele>1421.400024</ele>
<time>2016-04-25T09:59:31.000Z</time>
</trkpt>
<trkpt lat="33.2841873" lon="35.7555412">
<ele>1418.800049</ele>
<time>2016-04-25T09:59:32.000Z</time>
</trkpt>
<trkpt lat="33.2841078" lon="35.7556268">
<ele>1415.400024</ele>
<time>2016-04-25T09:59:33.000Z</time>
</trkpt>
<trkpt lat="33.2840428" lon="35.7557222">
<ele>1412.599976</ele>
<time>2016-04-25T09:59:34.000Z</time>
</trkpt>
<trkpt lat="33.2840011" lon="35.7558165">
<ele>1410.599976</ele>
<time>2016-04-25T09:59:35.000Z</time>
</trkpt>
<trkpt lat="33.2839912" lon="35.7560156">
<ele>1409.599976</ele>
<time>2016-04-25T09:59:37.000Z</time>
</trkpt>
<trkpt lat="33.2840365" lon="35.7562217">
<ele>1410.599976</ele>
<time>2016-04-25T09:59:39.000Z</time>
</trkpt>
<trkpt lat="33.2840613" lon="35.7563291">
<ele>1411.199829</ele>
<time>2016-04-25T09:59:40.000Z</time>
</trkpt>
<trkpt lat="33.2840855" lon="35.7564396">
<ele>1411.000000</ele>
<time>2016-04-25T09:59:41.000Z</time>
</trkpt>
<trkpt lat="33.2841117" lon="35.7565518">
<ele>1410.599976</ele>
<time>2016-04-25T09:59:42.000Z</time>
</trkpt>
<trkpt lat="33.2841383" lon="35.7566644">
<ele>1410.000000</ele>
<time>2016-04-25T09:59:43.000Z</time>
</trkpt>
<trkpt lat="33.2841642" lon="35.7567774">
<ele>1409.599976</ele>
<time>2016-04-25T09:59:44.000Z</time>
</trkpt>
<trkpt lat="33.2841895" lon="35.7568921">
<ele>1409.000122</ele>
<time>2016-04-25T09:59:45.000Z</time>
</trkpt>
<trkpt lat="33.2842131" lon="35.7570088">
<ele>1408.400024</ele>
<time>2016-04-25T09:59:46.000Z</time>
</trkpt>
<trkpt lat="33.2842367" lon="35.7571280">
<ele>1407.800049</ele>
<time>2016-04-25T09:59:47.000Z</time>
</trkpt>
<trkpt lat="33.2842610" lon="35.7572484">
<ele>1407.599976</ele>
<time>2016-04-25T09:59:48.000Z</time>
</trkpt>
<trkpt lat="33.2842865" lon="35.7573715">
<ele>1407.400024</ele>
<time>2016-04-25T09:59:49.000Z</time>
</trkpt>
<trkpt lat="33.2843120" lon="35.7574962">
<ele>1407.199951</ele>
<time>2016-04-25T09:59:50.000Z</time>
</trkpt>
<trkpt lat="33.2843372" lon="35.7576244">
<ele>1407.000000</ele>
<time>2016-04-25T09:59:51.000Z</time>
</trkpt>
<trkpt lat="33.2843569" lon="35.7577527">
<ele>1406.800049</ele>
<time>2016-04-25T09:59:52.000Z</time>
</trkpt>
<trkpt lat="33.2843728" lon="35.7578868">
<ele>1406.199951</ele>
<time>2016-04-25T09:59:53.000Z</time>
</trkpt>
<trkpt lat="33.2843872" lon="35.7580204">
<ele>1405.599976</ele>
<time>2016-04-25T09:59:54.000Z</time>
</trkpt>
<trkpt lat="33.2844030" lon="35.7581535">
<ele>1404.400024</ele>
<time>2016-04-25T09:59:55.000Z</time>
</trkpt>
<trkpt lat="33.2844243" lon="35.7582860">
<ele>1404.000000</ele>
<time>2016-04-25T09:59:56.000Z</time>
</trkpt>
<trkpt lat="33.2844509" lon="35.7584182">
<ele>1403.599976</ele>
<time>2016-04-25T09:59:57.000Z</time>
</trkpt>
<trkpt lat="33.2844807" lon="35.7585519">
<ele>1403.399902</ele>
<time>2016-04-25T09:59:58.000Z</time>
</trkpt>
<trkpt lat="33.2845106" lon="35.7586864">
<ele>1403.199951</ele>
<time>2016-04-25T09:59:59.000Z</time>
</trkpt>
<trkpt lat="33.2845388" lon="35.7588224">
<ele>1403.000000</ele>
<time>2016-04-25T10:00:00.000Z</time>
</trkpt>
<trkpt lat="33.2845640" lon="35.7589607">
<ele>1402.800049</ele>
<time>2016-04-25T10:00:01.000Z</time>
</trkpt>
<trkpt lat="33.2845849" lon="35.7591003">
<ele>1402.400024</ele>
<time>2016-04-25T10:00:02.000Z</time>
</trkpt>
<trkpt lat="33.2846009" lon="35.7592395">
<ele>1401.999878</ele>
<time>2016-04-25T10:00:03.000Z</time>
</trkpt>
<trkpt lat="33.2846128" lon="35.7593783">
<ele>1401.800049</ele>
<time>2016-04-25T10:00:04.000Z</time>
</trkpt>
<trkpt lat="33.2846239" lon="35.7595190">
<ele>1401.800049</ele>
<time>2016-04-25T10:00:05.000Z</time>
</trkpt>
<trkpt lat="33.2846336" lon="35.7596559">
<ele>1401.400024</ele>
<time>2016-04-25T10:00:06.000Z</time>
</trkpt>
<trkpt lat="33.2846410" lon="35.7597902">
<ele>1400.400024</ele>
<time>2016-04-25T10:00:07.000Z</time>
</trkpt>
<trkpt lat="33.2846491" lon="35.7599251">
<ele>1398.799927</ele>
<time>2016-04-25T10:00:08.000Z</time>
</trkpt>
<trkpt lat="33.2846581" lon="35.7600598">
<ele>1397.399902</ele>
<time>2016-04-25T10:00:09.000Z</time>
</trkpt>
<trkpt lat="33.2846667" lon="35.7601951">
<ele>1396.599976</ele>
<time>2016-04-25T10:00:10.000Z</time>
</trkpt>
<trkpt lat="33.2846763" lon="35.7603285">
<ele>1396.000122</ele>
<time>2016-04-25T10:00:11.000Z</time>
</trkpt>
<trkpt lat="33.2846868" lon="35.7604620">
<ele>1395.400024</ele>
<time>2016-04-25T10:00:12.000Z</time>
</trkpt>
<trkpt lat="33.2847024" lon="35.7605946">
<ele>1394.800049</ele>
<time>2016-04-25T10:00:13.000Z</time>
</trkpt>
<trkpt lat="33.2847272" lon="35.7607244">
<ele>1394.199951</ele>
<time>2016-04-25T10:00:14.000Z</time>
</trkpt>
<trkpt lat="33.2847636" lon="35.7608424">
<ele>1394.000000</ele>
<time>2016-04-25T10:00:15.000Z</time>
</trkpt>
<trkpt lat="33.2848149" lon="35.7609549">
<ele>1394.199951</ele>
<time>2016-04-25T10:00:16.000Z</time>
</trkpt>
<trkpt lat="33.2848760" lon="35.7610571">
<ele>1394.400024</ele>
<time>2016-04-25T10:00:17.000Z</time>
</trkpt>
<trkpt lat="33.2849378" lon="35.7611579">
<ele>1395.000000</ele>
<time>2016-04-25T10:00:18.000Z</time>
</trkpt>
<trkpt lat="33.2849973" lon="35.7612623">
<ele>1395.400024</ele>
<time>2016-04-25T10:00:19.000Z</time>
</trkpt>
<trkpt lat="33.2850489" lon="35.7613776">
<ele>1395.800049</ele>
<time>2016-04-25T10:00:20.000Z</time>
</trkpt>
<trkpt lat="33.2850863" lon="35.7614916">
<ele>1396.800049</ele>
<time>2016-04-25T10:00:21.000Z</time>
</trkpt>
<trkpt lat="33.2850938" lon="35.7616061">
<ele>1397.599976</ele>
<time>2016-04-25T10:00:22.000Z</time>
</trkpt>
<trkpt lat="33.2850961" lon="35.7617179">
<ele>1398.000000</ele>
<time>2016-04-25T10:00:23.000Z</time>
</trkpt>
<trkpt lat="33.2850903" lon="35.7618278">
<ele>1398.599976</ele>
<time>2016-04-25T10:00:24.000Z</time>
</trkpt>
<trkpt lat="33.2850819" lon="35.7619360">
<ele>1399.000000</ele>
<time>2016-04-25T10:00:25.000Z</time>
</trkpt>
<trkpt lat="33.2850767" lon="35.7620425">
<ele>1399.400024</ele>
<time>2016-04-25T10:00:26.000Z</time>
</trkpt>
<trkpt lat="33.2850598" lon="35.7622266">
<ele>1402.400024</ele>
<time>2016-04-25T10:00:28.000Z</time>
</trkpt>
<trkpt lat="33.2849810" lon="35.7623478">
<ele>1407.800049</ele>
<time>2016-04-25T10:00:30.000Z</time>
</trkpt>
<trkpt lat="33.2848486" lon="35.7623804">
<ele>1410.599976</ele>
<time>2016-04-25T10:00:32.000Z</time>
</trkpt>
<trkpt lat="33.2847200" lon="35.7623429">
<ele>1411.000000</ele>
<time>2016-04-25T10:00:34.000Z</time>
</trkpt>
<trkpt lat="33.2846014" lon="35.7622693">
<ele>1410.000000</ele>
<time>2016-04-25T10:00:36.000Z</time>
</trkpt>
<trkpt lat="33.2844741" lon="35.7621836">
<ele>1408.800049</ele>
<time>2016-04-25T10:00:38.000Z</time>
</trkpt>
<trkpt lat="33.2843423" lon="35.7620895">
<ele>1407.400024</ele>
<time>2016-04-25T10:00:40.000Z</time>
</trkpt>
<trkpt lat="33.2841975" lon="35.7619895">
<ele>1405.599976</ele>
<time>2016-04-25T10:00:42.000Z</time>
</trkpt>
<trkpt lat="33.2840478" lon="35.7618872">
<ele>1403.599976</ele>
<time>2016-04-25T10:00:44.000Z</time>
</trkpt>
<trkpt lat="33.2839703" lon="35.7618335">
<ele>1402.400024</ele>
<time>2016-04-25T10:00:45.000Z</time>
</trkpt>
<trkpt lat="33.2838904" lon="35.7617798">
<ele>1401.400024</ele>
<time>2016-04-25T10:00:46.000Z</time>
</trkpt>
<trkpt lat="33.2837303" lon="35.7616705">
<ele>1399.800049</ele>
<time>2016-04-25T10:00:48.000Z</time>
</trkpt>
<trkpt lat="33.2836493" lon="35.7616152">
<ele>1399.199829</ele>
<time>2016-04-25T10:00:49.000Z</time>
</trkpt>
<trkpt lat="33.2835686" lon="35.7615601">
<ele>1398.599976</ele>
<time>2016-04-25T10:00:50.000Z</time>
</trkpt>
<trkpt lat="33.2834898" lon="35.7615062">
<ele>1398.000000</ele>
<time>2016-04-25T10:00:51.000Z</time>
</trkpt>
<trkpt lat="33.2833353" lon="35.7614001">
<ele>1397.199951</ele>
<time>2016-04-25T10:00:53.000Z</time>
</trkpt>
<trkpt lat="33.2831798" lon="35.7612953">
<ele>1396.800049</ele>
<time>2016-04-25T10:00:55.000Z</time>
</trkpt>
<trkpt lat="33.2831010" lon="35.7612414">
<ele>1396.400024</ele>
<time>2016-04-25T10:00:56.000Z</time>
</trkpt>
<trkpt lat="33.2830220" lon="35.7611874">
<ele>1396.199951</ele>
<time>2016-04-25T10:00:57.000Z</time>
</trkpt>
<trkpt lat="33.2829423" lon="35.7611306">
<ele>1395.800049</ele>
<time>2016-04-25T10:00:58.000Z</time>
</trkpt>
<trkpt lat="33.2828614" lon="35.7610729">
<ele>1395.400024</ele>
<time>2016-04-25T10:00:59.000Z</time>
</trkpt>
<trkpt lat="33.2827802" lon="35.7610148">
<ele>1395.000000</ele>
<time>2016-04-25T10:01:00.000Z</time>
</trkpt>
<trkpt lat="33.2826962" lon="35.7609544">
<ele>1394.600098</ele>
<time>2016-04-25T10:01:01.000Z</time>
</trkpt>
<trkpt lat="33.2826091" lon="35.7608936">
<ele>1394.199951</ele>
<time>2016-04-25T10:01:02.000Z</time>
</trkpt>
<trkpt lat="33.2825182" lon="35.7608311">
<ele>1393.400024</ele>
<time>2016-04-25T10:01:03.000Z</time>
</trkpt>
<trkpt lat="33.2824258" lon="35.7607694">
<ele>1392.599976</ele>
<time>2016-04-25T10:01:04.000Z</time>
</trkpt>
<trkpt lat="33.2823328" lon="35.7607068">
<ele>1391.800049</ele>
<time>2016-04-25T10:01:05.000Z</time>
</trkpt>
<trkpt lat="33.2822390" lon="35.7606435">
<ele>1390.800049</ele>
<time>2016-04-25T10:01:06.000Z</time>
</trkpt>
<trkpt lat="33.2821425" lon="35.7605830">
<ele>1390.199951</ele>
<time>2016-04-25T10:01:07.000Z</time>
</trkpt>
<trkpt lat="33.2820422" lon="35.7605239">
<ele>1389.800049</ele>
<time>2016-04-25T10:01:08.000Z</time>
</trkpt>
<trkpt lat="33.2819436" lon="35.7604611">
<ele>1389.000000</ele>
<time>2016-04-25T10:01:09.000Z</time>
</trkpt>
<trkpt lat="33.2818482" lon="35.7603962">
<ele>1388.000000</ele>
<time>2016-04-25T10:01:10.000Z</time>
</trkpt>
<trkpt lat="33.2817555" lon="35.7603320">
<ele>1387.400024</ele>
<time>2016-04-25T10:01:11.000Z</time>
</trkpt>
<trkpt lat="33.2816637" lon="35.7602669">
<ele>1387.200073</ele>
<time>2016-04-25T10:01:12.000Z</time>
</trkpt>
<trkpt lat="33.2815706" lon="35.7602025">
<ele>1387.200073</ele>
<time>2016-04-25T10:01:13.000Z</time>
</trkpt>
<trkpt lat="33.2814784" lon="35.7601388">
<ele>1387.000000</ele>
<time>2016-04-25T10:01:14.000Z</time>
</trkpt>
<trkpt lat="33.2813898" lon="35.7600744">
<ele>1386.800171</ele>
<time>2016-04-25T10:01:15.000Z</time>
</trkpt>
<trkpt lat="33.2813031" lon="35.7600065">
<ele>1386.400024</ele>
<time>2016-04-25T10:01:16.000Z</time>
</trkpt>
<trkpt lat="33.2812181" lon="35.7599361">
<ele>1385.800049</ele>
<time>2016-04-25T10:01:17.000Z</time>
</trkpt>
<trkpt lat="33.2811317" lon="35.7598677">
<ele>1385.199951</ele>
<time>2016-04-25T10:01:18.000Z</time>
</trkpt>
<trkpt lat="33.2810416" lon="35.7598005">
<ele>1385.000000</ele>
<time>2016-04-25T10:01:19.000Z</time>
</trkpt>
<trkpt lat="33.2809495" lon="35.7597387">
<ele>1384.800049</ele>
<time>2016-04-25T10:01:20.000Z</time>
</trkpt>
<trkpt lat="33.2808571" lon="35.7596808">
<ele>1384.000122</ele>
<time>2016-04-25T10:01:21.000Z</time>
</trkpt>
<trkpt lat="33.2807654" lon="35.7596248">
<ele>1383.199951</ele>
<time>2016-04-25T10:01:22.000Z</time>
</trkpt>
<trkpt lat="33.2806771" lon="35.7595662">
<ele>1382.199951</ele>
<time>2016-04-25T10:01:23.000Z</time>
</trkpt>
<trkpt lat="33.2805886" lon="35.7595036">
<ele>1380.800049</ele>
<time>2016-04-25T10:01:24.000Z</time>
</trkpt>
<trkpt lat="33.2805008" lon="35.7594405">
<ele>1379.400024</ele>
<time>2016-04-25T10:01:25.000Z</time>
</trkpt>
<trkpt lat="33.2804111" lon="35.7593803">
<ele>1378.399902</ele>
<time>2016-04-25T10:01:26.000Z</time>
</trkpt>
<trkpt lat="33.2803183" lon="35.7593265">
<ele>1377.599976</ele>
<time>2016-04-25T10:01:27.000Z</time>
</trkpt>
<trkpt lat="33.2802207" lon="35.7592738">
<ele>1377.199951</ele>
<time>2016-04-25T10:01:28.000Z</time>
</trkpt>
<trkpt lat="33.2801193" lon="35.7592243">
<ele>1376.800049</ele>
<time>2016-04-25T10:01:29.000Z</time>
</trkpt>
<trkpt lat="33.2800145" lon="35.7591798">
<ele>1376.400024</ele>
<time>2016-04-25T10:01:30.000Z</time>
</trkpt>
<trkpt lat="33.2799039" lon="35.7591404">
<ele>1376.199951</ele>
<time>2016-04-25T10:01:31.000Z</time>
</trkpt>
<trkpt lat="33.2797902" lon="35.7591015">
<ele>1376.199951</ele>
<time>2016-04-25T10:01:32.000Z</time>
</trkpt>
<trkpt lat="33.2796785" lon="35.7590606">
<ele>1376.000000</ele>
<time>2016-04-25T10:01:33.000Z</time>
</trkpt>
<trkpt lat="33.2795727" lon="35.7590112">
<ele>1375.199951</ele>
<time>2016-04-25T10:01:34.000Z</time>
</trkpt>
<trkpt lat="33.2794749" lon="35.7589452">
<ele>1373.400024</ele>
<time>2016-04-25T10:01:35.000Z</time>
</trkpt>
<trkpt lat="33.2793882" lon="35.7588616">
<ele>1370.599976</ele>
<time>2016-04-25T10:01:36.000Z</time>
</trkpt>
<trkpt lat="33.2793103" lon="35.7587649">
<ele>1368.400024</ele>
<time>2016-04-25T10:01:37.000Z</time>
</trkpt>
<trkpt lat="33.2792385" lon="35.7586692">
<ele>1366.599976</ele>
<time>2016-04-25T10:01:38.000Z</time>
</trkpt>
<trkpt lat="33.2791640" lon="35.7585739">
<ele>1365.400024</ele>
<time>2016-04-25T10:01:39.000Z</time>
</trkpt>
<trkpt lat="33.2790851" lon="35.7584799">
<ele>1364.199951</ele>
<time>2016-04-25T10:01:40.000Z</time>
</trkpt>
<trkpt lat="33.2790021" lon="35.7583876">
<ele>1363.199951</ele>
<time>2016-04-25T10:01:41.000Z</time>
</trkpt>
<trkpt lat="33.2789147" lon="35.7582983">
<ele>1362.400024</ele>
<time>2016-04-25T10:01:42.000Z</time>
</trkpt>
<trkpt lat="33.2788227" lon="35.7582105">
<ele>1362.000000</ele>
<time>2016-04-25T10:01:43.000Z</time>
</trkpt>
<trkpt lat="33.2787259" lon="35.7581266">
<ele>1361.800171</ele>
<time>2016-04-25T10:01:44.000Z</time>
</trkpt>
<trkpt lat="33.2786271" lon="35.7580427">
<ele>1361.599976</ele>
<time>2016-04-25T10:01:45.000Z</time>
</trkpt>
<trkpt lat="33.2785266" lon="35.7579579">
<ele>1360.599976</ele>
<time>2016-04-25T10:01:46.000Z</time>
</trkpt>
<trkpt lat="33.2784271" lon="35.7578717">
<ele>1359.399902</ele>
<time>2016-04-25T10:01:47.000Z</time>
</trkpt>
<trkpt lat="33.2783278" lon="35.7577815">
<ele>1357.999878</ele>
<time>2016-04-25T10:01:48.000Z</time>
</trkpt>
<trkpt lat="33.2782281" lon="35.7576893">
<ele>1356.400024</ele>
<time>2016-04-25T10:01:49.000Z</time>
</trkpt>
<trkpt lat="33.2781253" lon="35.7575940">
<ele>1354.799927</ele>
<time>2016-04-25T10:01:50.000Z</time>
</trkpt>
<trkpt lat="33.2780191" lon="35.7574993">
<ele>1353.399902</ele>
<time>2016-04-25T10:01:51.000Z</time>
</trkpt>
<trkpt lat="33.2779118" lon="35.7574051">
<ele>1351.999878</ele>
<time>2016-04-25T10:01:52.000Z</time>
</trkpt>
<trkpt lat="33.2777983" lon="35.7573155">
<ele>1351.000000</ele>
<time>2016-04-25T10:01:53.000Z</time>
</trkpt>
<trkpt lat="33.2776793" lon="35.7572346">
<ele>1350.800049</ele>
<time>2016-04-25T10:01:54.000Z</time>
</trkpt>
<trkpt lat="33.2775588" lon="35.7571593">
<ele>1349.599976</ele>
<time>2016-04-25T10:01:55.000Z</time>
</trkpt>
<trkpt lat="33.2774379" lon="35.7570858">
<ele>1348.199951</ele>
<time>2016-04-25T10:01:56.000Z</time>
</trkpt>
<trkpt lat="33.2773170" lon="35.7570162">
<ele>1346.800049</ele>
<time>2016-04-25T10:01:57.000Z</time>
</trkpt>
<trkpt lat="33.2771984" lon="35.7569501">
<ele>1345.599976</ele>
<time>2016-04-25T10:01:58.000Z</time>
</trkpt>
<trkpt lat="33.2770803" lon="35.7568879">
<ele>1344.800049</ele>
<time>2016-04-25T10:01:59.000Z</time>
</trkpt>
<trkpt lat="33.2769620" lon="35.7568306">
<ele>1344.000000</ele>
<time>2016-04-25T10:02:00.000Z</time>
</trkpt>
<trkpt lat="33.2768430" lon="35.7567823">
<ele>1343.800049</ele>
<time>2016-04-25T10:02:01.000Z</time>
</trkpt>
<trkpt lat="33.2767228" lon="35.7567450">
<ele>1342.199951</ele>
<time>2016-04-25T10:02:02.000Z</time>
</trkpt>
<trkpt lat="33.2765999" lon="35.7567171">
<ele>1339.800049</ele>
<time>2016-04-25T10:02:03.000Z</time>
</trkpt>
<trkpt lat="33.2764765" lon="35.7567026">
<ele>1338.199951</ele>
<time>2016-04-25T10:02:04.000Z</time>
</trkpt>
<trkpt lat="33.2763532" lon="35.7567038">
<ele>1337.200073</ele>
<time>2016-04-25T10:02:05.000Z</time>
</trkpt>
<trkpt lat="33.2762299" lon="35.7567212">
<ele>1337.400024</ele>
<time>2016-04-25T10:02:06.000Z</time>
</trkpt>
<trkpt lat="33.2761072" lon="35.7567533">
<ele>1338.600098</ele>
<time>2016-04-25T10:02:07.000Z</time>
</trkpt>
<trkpt lat="33.2759850" lon="35.7567902">
<ele>1340.000122</ele>
<time>2016-04-25T10:02:08.000Z</time>
</trkpt>
<trkpt lat="33.2758617" lon="35.7568249">
<ele>1339.400024</ele>
<time>2016-04-25T10:02:09.000Z</time>
</trkpt>
<trkpt lat="33.2757363" lon="35.7568569">
<ele>1338.000000</ele>
<time>2016-04-25T10:02:10.000Z</time>
</trkpt>
<trkpt lat="33.2756094" lon="35.7568854">
<ele>1336.199951</ele>
<time>2016-04-25T10:02:11.000Z</time>
</trkpt>
<trkpt lat="33.2754816" lon="35.7569110">
<ele>1333.800049</ele>
<time>2016-04-25T10:02:12.000Z</time>
</trkpt>
<trkpt lat="33.2753530" lon="35.7569363">
<ele>1331.199951</ele>
<time>2016-04-25T10:02:13.000Z</time>
</trkpt>
<trkpt lat="33.2752221" lon="35.7569606">
<ele>1328.599976</ele>
<time>2016-04-25T10:02:14.000Z</time>
</trkpt>
<trkpt lat="33.2750907" lon="35.7569938">
<ele>1326.800049</ele>
<time>2016-04-25T10:02:15.000Z</time>
</trkpt>
<trkpt lat="33.2749625" lon="35.7570400">
<ele>1326.400024</ele>
<time>2016-04-25T10:02:16.000Z</time>
</trkpt>
<trkpt lat="33.2748396" lon="35.7571012">
<ele>1324.000000</ele>
<time>2016-04-25T10:02:17.000Z</time>
</trkpt>
<trkpt lat="33.2747225" lon="35.7571784">
<ele>1322.199951</ele>
<time>2016-04-25T10:02:18.000Z</time>
</trkpt>
<trkpt lat="33.2746119" lon="35.7572729">
<ele>1321.400024</ele>
<time>2016-04-25T10:02:19.000Z</time>
</trkpt>
<trkpt lat="33.2745075" lon="35.7573785">
<ele>1321.400024</ele>
<time>2016-04-25T10:02:20.000Z</time>
</trkpt>
<trkpt lat="33.2744076" lon="35.7574849">
<ele>1320.999878</ele>
<time>2016-04-25T10:02:21.000Z</time>
</trkpt>
<trkpt lat="33.2743096" lon="35.7575851">
<ele>1320.199951</ele>
<time>2016-04-25T10:02:22.000Z</time>
</trkpt>
<trkpt lat="33.2742105" lon="35.7576746">
<ele>1322.199951</ele>
<time>2016-04-25T10:02:23.000Z</time>
</trkpt>
<trkpt lat="33.2741060" lon="35.7577468">
<ele>1324.199829</ele>
<time>2016-04-25T10:02:24.000Z</time>
</trkpt>
<trkpt lat="33.2739979" lon="35.7577935">
<ele>1325.199951</ele>
<time>2016-04-25T10:02:25.000Z</time>
</trkpt>
<trkpt lat="33.2738855" lon="35.7578125">
<ele>1325.199951</ele>
<time>2016-04-25T10:02:26.000Z</time>
</trkpt>
<trkpt lat="33.2737689" lon="35.7577982">
<ele>1324.199829</ele>
<time>2016-04-25T10:02:27.000Z</time>
</trkpt>
<trkpt lat="33.2736574" lon="35.7577600">
<ele>1322.399902</ele>
<time>2016-04-25T10:02:28.000Z</time>
</trkpt>
<trkpt lat="33.2735607" lon="35.7577000">
<ele>1320.000000</ele>
<time>2016-04-25T10:02:29.000Z</time>
</trkpt>
<trkpt lat="33.2734800" lon="35.7576170">
<ele>1316.800049</ele>
<time>2016-04-25T10:02:30.000Z</time>
</trkpt>
<trkpt lat="33.2734083" lon="35.7575257">
<ele>1313.800049</ele>
<time>2016-04-25T10:02:31.000Z</time>
</trkpt>
<trkpt lat="33.2733337" lon="35.7574407">
<ele>1311.000000</ele>
<time>2016-04-25T10:02:32.000Z</time>
</trkpt>
<trkpt lat="33.2732479" lon="35.7573724">
<ele>1309.000122</ele>
<time>2016-04-25T10:02:33.000Z</time>
</trkpt>
<trkpt lat="33.2731532" lon="35.7573243">
<ele>1307.600098</ele>
<time>2016-04-25T10:02:34.000Z</time>
</trkpt>
<trkpt lat="33.2730545" lon="35.7572958">
<ele>1306.800049</ele>
<time>2016-04-25T10:02:35.000Z</time>
</trkpt>
<trkpt lat="33.2729501" lon="35.7572812">
<ele>1306.599854</ele>
<time>2016-04-25T10:02:36.000Z</time>
</trkpt>
<trkpt lat="33.2728382" lon="35.7572708">
<ele>1306.599854</ele>
<time>2016-04-25T10:02:37.000Z</time>
</trkpt>
<trkpt lat="33.2727210" lon="35.7572598">
<ele>1306.400024</ele>
<time>2016-04-25T10:02:38.000Z</time>
</trkpt>
<trkpt lat="33.2726005" lon="35.7572475">
<ele>1306.199951</ele>
<time>2016-04-25T10:02:39.000Z</time>
</trkpt>
<trkpt lat="33.2724759" lon="35.7572334">
<ele>1304.799927</ele>
<time>2016-04-25T10:02:40.000Z</time>
</trkpt>
<trkpt lat="33.2723490" lon="35.7572139">
<ele>1303.399902</ele>
<time>2016-04-25T10:02:41.000Z</time>
</trkpt>
<trkpt lat="33.2722208" lon="35.7571940">
<ele>1301.999878</ele>
<time>2016-04-25T10:02:42.000Z</time>
</trkpt>
<trkpt lat="33.2720901" lon="35.7571727">
<ele>1300.400024</ele>
<time>2016-04-25T10:02:43.000Z</time>
</trkpt>
<trkpt lat="33.2719584" lon="35.7571505">
<ele>1298.799927</ele>
<time>2016-04-25T10:02:44.000Z</time>
</trkpt>
<trkpt lat="33.2718265" lon="35.7571284">
<ele>1297.199951</ele>
<time>2016-04-25T10:02:45.000Z</time>
</trkpt>
<trkpt lat="33.2716954" lon="35.7571026">
<ele>1297.399902</ele>
<time>2016-04-25T10:02:46.000Z</time>
</trkpt>
<trkpt lat="33.2715677" lon="35.7570688">
<ele>1296.800049</ele>
<time>2016-04-25T10:02:47.000Z</time>
</trkpt>
<trkpt lat="33.2714466" lon="35.7570262">
<ele>1295.999878</ele>
<time>2016-04-25T10:02:48.000Z</time>
</trkpt>
<trkpt lat="33.2713312" lon="35.7569721">
<ele>1294.800049</ele>
<time>2016-04-25T10:02:49.000Z</time>
</trkpt>
<trkpt lat="33.2712223" lon="35.7569083">
<ele>1293.400024</ele>
<time>2016-04-25T10:02:50.000Z</time>
</trkpt>
<trkpt lat="33.2711194" lon="35.7568409">
<ele>1292.000000</ele>
<time>2016-04-25T10:02:51.000Z</time>
</trkpt>
<trkpt lat="33.2710245" lon="35.7567720">
<ele>1290.400024</ele>
<time>2016-04-25T10:02:52.000Z</time>
</trkpt>
<trkpt lat="33.2709423" lon="35.7566988">
<ele>1289.000000</ele>
<time>2016-04-25T10:02:53.000Z</time>
</trkpt>
<trkpt lat="33.2708753" lon="35.7566148">
<ele>1288.000000</ele>
<time>2016-04-25T10:02:54.000Z</time>
</trkpt>
<trkpt lat="33.2708220" lon="35.7565176">
<ele>1286.599976</ele>
<time>2016-04-25T10:02:55.000Z</time>
</trkpt>
<trkpt lat="33.2707784" lon="35.7564094">
<ele>1284.599976</ele>
<time>2016-04-25T10:02:56.000Z</time>
</trkpt>
<trkpt lat="33.2707477" lon="35.7562939">
<ele>1284.000122</ele>
<time>2016-04-25T10:02:57.000Z</time>
</trkpt>
<trkpt lat="33.2707325" lon="35.7561731">
<ele>1283.800049</ele>
<time>2016-04-25T10:02:58.000Z</time>
</trkpt>
<trkpt lat="33.2707216" lon="35.7560498">
<ele>1282.400024</ele>
<time>2016-04-25T10:02:59.000Z</time>
</trkpt>
<trkpt lat="33.2707055" lon="35.7559258">
<ele>1280.599976</ele>
<time>2016-04-25T10:03:00.000Z</time>
</trkpt>
<trkpt lat="33.2706872" lon="35.7558012">
<ele>1278.800049</ele>
<time>2016-04-25T10:03:01.000Z</time>
</trkpt>
<trkpt lat="33.2706662" lon="35.7556764">
<ele>1277.199951</ele>
<time>2016-04-25T10:03:02.000Z</time>
</trkpt>
<trkpt lat="33.2706395" lon="35.7555526">
<ele>1275.800049</ele>
<time>2016-04-25T10:03:03.000Z</time>
</trkpt>
<trkpt lat="33.2706024" lon="35.7554309">
<ele>1273.599976</ele>
<time>2016-04-25T10:03:04.000Z</time>
</trkpt>
<trkpt lat="33.2705530" lon="35.7553132">
<ele>1272.000000</ele>
<time>2016-04-25T10:03:05.000Z</time>
</trkpt>
<trkpt lat="33.2704891" lon="35.7552013">
<ele>1270.800049</ele>
<time>2016-04-25T10:03:06.000Z</time>
</trkpt>
<trkpt lat="33.2704145" lon="35.7550951">
<ele>1270.000000</ele>
<time>2016-04-25T10:03:07.000Z</time>
</trkpt>
<trkpt lat="33.2703297" lon="35.7549973">
<ele>1270.000000</ele>
<time>2016-04-25T10:03:08.000Z</time>
</trkpt>
<trkpt lat="33.2702359" lon="35.7549066">
<ele>1270.199951</ele>
<time>2016-04-25T10:03:09.000Z</time>
</trkpt>
<trkpt lat="33.2701350" lon="35.7548228">
<ele>1270.999878</ele>
<time>2016-04-25T10:03:10.000Z</time>
</trkpt>
<trkpt lat="33.2700286" lon="35.7547466">
<ele>1268.599976</ele>
<time>2016-04-25T10:03:11.000Z</time>
</trkpt>
<trkpt lat="33.2699179" lon="35.7546785">
<ele>1266.000000</ele>
<time>2016-04-25T10:03:12.000Z</time>
</trkpt>
<trkpt lat="33.2698069" lon="35.7546256">
<ele>1263.800049</ele>
<time>2016-04-25T10:03:13.000Z</time>
</trkpt>
<trkpt lat="33.2696995" lon="35.7545969">
<ele>1262.400024</ele>
<time>2016-04-25T10:03:14.000Z</time>
</trkpt>
<trkpt lat="33.2695953" lon="35.7545918">
<ele>1261.800171</ele>
<time>2016-04-25T10:03:15.000Z</time>
</trkpt>
<trkpt lat="33.2694968" lon="35.7546115">
<ele>1262.000000</ele>
<time>2016-04-25T10:03:16.000Z</time>
</trkpt>
<trkpt lat="33.2694043" lon="35.7546502">
<ele>1262.599976</ele>
<time>2016-04-25T10:03:17.000Z</time>
</trkpt>
<trkpt lat="33.2693148" lon="35.7546938">
<ele>1263.600098</ele>
<time>2016-04-25T10:03:18.000Z</time>
</trkpt>
<trkpt lat="33.2692233" lon="35.7547287">
<ele>1263.400024</ele>
<time>2016-04-25T10:03:19.000Z</time>
</trkpt>
<trkpt lat="33.2690440" lon="35.7547506">
<ele>1261.800171</ele>
<time>2016-04-25T10:03:21.000Z</time>
</trkpt>
<trkpt lat="33.2688767" lon="35.7546970">
<ele>1259.199951</ele>
<time>2016-04-25T10:03:23.000Z</time>
</trkpt>
<trkpt lat="33.2687375" lon="35.7545578">
<ele>1254.799927</ele>
<time>2016-04-25T10:03:25.000Z</time>
</trkpt>
<trkpt lat="33.2686767" lon="35.7544692">
<ele>1252.400024</ele>
<time>2016-04-25T10:03:26.000Z</time>
</trkpt>
<trkpt lat="33.2686173" lon="35.7543781">
<ele>1250.000000</ele>
<time>2016-04-25T10:03:27.000Z</time>
</trkpt>
<trkpt lat="33.2685547" lon="35.7542960">
<ele>1247.599976</ele>
<time>2016-04-25T10:03:28.000Z</time>
</trkpt>
<trkpt lat="33.2684173" lon="35.7542000">
<ele>1244.599976</ele>
<time>2016-04-25T10:03:30.000Z</time>
</trkpt>
<trkpt lat="33.2682610" lon="35.7542200">
<ele>1244.800049</ele>
<time>2016-04-25T10:03:32.000Z</time>
</trkpt>
<trkpt lat="33.2681044" lon="35.7543260">
<ele>1246.800049</ele>
<time>2016-04-25T10:03:34.000Z</time>
</trkpt>
<trkpt lat="33.2680199" lon="35.7543850">
<ele>1245.800049</ele>
<time>2016-04-25T10:03:35.000Z</time>
</trkpt>
<trkpt lat="33.2679301" lon="35.7544420">
<ele>1244.400024</ele>
<time>2016-04-25T10:03:36.000Z</time>
</trkpt>
<trkpt lat="33.2678357" lon="35.7544961">
<ele>1243.000000</ele>
<time>2016-04-25T10:03:37.000Z</time>
</trkpt>
<trkpt lat="33.2677319" lon="35.7545543">
<ele>1241.400024</ele>
<time>2016-04-25T10:03:38.000Z</time>
</trkpt>
<trkpt lat="33.2676365" lon="35.7546067">
<ele>1239.800049</ele>
<time>2016-04-25T10:03:39.000Z</time>
</trkpt>
<trkpt lat="33.2675237" lon="35.7546647">
<ele>1238.599976</ele>
<time>2016-04-25T10:03:40.000Z</time>
</trkpt>
<trkpt lat="33.2674136" lon="35.7547138">
<ele>1237.000000</ele>
<time>2016-04-25T10:03:41.000Z</time>
</trkpt>
<trkpt lat="33.2673080" lon="35.7547564">
<ele>1235.400024</ele>
<time>2016-04-25T10:03:42.000Z</time>
</trkpt>
<trkpt lat="33.2671952" lon="35.7547983">
<ele>1233.800049</ele>
<time>2016-04-25T10:03:43.000Z</time>
</trkpt>
<trkpt lat="33.2670845" lon="35.7548396">
<ele>1232.400024</ele>
<time>2016-04-25T10:03:44.000Z</time>
</trkpt>
<trkpt lat="33.2669730" lon="35.7548756">
<ele>1230.800049</ele>
<time>2016-04-25T10:03:45.000Z</time>
</trkpt>
<trkpt lat="33.2668587" lon="35.7549078">
<ele>1229.599976</ele>
<time>2016-04-25T10:03:46.000Z</time>
</trkpt>
<trkpt lat="33.2667434" lon="35.7549346">
<ele>1228.599976</ele>
<time>2016-04-25T10:03:47.000Z</time>
</trkpt>
<trkpt lat="33.2666270" lon="35.7549562">
<ele>1227.800049</ele>
<time>2016-04-25T10:03:48.000Z</time>
</trkpt>
<trkpt lat="33.2665085" lon="35.7549673">
<ele>1226.800049</ele>
<time>2016-04-25T10:03:49.000Z</time>
</trkpt>
<trkpt lat="33.2663906" lon="35.7549740">
<ele>1225.800049</ele>
<time>2016-04-25T10:03:50.000Z</time>
</trkpt>
<trkpt lat="33.2662721" lon="35.7549779">
<ele>1225.000000</ele>
<time>2016-04-25T10:03:51.000Z</time>
</trkpt>
<trkpt lat="33.2661530" lon="35.7549757">
<ele>1223.400024</ele>
<time>2016-04-25T10:03:52.000Z</time>
</trkpt>
<trkpt lat="33.2660256" lon="35.7549683">
<ele>1221.400024</ele>
<time>2016-04-25T10:03:53.000Z</time>
</trkpt>
<trkpt lat="33.2659128" lon="35.7549625">
<ele>1219.199951</ele>
<time>2016-04-25T10:03:54.000Z</time>
</trkpt>
<trkpt lat="33.2657959" lon="35.7549589">
<ele>1216.400024</ele>
<time>2016-04-25T10:03:55.000Z</time>
</trkpt>
<trkpt lat="33.2656868" lon="35.7549589">
<ele>1213.800049</ele>
<time>2016-04-25T10:03:56.000Z</time>
</trkpt>
<trkpt lat="33.2655894" lon="35.7549652">
<ele>1211.400024</ele>
<time>2016-04-25T10:03:57.000Z</time>
</trkpt>
<trkpt lat="33.2654247" lon="35.7550190">
<ele>1207.199951</ele>
<time>2016-04-25T10:03:59.000Z</time>
</trkpt>
<trkpt lat="33.2653287" lon="35.7551306">
<ele>1203.199951</ele>
<time>2016-04-25T10:04:01.000Z</time>
</trkpt>
<trkpt lat="33.2653140" lon="35.7552965">
<ele>1201.199951</ele>
<time>2016-04-25T10:04:03.000Z</time>
</trkpt>
<trkpt lat="33.2653560" lon="35.7554954">
<ele>1200.599976</ele>
<time>2016-04-25T10:04:05.000Z</time>
</trkpt>
<trkpt lat="33.2653909" lon="35.7556048">
<ele>1200.599976</ele>
<time>2016-04-25T10:04:06.000Z</time>
</trkpt>
<trkpt lat="33.2654288" lon="35.7557187">
<ele>1200.599976</ele>
<time>2016-04-25T10:04:07.000Z</time>
</trkpt>
<trkpt lat="33.2654653" lon="35.7558433">
<ele>1200.199951</ele>
<time>2016-04-25T10:04:08.000Z</time>
</trkpt>
<trkpt lat="33.2654969" lon="35.7559769">
<ele>1200.000000</ele>
<time>2016-04-25T10:04:09.000Z</time>
</trkpt>
<trkpt lat="33.2655190" lon="35.7561185">
<ele>1199.199951</ele>
<time>2016-04-25T10:04:10.000Z</time>
</trkpt>
<trkpt lat="33.2655274" lon="35.7562670">
<ele>1198.000000</ele>
<time>2016-04-25T10:04:11.000Z</time>
</trkpt>
<trkpt lat="33.2655278" lon="35.7564177">
<ele>1196.400024</ele>
<time>2016-04-25T10:04:12.000Z</time>
</trkpt>
<trkpt lat="33.2655266" lon="35.7565683">
<ele>1193.800049</ele>
<time>2016-04-25T10:04:13.000Z</time>
</trkpt>
<trkpt lat="33.2655300" lon="35.7567134">
<ele>1191.400024</ele>
<time>2016-04-25T10:04:14.000Z</time>
</trkpt>
<trkpt lat="33.2655412" lon="35.7568505">
<ele>1189.599976</ele>
<time>2016-04-25T10:04:15.000Z</time>
</trkpt>
<trkpt lat="33.2655639" lon="35.7569764">
<ele>1188.199951</ele>
<time>2016-04-25T10:04:16.000Z</time>
</trkpt>
<trkpt lat="33.2656008" lon="35.7570920">
<ele>1187.400024</ele>
<time>2016-04-25T10:04:17.000Z</time>
</trkpt>
<trkpt lat="33.2656507" lon="35.7571978">
<ele>1187.199951</ele>
<time>2016-04-25T10:04:18.000Z</time>
</trkpt>
<trkpt lat="33.2657058" lon="35.7573042">
<ele>1187.199951</ele>
<time>2016-04-25T10:04:19.000Z</time>
</trkpt>
<trkpt lat="33.2657591" lon="35.7574144">
<ele>1187.199951</ele>
<time>2016-04-25T10:04:20.000Z</time>
</trkpt>
<trkpt lat="33.2658062" lon="35.7575314">
<ele>1187.000000</ele>
<time>2016-04-25T10:04:21.000Z</time>
</trkpt>
<trkpt lat="33.2658462" lon="35.7576556">
<ele>1186.199951</ele>
<time>2016-04-25T10:04:22.000Z</time>
</trkpt>
<trkpt lat="33.2658792" lon="35.7577852">
<ele>1185.400024</ele>
<time>2016-04-25T10:04:23.000Z</time>
</trkpt>
<trkpt lat="33.2659093" lon="35.7579195">
<ele>1184.199951</ele>
<time>2016-04-25T10:04:24.000Z</time>
</trkpt>
<trkpt lat="33.2659384" lon="35.7580566">
<ele>1183.199951</ele>
<time>2016-04-25T10:04:25.000Z</time>
</trkpt>
<trkpt lat="33.2659678" lon="35.7581956">
<ele>1182.400024</ele>
<time>2016-04-25T10:04:26.000Z</time>
</trkpt>
<trkpt lat="33.2659978" lon="35.7583285">
<ele>1181.599976</ele>
<time>2016-04-25T10:04:27.000Z</time>
</trkpt>
<trkpt lat="33.2660287" lon="35.7584519">
<ele>1181.000000</ele>
<time>2016-04-25T10:04:28.000Z</time>
</trkpt>
<trkpt lat="33.2660625" lon="35.7585655">
<ele>1180.599976</ele>
<time>2016-04-25T10:04:29.000Z</time>
</trkpt>
<trkpt lat="33.2660981" lon="35.7586718">
<ele>1180.400024</ele>
<time>2016-04-25T10:04:30.000Z</time>
</trkpt>
<trkpt lat="33.2661325" lon="35.7587784">
<ele>1180.199951</ele>
<time>2016-04-25T10:04:31.000Z</time>
</trkpt>
<trkpt lat="33.2661668" lon="35.7588885">
<ele>1179.800049</ele>
<time>2016-04-25T10:04:32.000Z</time>
</trkpt>
<trkpt lat="33.2661990" lon="35.7589998">
<ele>1179.599976</ele>
<time>2016-04-25T10:04:33.000Z</time>
</trkpt>
<trkpt lat="33.2662273" lon="35.7591105">
<ele>1179.199951</ele>
<time>2016-04-25T10:04:34.000Z</time>
</trkpt>
<trkpt lat="33.2662540" lon="35.7592213">
<ele>1178.599976</ele>
<time>2016-04-25T10:04:35.000Z</time>
</trkpt>
<trkpt lat="33.2662814" lon="35.7593289">
<ele>1178.000000</ele>
<time>2016-04-25T10:04:36.000Z</time>
</trkpt>
<trkpt lat="33.2663055" lon="35.7594392">
<ele>1177.400024</ele>
<time>2016-04-25T10:04:37.000Z</time>
</trkpt>
<trkpt lat="33.2663166" lon="35.7595508">
<ele>1176.199951</ele>
<time>2016-04-25T10:04:38.000Z</time>
</trkpt>
<trkpt lat="33.2663129" lon="35.7596635">
<ele>1174.599976</ele>
<time>2016-04-25T10:04:39.000Z</time>
</trkpt>
<trkpt lat="33.2662970" lon="35.7597777">
<ele>1172.800049</ele>
<time>2016-04-25T10:04:40.000Z</time>
</trkpt>
<trkpt lat="33.2662689" lon="35.7598951">
<ele>1170.800049</ele>
<time>2016-04-25T10:04:41.000Z</time>
</trkpt>
<trkpt lat="33.2662307" lon="35.7600082">
<ele>1168.599976</ele>
<time>2016-04-25T10:04:42.000Z</time>
</trkpt>
<trkpt lat="33.2661953" lon="35.7601184">
<ele>1166.599976</ele>
<time>2016-04-25T10:04:43.000Z</time>
</trkpt>
<trkpt lat="33.2661665" lon="35.7602282">
<ele>1164.800049</ele>
<time>2016-04-25T10:04:44.000Z</time>
</trkpt>
<trkpt lat="33.2661452" lon="35.7603380">
<ele>1163.199951</ele>
<time>2016-04-25T10:04:45.000Z</time>
</trkpt>
<trkpt lat="33.2661337" lon="35.7604462">
<ele>1162.000000</ele>
<time>2016-04-25T10:04:46.000Z</time>
</trkpt>
<trkpt lat="33.2661354" lon="35.7605564">
<ele>1161.000000</ele>
<time>2016-04-25T10:04:47.000Z</time>
</trkpt>
<trkpt lat="33.2661540" lon="35.7606642">
<ele>1160.000000</ele>
<time>2016-04-25T10:04:48.000Z</time>
</trkpt>
<trkpt lat="33.2661902" lon="35.7607700">
<ele>1159.400024</ele>
<time>2016-04-25T10:04:49.000Z</time>
</trkpt>
<trkpt lat="33.2662388" lon="35.7608764">
<ele>1159.199951</ele>
<time>2016-04-25T10:04:50.000Z</time>
</trkpt>
<trkpt lat="33.2662920" lon="35.7609823">
<ele>1159.199951</ele>
<time>2016-04-25T10:04:51.000Z</time>
</trkpt>
<trkpt lat="33.2663460" lon="35.7610915">
<ele>1159.199951</ele>
<time>2016-04-25T10:04:52.000Z</time>
</trkpt>
<trkpt lat="33.2663980" lon="35.7612000">
<ele>1159.199951</ele>
<time>2016-04-25T10:04:53.000Z</time>
</trkpt>
<trkpt lat="33.2664473" lon="35.7613088">
<ele>1159.000000</ele>
<time>2016-04-25T10:04:54.000Z</time>
</trkpt>
<trkpt lat="33.2664898" lon="35.7614185">
<ele>1158.800049</ele>
<time>2016-04-25T10:04:55.000Z</time>
</trkpt>
<trkpt lat="33.2665190" lon="35.7615341">
<ele>1158.199951</ele>
<time>2016-04-25T10:04:56.000Z</time>
</trkpt>
<trkpt lat="33.2665363" lon="35.7616534">
<ele>1157.199951</ele>
<time>2016-04-25T10:04:57.000Z</time>
</trkpt>
<trkpt lat="33.2665466" lon="35.7617772">
<ele>1156.000000</ele>
<time>2016-04-25T10:04:58.000Z</time>
</trkpt>
<trkpt lat="33.2665526" lon="35.7619062">
<ele>1154.599976</ele>
<time>2016-04-25T10:04:59.000Z</time>
</trkpt>
<trkpt lat="33.2665561" lon="35.7620334">
<ele>1153.800049</ele>
<time>2016-04-25T10:05:00.000Z</time>
</trkpt>
<trkpt lat="33.2665605" lon="35.7621550">
<ele>1153.199951</ele>
<time>2016-04-25T10:05:01.000Z</time>
</trkpt>
<trkpt lat="33.2665695" lon="35.7622704">
<ele>1152.800049</ele>
<time>2016-04-25T10:05:02.000Z</time>
</trkpt>
<trkpt lat="33.2666109" lon="35.7624632">
<ele>1152.599976</ele>
<time>2016-04-25T10:05:04.000Z</time>
</trkpt>
<trkpt lat="33.2666882" lon="35.7626400">
<ele>1153.199951</ele>
<time>2016-04-25T10:05:06.000Z</time>
</trkpt>
<trkpt lat="33.2667870" lon="35.7627984">
<ele>1154.400024</ele>
<time>2016-04-25T10:05:08.000Z</time>
</trkpt>
<trkpt lat="33.2668658" lon="35.7629526">
<ele>1155.000000</ele>
<time>2016-04-25T10:05:10.000Z</time>
</trkpt>
<trkpt lat="33.2668749" lon="35.7630922">
<ele>1154.599976</ele>
<time>2016-04-25T10:05:12.000Z</time>
</trkpt>
<trkpt lat="33.2668110" lon="35.7631970">
<ele>1152.800049</ele>
<time>2016-04-25T10:05:14.000Z</time>
</trkpt>
<trkpt lat="33.2666964" lon="35.7632326">
<ele>1150.800049</ele>
<time>2016-04-25T10:05:16.000Z</time>
</trkpt>
<trkpt lat="33.2665659" lon="35.7631958">
<ele>1148.800049</ele>
<time>2016-04-25T10:05:18.000Z</time>
</trkpt>
<trkpt lat="33.2664294" lon="35.7631238">
<ele>1147.000000</ele>
<time>2016-04-25T10:05:20.000Z</time>
</trkpt>
<trkpt lat="33.2662774" lon="35.7630538">
<ele>1145.000000</ele>
<time>2016-04-25T10:05:22.000Z</time>
</trkpt>
<trkpt lat="33.2661175" lon="35.7629972">
<ele>1142.400024</ele>
<time>2016-04-25T10:05:24.000Z</time>
</trkpt>
<trkpt lat="33.2659612" lon="35.7629380">
<ele>1140.000000</ele>
<time>2016-04-25T10:05:26.000Z</time>
</trkpt>
<trkpt lat="33.2658034" lon="35.7628710">
<ele>1139.199951</ele>
<time>2016-04-25T10:05:28.000Z</time>
</trkpt>
<trkpt lat="33.2656611" lon="35.7628006">
<ele>1138.000000</ele>
<time>2016-04-25T10:05:30.000Z</time>
</trkpt>
<trkpt lat="33.2655190" lon="35.7627169">
<ele>1137.000000</ele>
<time>2016-04-25T10:05:32.000Z</time>
</trkpt>
<trkpt lat="33.2653988" lon="35.7626061">
<ele>1136.199951</ele>
<time>2016-04-25T10:05:34.000Z</time>
</trkpt>
<trkpt lat="33.2653114" lon="35.7624641">
<ele>1136.199951</ele>
<time>2016-04-25T10:05:36.000Z</time>
</trkpt>
<trkpt lat="33.2652472" lon="35.7623116">
<ele>1136.599976</ele>
<time>2016-04-25T10:05:38.000Z</time>
</trkpt>
<trkpt lat="33.2652001" lon="35.7621692">
<ele>1136.199951</ele>
<time>2016-04-25T10:05:40.000Z</time>
</trkpt>
<trkpt lat="33.2651464" lon="35.7620432">
<ele>1135.199951</ele>
<time>2016-04-25T10:05:42.000Z</time>
</trkpt>
<trkpt lat="33.2650874" lon="35.7619393">
<ele>1134.199951</ele>
<time>2016-04-25T10:05:44.000Z</time>
</trkpt>
<trkpt lat="33.2650126" lon="35.7618439">
<ele>1132.599976</ele>
<time>2016-04-25T10:05:47.000Z</time>
</trkpt>
<trkpt lat="33.2649248" lon="35.7617604">
<ele>1131.000000</ele>
<time>2016-04-25T10:05:51.000Z</time>
</trkpt>
<trkpt lat="33.2648379" lon="35.7617414">
<ele>1129.599976</ele>
<time>2016-04-25T10:05:55.000Z</time>
</trkpt>
<trkpt lat="33.2647385" lon="35.7617859">
<ele>1128.400024</ele>
<time>2016-04-25T10:06:56.000Z</time>
</trkpt>
<trkpt lat="33.2646533" lon="35.7618267">
<ele>1126.800049</ele>
<time>2016-04-25T10:06:59.000Z</time>
</trkpt>
<trkpt lat="33.2645377" lon="35.7618790">
<ele>1124.400024</ele>
<time>2016-04-25T10:07:02.000Z</time>
</trkpt>
<trkpt lat="33.2644462" lon="35.7619396">
<ele>1122.400024</ele>
<time>2016-04-25T10:07:04.000Z</time>
</trkpt>
<trkpt lat="33.2643555" lon="35.7620469">
<ele>1120.400024</ele>
<time>2016-04-25T10:07:06.000Z</time>
</trkpt>
<trkpt lat="33.2642837" lon="35.7621775">
<ele>1118.800049</ele>
<time>2016-04-25T10:07:08.000Z</time>
</trkpt>
<trkpt lat="33.2642453" lon="35.7623119">
<ele>1117.400024</ele>
<time>2016-04-25T10:07:10.000Z</time>
</trkpt>
<trkpt lat="33.2642550" lon="35.7624540">
<ele>1116.800049</ele>
<time>2016-04-25T10:07:12.000Z</time>
</trkpt>
<trkpt lat="33.2643008" lon="35.7625979">
<ele>1117.199951</ele>
<time>2016-04-25T10:07:14.000Z</time>
</trkpt>
<trkpt lat="33.2643602" lon="35.7627147">
<ele>1117.599976</ele>
<time>2016-04-25T10:07:16.000Z</time>
</trkpt>
<trkpt lat="33.2644182" lon="35.7628156">
<ele>1118.199951</ele>
<time>2016-04-25T10:07:18.000Z</time>
</trkpt>
<trkpt lat="33.2644849" lon="35.7629261">
<ele>1118.800049</ele>
<time>2016-04-25T10:07:20.000Z</time>
</trkpt>
<trkpt lat="33.2645518" lon="35.7630464">
<ele>1119.400024</ele>
<time>2016-04-25T10:07:22.000Z</time>
</trkpt>
<trkpt lat="33.2646187" lon="35.7631719">
<ele>1119.599976</ele>
<time>2016-04-25T10:07:24.000Z</time>
</trkpt>
<trkpt lat="33.2646839" lon="35.7632977">
<ele>1119.800049</ele>
<time>2016-04-25T10:07:26.000Z</time>
</trkpt>
<trkpt lat="33.2647488" lon="35.7634290">
<ele>1119.800049</ele>
<time>2016-04-25T10:07:28.000Z</time>
</trkpt>
<trkpt lat="33.2648067" lon="35.7635379">
<ele>1120.000000</ele>
<time>2016-04-25T10:07:30.000Z</time>
</trkpt>
<trkpt lat="33.2648647" lon="35.7636632">
<ele>1120.599976</ele>
<time>2016-04-25T10:07:33.000Z</time>
</trkpt>
<trkpt lat="33.2648980" lon="35.7637814">
<ele>1121.199951</ele>
<time>2016-04-25T10:07:36.000Z</time>
</trkpt>
<trkpt lat="33.2648482" lon="35.7638897">
<ele>1121.000000</ele>
<time>2016-04-25T10:07:39.000Z</time>
</trkpt>
<trkpt lat="33.2647389" lon="35.7638862">
<ele>1120.199951</ele>
<time>2016-04-25T10:07:42.000Z</time>
</trkpt>
<trkpt lat="33.2646226" lon="35.7637753">
<ele>1119.199951</ele>
<time>2016-04-25T10:07:45.000Z</time>
</trkpt>
<trkpt lat="33.2645521" lon="35.7636706">
<ele>1118.400024</ele>
<time>2016-04-25T10:07:47.000Z</time>
</trkpt>
<trkpt lat="33.2644806" lon="35.7635517">
<ele>1117.599976</ele>
<time>2016-04-25T10:07:49.000Z</time>
</trkpt>
<trkpt lat="33.2643928" lon="35.7634260">
<ele>1116.599976</ele>
<time>2016-04-25T10:07:51.000Z</time>
</trkpt>
<trkpt lat="33.2642952" lon="35.7632964">
<ele>1115.599976</ele>
<time>2016-04-25T10:07:53.000Z</time>
</trkpt>
<trkpt lat="33.2641894" lon="35.7631688">
<ele>1114.400024</ele>
<time>2016-04-25T10:07:55.000Z</time>
</trkpt>
<trkpt lat="33.2640762" lon="35.7630425">
<ele>1113.199951</ele>
<time>2016-04-25T10:07:57.000Z</time>
</trkpt>
<trkpt lat="33.2639643" lon="35.7629087">
<ele>1110.800049</ele>
<time>2016-04-25T10:07:59.000Z</time>
</trkpt>
<trkpt lat="33.2638486" lon="35.7627626">
<ele>1108.199951</ele>
<time>2016-04-25T10:08:01.000Z</time>
</trkpt>
<trkpt lat="33.2637310" lon="35.7625936">
<ele>1105.400024</ele>
<time>2016-04-25T10:08:03.000Z</time>
</trkpt>
<trkpt lat="33.2636724" lon="35.7625012">
<ele>1104.000000</ele>
<time>2016-04-25T10:08:04.000Z</time>
</trkpt>
<trkpt lat="33.2636125" lon="35.7624035">
<ele>1102.400024</ele>
<time>2016-04-25T10:08:05.000Z</time>
</trkpt>
<trkpt lat="33.2635519" lon="35.7623007">
<ele>1100.800049</ele>
<time>2016-04-25T10:08:06.000Z</time>
</trkpt>
<trkpt lat="33.2634932" lon="35.7621929">
<ele>1099.800049</ele>
<time>2016-04-25T10:08:07.000Z</time>
</trkpt>
<trkpt lat="33.2634346" lon="35.7620801">
<ele>1098.199951</ele>
<time>2016-04-25T10:08:08.000Z</time>
</trkpt>
<trkpt lat="33.2633751" lon="35.7619630">
<ele>1097.000000</ele>
<time>2016-04-25T10:08:09.000Z</time>
</trkpt>
<trkpt lat="33.2633156" lon="35.7618464">
<ele>1095.800049</ele>
<time>2016-04-25T10:08:10.000Z</time>
</trkpt>
<trkpt lat="33.2632548" lon="35.7617304">
<ele>1094.599976</ele>
<time>2016-04-25T10:08:11.000Z</time>
</trkpt>
<trkpt lat="33.2631946" lon="35.7616149">
<ele>1093.400024</ele>
<time>2016-04-25T10:08:12.000Z</time>
</trkpt>
<trkpt lat="33.2631336" lon="35.7615008">
<ele>1092.199951</ele>
<time>2016-04-25T10:08:13.000Z</time>
</trkpt>
<trkpt lat="33.2630709" lon="35.7613833">
<ele>1090.800049</ele>
<time>2016-04-25T10:08:14.000Z</time>
</trkpt>
<trkpt lat="33.2630050" lon="35.7612647">
<ele>1089.000000</ele>
<time>2016-04-25T10:08:15.000Z</time>
</trkpt>
<trkpt lat="33.2629367" lon="35.7611412">
<ele>1086.800049</ele>
<time>2016-04-25T10:08:16.000Z</time>
</trkpt>
<trkpt lat="33.2628668" lon="35.7610115">
<ele>1084.599976</ele>
<time>2016-04-25T10:08:17.000Z</time>
</trkpt>
<trkpt lat="33.2627962" lon="35.7608782">
<ele>1082.400024</ele>
<time>2016-04-25T10:08:18.000Z</time>
</trkpt>
<trkpt lat="33.2627290" lon="35.7607383">
<ele>1080.199951</ele>
<time>2016-04-25T10:08:19.000Z</time>
</trkpt>
<trkpt lat="33.2626665" lon="35.7605965">
<ele>1078.000000</ele>
<time>2016-04-25T10:08:20.000Z</time>
</trkpt>
<trkpt lat="33.2626082" lon="35.7604572">
<ele>1076.800049</ele>
<time>2016-04-25T10:08:21.000Z</time>
</trkpt>
<trkpt lat="33.2625523" lon="35.7603219">
<ele>1076.199951</ele>
<time>2016-04-25T10:08:22.000Z</time>
</trkpt>
<trkpt lat="33.2624964" lon="35.7601940">
<ele>1075.800049</ele>
<time>2016-04-25T10:08:23.000Z</time>
</trkpt>
<trkpt lat="33.2624373" lon="35.7600761">
<ele>1075.400024</ele>
<time>2016-04-25T10:08:24.000Z</time>
</trkpt>
<trkpt lat="33.2623748" lon="35.7599709">
<ele>1074.800049</ele>
<time>2016-04-25T10:08:25.000Z</time>
</trkpt>
<trkpt lat="33.2623089" lon="35.7598765">
<ele>1074.199951</ele>
<time>2016-04-25T10:08:26.000Z</time>
</trkpt>
<trkpt lat="33.2622405" lon="35.7597899">
<ele>1073.800049</ele>
<time>2016-04-25T10:08:27.000Z</time>
</trkpt>
<trkpt lat="33.2621701" lon="35.7597098">
<ele>1073.199951</ele>
<time>2016-04-25T10:08:28.000Z</time>
</trkpt>
<trkpt lat="33.2621008" lon="35.7596367">
<ele>1072.199951</ele>
<time>2016-04-25T10:08:29.000Z</time>
</trkpt>
<trkpt lat="33.2619709" lon="35.7594989">
<ele>1070.199951</ele>
<time>2016-04-25T10:08:31.000Z</time>
</trkpt>
<trkpt lat="33.2618484" lon="35.7593682">
<ele>1068.400024</ele>
<time>2016-04-25T10:08:33.000Z</time>
</trkpt>
<trkpt lat="33.2617288" lon="35.7592424">
<ele>1067.400024</ele>
<time>2016-04-25T10:08:35.000Z</time>
</trkpt>
<trkpt lat="33.2616131" lon="35.7591166">
<ele>1066.800049</ele>
<time>2016-04-25T10:08:37.000Z</time>
</trkpt>
<trkpt lat="33.2614896" lon="35.7589900">
<ele>1066.400024</ele>
<time>2016-04-25T10:08:39.000Z</time>
</trkpt>
<trkpt lat="33.2613500" lon="35.7588730">
<ele>1066.000000</ele>
<time>2016-04-25T10:08:41.000Z</time>
</trkpt>
<trkpt lat="33.2611967" lon="35.7587532">
<ele>1064.800049</ele>
<time>2016-04-25T10:08:43.000Z</time>
</trkpt>
<trkpt lat="33.2611117" lon="35.7586954">
<ele>1064.199951</ele>
<time>2016-04-25T10:08:44.000Z</time>
</trkpt>
<trkpt lat="33.2610246" lon="35.7586379">
<ele>1063.599976</ele>
<time>2016-04-25T10:08:45.000Z</time>
</trkpt>
<trkpt lat="33.2609344" lon="35.7585730">
<ele>1062.800049</ele>
<time>2016-04-25T10:08:46.000Z</time>
</trkpt>
<trkpt lat="33.2608453" lon="35.7585031">
<ele>1061.599976</ele>
<time>2016-04-25T10:08:47.000Z</time>
</trkpt>
<trkpt lat="33.2607605" lon="35.7584317">
<ele>1060.199951</ele>
<time>2016-04-25T10:08:48.000Z</time>
</trkpt>
<trkpt lat="33.2606789" lon="35.7583594">
<ele>1059.000000</ele>
<time>2016-04-25T10:08:49.000Z</time>
</trkpt>
<trkpt lat="33.2605998" lon="35.7582898">
<ele>1057.800049</ele>
<time>2016-04-25T10:08:50.000Z</time>
</trkpt>
<trkpt lat="33.2605220" lon="35.7582226">
<ele>1056.400024</ele>
<time>2016-04-25T10:08:51.000Z</time>
</trkpt>
<trkpt lat="33.2604446" lon="35.7581543">
<ele>1055.199951</ele>
<time>2016-04-25T10:08:52.000Z</time>
</trkpt>
<trkpt lat="33.2603649" lon="35.7580898">
<ele>1054.000000</ele>
<time>2016-04-25T10:08:53.000Z</time>
</trkpt>
<trkpt lat="33.2602786" lon="35.7580325">
<ele>1053.000000</ele>
<time>2016-04-25T10:08:54.000Z</time>
</trkpt>
<trkpt lat="33.2601155" lon="35.7579683">
<ele>1051.199951</ele>
<time>2016-04-25T10:08:56.000Z</time>
</trkpt>
<trkpt lat="33.2599376" lon="35.7579349">
<ele>1048.199951</ele>
<time>2016-04-25T10:08:58.000Z</time>
</trkpt>
<trkpt lat="33.2597668" lon="35.7579168">
<ele>1045.199951</ele>
<time>2016-04-25T10:09:00.000Z</time>
</trkpt>
<trkpt lat="33.2596005" lon="35.7579194">
<ele>1042.800049</ele>
<time>2016-04-25T10:09:02.000Z</time>
</trkpt>
<trkpt lat="33.2594385" lon="35.7579419">
<ele>1040.599976</ele>
<time>2016-04-25T10:09:04.000Z</time>
</trkpt>
<trkpt lat="33.2592785" lon="35.7579909">
<ele>1039.000000</ele>
<time>2016-04-25T10:09:06.000Z</time>
</trkpt>
<trkpt lat="33.2591304" lon="35.7580450">
<ele>1039.000000</ele>
<time>2016-04-25T10:09:08.000Z</time>
</trkpt>
<trkpt lat="33.2589844" lon="35.7580793">
<ele>1039.400024</ele>
<time>2016-04-25T10:09:10.000Z</time>
</trkpt>
<trkpt lat="33.2588291" lon="35.7581036">
<ele>1039.199951</ele>
<time>2016-04-25T10:09:12.000Z</time>
</trkpt>
<trkpt lat="33.2587004" lon="35.7581494">
<ele>1039.800049</ele>
<time>2016-04-25T10:09:14.000Z</time>
</trkpt>
<trkpt lat="33.2585778" lon="35.7582031">
<ele>1040.599976</ele>
<time>2016-04-25T10:09:16.000Z</time>
</trkpt>
<trkpt lat="33.2584604" lon="35.7582454">
<ele>1040.599976</ele>
<time>2016-04-25T10:09:18.000Z</time>
</trkpt>
<trkpt lat="33.2583516" lon="35.7582780">
<ele>1041.199951</ele>
<time>2016-04-25T10:09:20.000Z</time>
</trkpt>
<trkpt lat="33.2582512" lon="35.7583013">
<ele>1041.599976</ele>
<time>2016-04-25T10:09:22.000Z</time>
</trkpt>
<trkpt lat="33.2581637" lon="35.7583361">
<ele>1042.400024</ele>
<time>2016-04-25T10:09:24.000Z</time>
</trkpt>
<trkpt lat="33.2580513" lon="35.7583920">
<ele>1043.599976</ele>
<time>2016-04-25T10:09:27.000Z</time>
</trkpt>
<trkpt lat="33.2579570" lon="35.7584461">
<ele>1044.800049</ele>
<time>2016-04-25T10:09:30.000Z</time>
</trkpt>
<trkpt lat="33.2578685" lon="35.7585051">
<ele>1046.000000</ele>
<time>2016-04-25T10:09:33.000Z</time>
</trkpt>
<trkpt lat="33.2577804" lon="35.7585610">
<ele>1047.199951</ele>
<time>2016-04-25T10:09:36.000Z</time>
</trkpt>
<trkpt lat="33.2576939" lon="35.7585991">
<ele>1048.000000</ele>
<time>2016-04-25T10:09:39.000Z</time>
</trkpt>
<trkpt lat="33.2575872" lon="35.7586264">
<ele>1048.599976</ele>
<time>2016-04-25T10:09:43.000Z</time>
</trkpt>
<trkpt lat="33.2574914" lon="35.7586368">
<ele>1049.599976</ele>
<time>2016-04-25T10:09:47.000Z</time>
</trkpt>
<trkpt lat="33.2573976" lon="35.7586315">
<ele>1050.199951</ele>
<time>2016-04-25T10:09:51.000Z</time>
</trkpt>
<trkpt lat="33.2573013" lon="35.7586176">
<ele>1050.199951</ele>
<time>2016-04-25T10:09:55.000Z</time>
</trkpt>
<trkpt lat="33.2572144" lon="35.7585990">
<ele>1049.800049</ele>
<time>2016-04-25T10:09:59.000Z</time>
</trkpt>
<trkpt lat="33.2571070" lon="35.7585673">
<ele>1049.400024</ele>
<time>2016-04-25T10:10:04.000Z</time>
</trkpt>
<trkpt lat="33.2569987" lon="35.7585436">
<ele>1049.000000</ele>
<time>2016-04-25T10:10:09.000Z</time>
</trkpt>
<trkpt lat="33.2569065" lon="35.7585156">
<ele>1048.599976</ele>
<time>2016-04-25T10:10:13.000Z</time>
</trkpt>
<trkpt lat="33.2568113" lon="35.7584902">
<ele>1048.000000</ele>
<time>2016-04-25T10:10:17.000Z</time>
</trkpt>
<trkpt lat="33.2567131" lon="35.7584736">
<ele>1048.400024</ele>
<time>2016-04-25T10:10:21.000Z</time>
</trkpt>
<trkpt lat="33.2566115" lon="35.7584556">
<ele>1048.800049</ele>
<time>2016-04-25T10:10:25.000Z</time>
</trkpt>
<trkpt lat="33.2565118" lon="35.7584383">
<ele>1049.000000</ele>
<time>2016-04-25T10:10:29.000Z</time>
</trkpt>
<trkpt lat="33.2564124" lon="35.7584303">
<ele>1049.599976</ele>
<time>2016-04-25T10:10:33.000Z</time>
</trkpt>
<trkpt lat="33.2563144" lon="35.7584190">
<ele>1050.599976</ele>
<time>2016-04-25T10:10:37.000Z</time>
</trkpt>
<trkpt lat="33.2562192" lon="35.7584119">
<ele>1052.800049</ele>
<time>2016-04-25T10:10:41.000Z</time>
</trkpt>
<trkpt lat="33.2561138" lon="35.7584067">
<ele>1055.400024</ele>
<time>2016-04-25T10:10:45.000Z</time>
</trkpt>
<trkpt lat="33.2560011" lon="35.7584016">
<ele>1058.000000</ele>
<time>2016-04-25T10:10:49.000Z</time>
</trkpt>
<trkpt lat="33.2558888" lon="35.7583949">
<ele>1060.599976</ele>
<time>2016-04-25T10:10:53.000Z</time>
</trkpt>
<trkpt lat="33.2557756" lon="35.7583797">
<ele>1062.800049</ele>
<time>2016-04-25T10:10:57.000Z</time>
</trkpt>
<trkpt lat="33.2556726" lon="35.7583530">
<ele>1064.199951</ele>
<time>2016-04-25T10:11:01.000Z</time>
</trkpt>
<trkpt lat="33.2555694" lon="35.7583096">
<ele>1065.000000</ele>
<time>2016-04-25T10:11:05.000Z</time>
</trkpt>
<trkpt lat="33.2554613" lon="35.7582449">
<ele>1065.000000</ele>
<time>2016-04-25T10:11:09.000Z</time>
</trkpt>
<trkpt lat="33.2553829" lon="35.7581916">
<ele>1064.800049</ele>
<time>2016-04-25T10:11:12.000Z</time>
</trkpt>
<trkpt lat="33.2552898" lon="35.7581119">
<ele>1063.800049</ele>
<time>2016-04-25T10:11:16.000Z</time>
</trkpt>
<trkpt lat="33.2552237" lon="35.7580384">
<ele>1062.400024</ele>
<time>2016-04-25T10:11:19.000Z</time>
</trkpt>
<trkpt lat="33.2551423" lon="35.7579376">
<ele>1061.000000</ele>
<time>2016-04-25T10:11:23.000Z</time>
</trkpt>
<trkpt lat="33.2550803" lon="35.7578531">
<ele>1059.400024</ele>
<time>2016-04-25T10:11:26.000Z</time>
</trkpt>
<trkpt lat="33.2550124" lon="35.7577692">
<ele>1057.599976</ele>
<time>2016-04-25T10:11:29.000Z</time>
</trkpt>
<trkpt lat="33.2549411" lon="35.7576830">
<ele>1055.800049</ele>
<time>2016-04-25T10:11:32.000Z</time>
</trkpt>
<trkpt lat="33.2548622" lon="35.7575956">
<ele>1054.000000</ele>
<time>2016-04-25T10:11:35.000Z</time>
</trkpt>
<trkpt lat="33.2547597" lon="35.7575230">
<ele>1053.199951</ele>
<time>2016-04-25T10:11:38.000Z</time>
</trkpt>
<trkpt lat="33.2546411" lon="35.7574667">
<ele>1053.199951</ele>
<time>2016-04-25T10:11:41.000Z</time>
</trkpt>
<trkpt lat="33.2545125" lon="35.7574419">
<ele>1054.199951</ele>
<time>2016-04-25T10:11:44.000Z</time>
</trkpt>
<trkpt lat="33.2544240" lon="35.7574418">
<ele>1054.000000</ele>
<time>2016-04-25T10:11:46.000Z</time>
</trkpt>
<trkpt lat="33.2543350" lon="35.7574474">
<ele>1053.800049</ele>
<time>2016-04-25T10:11:48.000Z</time>
</trkpt>
<trkpt lat="33.2542385" lon="35.7574521">
<ele>1054.000000</ele>
<time>2016-04-25T10:11:50.000Z</time>
</trkpt>
<trkpt lat="33.2541383" lon="35.7574548">
<ele>1054.400024</ele>
<time>2016-04-25T10:11:52.000Z</time>
</trkpt>
<trkpt lat="33.2540365" lon="35.7574558">
<ele>1054.800049</ele>
<time>2016-04-25T10:11:54.000Z</time>
</trkpt>
<trkpt lat="33.2539405" lon="35.7574607">
<ele>1055.199951</ele>
<time>2016-04-25T10:11:56.000Z</time>
</trkpt>
<trkpt lat="33.2538166" lon="35.7574691">
<ele>1055.800049</ele>
<time>2016-04-25T10:11:59.000Z</time>
</trkpt>
<trkpt lat="33.2537180" lon="35.7574796">
<ele>1056.199951</ele>
<time>2016-04-25T10:12:02.000Z</time>
</trkpt>
<trkpt lat="33.2536140" lon="35.7574937">
<ele>1056.000000</ele>
<time>2016-04-25T10:12:07.000Z</time>
</trkpt>
<trkpt lat="33.2535145" lon="35.7575385">
<ele>1056.199951</ele>
<time>2016-04-25T10:12:13.000Z</time>
</trkpt>
<trkpt lat="33.2534281" lon="35.7575996">
<ele>1056.400024</ele>
<time>2016-04-25T10:12:18.000Z</time>
</trkpt>
<trkpt lat="33.2533540" lon="35.7576949">
<ele>1056.800049</ele>
<time>2016-04-25T10:12:23.000Z</time>
</trkpt>
<trkpt lat="33.2532965" lon="35.7577899">
<ele>1057.199951</ele>
<time>2016-04-25T10:12:27.000Z</time>
</trkpt>
<trkpt lat="33.2532354" lon="35.7578992">
<ele>1057.800049</ele>
<time>2016-04-25T10:12:32.000Z</time>
</trkpt>
<trkpt lat="33.2531773" lon="35.7580092">
<ele>1058.599976</ele>
<time>2016-04-25T10:12:37.000Z</time>
</trkpt>
<trkpt lat="33.2531182" lon="35.7581198">
<ele>1059.199951</ele>
<time>2016-04-25T10:12:42.000Z</time>
</trkpt>
<trkpt lat="33.2530725" lon="35.7582194">
<ele>1060.000000</ele>
<time>2016-04-25T10:12:46.000Z</time>
</trkpt>
<trkpt lat="33.2530246" lon="35.7583225">
<ele>1060.599976</ele>
<time>2016-04-25T10:12:50.000Z</time>
</trkpt>
<trkpt lat="33.2529766" lon="35.7584322">
<ele>1061.199951</ele>
<time>2016-04-25T10:12:54.000Z</time>
</trkpt>
<trkpt lat="33.2529190" lon="35.7585378">
<ele>1061.800049</ele>
<time>2016-04-25T10:12:58.000Z</time>
</trkpt>
<trkpt lat="33.2528668" lon="35.7586434">
<ele>1062.400024</ele>
<time>2016-04-25T10:13:02.000Z</time>
</trkpt>
<trkpt lat="33.2528220" lon="35.7587464">
<ele>1063.199951</ele>
<time>2016-04-25T10:13:06.000Z</time>
</trkpt>
<trkpt lat="33.2527768" lon="35.7588448">
<ele>1063.800049</ele>
<time>2016-04-25T10:13:10.000Z</time>
</trkpt>
<trkpt lat="33.2527305" lon="35.7589487">
<ele>1063.599976</ele>
<time>2016-04-25T10:13:14.000Z</time>
</trkpt>
<trkpt lat="33.2526774" lon="35.7590560">
<ele>1062.800049</ele>
<time>2016-04-25T10:13:18.000Z</time>
</trkpt>
<trkpt lat="33.2526300" lon="35.7591660">
<ele>1062.000000</ele>
<time>2016-04-25T10:13:22.000Z</time>
</trkpt>
<trkpt lat="33.2525556" lon="35.7592526">
<ele>1062.000000</ele>
<time>2016-04-25T10:13:26.000Z</time>
</trkpt>
<trkpt lat="33.2524458" lon="35.7592353">
<ele>1062.599976</ele>
<time>2016-04-25T10:13:30.000Z</time>
</trkpt>
<trkpt lat="33.2523526" lon="35.7591990">
<ele>1063.199951</ele>
<time>2016-04-25T10:13:34.000Z</time>
</trkpt>
<trkpt lat="33.2522532" lon="35.7591641">
<ele>1063.800049</ele>
<time>2016-04-25T10:13:39.000Z</time>
</trkpt>
<trkpt lat="33.2521542" lon="35.7591284">
<ele>1064.400024</ele>
<time>2016-04-25T10:13:44.000Z</time>
</trkpt>
<trkpt lat="33.2520589" lon="35.7590879">
<ele>1065.000000</ele>
<time>2016-04-25T10:13:49.000Z</time>
</trkpt>
<trkpt lat="33.2519566" lon="35.7590470">
<ele>1065.599976</ele>
<time>2016-04-25T10:13:54.000Z</time>
</trkpt>
<trkpt lat="33.2518716" lon="35.7590157">
<ele>1066.400024</ele>
<time>2016-04-25T10:13:58.000Z</time>
</trkpt>
<trkpt lat="33.2517661" lon="35.7589718">
<ele>1067.400024</ele>
<time>2016-04-25T10:14:03.000Z</time>
</trkpt>
<trkpt lat="33.2516686" lon="35.7589408">
<ele>1069.400024</ele>
<time>2016-04-25T10:14:08.000Z</time>
</trkpt>
<trkpt lat="33.2515801" lon="35.7588950">
<ele>1071.000000</ele>
<time>2016-04-25T10:14:13.000Z</time>
</trkpt>
<trkpt lat="33.2514772" lon="35.7588497">
<ele>1072.599976</ele>
<time>2016-04-25T10:14:19.000Z</time>
</trkpt>
<trkpt lat="33.2513821" lon="35.7587924">
<ele>1073.599976</ele>
<time>2016-04-25T10:14:25.000Z</time>
</trkpt>
<trkpt lat="33.2512997" lon="35.7587500">
<ele>1074.400024</ele>
<time>2016-04-25T10:14:31.000Z</time>
</trkpt>
<trkpt lat="33.2512119" lon="35.7587083">
<ele>1075.599976</ele>
<time>2016-04-25T10:14:38.000Z</time>
</trkpt>
<trkpt lat="33.2511230" lon="35.7586532">
<ele>1076.400024</ele>
<time>2016-04-25T10:14:46.000Z</time>
</trkpt>
<trkpt lat="33.2510464" lon="35.7585938">
<ele>1076.800049</ele>
<time>2016-04-25T10:14:53.000Z</time>
</trkpt>
<trkpt lat="33.2509712" lon="35.7585180">
<ele>1077.199951</ele>
<time>2016-04-25T10:15:00.000Z</time>
</trkpt>
<trkpt lat="33.2509109" lon="35.7584415">
<ele>1077.000000</ele>
<time>2016-04-25T10:15:08.000Z</time>
</trkpt>
<trkpt lat="33.2508386" lon="35.7583584">
<ele>1076.800049</ele>
<time>2016-04-25T10:15:15.000Z</time>
</trkpt>
<trkpt lat="33.2507552" lon="35.7583004">
<ele>1077.199951</ele>
<time>2016-04-25T10:15:21.000Z</time>
</trkpt>
<trkpt lat="33.2506618" lon="35.7582680">
<ele>1078.199951</ele>
<time>2016-04-25T10:15:27.000Z</time>
</trkpt>
<trkpt lat="33.2505589" lon="35.7582452">
<ele>1079.400024</ele>
<time>2016-04-25T10:15:33.000Z</time>
</trkpt>
<trkpt lat="33.2504617" lon="35.7582238">
<ele>1080.599976</ele>
<time>2016-04-25T10:15:39.000Z</time>
</trkpt>
<trkpt lat="33.2503610" lon="35.7581899">
<ele>1081.599976</ele>
<time>2016-04-25T10:15:45.000Z</time>
</trkpt>
<trkpt lat="33.2502588" lon="35.7581435">
<ele>1082.400024</ele>
<time>2016-04-25T10:15:51.000Z</time>
</trkpt>
<trkpt lat="33.2501745" lon="35.7580878">
<ele>1083.000000</ele>
<time>2016-04-25T10:15:56.000Z</time>
</trkpt>
<trkpt lat="33.2500800" lon="35.7580217">
<ele>1083.000000</ele>
<time>2016-04-25T10:16:01.000Z</time>
</trkpt>
<trkpt lat="33.2500028" lon="35.7579707">
<ele>1083.199951</ele>
<time>2016-04-25T10:16:05.000Z</time>
</trkpt>
<trkpt lat="33.2499277" lon="35.7579010">
<ele>1083.400024</ele>
<time>2016-04-25T10:16:09.000Z</time>
</trkpt>
<trkpt lat="33.2498450" lon="35.7578129">
<ele>1083.599976</ele>
<time>2016-04-25T10:16:13.000Z</time>
</trkpt>
<trkpt lat="33.2497700" lon="35.7577438">
<ele>1083.800049</ele>
<time>2016-04-25T10:16:17.000Z</time>
</trkpt>
<trkpt lat="33.2496964" lon="35.7576707">
<ele>1084.000000</ele>
<time>2016-04-25T10:16:21.000Z</time>
</trkpt>
<trkpt lat="33.2496033" lon="35.7575839">
<ele>1084.199951</ele>
<time>2016-04-25T10:16:26.000Z</time>
</trkpt>
<trkpt lat="33.2495278" lon="35.7575164">
<ele>1084.400024</ele>
<time>2016-04-25T10:16:31.000Z</time>
</trkpt>
<trkpt lat="33.2494494" lon="35.7574607">
<ele>1084.599976</ele>
<time>2016-04-25T10:16:39.000Z</time>
</trkpt>
<trkpt lat="33.2493622" lon="35.7574247">
<ele>1084.599976</ele>
<time>2016-04-25T10:16:49.000Z</time>
</trkpt>
<trkpt lat="33.2493451" lon="35.7574503">
<ele>1084.599976</ele>
<time>2016-04-25T10:21:39.000Z</time>
</trkpt>
<trkpt lat="33.2492605" lon="35.7573626">
<ele>1084.599976</ele>
<time>2016-04-25T10:21:49.000Z</time>
</trkpt>
<trkpt lat="33.2491698" lon="35.7573095">
<ele>1084.000000</ele>
<time>2016-04-25T10:21:54.000Z</time>
</trkpt>
<trkpt lat="33.2490813" lon="35.7572452">
<ele>1083.400024</ele>
<time>2016-04-25T10:21:59.000Z</time>
</trkpt>
<trkpt lat="33.2490059" lon="35.7571756">
<ele>1083.000000</ele>
<time>2016-04-25T10:22:04.000Z</time>
</trkpt>
<trkpt lat="33.2489528" lon="35.7570879">
<ele>1083.000000</ele>
<time>2016-04-25T10:22:09.000Z</time>
</trkpt>
<trkpt lat="33.2489012" lon="35.7569863">
<ele>1083.000000</ele>
<time>2016-04-25T10:22:14.000Z</time>
</trkpt>
<trkpt lat="33.2488471" lon="35.7568977">
<ele>1083.000000</ele>
<time>2016-04-25T10:22:18.000Z</time>
</trkpt>
<trkpt lat="33.2487818" lon="35.7568092">
<ele>1082.800049</ele>
<time>2016-04-25T10:22:22.000Z</time>
</trkpt>
<trkpt lat="33.2486986" lon="35.7567308">
<ele>1082.400024</ele>
<time>2016-04-25T10:22:26.000Z</time>
</trkpt>
<trkpt lat="33.2486171" lon="35.7566597">
<ele>1082.199951</ele>
<time>2016-04-25T10:22:29.000Z</time>
</trkpt>
<trkpt lat="33.2485195" lon="35.7565904">
<ele>1081.599976</ele>
<time>2016-04-25T10:22:32.000Z</time>
</trkpt>
<trkpt lat="33.2484413" lon="35.7565325">
<ele>1081.199951</ele>
<time>2016-04-25T10:22:34.000Z</time>
</trkpt>
<trkpt lat="33.2483489" lon="35.7564680">
<ele>1080.800049</ele>
<time>2016-04-25T10:22:36.000Z</time>
</trkpt>
<trkpt lat="33.2482375" lon="35.7563894">
<ele>1080.199951</ele>
<time>2016-04-25T10:22:38.000Z</time>
</trkpt>
<trkpt lat="33.2481123" lon="35.7562965">
<ele>1079.199951</ele>
<time>2016-04-25T10:22:40.000Z</time>
</trkpt>
<trkpt lat="33.2479811" lon="35.7561890">
<ele>1078.199951</ele>
<time>2016-04-25T10:22:42.000Z</time>
</trkpt>
<trkpt lat="33.2478552" lon="35.7560618">
<ele>1077.400024</ele>
<time>2016-04-25T10:22:44.000Z</time>
</trkpt>
<trkpt lat="33.2477415" lon="35.7559099">
<ele>1076.599976</ele>
<time>2016-04-25T10:22:46.000Z</time>
</trkpt>
<trkpt lat="33.2476419" lon="35.7557328">
<ele>1076.000000</ele>
<time>2016-04-25T10:22:48.000Z</time>
</trkpt>
<trkpt lat="33.2475927" lon="35.7556381">
<ele>1076.000000</ele>
<time>2016-04-25T10:22:49.000Z</time>
</trkpt>
<trkpt lat="33.2475409" lon="35.7555444">
<ele>1076.400024</ele>
<time>2016-04-25T10:22:50.000Z</time>
</trkpt>
<trkpt lat="33.2474873" lon="35.7554513">
<ele>1077.000000</ele>
<time>2016-04-25T10:22:51.000Z</time>
</trkpt>
<trkpt lat="33.2474335" lon="35.7553567">
<ele>1077.800049</ele>
<time>2016-04-25T10:22:52.000Z</time>
</trkpt>
<trkpt lat="33.2473817" lon="35.7552627">
<ele>1078.000000</ele>
<time>2016-04-25T10:22:53.000Z</time>
</trkpt>
<trkpt lat="33.2473314" lon="35.7551709">
<ele>1078.199951</ele>
<time>2016-04-25T10:22:54.000Z</time>
</trkpt>
<trkpt lat="33.2472396" lon="35.7550015">
<ele>1078.599976</ele>
<time>2016-04-25T10:22:56.000Z</time>
</trkpt>
<trkpt lat="33.2471590" lon="35.7548618">
<ele>1079.000000</ele>
<time>2016-04-25T10:22:58.000Z</time>
</trkpt>
<trkpt lat="33.2471010" lon="35.7547590">
<ele>1079.199951</ele>
<time>2016-04-25T10:23:00.000Z</time>
</trkpt>
<trkpt lat="33.2470483" lon="35.7546576">
<ele>1080.000000</ele>
<time>2016-04-25T10:23:04.000Z</time>
</trkpt>
<trkpt lat="33.2470091" lon="35.7545675">
<ele>1081.400024</ele>
<time>2016-04-25T10:23:11.000Z</time>
</trkpt>
<trkpt lat="33.2469568" lon="35.7544679">
<ele>1083.000000</ele>
<time>2016-04-25T10:23:20.000Z</time>
</trkpt>
<trkpt lat="33.2469126" lon="35.7543645">
<ele>1084.400024</ele>
<time>2016-04-25T10:23:29.000Z</time>
</trkpt>
<trkpt lat="33.2468655" lon="35.7542699">
<ele>1086.000000</ele>
<time>2016-04-25T10:23:38.000Z</time>
</trkpt>
<trkpt lat="33.2468233" lon="35.7541806">
<ele>1087.199951</ele>
<time>2016-04-25T10:23:47.000Z</time>
</trkpt>
<trkpt lat="33.2467827" lon="35.7540817">
<ele>1088.599976</ele>
<time>2016-04-25T10:23:57.000Z</time>
</trkpt>
<trkpt lat="33.2467564" lon="35.7539698">
<ele>1089.400024</ele>
<time>2016-04-25T10:24:06.000Z</time>
</trkpt>
<trkpt lat="33.2467225" lon="35.7538637">
<ele>1090.000000</ele>
<time>2016-04-25T10:24:15.000Z</time>
</trkpt>
<trkpt lat="33.2466849" lon="35.7537592">
<ele>1090.599976</ele>
<time>2016-04-25T10:24:24.000Z</time>
</trkpt>
<trkpt lat="33.2466401" lon="35.7536562">
<ele>1091.400024</ele>
<time>2016-04-25T10:24:33.000Z</time>
</trkpt>
<trkpt lat="33.2465975" lon="35.7535572">
<ele>1092.199951</ele>
<time>2016-04-25T10:24:41.000Z</time>
</trkpt>
<trkpt lat="33.2465458" lon="35.7534579">
<ele>1092.800049</ele>
<time>2016-04-25T10:24:48.000Z</time>
</trkpt>
<trkpt lat="33.2464795" lon="35.7533660">
<ele>1093.400024</ele>
<time>2016-04-25T10:24:54.000Z</time>
</trkpt>
<trkpt lat="33.2464205" lon="35.7532749">
<ele>1094.000000</ele>
<time>2016-04-25T10:25:00.000Z</time>
</trkpt>
<trkpt lat="33.2463533" lon="35.7531811">
<ele>1094.599976</ele>
<time>2016-04-25T10:25:06.000Z</time>
</trkpt>
<trkpt lat="33.2462913" lon="35.7531084">
<ele>1095.000000</ele>
<time>2016-04-25T10:25:11.000Z</time>
</trkpt>
<trkpt lat="33.2462164" lon="35.7530150">
<ele>1095.599976</ele>
<time>2016-04-25T10:25:17.000Z</time>
</trkpt>
<trkpt lat="33.2461437" lon="35.7529463">
<ele>1096.199951</ele>
<time>2016-04-25T10:25:22.000Z</time>
</trkpt>
<trkpt lat="33.2460586" lon="35.7528680">
<ele>1096.800049</ele>
<time>2016-04-25T10:25:27.000Z</time>
</trkpt>
<trkpt lat="33.2459741" lon="35.7527965">
<ele>1097.400024</ele>
<time>2016-04-25T10:25:32.000Z</time>
</trkpt>
<trkpt lat="33.2458892" lon="35.7527305">
<ele>1097.199951</ele>
<time>2016-04-25T10:25:37.000Z</time>
</trkpt>
<trkpt lat="33.2457958" lon="35.7526692">
<ele>1097.000000</ele>
<time>2016-04-25T10:25:42.000Z</time>
</trkpt>
<trkpt lat="33.2456932" lon="35.7526129">
<ele>1096.400024</ele>
<time>2016-04-25T10:25:47.000Z</time>
</trkpt>
<trkpt lat="33.2456028" lon="35.7525653">
<ele>1096.000000</ele>
<time>2016-04-25T10:25:51.000Z</time>
</trkpt>
<trkpt lat="33.2455145" lon="35.7525187">
<ele>1095.599976</ele>
<time>2016-04-25T10:25:55.000Z</time>
</trkpt>
<trkpt lat="33.2454218" lon="35.7524711">
<ele>1095.199951</ele>
<time>2016-04-25T10:25:59.000Z</time>
</trkpt>
<trkpt lat="33.2453265" lon="35.7524088">
<ele>1094.800049</ele>
<time>2016-04-25T10:26:03.000Z</time>
</trkpt>
<trkpt lat="33.2452219" lon="35.7523661">
<ele>1094.000000</ele>
<time>2016-04-25T10:26:07.000Z</time>
</trkpt>
<trkpt lat="33.2451233" lon="35.7523570">
<ele>1092.599976</ele>
<time>2016-04-25T10:26:12.000Z</time>
</trkpt>
<trkpt lat="33.2450507" lon="35.7523381">
<ele>1091.400024</ele>
<time>2016-04-25T10:26:51.000Z</time>
</trkpt>
<trkpt lat="33.2450600" lon="35.7522245">
<ele>1093.400024</ele>
<time>2016-04-25T10:26:59.000Z</time>
</trkpt>
<trkpt lat="33.2449989" lon="35.7521342">
<ele>1093.000000</ele>
<time>2016-04-25T10:27:03.000Z</time>
</trkpt>
<trkpt lat="33.2449166" lon="35.7520777">
<ele>1091.800049</ele>
<time>2016-04-25T10:27:07.000Z</time>
</trkpt>
<trkpt lat="33.2448348" lon="35.7520369">
<ele>1090.599976</ele>
<time>2016-04-25T10:27:10.000Z</time>
</trkpt>
<trkpt lat="33.2447405" lon="35.7519933">
<ele>1089.000000</ele>
<time>2016-04-25T10:27:13.000Z</time>
</trkpt>
<trkpt lat="33.2446391" lon="35.7519896">
<ele>1087.000000</ele>
<time>2016-04-25T10:27:16.000Z</time>
</trkpt>
<trkpt lat="33.2445323" lon="35.7519219">
<ele>1085.400024</ele>
<time>2016-04-25T10:27:19.000Z</time>
</trkpt>
<trkpt lat="33.2444513" lon="35.7518457">
<ele>1084.400024</ele>
<time>2016-04-25T10:27:21.000Z</time>
</trkpt>
<trkpt lat="33.2443481" lon="35.7517514">
<ele>1083.000000</ele>
<time>2016-04-25T10:27:23.000Z</time>
</trkpt>
<trkpt lat="33.2442353" lon="35.7516447">
<ele>1082.199951</ele>
<time>2016-04-25T10:27:25.000Z</time>
</trkpt>
<trkpt lat="33.2441230" lon="35.7515357">
<ele>1082.000000</ele>
<time>2016-04-25T10:27:27.000Z</time>
</trkpt>
<trkpt lat="33.2440156" lon="35.7514313">
<ele>1081.800049</ele>
<time>2016-04-25T10:27:29.000Z</time>
</trkpt>
<trkpt lat="33.2439148" lon="35.7513344">
<ele>1081.400024</ele>
<time>2016-04-25T10:27:31.000Z</time>
</trkpt>
<trkpt lat="33.2438205" lon="35.7512533">
<ele>1080.400024</ele>
<time>2016-04-25T10:27:33.000Z</time>
</trkpt>
<trkpt lat="33.2437310" lon="35.7511792">
<ele>1079.400024</ele>
<time>2016-04-25T10:27:35.000Z</time>
</trkpt>
<trkpt lat="33.2436434" lon="35.7511101">
<ele>1078.400024</ele>
<time>2016-04-25T10:27:37.000Z</time>
</trkpt>
<trkpt lat="33.2435616" lon="35.7510547">
<ele>1077.599976</ele>
<time>2016-04-25T10:27:39.000Z</time>
</trkpt>
<trkpt lat="33.2434295" lon="35.7510180">
<ele>1076.599976</ele>
<time>2016-04-25T10:27:42.000Z</time>
</trkpt>
<trkpt lat="33.2433009" lon="35.7510138">
<ele>1076.400024</ele>
<time>2016-04-25T10:27:45.000Z</time>
</trkpt>
<trkpt lat="33.2431773" lon="35.7510015">
<ele>1076.199951</ele>
<time>2016-04-25T10:27:48.000Z</time>
</trkpt>
<trkpt lat="33.2430625" lon="35.7509515">
<ele>1076.000000</ele>
<time>2016-04-25T10:27:51.000Z</time>
</trkpt>
<trkpt lat="33.2429750" lon="35.7508473">
<ele>1075.800049</ele>
<time>2016-04-25T10:27:54.000Z</time>
</trkpt>
<trkpt lat="33.2429006" lon="35.7507286">
<ele>1075.599976</ele>
<time>2016-04-25T10:27:57.000Z</time>
</trkpt>
<trkpt lat="33.2428097" lon="35.7506120">
<ele>1075.400024</ele>
<time>2016-04-25T10:28:00.000Z</time>
</trkpt>
<trkpt lat="33.2427388" lon="35.7505349">
<ele>1075.199951</ele>
<time>2016-04-25T10:28:02.000Z</time>
</trkpt>
<trkpt lat="33.2426541" lon="35.7504905">
<ele>1075.000000</ele>
<time>2016-04-25T10:28:04.000Z</time>
</trkpt>
<trkpt lat="33.2425336" lon="35.7504295">
<ele>1076.000000</ele>
<time>2016-04-25T10:28:07.000Z</time>
</trkpt>
<trkpt lat="33.2424348" lon="35.7503417">
<ele>1077.000000</ele>
<time>2016-04-25T10:28:10.000Z</time>
</trkpt>
<trkpt lat="33.2423593" lon="35.7502420">
<ele>1077.800049</ele>
<time>2016-04-25T10:28:13.000Z</time>
</trkpt>
<trkpt lat="33.2423033" lon="35.7501509">
<ele>1078.599976</ele>
<time>2016-04-25T10:28:16.000Z</time>
</trkpt>
<trkpt lat="33.2422486" lon="35.7500564">
<ele>1079.199951</ele>
<time>2016-04-25T10:28:20.000Z</time>
</trkpt>
<trkpt lat="33.2421877" lon="35.7499686">
<ele>1079.800049</ele>
<time>2016-04-25T10:28:24.000Z</time>
</trkpt>
<trkpt lat="33.2421258" lon="35.7498701">
<ele>1080.599976</ele>
<time>2016-04-25T10:28:27.000Z</time>
</trkpt>
<trkpt lat="33.2420439" lon="35.7497788">
<ele>1081.400024</ele>
<time>2016-04-25T10:28:30.000Z</time>
</trkpt>
<trkpt lat="33.2419636" lon="35.7496876">
<ele>1082.199951</ele>
<time>2016-04-25T10:28:33.000Z</time>
</trkpt>
<trkpt lat="33.2418817" lon="35.7495955">
<ele>1082.400024</ele>
<time>2016-04-25T10:28:36.000Z</time>
</trkpt>
<trkpt lat="33.2417949" lon="35.7495039">
<ele>1082.800049</ele>
<time>2016-04-25T10:28:39.000Z</time>
</trkpt>
<trkpt lat="33.2417237" lon="35.7494072">
<ele>1082.599976</ele>
<time>2016-04-25T10:28:42.000Z</time>
</trkpt>
<trkpt lat="33.2416714" lon="35.7493220">
<ele>1082.400024</ele>
<time>2016-04-25T10:28:45.000Z</time>
</trkpt>
<trkpt lat="33.2416299" lon="35.7492265">
<ele>1082.000000</ele>
<time>2016-04-25T10:28:52.000Z</time>
</trkpt>
<trkpt lat="33.2416043" lon="35.7491702">
<ele>1081.800049</ele>
<time>2016-04-25T10:43:24.000Z</time>
</trkpt>
<trkpt lat="33.2415717" lon="35.7491412">
<ele>1082.000000</ele>
<time>2016-04-25T10:44:43.000Z</time>
</trkpt>
<trkpt lat="33.2415061" lon="35.7490463">
<ele>1081.800049</ele>
<time>2016-04-25T10:44:48.000Z</time>
</trkpt>
<trkpt lat="33.2414404" lon="35.7489508">
<ele>1081.599976</ele>
<time>2016-04-25T10:44:51.000Z</time>
</trkpt>
<trkpt lat="33.2413587" lon="35.7488400">
<ele>1081.199951</ele>
<time>2016-04-25T10:44:54.000Z</time>
</trkpt>
<trkpt lat="33.2412933" lon="35.7487583">
<ele>1080.599976</ele>
<time>2016-04-25T10:44:56.000Z</time>
</trkpt>
<trkpt lat="33.2412100" lon="35.7486844">
<ele>1080.199951</ele>
<time>2016-04-25T10:44:58.000Z</time>
</trkpt>
<trkpt lat="33.2411374" lon="35.7486024">
<ele>1079.599976</ele>
<time>2016-04-25T10:45:00.000Z</time>
</trkpt>
<trkpt lat="33.2410807" lon="35.7485047">
<ele>1078.800049</ele>
<time>2016-04-25T10:45:02.000Z</time>
</trkpt>
<trkpt lat="33.2410171" lon="35.7484051">
<ele>1078.000000</ele>
<time>2016-04-25T10:45:04.000Z</time>
</trkpt>
<trkpt lat="33.2409529" lon="35.7482928">
<ele>1077.000000</ele>
<time>2016-04-25T10:45:06.000Z</time>
</trkpt>
<trkpt lat="33.2408834" lon="35.7481797">
<ele>1076.000000</ele>
<time>2016-04-25T10:45:08.000Z</time>
</trkpt>
<trkpt lat="33.2408039" lon="35.7480628">
<ele>1075.000000</ele>
<time>2016-04-25T10:45:10.000Z</time>
</trkpt>
<trkpt lat="33.2407239" lon="35.7479451">
<ele>1074.199951</ele>
<time>2016-04-25T10:45:12.000Z</time>
</trkpt>
<trkpt lat="33.2406402" lon="35.7478245">
<ele>1073.400024</ele>
<time>2016-04-25T10:45:14.000Z</time>
</trkpt>
<trkpt lat="33.2405627" lon="35.7476918">
<ele>1072.599976</ele>
<time>2016-04-25T10:45:16.000Z</time>
</trkpt>
<trkpt lat="33.2404931" lon="35.7475442">
<ele>1071.000000</ele>
<time>2016-04-25T10:45:18.000Z</time>
</trkpt>
<trkpt lat="33.2404290" lon="35.7473958">
<ele>1069.000000</ele>
<time>2016-04-25T10:45:20.000Z</time>
</trkpt>
<trkpt lat="33.2403646" lon="35.7472512">
<ele>1066.800049</ele>
<time>2016-04-25T10:45:22.000Z</time>
</trkpt>
<trkpt lat="33.2403048" lon="35.7471068">
<ele>1065.800049</ele>
<time>2016-04-25T10:45:24.000Z</time>
</trkpt>
<trkpt lat="33.2402435" lon="35.7469769">
<ele>1065.199951</ele>
<time>2016-04-25T10:45:26.000Z</time>
</trkpt>
<trkpt lat="33.2401779" lon="35.7468593">
<ele>1064.800049</ele>
<time>2016-04-25T10:45:28.000Z</time>
</trkpt>
<trkpt lat="33.2401156" lon="35.7467654">
<ele>1064.800049</ele>
<time>2016-04-25T10:45:30.000Z</time>
</trkpt>
<trkpt lat="33.2400531" lon="35.7466727">
<ele>1064.000000</ele>
<time>2016-04-25T10:45:32.000Z</time>
</trkpt>
<trkpt lat="33.2399897" lon="35.7465611">
<ele>1062.800049</ele>
<time>2016-04-25T10:45:34.000Z</time>
</trkpt>
<trkpt lat="33.2399232" lon="35.7464404">
<ele>1061.800049</ele>
<time>2016-04-25T10:45:36.000Z</time>
</trkpt>
<trkpt lat="33.2398648" lon="35.7463316">
<ele>1060.599976</ele>
<time>2016-04-25T10:45:38.000Z</time>
</trkpt>
<trkpt lat="33.2398044" lon="35.7462286">
<ele>1059.599976</ele>
<time>2016-04-25T10:45:40.000Z</time>
</trkpt>
<trkpt lat="33.2397421" lon="35.7461338">
<ele>1058.599976</ele>
<time>2016-04-25T10:45:42.000Z</time>
</trkpt>
<trkpt lat="33.2396857" lon="35.7460424">
<ele>1057.800049</ele>
<time>2016-04-25T10:45:44.000Z</time>
</trkpt>
<trkpt lat="33.2396330" lon="35.7459539">
<ele>1056.800049</ele>
<time>2016-04-25T10:45:46.000Z</time>
</trkpt>
<trkpt lat="33.2395741" lon="35.7458524">
<ele>1055.800049</ele>
<time>2016-04-25T10:45:48.000Z</time>
</trkpt>
<trkpt lat="33.2395092" lon="35.7457480">
<ele>1054.599976</ele>
<time>2016-04-25T10:45:50.000Z</time>
</trkpt>
<trkpt lat="33.2394457" lon="35.7456499">
<ele>1053.800049</ele>
<time>2016-04-25T10:45:52.000Z</time>
</trkpt>
<trkpt lat="33.2393828" lon="35.7455534">
<ele>1052.800049</ele>
<time>2016-04-25T10:45:54.000Z</time>
</trkpt>
<trkpt lat="33.2393101" lon="35.7454578">
<ele>1051.199951</ele>
<time>2016-04-25T10:45:56.000Z</time>
</trkpt>
<trkpt lat="33.2392403" lon="35.7453530">
<ele>1049.000000</ele>
<time>2016-04-25T10:45:58.000Z</time>
</trkpt>
<trkpt lat="33.2391714" lon="35.7452411">
<ele>1046.599976</ele>
<time>2016-04-25T10:46:00.000Z</time>
</trkpt>
<trkpt lat="33.2391018" lon="35.7451395">
<ele>1044.400024</ele>
<time>2016-04-25T10:46:02.000Z</time>
</trkpt>
<trkpt lat="33.2390283" lon="35.7450333">
<ele>1042.000000</ele>
<time>2016-04-25T10:46:04.000Z</time>
</trkpt>
<trkpt lat="33.2389543" lon="35.7449259">
<ele>1039.800049</ele>
<time>2016-04-25T10:46:06.000Z</time>
</trkpt>
<trkpt lat="33.2388829" lon="35.7448320">
<ele>1037.599976</ele>
<time>2016-04-25T10:46:08.000Z</time>
</trkpt>
<trkpt lat="33.2387959" lon="35.7447184">
<ele>1035.199951</ele>
<time>2016-04-25T10:46:11.000Z</time>
</trkpt>
<trkpt lat="33.2387235" lon="35.7446049">
<ele>1033.000000</ele>
<time>2016-04-25T10:46:14.000Z</time>
</trkpt>
<trkpt lat="33.2386661" lon="35.7444929">
<ele>1030.800049</ele>
<time>2016-04-25T10:46:17.000Z</time>
</trkpt>
<trkpt lat="33.2386046" lon="35.7444052">
<ele>1029.199951</ele>
<time>2016-04-25T10:46:20.000Z</time>
</trkpt>
<trkpt lat="33.2385324" lon="35.7443211">
<ele>1027.599976</ele>
<time>2016-04-25T10:46:23.000Z</time>
</trkpt>
<trkpt lat="33.2384411" lon="35.7442154">
<ele>1025.599976</ele>
<time>2016-04-25T10:46:26.000Z</time>
</trkpt>
<trkpt lat="33.2383213" lon="35.7441542">
<ele>1024.400024</ele>
<time>2016-04-25T10:46:29.000Z</time>
</trkpt>
<trkpt lat="33.2381857" lon="35.7441441">
<ele>1024.199951</ele>
<time>2016-04-25T10:46:32.000Z</time>
</trkpt>
<trkpt lat="33.2380867" lon="35.7441260">
<ele>1023.799988</ele>
<time>2016-04-25T10:46:34.000Z</time>
</trkpt>
<trkpt lat="33.2379848" lon="35.7440674">
<ele>1022.799988</ele>
<time>2016-04-25T10:46:36.000Z</time>
</trkpt>
<trkpt lat="33.2378990" lon="35.7439833">
<ele>1021.000000</ele>
<time>2016-04-25T10:46:38.000Z</time>
</trkpt>
<trkpt lat="33.2378214" lon="35.7438935">
<ele>1019.400024</ele>
<time>2016-04-25T10:46:40.000Z</time>
</trkpt>
<trkpt lat="33.2377643" lon="35.7437931">
<ele>1018.000000</ele>
<time>2016-04-25T10:46:42.000Z</time>
</trkpt>
<trkpt lat="33.2377220" lon="35.7436767">
<ele>1016.400024</ele>
<time>2016-04-25T10:46:44.000Z</time>
</trkpt>
<trkpt lat="33.2376740" lon="35.7435615">
<ele>1014.799988</ele>
<time>2016-04-25T10:46:46.000Z</time>
</trkpt>
<trkpt lat="33.2375974" lon="35.7434963">
<ele>1014.000000</ele>
<time>2016-04-25T10:46:48.000Z</time>
</trkpt>
<trkpt lat="33.2374827" lon="35.7434523">
<ele>1013.200012</ele>
<time>2016-04-25T10:46:51.000Z</time>
</trkpt>
<trkpt lat="33.2373913" lon="35.7434228">
<ele>1012.800049</ele>
<time>2016-04-25T10:46:54.000Z</time>
</trkpt>
<trkpt lat="33.2373023" lon="35.7434041">
<ele>1012.400024</ele>
<time>2016-04-25T10:46:57.000Z</time>
</trkpt>
<trkpt lat="33.2372024" lon="35.7433778">
<ele>1012.000000</ele>
<time>2016-04-25T10:47:00.000Z</time>
</trkpt>
<trkpt lat="33.2370922" lon="35.7433624">
<ele>1011.400024</ele>
<time>2016-04-25T10:47:03.000Z</time>
</trkpt>
<trkpt lat="33.2369776" lon="35.7433694">
<ele>1010.799988</ele>
<time>2016-04-25T10:47:06.000Z</time>
</trkpt>
<trkpt lat="33.2368627" lon="35.7434191">
<ele>1010.200012</ele>
<time>2016-04-25T10:47:09.000Z</time>
</trkpt>
<trkpt lat="33.2367451" lon="35.7435081">
<ele>1010.400024</ele>
<time>2016-04-25T10:47:12.000Z</time>
</trkpt>
<trkpt lat="33.2366530" lon="35.7435874">
<ele>1011.000000</ele>
<time>2016-04-25T10:47:14.000Z</time>
</trkpt>
<trkpt lat="33.2365513" lon="35.7436803">
<ele>1011.000000</ele>
<time>2016-04-25T10:47:16.000Z</time>
</trkpt>
<trkpt lat="33.2364400" lon="35.7437851">
<ele>1009.200012</ele>
<time>2016-04-25T10:47:18.000Z</time>
</trkpt>
<trkpt lat="33.2363205" lon="35.7438948">
<ele>1007.599976</ele>
<time>2016-04-25T10:47:20.000Z</time>
</trkpt>
<trkpt lat="33.2362001" lon="35.7440160">
<ele>1007.599976</ele>
<time>2016-04-25T10:47:22.000Z</time>
</trkpt>
<trkpt lat="33.2360798" lon="35.7441428">
<ele>1007.200012</ele>
<time>2016-04-25T10:47:24.000Z</time>
</trkpt>
<trkpt lat="33.2359603" lon="35.7442677">
<ele>1006.400024</ele>
<time>2016-04-25T10:47:26.000Z</time>
</trkpt>
<trkpt lat="33.2358433" lon="35.7444035">
<ele>1007.799988</ele>
<time>2016-04-25T10:47:28.000Z</time>
</trkpt>
<trkpt lat="33.2357357" lon="35.7445450">
<ele>1008.599915</ele>
<time>2016-04-25T10:47:30.000Z</time>
</trkpt>
<trkpt lat="33.2356301" lon="35.7447022">
<ele>1006.599976</ele>
<time>2016-04-25T10:47:32.000Z</time>
</trkpt>
<trkpt lat="33.2355231" lon="35.7448571">
<ele>1006.999939</ele>
<time>2016-04-25T10:47:34.000Z</time>
</trkpt>
<trkpt lat="33.2354062" lon="35.7449947">
<ele>1007.200012</ele>
<time>2016-04-25T10:47:36.000Z</time>
</trkpt>
<trkpt lat="33.2352842" lon="35.7451473">
<ele>1003.799988</ele>
<time>2016-04-25T10:47:38.000Z</time>
</trkpt>
<trkpt lat="33.2352235" lon="35.7452332">
<ele>1002.200012</ele>
<time>2016-04-25T10:47:39.000Z</time>
</trkpt>
<trkpt lat="33.2351631" lon="35.7453297">
<ele>1000.400024</ele>
<time>2016-04-25T10:47:40.000Z</time>
</trkpt>
<trkpt lat="33.2351011" lon="35.7454384">
<ele>999.000000</ele>
<time>2016-04-25T10:47:41.000Z</time>
</trkpt>
<trkpt lat="33.2350385" lon="35.7455504">
<ele>997.599976</ele>
<time>2016-04-25T10:47:42.000Z</time>
</trkpt>
<trkpt lat="33.2349804" lon="35.7456672">
<ele>996.200012</ele>
<time>2016-04-25T10:47:43.000Z</time>
</trkpt>
<trkpt lat="33.2349298" lon="35.7457894">
<ele>994.799988</ele>
<time>2016-04-25T10:47:44.000Z</time>
</trkpt>
<trkpt lat="33.2348847" lon="35.7459155">
<ele>993.599976</ele>
<time>2016-04-25T10:47:45.000Z</time>
</trkpt>
<trkpt lat="33.2348429" lon="35.7460423">
<ele>992.400024</ele>
<time>2016-04-25T10:47:46.000Z</time>
</trkpt>
<trkpt lat="33.2348047" lon="35.7461728">
<ele>991.000000</ele>
<time>2016-04-25T10:47:47.000Z</time>
</trkpt>
<trkpt lat="33.2347690" lon="35.7463056">
<ele>989.200073</ele>
<time>2016-04-25T10:47:48.000Z</time>
</trkpt>
<trkpt lat="33.2347376" lon="35.7464373">
<ele>987.800049</ele>
<time>2016-04-25T10:47:49.000Z</time>
</trkpt>
<trkpt lat="33.2347170" lon="35.7465616">
<ele>986.799988</ele>
<time>2016-04-25T10:47:50.000Z</time>
</trkpt>
<trkpt lat="33.2347038" lon="35.7466809">
<ele>986.000000</ele>
<time>2016-04-25T10:47:51.000Z</time>
</trkpt>
<trkpt lat="33.2346922" lon="35.7468030">
<ele>985.200012</ele>
<time>2016-04-25T10:47:52.000Z</time>
</trkpt>
<trkpt lat="33.2346780" lon="35.7469297">
<ele>984.000000</ele>
<time>2016-04-25T10:47:53.000Z</time>
</trkpt>
<trkpt lat="33.2346594" lon="35.7470588">
<ele>982.799988</ele>
<time>2016-04-25T10:47:54.000Z</time>
</trkpt>
<trkpt lat="33.2346337" lon="35.7471861">
<ele>981.599976</ele>
<time>2016-04-25T10:47:55.000Z</time>
</trkpt>
<trkpt lat="33.2346096" lon="35.7473040">
<ele>979.799988</ele>
<time>2016-04-25T10:47:56.000Z</time>
</trkpt>
<trkpt lat="33.2345907" lon="35.7474127">
<ele>978.000000</ele>
<time>2016-04-25T10:47:57.000Z</time>
</trkpt>
<trkpt lat="33.2345665" lon="35.7475974">
<ele>975.000000</ele>
<time>2016-04-25T10:47:59.000Z</time>
</trkpt>
<trkpt lat="33.2345516" lon="35.7477119">
<ele>972.799988</ele>
<time>2016-04-25T10:48:01.000Z</time>
</trkpt>
<trkpt lat="33.2344674" lon="35.7477042">
<ele>970.799988</ele>
<time>2016-04-25T10:48:06.000Z</time>
</trkpt>
<trkpt lat="33.2343787" lon="35.7477423">
<ele>968.000000</ele>
<time>2016-04-25T10:48:14.000Z</time>
</trkpt>
<trkpt lat="33.2342984" lon="35.7477999">
<ele>965.000000</ele>
<time>2016-04-25T10:48:22.000Z</time>
</trkpt>
<trkpt lat="33.2342148" lon="35.7478951">
<ele>962.000000</ele>
<time>2016-04-25T10:48:27.000Z</time>
</trkpt>
<trkpt lat="33.2341177" lon="35.7479568">
<ele>959.599976</ele>
<time>2016-04-25T10:48:30.000Z</time>
</trkpt>
<trkpt lat="33.2340269" lon="35.7479798">
<ele>957.799988</ele>
<time>2016-04-25T10:48:32.000Z</time>
</trkpt>
<trkpt lat="33.2339262" lon="35.7479842">
<ele>956.200012</ele>
<time>2016-04-25T10:48:34.000Z</time>
</trkpt>
<trkpt lat="33.2338114" lon="35.7479818">
<ele>954.400024</ele>
<time>2016-04-25T10:48:36.000Z</time>
</trkpt>
<trkpt lat="33.2337093" lon="35.7479146">
<ele>953.799988</ele>
<time>2016-04-25T10:48:38.000Z</time>
</trkpt>
<trkpt lat="33.2336370" lon="35.7478222">
<ele>953.999939</ele>
<time>2016-04-25T10:48:40.000Z</time>
</trkpt>
<trkpt lat="33.2335474" lon="35.7477001">
<ele>954.400024</ele>
<time>2016-04-25T10:48:43.000Z</time>
</trkpt>
<trkpt lat="33.2334839" lon="35.7476186">
<ele>954.599976</ele>
<time>2016-04-25T10:48:45.000Z</time>
</trkpt>
<trkpt lat="33.2334206" lon="35.7475322">
<ele>954.599976</ele>
<time>2016-04-25T10:48:47.000Z</time>
</trkpt>
<trkpt lat="33.2333446" lon="35.7474281">
<ele>954.400024</ele>
<time>2016-04-25T10:48:49.000Z</time>
</trkpt>
<trkpt lat="33.2332541" lon="35.7473675">
<ele>953.200012</ele>
<time>2016-04-25T10:48:51.000Z</time>
</trkpt>
<trkpt lat="33.2331593" lon="35.7473754">
<ele>950.799988</ele>
<time>2016-04-25T10:48:53.000Z</time>
</trkpt>
<trkpt lat="33.2330571" lon="35.7474265">
<ele>947.799988</ele>
<time>2016-04-25T10:48:55.000Z</time>
</trkpt>
<trkpt lat="33.2329535" lon="35.7474741">
<ele>944.799988</ele>
<time>2016-04-25T10:48:57.000Z</time>
</trkpt>
<trkpt lat="33.2328467" lon="35.7474909">
<ele>942.000000</ele>
<time>2016-04-25T10:48:59.000Z</time>
</trkpt>
<trkpt lat="33.2327805" lon="35.7473918">
<ele>942.000000</ele>
<time>2016-04-25T10:49:02.000Z</time>
</trkpt>
<trkpt lat="33.2328190" lon="35.7472481">
<ele>945.000000</ele>
<time>2016-04-25T10:49:05.000Z</time>
</trkpt>
<trkpt lat="33.2328496" lon="35.7471031">
<ele>946.000000</ele>
<time>2016-04-25T10:49:08.000Z</time>
</trkpt>
<trkpt lat="33.2328832" lon="35.7469622">
<ele>946.400085</ele>
<time>2016-04-25T10:49:11.000Z</time>
</trkpt>
<trkpt lat="33.2329337" lon="35.7468518">
<ele>947.200012</ele>
<time>2016-04-25T10:49:14.000Z</time>
</trkpt>
<trkpt lat="33.2329858" lon="35.7467311">
<ele>948.200012</ele>
<time>2016-04-25T10:49:17.000Z</time>
</trkpt>
<trkpt lat="33.2330165" lon="35.7466245">
<ele>949.400085</ele>
<time>2016-04-25T10:49:19.000Z</time>
</trkpt>
<trkpt lat="33.2330319" lon="35.7464956">
<ele>950.400024</ele>
<time>2016-04-25T10:49:21.000Z</time>
</trkpt>
<trkpt lat="33.2330350" lon="35.7463429">
<ele>950.599976</ele>
<time>2016-04-25T10:49:23.000Z</time>
</trkpt>
<trkpt lat="33.2330633" lon="35.7461754">
<ele>950.000000</ele>
<time>2016-04-25T10:49:25.000Z</time>
</trkpt>
<trkpt lat="33.2331024" lon="35.7460378">
<ele>950.000000</ele>
<time>2016-04-25T10:49:27.000Z</time>
</trkpt>
<trkpt lat="33.2331237" lon="35.7459047">
<ele>950.200012</ele>
<time>2016-04-25T10:49:29.000Z</time>
</trkpt>
<trkpt lat="33.2331138" lon="35.7457811">
<ele>949.400085</ele>
<time>2016-04-25T10:49:31.000Z</time>
</trkpt>
<trkpt lat="33.2330766" lon="35.7456529">
<ele>947.599976</ele>
<time>2016-04-25T10:49:33.000Z</time>
</trkpt>
<trkpt lat="33.2330454" lon="35.7454922">
<ele>946.000000</ele>
<time>2016-04-25T10:49:35.000Z</time>
</trkpt>
<trkpt lat="33.2330567" lon="35.7453109">
<ele>945.799988</ele>
<time>2016-04-25T10:49:37.000Z</time>
</trkpt>
<trkpt lat="33.2330545" lon="35.7451294">
<ele>945.199951</ele>
<time>2016-04-25T10:49:39.000Z</time>
</trkpt>
<trkpt lat="33.2330030" lon="35.7449277">
<ele>943.599976</ele>
<time>2016-04-25T10:49:41.000Z</time>
</trkpt>
<trkpt lat="33.2329577" lon="35.7448271">
<ele>942.000000</ele>
<time>2016-04-25T10:49:42.000Z</time>
</trkpt>
<trkpt lat="33.2329060" lon="35.7447298">
<ele>940.200012</ele>
<time>2016-04-25T10:49:43.000Z</time>
</trkpt>
<trkpt lat="33.2328553" lon="35.7446423">
<ele>938.799988</ele>
<time>2016-04-25T10:49:44.000Z</time>
</trkpt>
<trkpt lat="33.2327857" lon="35.7444705">
<ele>937.200012</ele>
<time>2016-04-25T10:49:46.000Z</time>
</trkpt>
<trkpt lat="33.2327648" lon="35.7443344">
<ele>937.400024</ele>
<time>2016-04-25T10:49:48.000Z</time>
</trkpt>
<trkpt lat="33.2327400" lon="35.7441955">
<ele>937.400024</ele>
<time>2016-04-25T10:49:51.000Z</time>
</trkpt>
<trkpt lat="33.2326970" lon="35.7440868">
<ele>936.400024</ele>
<time>2016-04-25T10:49:53.000Z</time>
</trkpt>
<trkpt lat="33.2326435" lon="35.7439687">
<ele>935.200012</ele>
<time>2016-04-25T10:49:55.000Z</time>
</trkpt>
<trkpt lat="33.2325924" lon="35.7438826">
<ele>933.799988</ele>
<time>2016-04-25T10:49:57.000Z</time>
</trkpt>
<trkpt lat="33.2325220" lon="35.7438025">
<ele>931.599976</ele>
<time>2016-04-25T10:50:00.000Z</time>
</trkpt>
<trkpt lat="33.2324433" lon="35.7437132">
<ele>929.200012</ele>
<time>2016-04-25T10:50:04.000Z</time>
</trkpt>
<trkpt lat="33.2323388" lon="35.7436085">
<ele>926.000061</ele>
<time>2016-04-25T10:50:08.000Z</time>
</trkpt>
<trkpt lat="33.2322493" lon="35.7435063">
<ele>923.400024</ele>
<time>2016-04-25T10:50:10.000Z</time>
</trkpt>
<trkpt lat="33.2321560" lon="35.7433711">
<ele>920.599976</ele>
<time>2016-04-25T10:50:12.000Z</time>
</trkpt>
<trkpt lat="33.2320715" lon="35.7432131">
<ele>918.200012</ele>
<time>2016-04-25T10:50:14.000Z</time>
</trkpt>
<trkpt lat="33.2319773" lon="35.7430396">
<ele>915.599976</ele>
<time>2016-04-25T10:50:16.000Z</time>
</trkpt>
<trkpt lat="33.2319293" lon="35.7429465">
<ele>914.199951</ele>
<time>2016-04-25T10:50:17.000Z</time>
</trkpt>
<trkpt lat="33.2318831" lon="35.7428478">
<ele>912.800049</ele>
<time>2016-04-25T10:50:18.000Z</time>
</trkpt>
<trkpt lat="33.2318367" lon="35.7427419">
<ele>911.400024</ele>
<time>2016-04-25T10:50:19.000Z</time>
</trkpt>
<trkpt lat="33.2317891" lon="35.7426313">
<ele>910.000000</ele>
<time>2016-04-25T10:50:20.000Z</time>
</trkpt>
<trkpt lat="33.2317407" lon="35.7425177">
<ele>908.799988</ele>
<time>2016-04-25T10:50:21.000Z</time>
</trkpt>
<trkpt lat="33.2316929" lon="35.7424035">
<ele>907.799988</ele>
<time>2016-04-25T10:50:22.000Z</time>
</trkpt>
<trkpt lat="33.2316474" lon="35.7422917">
<ele>906.799988</ele>
<time>2016-04-25T10:50:23.000Z</time>
</trkpt>
<trkpt lat="33.2316083" lon="35.7421838">
<ele>905.799988</ele>
<time>2016-04-25T10:50:24.000Z</time>
</trkpt>
<trkpt lat="33.2315798" lon="35.7420769">
<ele>905.399963</ele>
<time>2016-04-25T10:50:25.000Z</time>
</trkpt>
<trkpt lat="33.2315615" lon="35.7419703">
<ele>905.000000</ele>
<time>2016-04-25T10:50:26.000Z</time>
</trkpt>
<trkpt lat="33.2315419" lon="35.7417785">
<ele>905.000000</ele>
<time>2016-04-25T10:50:28.000Z</time>
</trkpt>
<trkpt lat="33.2315079" lon="35.7416279">
<ele>904.400024</ele>
<time>2016-04-25T10:50:30.000Z</time>
</trkpt>
<trkpt lat="33.2314364" lon="35.7414963">
<ele>902.599915</ele>
<time>2016-04-25T10:50:32.000Z</time>
</trkpt>
<trkpt lat="33.2313624" lon="35.7413801">
<ele>900.799988</ele>
<time>2016-04-25T10:50:34.000Z</time>
</trkpt>
<trkpt lat="33.2312922" lon="35.7412569">
<ele>899.000000</ele>
<time>2016-04-25T10:50:36.000Z</time>
</trkpt>
<trkpt lat="33.2312154" lon="35.7411491">
<ele>897.000000</ele>
<time>2016-04-25T10:50:38.000Z</time>
</trkpt>
<trkpt lat="33.2311315" lon="35.7410842">
<ele>894.799988</ele>
<time>2016-04-25T10:50:40.000Z</time>
</trkpt>
<trkpt lat="33.2310378" lon="35.7410408">
<ele>892.199951</ele>
<time>2016-04-25T10:50:42.000Z</time>
</trkpt>
<trkpt lat="33.2309254" lon="35.7410048">
<ele>889.199951</ele>
<time>2016-04-25T10:50:44.000Z</time>
</trkpt>
<trkpt lat="33.2307958" lon="35.7409659">
<ele>886.599976</ele>
<time>2016-04-25T10:50:46.000Z</time>
</trkpt>
<trkpt lat="33.2306599" lon="35.7409054">
<ele>883.799988</ele>
<time>2016-04-25T10:50:48.000Z</time>
</trkpt>
<trkpt lat="33.2305538" lon="35.7408209">
<ele>881.599976</ele>
<time>2016-04-25T10:50:50.000Z</time>
</trkpt>
<trkpt lat="33.2304968" lon="35.7407105">
<ele>880.599915</ele>
<time>2016-04-25T10:50:52.000Z</time>
</trkpt>
<trkpt lat="33.2304480" lon="35.7405880">
<ele>880.000000</ele>
<time>2016-04-25T10:50:54.000Z</time>
</trkpt>
<trkpt lat="33.2303709" lon="35.7404722">
<ele>878.400024</ele>
<time>2016-04-25T10:50:56.000Z</time>
</trkpt>
<trkpt lat="33.2302631" lon="35.7403560">
<ele>876.000061</ele>
<time>2016-04-25T10:50:58.000Z</time>
</trkpt>
<trkpt lat="33.2301574" lon="35.7402345">
<ele>873.799988</ele>
<time>2016-04-25T10:51:00.000Z</time>
</trkpt>
<trkpt lat="33.2300799" lon="35.7400914">
<ele>872.000000</ele>
<time>2016-04-25T10:51:02.000Z</time>
</trkpt>
<trkpt lat="33.2300296" lon="35.7399101">
<ele>870.599976</ele>
<time>2016-04-25T10:51:04.000Z</time>
</trkpt>
<trkpt lat="33.2299683" lon="35.7397233">
<ele>869.000000</ele>
<time>2016-04-25T10:51:06.000Z</time>
</trkpt>
<trkpt lat="33.2298813" lon="35.7395514">
<ele>867.599976</ele>
<time>2016-04-25T10:51:08.000Z</time>
</trkpt>
<trkpt lat="33.2297794" lon="35.7393946">
<ele>865.799927</ele>
<time>2016-04-25T10:51:10.000Z</time>
</trkpt>
<trkpt lat="33.2296667" lon="35.7392630">
<ele>863.599976</ele>
<time>2016-04-25T10:51:12.000Z</time>
</trkpt>
<trkpt lat="33.2295614" lon="35.7391420">
<ele>861.599976</ele>
<time>2016-04-25T10:51:14.000Z</time>
</trkpt>
<trkpt lat="33.2294841" lon="35.7390056">
<ele>860.400024</ele>
<time>2016-04-25T10:51:16.000Z</time>
</trkpt>
<trkpt lat="33.2294517" lon="35.7388600">
<ele>860.200012</ele>
<time>2016-04-25T10:51:18.000Z</time>
</trkpt>
<trkpt lat="33.2294685" lon="35.7387222">
<ele>857.400024</ele>
<time>2016-04-25T10:51:20.000Z</time>
</trkpt>
<trkpt lat="33.2295295" lon="35.7385997">
<ele>856.000000</ele>
<time>2016-04-25T10:51:23.000Z</time>
</trkpt>
<trkpt lat="33.2295897" lon="35.7384847">
<ele>855.000000</ele>
<time>2016-04-25T10:51:27.000Z</time>
</trkpt>
<trkpt lat="33.2296460" lon="35.7383318">
<ele>854.599976</ele>
<time>2016-04-25T10:51:30.000Z</time>
</trkpt>
<trkpt lat="33.2296857" lon="35.7382067">
<ele>856.799988</ele>
<time>2016-04-25T10:51:32.000Z</time>
</trkpt>
<trkpt lat="33.2297222" lon="35.7380644">
<ele>858.799988</ele>
<time>2016-04-25T10:51:34.000Z</time>
</trkpt>
<trkpt lat="33.2297531" lon="35.7379096">
<ele>856.200012</ele>
<time>2016-04-25T10:51:36.000Z</time>
</trkpt>
<trkpt lat="33.2297926" lon="35.7377470">
<ele>852.799988</ele>
<time>2016-04-25T10:51:38.000Z</time>
</trkpt>
<trkpt lat="33.2298602" lon="35.7375771">
<ele>850.599976</ele>
<time>2016-04-25T10:51:40.000Z</time>
</trkpt>
<trkpt lat="33.2299737" lon="35.7374216">
<ele>851.400024</ele>
<time>2016-04-25T10:51:42.000Z</time>
</trkpt>
<trkpt lat="33.2300994" lon="35.7372824">
<ele>853.400024</ele>
<time>2016-04-25T10:51:44.000Z</time>
</trkpt>
<trkpt lat="33.2302138" lon="35.7371322">
<ele>855.399963</ele>
<time>2016-04-25T10:51:46.000Z</time>
</trkpt>
<trkpt lat="33.2303085" lon="35.7369861">
<ele>856.799988</ele>
<time>2016-04-25T10:51:48.000Z</time>
</trkpt>
<trkpt lat="33.2303900" lon="35.7368411">
<ele>857.599976</ele>
<time>2016-04-25T10:51:50.000Z</time>
</trkpt>
<trkpt lat="33.2304436" lon="35.7366947">
<ele>856.599976</ele>
<time>2016-04-25T10:51:52.000Z</time>
</trkpt>
<trkpt lat="33.2304584" lon="35.7365538">
<ele>853.400024</ele>
<time>2016-04-25T10:51:54.000Z</time>
</trkpt>
<trkpt lat="33.2304554" lon="35.7364196">
<ele>849.400085</ele>
<time>2016-04-25T10:51:56.000Z</time>
</trkpt>
<trkpt lat="33.2304533" lon="35.7362773">
<ele>847.400024</ele>
<time>2016-04-25T10:51:58.000Z</time>
</trkpt>
<trkpt lat="33.2304572" lon="35.7361453">
<ele>846.799988</ele>
<time>2016-04-25T10:52:00.000Z</time>
</trkpt>
<trkpt lat="33.2304547" lon="35.7360034">
<ele>845.799988</ele>
<time>2016-04-25T10:52:03.000Z</time>
</trkpt>
<trkpt lat="33.2304930" lon="35.7358969">
<ele>847.000000</ele>
<time>2016-04-25T10:52:06.000Z</time>
</trkpt>
<trkpt lat="33.2305585" lon="35.7357882">
<ele>846.000000</ele>
<time>2016-04-25T10:52:09.000Z</time>
</trkpt>
<trkpt lat="33.2306194" lon="35.7356983">
<ele>845.200012</ele>
<time>2016-04-25T10:52:11.000Z</time>
</trkpt>
<trkpt lat="33.2307045" lon="35.7355850">
<ele>844.799988</ele>
<time>2016-04-25T10:52:13.000Z</time>
</trkpt>
<trkpt lat="33.2307867" lon="35.7354346">
<ele>844.799988</ele>
<time>2016-04-25T10:52:15.000Z</time>
</trkpt>
<trkpt lat="33.2308633" lon="35.7352793">
<ele>843.200012</ele>
<time>2016-04-25T10:52:17.000Z</time>
</trkpt>
<trkpt lat="33.2309286" lon="35.7351668">
<ele>841.599976</ele>
<time>2016-04-25T10:52:19.000Z</time>
</trkpt>
<trkpt lat="33.2310043" lon="35.7350571">
<ele>839.400024</ele>
<time>2016-04-25T10:52:22.000Z</time>
</trkpt>
<trkpt lat="33.2311056" lon="35.7349821">
<ele>837.800049</ele>
<time>2016-04-25T10:52:26.000Z</time>
</trkpt>
<trkpt lat="33.2311898" lon="35.7349244">
<ele>836.599976</ele>
<time>2016-04-25T10:52:31.000Z</time>
</trkpt>
<trkpt lat="33.2312409" lon="35.7348861">
<ele>835.200012</ele>
<time>2016-04-25T10:56:02.000Z</time>
</trkpt>
<trkpt lat="33.2313337" lon="35.7348456">
<ele>834.000000</ele>
<time>2016-04-25T10:56:05.000Z</time>
</trkpt>
<trkpt lat="33.2314479" lon="35.7348377">
<ele>833.599976</ele>
<time>2016-04-25T10:56:08.000Z</time>
</trkpt>
<trkpt lat="33.2315619" lon="35.7349085">
<ele>835.599976</ele>
<time>2016-04-25T10:56:11.000Z</time>
</trkpt>
<trkpt lat="33.2316407" lon="35.7349900">
<ele>838.000000</ele>
<time>2016-04-25T10:56:13.000Z</time>
</trkpt>
<trkpt lat="33.2317332" lon="35.7350824">
<ele>840.799927</ele>
<time>2016-04-25T10:56:15.000Z</time>
</trkpt>
<trkpt lat="33.2318277" lon="35.7351958">
<ele>843.200012</ele>
<time>2016-04-25T10:56:17.000Z</time>
</trkpt>
<trkpt lat="33.2319012" lon="35.7353261">
<ele>845.599976</ele>
<time>2016-04-25T10:56:19.000Z</time>
</trkpt>
<trkpt lat="33.2319499" lon="35.7354631">
<ele>848.599976</ele>
<time>2016-04-25T10:56:21.000Z</time>
</trkpt>
<trkpt lat="33.2320023" lon="35.7355903">
<ele>851.400024</ele>
<time>2016-04-25T10:56:23.000Z</time>
</trkpt>
<trkpt lat="33.2320519" lon="35.7356904">
<ele>853.400024</ele>
<time>2016-04-25T10:56:25.000Z</time>
</trkpt>
<trkpt lat="33.2321168" lon="35.7357902">
<ele>855.200012</ele>
<time>2016-04-25T10:56:28.000Z</time>
</trkpt>
<trkpt lat="33.2322241" lon="35.7358190">
<ele>853.400024</ele>
<time>2016-04-25T10:56:32.000Z</time>
</trkpt>
<trkpt lat="33.2323629" lon="35.7358119">
<ele>849.600037</ele>
<time>2016-04-25T10:56:35.000Z</time>
</trkpt>
<trkpt lat="33.2324752" lon="35.7358038">
<ele>846.600037</ele>
<time>2016-04-25T10:56:37.000Z</time>
</trkpt>
<trkpt lat="33.2325955" lon="35.7357796">
<ele>842.799988</ele>
<time>2016-04-25T10:56:39.000Z</time>
</trkpt>
<trkpt lat="33.2327123" lon="35.7357584">
<ele>840.400024</ele>
<time>2016-04-25T10:56:41.000Z</time>
</trkpt>
<trkpt lat="33.2328272" lon="35.7357611">
<ele>839.400024</ele>
<time>2016-04-25T10:56:43.000Z</time>
</trkpt>
<trkpt lat="33.2329333" lon="35.7357879">
<ele>840.000000</ele>
<time>2016-04-25T10:56:45.000Z</time>
</trkpt>
<trkpt lat="33.2330198" lon="35.7358256">
<ele>840.799927</ele>
<time>2016-04-25T10:56:47.000Z</time>
</trkpt>
<trkpt lat="33.2331290" lon="35.7358721">
<ele>842.000000</ele>
<time>2016-04-25T10:56:50.000Z</time>
</trkpt>
<trkpt lat="33.2332268" lon="35.7358974">
<ele>842.599976</ele>
<time>2016-04-25T10:56:53.000Z</time>
</trkpt>
<trkpt lat="33.2333360" lon="35.7359004">
<ele>842.599976</ele>
<time>2016-04-25T10:56:57.000Z</time>
</trkpt>
<trkpt lat="33.2334438" lon="35.7358845">
<ele>842.199951</ele>
<time>2016-04-25T10:57:01.000Z</time>
</trkpt>
<trkpt lat="33.2335376" lon="35.7358474">
<ele>841.599976</ele>
<time>2016-04-25T10:57:04.000Z</time>
</trkpt>
<trkpt lat="33.2336445" lon="35.7358080">
<ele>840.799927</ele>
<time>2016-04-25T10:57:07.000Z</time>
</trkpt>
<trkpt lat="33.2337345" lon="35.7357846">
<ele>840.799927</ele>
<time>2016-04-25T10:57:10.000Z</time>
</trkpt>
<trkpt lat="33.2338370" lon="35.7357558">
<ele>841.000000</ele>
<time>2016-04-25T10:57:15.000Z</time>
</trkpt>
<trkpt lat="33.2339494" lon="35.7357065">
<ele>840.799927</ele>
<time>2016-04-25T10:57:20.000Z</time>
</trkpt>
<trkpt lat="33.2340546" lon="35.7356640">
<ele>840.799927</ele>
<time>2016-04-25T10:57:24.000Z</time>
</trkpt>
<trkpt lat="33.2341652" lon="35.7356145">
<ele>840.599976</ele>
<time>2016-04-25T10:57:28.000Z</time>
</trkpt>
<trkpt lat="33.2342769" lon="35.7355481">
<ele>840.000000</ele>
<time>2016-04-25T10:57:32.000Z</time>
</trkpt>
<trkpt lat="33.2343661" lon="35.7354740">
<ele>839.599976</ele>
<time>2016-04-25T10:57:35.000Z</time>
</trkpt>
<trkpt lat="33.2344633" lon="35.7353883">
<ele>838.799988</ele>
<time>2016-04-25T10:57:38.000Z</time>
</trkpt>
<trkpt lat="33.2345773" lon="35.7353081">
<ele>838.400024</ele>
<time>2016-04-25T10:57:41.000Z</time>
</trkpt>
<trkpt lat="33.2346688" lon="35.7352846">
<ele>839.000000</ele>
<time>2016-04-25T10:57:43.000Z</time>
</trkpt>
<trkpt lat="33.2347664" lon="35.7352719">
<ele>840.000000</ele>
<time>2016-04-25T10:57:45.000Z</time>
</trkpt>
<trkpt lat="33.2348653" lon="35.7352482">
<ele>840.599976</ele>
<time>2016-04-25T10:57:47.000Z</time>
</trkpt>
<trkpt lat="33.2349663" lon="35.7351848">
<ele>839.799988</ele>
<time>2016-04-25T10:57:49.000Z</time>
</trkpt>
<trkpt lat="33.2350434" lon="35.7350948">
<ele>838.200012</ele>
<time>2016-04-25T10:57:51.000Z</time>
</trkpt>
<trkpt lat="33.2351099" lon="35.7350156">
<ele>836.799988</ele>
<time>2016-04-25T10:57:53.000Z</time>
</trkpt>
<trkpt lat="33.2352004" lon="35.7349556">
<ele>835.200012</ele>
<time>2016-04-25T10:57:56.000Z</time>
</trkpt>
<trkpt lat="33.2353128" lon="35.7349513">
<ele>835.200012</ele>
<time>2016-04-25T10:58:00.000Z</time>
</trkpt>
<trkpt lat="33.2354124" lon="35.7349300">
<ele>835.400024</ele>
<time>2016-04-25T10:58:05.000Z</time>
</trkpt>
<trkpt lat="33.2355055" lon="35.7348928">
<ele>836.000000</ele>
<time>2016-04-25T10:58:10.000Z</time>
</trkpt>
<trkpt lat="33.2355956" lon="35.7348778">
<ele>837.000000</ele>
<time>2016-04-25T10:58:15.000Z</time>
</trkpt>
<trkpt lat="33.2357004" lon="35.7348773">
<ele>838.200012</ele>
<time>2016-04-25T10:58:22.000Z</time>
</trkpt>
<trkpt lat="33.2357987" lon="35.7348716">
<ele>839.400024</ele>
<time>2016-04-25T10:58:28.000Z</time>
</trkpt>
<trkpt lat="33.2358978" lon="35.7348759">
<ele>840.599976</ele>
<time>2016-04-25T10:58:33.000Z</time>
</trkpt>
<trkpt lat="33.2360053" lon="35.7348673">
<ele>841.400024</ele>
<time>2016-04-25T10:58:38.000Z</time>
</trkpt>
<trkpt lat="33.2361025" lon="35.7348497">
<ele>841.599976</ele>
<time>2016-04-25T10:58:42.000Z</time>
</trkpt>
<trkpt lat="33.2362141" lon="35.7348409">
<ele>842.400024</ele>
<time>2016-04-25T10:58:46.000Z</time>
</trkpt>
<trkpt lat="33.2363196" lon="35.7348341">
<ele>843.200012</ele>
<time>2016-04-25T10:58:49.000Z</time>
</trkpt>
<trkpt lat="33.2364264" lon="35.7348069">
<ele>844.000000</ele>
<time>2016-04-25T10:58:52.000Z</time>
</trkpt>
<trkpt lat="33.2365127" lon="35.7347629">
<ele>844.200012</ele>
<time>2016-04-25T10:58:55.000Z</time>
</trkpt>
<trkpt lat="33.2365928" lon="35.7347143">
<ele>844.400024</ele>
<time>2016-04-25T10:59:00.000Z</time>
</trkpt>
<trkpt lat="33.2366777" lon="35.7346450">
<ele>844.000000</ele>
<time>2016-04-25T10:59:08.000Z</time>
</trkpt>
<trkpt lat="33.2367663" lon="35.7346364">
<ele>844.400024</ele>
<time>2016-04-25T10:59:15.000Z</time>
</trkpt>
<trkpt lat="33.2368681" lon="35.7346755">
<ele>845.200012</ele>
<time>2016-04-25T10:59:23.000Z</time>
</trkpt>
<trkpt lat="33.2369760" lon="35.7346504">
<ele>844.200012</ele>
<time>2016-04-25T10:59:30.000Z</time>
</trkpt>
<trkpt lat="33.2370940" lon="35.7345793">
<ele>842.400024</ele>
<time>2016-04-25T10:59:34.000Z</time>
</trkpt>
<trkpt lat="33.2371688" lon="35.7344924">
<ele>840.599976</ele>
<time>2016-04-25T10:59:37.000Z</time>
</trkpt>
<trkpt lat="33.2372536" lon="35.7343768">
<ele>838.000000</ele>
<time>2016-04-25T10:59:40.000Z</time>
</trkpt>
<trkpt lat="33.2373080" lon="35.7342828">
<ele>835.400024</ele>
<time>2016-04-25T10:59:42.000Z</time>
</trkpt>
<trkpt lat="33.2373569" lon="35.7341832">
<ele>832.599976</ele>
<time>2016-04-25T10:59:44.000Z</time>
</trkpt>
<trkpt lat="33.2373588" lon="35.7340383">
<ele>829.200012</ele>
<time>2016-04-25T10:59:47.000Z</time>
</trkpt>
<trkpt lat="33.2373059" lon="35.7339418">
<ele>827.399963</ele>
<time>2016-04-25T10:59:49.000Z</time>
</trkpt>
<trkpt lat="33.2372108" lon="35.7338318">
<ele>825.400024</ele>
<time>2016-04-25T10:59:52.000Z</time>
</trkpt>
<trkpt lat="33.2371315" lon="35.7337251">
<ele>823.400024</ele>
<time>2016-04-25T10:59:55.000Z</time>
</trkpt>
<trkpt lat="33.2371301" lon="35.7335890">
<ele>820.000061</ele>
<time>2016-04-25T10:59:58.000Z</time>
</trkpt>
<trkpt lat="33.2371796" lon="35.7334433">
<ele>816.000000</ele>
<time>2016-04-25T11:00:01.000Z</time>
</trkpt>
<trkpt lat="33.2371577" lon="35.7332998">
<ele>812.800049</ele>
<time>2016-04-25T11:00:04.000Z</time>
</trkpt>
<trkpt lat="33.2371103" lon="35.7331972">
<ele>810.799988</ele>
<time>2016-04-25T11:00:06.000Z</time>
</trkpt>
<trkpt lat="33.2370587" lon="35.7330766">
<ele>808.599976</ele>
<time>2016-04-25T11:00:08.000Z</time>
</trkpt>
<trkpt lat="33.2370056" lon="35.7329491">
<ele>806.599976</ele>
<time>2016-04-25T11:00:10.000Z</time>
</trkpt>
<trkpt lat="33.2369408" lon="35.7328439">
<ele>805.200012</ele>
<time>2016-04-25T11:00:12.000Z</time>
</trkpt>
<trkpt lat="33.2368694" lon="35.7327500">
<ele>804.200012</ele>
<time>2016-04-25T11:00:14.000Z</time>
</trkpt>
<trkpt lat="33.2367892" lon="35.7326825">
<ele>803.400024</ele>
<time>2016-04-25T11:00:16.000Z</time>
</trkpt>
<trkpt lat="33.2367038" lon="35.7325721">
<ele>800.200012</ele>
<time>2016-04-25T11:00:19.000Z</time>
</trkpt>
<trkpt lat="33.2366678" lon="35.7324598">
<ele>798.000061</ele>
<time>2016-04-25T11:00:21.000Z</time>
</trkpt>
<trkpt lat="33.2366404" lon="35.7323267">
<ele>795.400024</ele>
<time>2016-04-25T11:00:23.000Z</time>
</trkpt>
<trkpt lat="33.2366140" lon="35.7321680">
<ele>792.599976</ele>
<time>2016-04-25T11:00:25.000Z</time>
</trkpt>
<trkpt lat="33.2365829" lon="35.7319971">
<ele>790.000000</ele>
<time>2016-04-25T11:00:27.000Z</time>
</trkpt>
<trkpt lat="33.2365725" lon="35.7318334">
<ele>787.000000</ele>
<time>2016-04-25T11:00:29.000Z</time>
</trkpt>
<trkpt lat="33.2365963" lon="35.7316714">
<ele>784.400024</ele>
<time>2016-04-25T11:00:31.000Z</time>
</trkpt>
<trkpt lat="33.2366289" lon="35.7315107">
<ele>781.800049</ele>
<time>2016-04-25T11:00:33.000Z</time>
</trkpt>
<trkpt lat="33.2366482" lon="35.7313966">
<ele>780.000000</ele>
<time>2016-04-25T11:00:35.000Z</time>
</trkpt>
<trkpt lat="33.2366185" lon="35.7312864">
<ele>778.599976</ele>
<time>2016-04-25T11:00:38.000Z</time>
</trkpt>
<trkpt lat="33.2365276" lon="35.7312178">
<ele>777.000000</ele>
<time>2016-04-25T11:00:41.000Z</time>
</trkpt>
<trkpt lat="33.2364151" lon="35.7312217">
<ele>775.799988</ele>
<time>2016-04-25T11:00:44.000Z</time>
</trkpt>
<trkpt lat="33.2363339" lon="35.7311591">
<ele>774.600037</ele>
<time>2016-04-25T11:00:51.000Z</time>
</trkpt>
<trkpt lat="33.2363449" lon="35.7310186">
<ele>773.599976</ele>
<time>2016-04-25T11:01:06.000Z</time>
</trkpt>
<trkpt lat="33.2363527" lon="35.7308942">
<ele>772.599976</ele>
<time>2016-04-25T11:01:09.000Z</time>
</trkpt>
<trkpt lat="33.2363550" lon="35.7307466">
<ele>770.799988</ele>
<time>2016-04-25T11:01:12.000Z</time>
</trkpt>
<trkpt lat="33.2363441" lon="35.7306269">
<ele>769.400024</ele>
<time>2016-04-25T11:01:14.000Z</time>
</trkpt>
<trkpt lat="33.2363262" lon="35.7304999">
<ele>767.599976</ele>
<time>2016-04-25T11:01:16.000Z</time>
</trkpt>
<trkpt lat="33.2362876" lon="35.7303593">
<ele>764.799988</ele>
<time>2016-04-25T11:01:18.000Z</time>
</trkpt>
<trkpt lat="33.2362456" lon="35.7302080">
<ele>761.799988</ele>
<time>2016-04-25T11:01:20.000Z</time>
</trkpt>
<trkpt lat="33.2362304" lon="35.7300653">
<ele>759.200012</ele>
<time>2016-04-25T11:01:22.000Z</time>
</trkpt>
<trkpt lat="33.2362237" lon="35.7299428">
<ele>757.200012</ele>
<time>2016-04-25T11:01:24.000Z</time>
</trkpt>
<trkpt lat="33.2362021" lon="35.7297950">
<ele>755.200073</ele>
<time>2016-04-25T11:01:27.000Z</time>
</trkpt>
<trkpt lat="33.2361598" lon="35.7297417">
<ele>753.999939</ele>
<time>2016-04-25T11:01:30.000Z</time>
</trkpt>
<trkpt lat="33.2360762" lon="35.7298443">
<ele>754.200012</ele>
<time>2016-04-25T11:01:33.000Z</time>
</trkpt>
<trkpt lat="33.2360182" lon="35.7299571">
<ele>756.000000</ele>
<time>2016-04-25T11:01:35.000Z</time>
</trkpt>
<trkpt lat="33.2359484" lon="35.7300630">
<ele>757.200012</ele>
<time>2016-04-25T11:01:37.000Z</time>
</trkpt>
<trkpt lat="33.2358543" lon="35.7301564">
<ele>756.599976</ele>
<time>2016-04-25T11:01:39.000Z</time>
</trkpt>
<trkpt lat="33.2357414" lon="35.7302370">
<ele>755.399963</ele>
<time>2016-04-25T11:01:41.000Z</time>
</trkpt>
<trkpt lat="33.2356156" lon="35.7303272">
<ele>753.400024</ele>
<time>2016-04-25T11:01:43.000Z</time>
</trkpt>
<trkpt lat="33.2354948" lon="35.7304265">
<ele>751.200012</ele>
<time>2016-04-25T11:01:45.000Z</time>
</trkpt>
<trkpt lat="33.2354133" lon="35.7305176">
<ele>750.000000</ele>
<time>2016-04-25T11:01:47.000Z</time>
</trkpt>
<trkpt lat="33.2353490" lon="35.7306045">
<ele>749.000000</ele>
<time>2016-04-25T11:01:49.000Z</time>
</trkpt>
<trkpt lat="33.2353062" lon="35.7307122">
<ele>748.599976</ele>
<time>2016-04-25T11:01:51.000Z</time>
</trkpt>
<trkpt lat="33.2352076" lon="35.7308178">
<ele>749.799988</ele>
<time>2016-04-25T11:01:54.000Z</time>
</trkpt>
<trkpt lat="33.2351041" lon="35.7308356">
<ele>749.000000</ele>
<time>2016-04-25T11:01:56.000Z</time>
</trkpt>
<trkpt lat="33.2350080" lon="35.7308632">
<ele>748.599976</ele>
<time>2016-04-25T11:01:58.000Z</time>
</trkpt>
<trkpt lat="33.2349091" lon="35.7309060">
<ele>748.799988</ele>
<time>2016-04-25T11:02:00.000Z</time>
</trkpt>
<trkpt lat="33.2348191" lon="35.7309312">
<ele>748.599976</ele>
<time>2016-04-25T11:02:02.000Z</time>
</trkpt>
<trkpt lat="33.2347085" lon="35.7309367">
<ele>747.599976</ele>
<time>2016-04-25T11:02:05.000Z</time>
</trkpt>
<trkpt lat="33.2345925" lon="35.7309253">
<ele>745.400024</ele>
<time>2016-04-25T11:02:08.000Z</time>
</trkpt>
<trkpt lat="33.2344941" lon="35.7309342">
<ele>743.600037</ele>
<time>2016-04-25T11:02:10.000Z</time>
</trkpt>
<trkpt lat="33.2343757" lon="35.7309759">
<ele>742.000000</ele>
<time>2016-04-25T11:02:12.000Z</time>
</trkpt>
<trkpt lat="33.2342454" lon="35.7310342">
<ele>740.400024</ele>
<time>2016-04-25T11:02:14.000Z</time>
</trkpt>
<trkpt lat="33.2341013" lon="35.7311030">
<ele>739.000000</ele>
<time>2016-04-25T11:02:16.000Z</time>
</trkpt>
<trkpt lat="33.2339493" lon="35.7311600">
<ele>738.599976</ele>
<time>2016-04-25T11:02:18.000Z</time>
</trkpt>
<trkpt lat="33.2337922" lon="35.7311865">
<ele>738.400024</ele>
<time>2016-04-25T11:02:20.000Z</time>
</trkpt>
<trkpt lat="33.2336248" lon="35.7311535">
<ele>736.599976</ele>
<time>2016-04-25T11:02:22.000Z</time>
</trkpt>
<trkpt lat="33.2334692" lon="35.7310787">
<ele>733.599976</ele>
<time>2016-04-25T11:02:24.000Z</time>
</trkpt>
<trkpt lat="33.2333132" lon="35.7309975">
<ele>729.599976</ele>
<time>2016-04-25T11:02:26.000Z</time>
</trkpt>
<trkpt lat="33.2331340" lon="35.7309461">
<ele>725.599976</ele>
<time>2016-04-25T11:02:28.000Z</time>
</trkpt>
<trkpt lat="33.2330333" lon="35.7309360">
<ele>724.000000</ele>
<time>2016-04-25T11:02:29.000Z</time>
</trkpt>
<trkpt lat="33.2329293" lon="35.7309328">
<ele>722.599976</ele>
<time>2016-04-25T11:02:30.000Z</time>
</trkpt>
<trkpt lat="33.2328161" lon="35.7309347">
<ele>721.200012</ele>
<time>2016-04-25T11:02:31.000Z</time>
</trkpt>
<trkpt lat="33.2326972" lon="35.7309395">
<ele>720.000061</ele>
<time>2016-04-25T11:02:32.000Z</time>
</trkpt>
<trkpt lat="33.2325744" lon="35.7309435">
<ele>718.799988</ele>
<time>2016-04-25T11:02:33.000Z</time>
</trkpt>
<trkpt lat="33.2324518" lon="35.7309483">
<ele>717.599976</ele>
<time>2016-04-25T11:02:34.000Z</time>
</trkpt>
<trkpt lat="33.2323350" lon="35.7309513">
<ele>716.599976</ele>
<time>2016-04-25T11:02:35.000Z</time>
</trkpt>
<trkpt lat="33.2322296" lon="35.7309518">
<ele>715.599976</ele>
<time>2016-04-25T11:02:36.000Z</time>
</trkpt>
<trkpt lat="33.2321284" lon="35.7309478">
<ele>714.599976</ele>
<time>2016-04-25T11:02:37.000Z</time>
</trkpt>
<trkpt lat="33.2320246" lon="35.7309349">
<ele>713.400024</ele>
<time>2016-04-25T11:02:38.000Z</time>
</trkpt>
<trkpt lat="33.2319204" lon="35.7309197">
<ele>712.000000</ele>
<time>2016-04-25T11:02:39.000Z</time>
</trkpt>
<trkpt lat="33.2318187" lon="35.7309096">
<ele>711.000000</ele>
<time>2016-04-25T11:02:40.000Z</time>
</trkpt>
<trkpt lat="33.2317214" lon="35.7309046">
<ele>710.200012</ele>
<time>2016-04-25T11:02:41.000Z</time>
</trkpt>
<trkpt lat="33.2316300" lon="35.7309006">
<ele>709.800049</ele>
<time>2016-04-25T11:02:42.000Z</time>
</trkpt>
<trkpt lat="33.2314577" lon="35.7308937">
<ele>709.000000</ele>
<time>2016-04-25T11:02:44.000Z</time>
</trkpt>
<trkpt lat="33.2313660" lon="35.7308879">
<ele>708.599976</ele>
<time>2016-04-25T11:02:45.000Z</time>
</trkpt>
<trkpt lat="33.2312738" lon="35.7308722">
<ele>708.000000</ele>
<time>2016-04-25T11:02:46.000Z</time>
</trkpt>
<trkpt lat="33.2311848" lon="35.7308484">
<ele>707.599976</ele>
<time>2016-04-25T11:02:47.000Z</time>
</trkpt>
<trkpt lat="33.2310995" lon="35.7308181">
<ele>706.800049</ele>
<time>2016-04-25T11:02:48.000Z</time>
</trkpt>
<trkpt lat="33.2309377" lon="35.7307387">
<ele>704.799988</ele>
<time>2016-04-25T11:02:50.000Z</time>
</trkpt>
<trkpt lat="33.2308514" lon="35.7306895">
<ele>703.200012</ele>
<time>2016-04-25T11:02:51.000Z</time>
</trkpt>
<trkpt lat="33.2307603" lon="35.7306365">
<ele>701.599976</ele>
<time>2016-04-25T11:02:52.000Z</time>
</trkpt>
<trkpt lat="33.2306665" lon="35.7305836">
<ele>700.200012</ele>
<time>2016-04-25T11:02:53.000Z</time>
</trkpt>
<trkpt lat="33.2305735" lon="35.7305320">
<ele>698.599976</ele>
<time>2016-04-25T11:02:54.000Z</time>
</trkpt>
<trkpt lat="33.2304824" lon="35.7304766">
<ele>697.200012</ele>
<time>2016-04-25T11:02:55.000Z</time>
</trkpt>
<trkpt lat="33.2303943" lon="35.7304208">
<ele>695.799988</ele>
<time>2016-04-25T11:02:56.000Z</time>
</trkpt>
<trkpt lat="33.2303111" lon="35.7303674">
<ele>694.400024</ele>
<time>2016-04-25T11:02:57.000Z</time>
</trkpt>
<trkpt lat="33.2302302" lon="35.7303180">
<ele>693.000000</ele>
<time>2016-04-25T11:02:58.000Z</time>
</trkpt>
<trkpt lat="33.2301437" lon="35.7302699">
<ele>691.799988</ele>
<time>2016-04-25T11:02:59.000Z</time>
</trkpt>
<trkpt lat="33.2300522" lon="35.7302193">
<ele>689.599976</ele>
<time>2016-04-25T11:03:00.000Z</time>
</trkpt>
<trkpt lat="33.2299566" lon="35.7301661">
<ele>687.000000</ele>
<time>2016-04-25T11:03:01.000Z</time>
</trkpt>
<trkpt lat="33.2298628" lon="35.7301163">
<ele>684.400024</ele>
<time>2016-04-25T11:03:02.000Z</time>
</trkpt>
<trkpt lat="33.2297690" lon="35.7300709">
<ele>682.000000</ele>
<time>2016-04-25T11:03:03.000Z</time>
</trkpt>
<trkpt lat="33.2296727" lon="35.7300380">
<ele>679.799988</ele>
<time>2016-04-25T11:03:04.000Z</time>
</trkpt>
<trkpt lat="33.2295783" lon="35.7300173">
<ele>678.200012</ele>
<time>2016-04-25T11:03:05.000Z</time>
</trkpt>
<trkpt lat="33.2294888" lon="35.7300043">
<ele>677.000000</ele>
<time>2016-04-25T11:03:06.000Z</time>
</trkpt>
<trkpt lat="33.2293175" lon="35.7300054">
<ele>675.599976</ele>
<time>2016-04-25T11:03:08.000Z</time>
</trkpt>
<trkpt lat="33.2291497" lon="35.7300686">
<ele>677.399963</ele>
<time>2016-04-25T11:03:10.000Z</time>
</trkpt>
<trkpt lat="33.2289908" lon="35.7301621">
<ele>680.599976</ele>
<time>2016-04-25T11:03:12.000Z</time>
</trkpt>
<trkpt lat="33.2288326" lon="35.7302176">
<ele>680.400024</ele>
<time>2016-04-25T11:03:14.000Z</time>
</trkpt>
<trkpt lat="33.2286691" lon="35.7302050">
<ele>677.599915</ele>
<time>2016-04-25T11:03:16.000Z</time>
</trkpt>
<trkpt lat="33.2285248" lon="35.7301246">
<ele>673.599976</ele>
<time>2016-04-25T11:03:18.000Z</time>
</trkpt>
<trkpt lat="33.2284204" lon="35.7299935">
<ele>670.799988</ele>
<time>2016-04-25T11:03:20.000Z</time>
</trkpt>
<trkpt lat="33.2283456" lon="35.7298679">
<ele>670.400024</ele>
<time>2016-04-25T11:03:22.000Z</time>
</trkpt>
<trkpt lat="33.2283168" lon="35.7297438">
<ele>668.600037</ele>
<time>2016-04-25T11:03:24.000Z</time>
</trkpt>
<trkpt lat="33.2282761" lon="35.7295853">
<ele>668.000000</ele>
<time>2016-04-25T11:03:27.000Z</time>
</trkpt>
<trkpt lat="33.2282443" lon="35.7294500">
<ele>668.000000</ele>
<time>2016-04-25T11:03:30.000Z</time>
</trkpt>
<trkpt lat="33.2282141" lon="35.7293273">
<ele>668.200012</ele>
<time>2016-04-25T11:03:33.000Z</time>
</trkpt>
<trkpt lat="33.2281957" lon="35.7292068">
<ele>668.200012</ele>
<time>2016-04-25T11:03:36.000Z</time>
</trkpt>
<trkpt lat="33.2281774" lon="35.7290927">
<ele>668.000000</ele>
<time>2016-04-25T11:03:39.000Z</time>
</trkpt>
<trkpt lat="33.2281508" lon="35.7289808">
<ele>668.200012</ele>
<time>2016-04-25T11:03:42.000Z</time>
</trkpt>
<trkpt lat="33.2281226" lon="35.7288691">
<ele>668.400085</ele>
<time>2016-04-25T11:03:45.000Z</time>
</trkpt>
<trkpt lat="33.2281007" lon="35.7287478">
<ele>667.799988</ele>
<time>2016-04-25T11:03:48.000Z</time>
</trkpt>
<trkpt lat="33.2280766" lon="35.7286259">
<ele>667.200012</ele>
<time>2016-04-25T11:03:51.000Z</time>
</trkpt>
<trkpt lat="33.2280452" lon="35.7285005">
<ele>666.799988</ele>
<time>2016-04-25T11:03:54.000Z</time>
</trkpt>
<trkpt lat="33.2280117" lon="35.7283722">
<ele>666.799988</ele>
<time>2016-04-25T11:03:57.000Z</time>
</trkpt>
<trkpt lat="33.2279832" lon="35.7282256">
<ele>667.000061</ele>
<time>2016-04-25T11:04:00.000Z</time>
</trkpt>
<trkpt lat="33.2279504" lon="35.7280667">
<ele>667.200012</ele>
<time>2016-04-25T11:04:03.000Z</time>
</trkpt>
<trkpt lat="33.2279275" lon="35.7279574">
<ele>667.200012</ele>
<time>2016-04-25T11:04:05.000Z</time>
</trkpt>
<trkpt lat="33.2278978" lon="35.7278473">
<ele>667.400024</ele>
<time>2016-04-25T11:04:07.000Z</time>
</trkpt>
<trkpt lat="33.2278638" lon="35.7277314">
<ele>667.599976</ele>
<time>2016-04-25T11:04:09.000Z</time>
</trkpt>
<trkpt lat="33.2278268" lon="35.7276083">
<ele>667.799988</ele>
<time>2016-04-25T11:04:11.000Z</time>
</trkpt>
<trkpt lat="33.2277862" lon="35.7274765">
<ele>668.000000</ele>
<time>2016-04-25T11:04:13.000Z</time>
</trkpt>
<trkpt lat="33.2277442" lon="35.7273432">
<ele>668.200012</ele>
<time>2016-04-25T11:04:15.000Z</time>
</trkpt>
<trkpt lat="33.2277107" lon="35.7272084">
<ele>668.400085</ele>
<time>2016-04-25T11:04:17.000Z</time>
</trkpt>
<trkpt lat="33.2276836" lon="35.7270745">
<ele>669.200012</ele>
<time>2016-04-25T11:04:19.000Z</time>
</trkpt>
<trkpt lat="33.2276610" lon="35.7269453">
<ele>669.799988</ele>
<time>2016-04-25T11:04:21.000Z</time>
</trkpt>
<trkpt lat="33.2276524" lon="35.7268194">
<ele>670.400024</ele>
<time>2016-04-25T11:04:23.000Z</time>
</trkpt>
<trkpt lat="33.2276582" lon="35.7267052">
<ele>670.400024</ele>
<time>2016-04-25T11:04:25.000Z</time>
</trkpt>
<trkpt lat="33.2276810" lon="35.7265537">
<ele>670.400024</ele>
<time>2016-04-25T11:04:28.000Z</time>
</trkpt>
<trkpt lat="33.2276964" lon="35.7264080">
<ele>670.000061</ele>
<time>2016-04-25T11:04:31.000Z</time>
</trkpt>
<trkpt lat="33.2277060" lon="35.7262736">
<ele>670.599976</ele>
<time>2016-04-25T11:04:34.000Z</time>
</trkpt>
<trkpt lat="33.2277220" lon="35.7261410">
<ele>671.400085</ele>
<time>2016-04-25T11:04:37.000Z</time>
</trkpt>
<trkpt lat="33.2277356" lon="35.7260161">
<ele>672.400024</ele>
<time>2016-04-25T11:04:40.000Z</time>
</trkpt>
<trkpt lat="33.2277440" lon="35.7258893">
<ele>673.599976</ele>
<time>2016-04-25T11:04:43.000Z</time>
</trkpt>
<trkpt lat="33.2277517" lon="35.7257625">
<ele>674.599915</ele>
<time>2016-04-25T11:04:46.000Z</time>
</trkpt>
<trkpt lat="33.2277530" lon="35.7256373">
<ele>675.599976</ele>
<time>2016-04-25T11:04:49.000Z</time>
</trkpt>
<trkpt lat="33.2277444" lon="35.7255068">
<ele>675.799988</ele>
<time>2016-04-25T11:04:52.000Z</time>
</trkpt>
<trkpt lat="33.2277263" lon="35.7253721">
<ele>677.399963</ele>
<time>2016-04-25T11:04:55.000Z</time>
</trkpt>
<trkpt lat="33.2277065" lon="35.7252405">
<ele>678.999939</ele>
<time>2016-04-25T11:04:58.000Z</time>
</trkpt>
<trkpt lat="33.2276960" lon="35.7251176">
<ele>680.200073</ele>
<time>2016-04-25T11:05:01.000Z</time>
</trkpt>
<trkpt lat="33.2276789" lon="35.7250104">
<ele>681.599976</ele>
<time>2016-04-25T11:05:04.000Z</time>
</trkpt>
<trkpt lat="33.2276670" lon="35.7248762">
<ele>683.000000</ele>
<time>2016-04-25T11:05:08.000Z</time>
</trkpt>
<trkpt lat="33.2276690" lon="35.7247418">
<ele>683.599976</ele>
<time>2016-04-25T11:05:12.000Z</time>
</trkpt>
<trkpt lat="33.2276642" lon="35.7246173">
<ele>684.200012</ele>
<time>2016-04-25T11:05:16.000Z</time>
</trkpt>
<trkpt lat="33.2276559" lon="35.7244988">
<ele>685.200012</ele>
<time>2016-04-25T11:05:20.000Z</time>
</trkpt>
<trkpt lat="33.2276563" lon="35.7243800">
<ele>685.799988</ele>
<time>2016-04-25T11:05:24.000Z</time>
</trkpt>
<trkpt lat="33.2276500" lon="35.7242674">
<ele>686.599976</ele>
<time>2016-04-25T11:05:28.000Z</time>
</trkpt>
<trkpt lat="33.2276430" lon="35.7241406">
<ele>687.599976</ele>
<time>2016-04-25T11:05:32.000Z</time>
</trkpt>
<trkpt lat="33.2276566" lon="35.7240105">
<ele>687.599976</ele>
<time>2016-04-25T11:05:36.000Z</time>
</trkpt>
<trkpt lat="33.2276872" lon="35.7238836">
<ele>686.599976</ele>
<time>2016-04-25T11:05:40.000Z</time>
</trkpt>
<trkpt lat="33.2277276" lon="35.7237514">
<ele>686.199951</ele>
<time>2016-04-25T11:05:44.000Z</time>
</trkpt>
<trkpt lat="33.2277581" lon="35.7236214">
<ele>686.199951</ele>
<time>2016-04-25T11:05:48.000Z</time>
</trkpt>
<trkpt lat="33.2277806" lon="35.7234920">
<ele>686.799988</ele>
<time>2016-04-25T11:05:52.000Z</time>
</trkpt>
<trkpt lat="33.2277997" lon="35.7233686">
<ele>687.200012</ele>
<time>2016-04-25T11:05:56.000Z</time>
</trkpt>
<trkpt lat="33.2278131" lon="35.7232463">
<ele>688.000000</ele>
<time>2016-04-25T11:06:00.000Z</time>
</trkpt>
<trkpt lat="33.2278323" lon="35.7231190">
<ele>688.400024</ele>
<time>2016-04-25T11:06:04.000Z</time>
</trkpt>
<trkpt lat="33.2278501" lon="35.7229785">
<ele>689.400024</ele>
<time>2016-04-25T11:06:08.000Z</time>
</trkpt>
<trkpt lat="33.2278602" lon="35.7228318">
<ele>691.200012</ele>
<time>2016-04-25T11:06:12.000Z</time>
</trkpt>
<trkpt lat="33.2278771" lon="35.7226958">
<ele>692.400024</ele>
<time>2016-04-25T11:06:16.000Z</time>
</trkpt>
<trkpt lat="33.2278963" lon="35.7225741">
<ele>693.400085</ele>
<time>2016-04-25T11:06:20.000Z</time>
</trkpt>
<trkpt lat="33.2279322" lon="35.7224486">
<ele>693.400085</ele>
<time>2016-04-25T11:06:25.000Z</time>
</trkpt>
<trkpt lat="33.2279877" lon="35.7223324">
<ele>692.199951</ele>
<time>2016-04-25T11:06:30.000Z</time>
</trkpt>
<trkpt lat="33.2280350" lon="35.7222386">
<ele>691.200012</ele>
<time>2016-04-25T11:06:34.000Z</time>
</trkpt>
<trkpt lat="33.2280950" lon="35.7221483">
<ele>689.199951</ele>
<time>2016-04-25T11:06:38.000Z</time>
</trkpt>
<trkpt lat="33.2281532" lon="35.7220622">
<ele>687.200012</ele>
<time>2016-04-25T11:06:42.000Z</time>
</trkpt>
<trkpt lat="33.2282103" lon="35.7219748">
<ele>685.400024</ele>
<time>2016-04-25T11:06:46.000Z</time>
</trkpt>
<trkpt lat="33.2282864" lon="35.7218747">
<ele>684.400024</ele>
<time>2016-04-25T11:06:51.000Z</time>
</trkpt>
<trkpt lat="33.2283459" lon="35.7217923">
<ele>683.799988</ele>
<time>2016-04-25T11:06:55.000Z</time>
</trkpt>
<trkpt lat="33.2284128" lon="35.7217110">
<ele>683.000000</ele>
<time>2016-04-25T11:06:59.000Z</time>
</trkpt>
<trkpt lat="33.2284745" lon="35.7216287">
<ele>682.400024</ele>
<time>2016-04-25T11:07:03.000Z</time>
</trkpt>
<trkpt lat="33.2285381" lon="35.7215423">
<ele>682.000000</ele>
<time>2016-04-25T11:07:07.000Z</time>
</trkpt>
<trkpt lat="33.2286071" lon="35.7214656">
<ele>681.200012</ele>
<time>2016-04-25T11:07:11.000Z</time>
</trkpt>
<trkpt lat="33.2286741" lon="35.7213845">
<ele>681.000000</ele>
<time>2016-04-25T11:07:15.000Z</time>
</trkpt>
<trkpt lat="33.2287392" lon="35.7213096">
<ele>680.400024</ele>
<time>2016-04-25T11:07:19.000Z</time>
</trkpt>
<trkpt lat="33.2288238" lon="35.7212292">
<ele>678.999939</ele>
<time>2016-04-25T11:07:24.000Z</time>
</trkpt>
<trkpt lat="33.2288987" lon="35.7211649">
<ele>677.799988</ele>
<time>2016-04-25T11:07:28.000Z</time>
</trkpt>
<trkpt lat="33.2289837" lon="35.7210958">
<ele>676.200012</ele>
<time>2016-04-25T11:07:32.000Z</time>
</trkpt>
<trkpt lat="33.2290668" lon="35.7210315">
<ele>676.799988</ele>
<time>2016-04-25T11:07:36.000Z</time>
</trkpt>
<trkpt lat="33.2291459" lon="35.7209733">
<ele>677.599915</ele>
<time>2016-04-25T11:07:40.000Z</time>
</trkpt>
<trkpt lat="33.2292322" lon="35.7209129">
<ele>678.599976</ele>
<time>2016-04-25T11:07:44.000Z</time>
</trkpt>
<trkpt lat="33.2293091" lon="35.7208511">
<ele>679.400024</ele>
<time>2016-04-25T11:07:48.000Z</time>
</trkpt>
<trkpt lat="33.2293924" lon="35.7207953">
<ele>679.200012</ele>
<time>2016-04-25T11:07:52.000Z</time>
</trkpt>
<trkpt lat="33.2294713" lon="35.7207253">
<ele>679.799988</ele>
<time>2016-04-25T11:07:56.000Z</time>
</trkpt>
<trkpt lat="33.2295447" lon="35.7206614">
<ele>680.200073</ele>
<time>2016-04-25T11:08:00.000Z</time>
</trkpt>
<trkpt lat="33.2296192" lon="35.7205884">
<ele>680.799988</ele>
<time>2016-04-25T11:08:04.000Z</time>
</trkpt>
<trkpt lat="33.2296910" lon="35.7205134">
<ele>681.000000</ele>
<time>2016-04-25T11:08:08.000Z</time>
</trkpt>
<trkpt lat="33.2297690" lon="35.7204294">
<ele>679.400024</ele>
<time>2016-04-25T11:08:12.000Z</time>
</trkpt>
<trkpt lat="33.2298591" lon="35.7203471">
<ele>677.399963</ele>
<time>2016-04-25T11:08:16.000Z</time>
</trkpt>
<trkpt lat="33.2299279" lon="35.7202733">
<ele>677.200012</ele>
<time>2016-04-25T11:08:19.000Z</time>
</trkpt>
<trkpt lat="33.2299987" lon="35.7201920">
<ele>678.799988</ele>
<time>2016-04-25T11:08:22.000Z</time>
</trkpt>
<trkpt lat="33.2300723" lon="35.7201264">
<ele>679.799988</ele>
<time>2016-04-25T11:08:25.000Z</time>
</trkpt>
<trkpt lat="33.2301456" lon="35.7200539">
<ele>680.599976</ele>
<time>2016-04-25T11:08:28.000Z</time>
</trkpt>
<trkpt lat="33.2302185" lon="35.7199620">
<ele>681.400024</ele>
<time>2016-04-25T11:08:31.000Z</time>
</trkpt>
<trkpt lat="33.2302811" lon="35.7198422">
<ele>683.200073</ele>
<time>2016-04-25T11:08:34.000Z</time>
</trkpt>
<trkpt lat="33.2303062" lon="35.7196968">
<ele>687.200012</ele>
<time>2016-04-25T11:08:37.000Z</time>
</trkpt>
<trkpt lat="33.2302632" lon="35.7195460">
<ele>686.599976</ele>
<time>2016-04-25T11:08:40.000Z</time>
</trkpt>
<trkpt lat="33.2301570" lon="35.7194529">
<ele>687.400024</ele>
<time>2016-04-25T11:08:43.000Z</time>
</trkpt>
<trkpt lat="33.2300143" lon="35.7194832">
<ele>688.400024</ele>
<time>2016-04-25T11:08:46.000Z</time>
</trkpt>
<trkpt lat="33.2299212" lon="35.7195270">
<ele>689.199951</ele>
<time>2016-04-25T11:08:48.000Z</time>
</trkpt>
<trkpt lat="33.2298130" lon="35.7195428">
<ele>690.200012</ele>
<time>2016-04-25T11:08:50.000Z</time>
</trkpt>
<trkpt lat="33.2296919" lon="35.7194986">
<ele>690.599976</ele>
<time>2016-04-25T11:08:52.000Z</time>
</trkpt>
<trkpt lat="33.2295681" lon="35.7194180">
<ele>690.599976</ele>
<time>2016-04-25T11:08:54.000Z</time>
</trkpt>
<trkpt lat="33.2294333" lon="35.7193429">
<ele>690.599976</ele>
<time>2016-04-25T11:08:56.000Z</time>
</trkpt>
<trkpt lat="33.2292848" lon="35.7192835">
<ele>691.000000</ele>
<time>2016-04-25T11:08:58.000Z</time>
</trkpt>
<trkpt lat="33.2291208" lon="35.7192434">
<ele>690.799927</ele>
<time>2016-04-25T11:09:00.000Z</time>
</trkpt>
<trkpt lat="33.2289495" lon="35.7191777">
<ele>690.200012</ele>
<time>2016-04-25T11:09:02.000Z</time>
</trkpt>
<trkpt lat="33.2288645" lon="35.7191294">
<ele>689.799988</ele>
<time>2016-04-25T11:09:03.000Z</time>
</trkpt>
<trkpt lat="33.2287824" lon="35.7190660">
<ele>689.000000</ele>
<time>2016-04-25T11:09:04.000Z</time>
</trkpt>
<trkpt lat="33.2287078" lon="35.7189882">
<ele>688.000000</ele>
<time>2016-04-25T11:09:05.000Z</time>
</trkpt>
<trkpt lat="33.2286388" lon="35.7189021">
<ele>687.000000</ele>
<time>2016-04-25T11:09:06.000Z</time>
</trkpt>
<trkpt lat="33.2285761" lon="35.7188108">
<ele>686.000000</ele>
<time>2016-04-25T11:09:07.000Z</time>
</trkpt>
<trkpt lat="33.2285199" lon="35.7187148">
<ele>685.000000</ele>
<time>2016-04-25T11:09:08.000Z</time>
</trkpt>
<trkpt lat="33.2284669" lon="35.7186169">
<ele>684.000000</ele>
<time>2016-04-25T11:09:09.000Z</time>
</trkpt>
<trkpt lat="33.2284087" lon="35.7185232">
<ele>683.200073</ele>
<time>2016-04-25T11:09:10.000Z</time>
</trkpt>
<trkpt lat="33.2283416" lon="35.7184382">
<ele>682.599976</ele>
<time>2016-04-25T11:09:11.000Z</time>
</trkpt>
<trkpt lat="33.2282659" lon="35.7183616">
<ele>682.200012</ele>
<time>2016-04-25T11:09:12.000Z</time>
</trkpt>
<trkpt lat="33.2281858" lon="35.7182880">
<ele>682.000000</ele>
<time>2016-04-25T11:09:13.000Z</time>
</trkpt>
<trkpt lat="33.2281113" lon="35.7182078">
<ele>681.599976</ele>
<time>2016-04-25T11:09:14.000Z</time>
</trkpt>
<trkpt lat="33.2280492" lon="35.7181168">
<ele>680.799988</ele>
<time>2016-04-25T11:09:15.000Z</time>
</trkpt>
<trkpt lat="33.2280042" lon="35.7180149">
<ele>680.000000</ele>
<time>2016-04-25T11:09:16.000Z</time>
</trkpt>
<trkpt lat="33.2279756" lon="35.7179074">
<ele>679.599976</ele>
<time>2016-04-25T11:09:17.000Z</time>
</trkpt>
<trkpt lat="33.2279623" lon="35.7177961">
<ele>678.799988</ele>
<time>2016-04-25T11:09:18.000Z</time>
</trkpt>
<trkpt lat="33.2279601" lon="35.7176835">
<ele>678.000000</ele>
<time>2016-04-25T11:09:19.000Z</time>
</trkpt>
<trkpt lat="33.2279582" lon="35.7175711">
<ele>677.200012</ele>
<time>2016-04-25T11:09:20.000Z</time>
</trkpt>
<trkpt lat="33.2279541" lon="35.7174610">
<ele>676.200012</ele>
<time>2016-04-25T11:09:21.000Z</time>
</trkpt>
<trkpt lat="33.2279506" lon="35.7173539">
<ele>675.200012</ele>
<time>2016-04-25T11:09:22.000Z</time>
</trkpt>
<trkpt lat="33.2279506" lon="35.7171436">
<ele>673.400024</ele>
<time>2016-04-25T11:09:24.000Z</time>
</trkpt>
<trkpt lat="33.2279580" lon="35.7169381">
<ele>671.799988</ele>
<time>2016-04-25T11:09:26.000Z</time>
</trkpt>
<trkpt lat="33.2279761" lon="35.7167359">
<ele>670.200012</ele>
<time>2016-04-25T11:09:28.000Z</time>
</trkpt>
<trkpt lat="33.2279994" lon="35.7165405">
<ele>668.400085</ele>
<time>2016-04-25T11:09:30.000Z</time>
</trkpt>
<trkpt lat="33.2280114" lon="35.7163506">
<ele>666.599976</ele>
<time>2016-04-25T11:09:32.000Z</time>
</trkpt>
<trkpt lat="33.2280021" lon="35.7161596">
<ele>665.400024</ele>
<time>2016-04-25T11:09:34.000Z</time>
</trkpt>
<trkpt lat="33.2279763" lon="35.7159661">
<ele>664.199951</ele>
<time>2016-04-25T11:09:36.000Z</time>
</trkpt>
<trkpt lat="33.2279314" lon="35.7157730">
<ele>663.400024</ele>
<time>2016-04-25T11:09:38.000Z</time>
</trkpt>
<trkpt lat="33.2278448" lon="35.7155980">
<ele>663.000000</ele>
<time>2016-04-25T11:09:40.000Z</time>
</trkpt>
<trkpt lat="33.2277338" lon="35.7154379">
<ele>662.799927</ele>
<time>2016-04-25T11:09:42.000Z</time>
</trkpt>
<trkpt lat="33.2276157" lon="35.7152841">
<ele>662.400024</ele>
<time>2016-04-25T11:09:44.000Z</time>
</trkpt>
<trkpt lat="33.2274811" lon="35.7151440">
<ele>661.400024</ele>
<time>2016-04-25T11:09:46.000Z</time>
</trkpt>
<trkpt lat="33.2274109" lon="35.7150770">
<ele>661.000000</ele>
<time>2016-04-25T11:09:47.000Z</time>
</trkpt>
<trkpt lat="33.2272845" lon="35.7149313">
<ele>660.000000</ele>
<time>2016-04-25T11:09:49.000Z</time>
</trkpt>
<trkpt lat="33.2271800" lon="35.7147732">
<ele>658.799988</ele>
<time>2016-04-25T11:09:51.000Z</time>
</trkpt>
<trkpt lat="33.2270836" lon="35.7146210">
<ele>657.200012</ele>
<time>2016-04-25T11:09:53.000Z</time>
</trkpt>
<trkpt lat="33.2269631" lon="35.7144951">
<ele>655.400024</ele>
<time>2016-04-25T11:09:55.000Z</time>
</trkpt>
<trkpt lat="33.2268020" lon="35.7144396">
<ele>655.200073</ele>
<time>2016-04-25T11:09:57.000Z</time>
</trkpt>
<trkpt lat="33.2267120" lon="35.7144296">
<ele>655.200073</ele>
<time>2016-04-25T11:09:58.000Z</time>
</trkpt>
<trkpt lat="33.2266192" lon="35.7144254">
<ele>655.200073</ele>
<time>2016-04-25T11:09:59.000Z</time>
</trkpt>
<trkpt lat="33.2265235" lon="35.7144197">
<ele>655.200073</ele>
<time>2016-04-25T11:10:00.000Z</time>
</trkpt>
<trkpt lat="33.2264241" lon="35.7144128">
<ele>655.000000</ele>
<time>2016-04-25T11:10:01.000Z</time>
</trkpt>
<trkpt lat="33.2263258" lon="35.7144024">
<ele>654.599976</ele>
<time>2016-04-25T11:10:02.000Z</time>
</trkpt>
<trkpt lat="33.2262293" lon="35.7143830">
<ele>653.999939</ele>
<time>2016-04-25T11:10:03.000Z</time>
</trkpt>
<trkpt lat="33.2261347" lon="35.7143513">
<ele>653.400024</ele>
<time>2016-04-25T11:10:04.000Z</time>
</trkpt>
<trkpt lat="33.2260448" lon="35.7143080">
<ele>652.599915</ele>
<time>2016-04-25T11:10:05.000Z</time>
</trkpt>
<trkpt lat="33.2259594" lon="35.7142502">
<ele>651.400024</ele>
<time>2016-04-25T11:10:06.000Z</time>
</trkpt>
<trkpt lat="33.2258786" lon="35.7141782">
<ele>651.599976</ele>
<time>2016-04-25T11:10:07.000Z</time>
</trkpt>
<trkpt lat="33.2258021" lon="35.7141009">
<ele>651.799988</ele>
<time>2016-04-25T11:10:08.000Z</time>
</trkpt>
<trkpt lat="33.2257325" lon="35.7140186">
<ele>651.599976</ele>
<time>2016-04-25T11:10:09.000Z</time>
</trkpt>
<trkpt lat="33.2256679" lon="35.7139285">
<ele>651.400024</ele>
<time>2016-04-25T11:10:10.000Z</time>
</trkpt>
<trkpt lat="33.2256199" lon="35.7138322">
<ele>650.799988</ele>
<time>2016-04-25T11:10:11.000Z</time>
</trkpt>
<trkpt lat="33.2255946" lon="35.7136233">
<ele>649.200012</ele>
<time>2016-04-25T11:10:13.000Z</time>
</trkpt>
<trkpt lat="33.2256290" lon="35.7134126">
<ele>646.600037</ele>
<time>2016-04-25T11:10:15.000Z</time>
</trkpt>
<trkpt lat="33.2256630" lon="35.7132069">
<ele>644.200012</ele>
<time>2016-04-25T11:10:17.000Z</time>
</trkpt>
<trkpt lat="33.2256885" lon="35.7129972">
<ele>641.799988</ele>
<time>2016-04-25T11:10:19.000Z</time>
</trkpt>
<trkpt lat="33.2257078" lon="35.7127845">
<ele>639.799988</ele>
<time>2016-04-25T11:10:21.000Z</time>
</trkpt>
<trkpt lat="33.2257152" lon="35.7125708">
<ele>637.799927</ele>
<time>2016-04-25T11:10:23.000Z</time>
</trkpt>
<trkpt lat="33.2257036" lon="35.7124636">
<ele>637.200012</ele>
<time>2016-04-25T11:10:24.000Z</time>
</trkpt>
<trkpt lat="33.2256807" lon="35.7123581">
<ele>636.599976</ele>
<time>2016-04-25T11:10:25.000Z</time>
</trkpt>
<trkpt lat="33.2256452" lon="35.7122578">
<ele>636.199951</ele>
<time>2016-04-25T11:10:26.000Z</time>
</trkpt>
<trkpt lat="33.2255488" lon="35.7120782">
<ele>635.400024</ele>
<time>2016-04-25T11:10:28.000Z</time>
</trkpt>
<trkpt lat="33.2254355" lon="35.7119150">
<ele>634.599976</ele>
<time>2016-04-25T11:10:30.000Z</time>
</trkpt>
<trkpt lat="33.2253176" lon="35.7117491">
<ele>633.799988</ele>
<time>2016-04-25T11:10:32.000Z</time>
</trkpt>
<trkpt lat="33.2252551" lon="35.7116636">
<ele>633.599976</ele>
<time>2016-04-25T11:10:33.000Z</time>
</trkpt>
<trkpt lat="33.2251898" lon="35.7115772">
<ele>633.200073</ele>
<time>2016-04-25T11:10:34.000Z</time>
</trkpt>
<trkpt lat="33.2251235" lon="35.7114881">
<ele>632.799988</ele>
<time>2016-04-25T11:10:35.000Z</time>
</trkpt>
<trkpt lat="33.2250566" lon="35.7113978">
<ele>632.200012</ele>
<time>2016-04-25T11:10:36.000Z</time>
</trkpt>
<trkpt lat="33.2249908" lon="35.7113038">
<ele>631.400024</ele>
<time>2016-04-25T11:10:37.000Z</time>
</trkpt>
<trkpt lat="33.2249244" lon="35.7112088">
<ele>630.400024</ele>
<time>2016-04-25T11:10:38.000Z</time>
</trkpt>
<trkpt lat="33.2248561" lon="35.7111140">
<ele>629.599976</ele>
<time>2016-04-25T11:10:39.000Z</time>
</trkpt>
<trkpt lat="33.2247856" lon="35.7110200">
<ele>628.800049</ele>
<time>2016-04-25T11:10:40.000Z</time>
</trkpt>
<trkpt lat="33.2247154" lon="35.7109292">
<ele>628.000000</ele>
<time>2016-04-25T11:10:41.000Z</time>
</trkpt>
<trkpt lat="33.2246464" lon="35.7108403">
<ele>627.200012</ele>
<time>2016-04-25T11:10:42.000Z</time>
</trkpt>
<trkpt lat="33.2245778" lon="35.7107520">
<ele>626.599976</ele>
<time>2016-04-25T11:10:43.000Z</time>
</trkpt>
<trkpt lat="33.2245096" lon="35.7106647">
<ele>625.799988</ele>
<time>2016-04-25T11:10:44.000Z</time>
</trkpt>
<trkpt lat="33.2244422" lon="35.7105762">
<ele>625.000000</ele>
<time>2016-04-25T11:10:45.000Z</time>
</trkpt>
<trkpt lat="33.2243760" lon="35.7104851">
<ele>624.399963</ele>
<time>2016-04-25T11:10:46.000Z</time>
</trkpt>
<trkpt lat="33.2243114" lon="35.7103918">
<ele>623.599976</ele>
<time>2016-04-25T11:10:47.000Z</time>
</trkpt>
<trkpt lat="33.2242508" lon="35.7103011">
<ele>623.000000</ele>
<time>2016-04-25T11:10:48.000Z</time>
</trkpt>
<trkpt lat="33.2241647" lon="35.7101319">
<ele>621.400024</ele>
<time>2016-04-25T11:10:50.000Z</time>
</trkpt>
<trkpt lat="33.2241496" lon="35.7099778">
<ele>619.200012</ele>
<time>2016-04-25T11:10:52.000Z</time>
</trkpt>
<trkpt lat="33.2242196" lon="35.7098584">
<ele>617.000000</ele>
<time>2016-04-25T11:10:54.000Z</time>
</trkpt>
<trkpt lat="33.2243430" lon="35.7098597">
<ele>615.599976</ele>
<time>2016-04-25T11:10:56.000Z</time>
</trkpt>
<trkpt lat="33.2244817" lon="35.7099512">
<ele>615.400024</ele>
<time>2016-04-25T11:10:58.000Z</time>
</trkpt>
<trkpt lat="33.2246257" lon="35.7100579">
<ele>615.400024</ele>
<time>2016-04-25T11:11:00.000Z</time>
</trkpt>
<trkpt lat="33.2247794" lon="35.7101521">
<ele>615.200012</ele>
<time>2016-04-25T11:11:02.000Z</time>
</trkpt>
<trkpt lat="33.2249437" lon="35.7102202">
<ele>614.200012</ele>
<time>2016-04-25T11:11:04.000Z</time>
</trkpt>
<trkpt lat="33.2251190" lon="35.7102604">
<ele>612.799988</ele>
<time>2016-04-25T11:11:06.000Z</time>
</trkpt>
<trkpt lat="33.2253046" lon="35.7102851">
<ele>611.599976</ele>
<time>2016-04-25T11:11:08.000Z</time>
</trkpt>
<trkpt lat="33.2253991" lon="35.7102914">
<ele>610.799988</ele>
<time>2016-04-25T11:11:09.000Z</time>
</trkpt>
<trkpt lat="33.2254969" lon="35.7102949">
<ele>610.000000</ele>
<time>2016-04-25T11:11:10.000Z</time>
</trkpt>
<trkpt lat="33.2255963" lon="35.7102949">
<ele>609.200012</ele>
<time>2016-04-25T11:11:11.000Z</time>
</trkpt>
<trkpt lat="33.2256982" lon="35.7102905">
<ele>608.400024</ele>
<time>2016-04-25T11:11:12.000Z</time>
</trkpt>
<trkpt lat="33.2258025" lon="35.7102806">
<ele>607.400024</ele>
<time>2016-04-25T11:11:13.000Z</time>
</trkpt>
<trkpt lat="33.2259062" lon="35.7102666">
<ele>606.400024</ele>
<time>2016-04-25T11:11:14.000Z</time>
</trkpt>
<trkpt lat="33.2260113" lon="35.7102531">
<ele>605.599976</ele>
<time>2016-04-25T11:11:15.000Z</time>
</trkpt>
<trkpt lat="33.2261152" lon="35.7102378">
<ele>604.799988</ele>
<time>2016-04-25T11:11:16.000Z</time>
</trkpt>
<trkpt lat="33.2262183" lon="35.7102228">
<ele>604.000000</ele>
<time>2016-04-25T11:11:17.000Z</time>
</trkpt>
<trkpt lat="33.2263222" lon="35.7102081">
<ele>603.000000</ele>
<time>2016-04-25T11:11:18.000Z</time>
</trkpt>
<trkpt lat="33.2264253" lon="35.7101952">
<ele>602.200012</ele>
<time>2016-04-25T11:11:19.000Z</time>
</trkpt>
<trkpt lat="33.2265305" lon="35.7101823">
<ele>601.599976</ele>
<time>2016-04-25T11:11:20.000Z</time>
</trkpt>
<trkpt lat="33.2266348" lon="35.7101679">
<ele>601.200012</ele>
<time>2016-04-25T11:11:21.000Z</time>
</trkpt>
<trkpt lat="33.2267383" lon="35.7101501">
<ele>600.599976</ele>
<time>2016-04-25T11:11:22.000Z</time>
</trkpt>
<trkpt lat="33.2268442" lon="35.7101293">
<ele>599.799988</ele>
<time>2016-04-25T11:11:23.000Z</time>
</trkpt>
<trkpt lat="33.2269507" lon="35.7101029">
<ele>598.799988</ele>
<time>2016-04-25T11:11:24.000Z</time>
</trkpt>
<trkpt lat="33.2270573" lon="35.7100712">
<ele>597.799988</ele>
<time>2016-04-25T11:11:25.000Z</time>
</trkpt>
<trkpt lat="33.2271588" lon="35.7100397">
<ele>596.799988</ele>
<time>2016-04-25T11:11:26.000Z</time>
</trkpt>
<trkpt lat="33.2272577" lon="35.7100211">
<ele>596.200012</ele>
<time>2016-04-25T11:11:27.000Z</time>
</trkpt>
<trkpt lat="33.2273546" lon="35.7100210">
<ele>595.799988</ele>
<time>2016-04-25T11:11:28.000Z</time>
</trkpt>
<trkpt lat="33.2274494" lon="35.7100434">
<ele>595.599976</ele>
<time>2016-04-25T11:11:29.000Z</time>
</trkpt>
<trkpt lat="33.2275379" lon="35.7100874">
<ele>595.599976</ele>
<time>2016-04-25T11:11:30.000Z</time>
</trkpt>
<trkpt lat="33.2276206" lon="35.7101339">
<ele>595.599976</ele>
<time>2016-04-25T11:11:31.000Z</time>
</trkpt>
<trkpt lat="33.2277880" lon="35.7101887">
<ele>595.799988</ele>
<time>2016-04-25T11:11:33.000Z</time>
</trkpt>
<trkpt lat="33.2279589" lon="35.7101686">
<ele>595.200012</ele>
<time>2016-04-25T11:11:35.000Z</time>
</trkpt>
<trkpt lat="33.2280416" lon="35.7101265">
<ele>594.599976</ele>
<time>2016-04-25T11:11:36.000Z</time>
</trkpt>
<trkpt lat="33.2281209" lon="35.7100706">
<ele>593.599976</ele>
<time>2016-04-25T11:11:37.000Z</time>
</trkpt>
<trkpt lat="33.2282006" lon="35.7100117">
<ele>592.599976</ele>
<time>2016-04-25T11:11:38.000Z</time>
</trkpt>
<trkpt lat="33.2282847" lon="35.7099514">
<ele>591.599976</ele>
<time>2016-04-25T11:11:39.000Z</time>
</trkpt>
<trkpt lat="33.2283732" lon="35.7098954">
<ele>590.599976</ele>
<time>2016-04-25T11:11:40.000Z</time>
</trkpt>
<trkpt lat="33.2284661" lon="35.7098455">
<ele>589.599976</ele>
<time>2016-04-25T11:11:41.000Z</time>
</trkpt>
<trkpt lat="33.2285616" lon="35.7098021">
<ele>589.000000</ele>
<time>2016-04-25T11:11:42.000Z</time>
</trkpt>
<trkpt lat="33.2286605" lon="35.7097630">
<ele>588.200012</ele>
<time>2016-04-25T11:11:43.000Z</time>
</trkpt>
<trkpt lat="33.2287625" lon="35.7097254">
<ele>587.599976</ele>
<time>2016-04-25T11:11:44.000Z</time>
</trkpt>
<trkpt lat="33.2288660" lon="35.7096884">
<ele>586.799988</ele>
<time>2016-04-25T11:11:45.000Z</time>
</trkpt>
<trkpt lat="33.2289726" lon="35.7096484">
<ele>586.000000</ele>
<time>2016-04-25T11:11:46.000Z</time>
</trkpt>
<trkpt lat="33.2290818" lon="35.7096076">
<ele>585.200012</ele>
<time>2016-04-25T11:11:47.000Z</time>
</trkpt>
<trkpt lat="33.2291927" lon="35.7095692">
<ele>584.400024</ele>
<time>2016-04-25T11:11:48.000Z</time>
</trkpt>
<trkpt lat="33.2293030" lon="35.7095299">
<ele>583.400024</ele>
<time>2016-04-25T11:11:49.000Z</time>
</trkpt>
<trkpt lat="33.2294106" lon="35.7094901">
<ele>582.599976</ele>
<time>2016-04-25T11:11:50.000Z</time>
</trkpt>
<trkpt lat="33.2295153" lon="35.7094479">
<ele>581.799988</ele>
<time>2016-04-25T11:11:51.000Z</time>
</trkpt>
<trkpt lat="33.2296165" lon="35.7094036">
<ele>581.000000</ele>
<time>2016-04-25T11:11:52.000Z</time>
</trkpt>
<trkpt lat="33.2297137" lon="35.7093559">
<ele>580.000000</ele>
<time>2016-04-25T11:11:53.000Z</time>
</trkpt>
<trkpt lat="33.2298084" lon="35.7093101">
<ele>579.400024</ele>
<time>2016-04-25T11:11:54.000Z</time>
</trkpt>
<trkpt lat="33.2299010" lon="35.7092644">
<ele>578.799988</ele>
<time>2016-04-25T11:11:55.000Z</time>
</trkpt>
<trkpt lat="33.2299928" lon="35.7092175">
<ele>578.200012</ele>
<time>2016-04-25T11:11:56.000Z</time>
</trkpt>
<trkpt lat="33.2300843" lon="35.7091714">
<ele>577.599976</ele>
<time>2016-04-25T11:11:57.000Z</time>
</trkpt>
<trkpt lat="33.2301768" lon="35.7091252">
<ele>577.000000</ele>
<time>2016-04-25T11:11:58.000Z</time>
</trkpt>
<trkpt lat="33.2302703" lon="35.7090781">
<ele>576.599976</ele>
<time>2016-04-25T11:11:59.000Z</time>
</trkpt>
<trkpt lat="33.2303653" lon="35.7090291">
<ele>576.000000</ele>
<time>2016-04-25T11:12:00.000Z</time>
</trkpt>
<trkpt lat="33.2304626" lon="35.7089816">
<ele>575.400024</ele>
<time>2016-04-25T11:12:01.000Z</time>
</trkpt>
<trkpt lat="33.2305634" lon="35.7089374">
<ele>574.799988</ele>
<time>2016-04-25T11:12:02.000Z</time>
</trkpt>
<trkpt lat="33.2306651" lon="35.7088929">
<ele>574.200012</ele>
<time>2016-04-25T11:12:03.000Z</time>
</trkpt>
<trkpt lat="33.2307661" lon="35.7088474">
<ele>573.599976</ele>
<time>2016-04-25T11:12:04.000Z</time>
</trkpt>
<trkpt lat="33.2308625" lon="35.7087980">
<ele>572.799988</ele>
<time>2016-04-25T11:12:05.000Z</time>
</trkpt>
<trkpt lat="33.2309493" lon="35.7087463">
<ele>572.400024</ele>
<time>2016-04-25T11:12:06.000Z</time>
</trkpt>
<trkpt lat="33.2310893" lon="35.7086271">
<ele>570.200012</ele>
<time>2016-04-25T11:12:08.000Z</time>
</trkpt>
<trkpt lat="33.2312122" lon="35.7085196">
<ele>568.200012</ele>
<time>2016-04-25T11:12:10.000Z</time>
</trkpt>
<trkpt lat="33.2313526" lon="35.7084723">
<ele>566.799988</ele>
<time>2016-04-25T11:12:12.000Z</time>
</trkpt>
<trkpt lat="33.2314966" lon="35.7084914">
<ele>566.599976</ele>
<time>2016-04-25T11:12:14.000Z</time>
</trkpt>
<trkpt lat="33.2316476" lon="35.7085376">
<ele>566.799988</ele>
<time>2016-04-25T11:12:16.000Z</time>
</trkpt>
<trkpt lat="33.2318108" lon="35.7085794">
<ele>566.599976</ele>
<time>2016-04-25T11:12:18.000Z</time>
</trkpt>
<trkpt lat="33.2318989" lon="35.7085976">
<ele>566.000000</ele>
<time>2016-04-25T11:12:19.000Z</time>
</trkpt>
<trkpt lat="33.2319891" lon="35.7086177">
<ele>565.400024</ele>
<time>2016-04-25T11:12:20.000Z</time>
</trkpt>
<trkpt lat="33.2320816" lon="35.7086433">
<ele>564.799988</ele>
<time>2016-04-25T11:12:21.000Z</time>
</trkpt>
<trkpt lat="33.2321760" lon="35.7086737">
<ele>564.200012</ele>
<time>2016-04-25T11:12:22.000Z</time>
</trkpt>
<trkpt lat="33.2322727" lon="35.7086966">
<ele>563.400024</ele>
<time>2016-04-25T11:12:23.000Z</time>
</trkpt>
<trkpt lat="33.2323718" lon="35.7087148">
<ele>562.799988</ele>
<time>2016-04-25T11:12:24.000Z</time>
</trkpt>
<trkpt lat="33.2324721" lon="35.7087323">
<ele>562.000000</ele>
<time>2016-04-25T11:12:25.000Z</time>
</trkpt>
<trkpt lat="33.2325736" lon="35.7087478">
<ele>561.200012</ele>
<time>2016-04-25T11:12:26.000Z</time>
</trkpt>
<trkpt lat="33.2326763" lon="35.7087597">
<ele>560.400024</ele>
<time>2016-04-25T11:12:27.000Z</time>
</trkpt>
<trkpt lat="33.2327800" lon="35.7087696">
<ele>559.599976</ele>
<time>2016-04-25T11:12:28.000Z</time>
</trkpt>
<trkpt lat="33.2328828" lon="35.7087790">
<ele>558.599976</ele>
<time>2016-04-25T11:12:29.000Z</time>
</trkpt>
<trkpt lat="33.2329866" lon="35.7087892">
<ele>557.799988</ele>
<time>2016-04-25T11:12:30.000Z</time>
</trkpt>
<trkpt lat="33.2330933" lon="35.7088009">
<ele>556.799988</ele>
<time>2016-04-25T11:12:31.000Z</time>
</trkpt>
<trkpt lat="33.2331976" lon="35.7088146">
<ele>556.000000</ele>
<time>2016-04-25T11:12:32.000Z</time>
</trkpt>
<trkpt lat="33.2333046" lon="35.7088279">
<ele>555.000000</ele>
<time>2016-04-25T11:12:33.000Z</time>
</trkpt>
<trkpt lat="33.2334102" lon="35.7088398">
<ele>554.200012</ele>
<time>2016-04-25T11:12:34.000Z</time>
</trkpt>
<trkpt lat="33.2335188" lon="35.7088530">
<ele>553.000000</ele>
<time>2016-04-25T11:12:35.000Z</time>
</trkpt>
<trkpt lat="33.2336292" lon="35.7088636">
<ele>551.599976</ele>
<time>2016-04-25T11:12:36.000Z</time>
</trkpt>
<trkpt lat="33.2337399" lon="35.7088749">
<ele>550.200012</ele>
<time>2016-04-25T11:12:37.000Z</time>
</trkpt>
<trkpt lat="33.2338455" lon="35.7088909">
<ele>549.000000</ele>
<time>2016-04-25T11:12:38.000Z</time>
</trkpt>
<trkpt lat="33.2339409" lon="35.7089168">
<ele>548.000000</ele>
<time>2016-04-25T11:12:39.000Z</time>
</trkpt>
<trkpt lat="33.2340255" lon="35.7089578">
<ele>547.200012</ele>
<time>2016-04-25T11:12:40.000Z</time>
</trkpt>
<trkpt lat="33.2340996" lon="35.7090165">
<ele>546.599976</ele>
<time>2016-04-25T11:12:41.000Z</time>
</trkpt>
<trkpt lat="33.2341630" lon="35.7090949">
<ele>546.200012</ele>
<time>2016-04-25T11:12:42.000Z</time>
</trkpt>
<trkpt lat="33.2342167" lon="35.7091893">
<ele>546.200012</ele>
<time>2016-04-25T11:12:43.000Z</time>
</trkpt>
<trkpt lat="33.2342607" lon="35.7092988">
<ele>546.400024</ele>
<time>2016-04-25T11:12:44.000Z</time>
</trkpt>
<trkpt lat="33.2343048" lon="35.7094104">
<ele>546.599976</ele>
<time>2016-04-25T11:12:45.000Z</time>
</trkpt>
<trkpt lat="33.2343555" lon="35.7095193">
<ele>546.200012</ele>
<time>2016-04-25T11:12:46.000Z</time>
</trkpt>
<trkpt lat="33.2344119" lon="35.7096243">
<ele>545.799988</ele>
<time>2016-04-25T11:12:47.000Z</time>
</trkpt>
<trkpt lat="33.2344735" lon="35.7097225">
<ele>545.000000</ele>
<time>2016-04-25T11:12:48.000Z</time>
</trkpt>
<trkpt lat="33.2345365" lon="35.7098127">
<ele>543.599976</ele>
<time>2016-04-25T11:12:49.000Z</time>
</trkpt>
<trkpt lat="33.2345951" lon="35.7099025">
<ele>542.200012</ele>
<time>2016-04-25T11:12:50.000Z</time>
</trkpt>
<trkpt lat="33.2346454" lon="35.7099975">
<ele>541.000000</ele>
<time>2016-04-25T11:12:51.000Z</time>
</trkpt>
<trkpt lat="33.2346814" lon="35.7101051">
<ele>540.200012</ele>
<time>2016-04-25T11:12:52.000Z</time>
</trkpt>
<trkpt lat="33.2347062" lon="35.7102205">
<ele>540.400024</ele>
<time>2016-04-25T11:12:53.000Z</time>
</trkpt>
<trkpt lat="33.2347274" lon="35.7103381">
<ele>540.599976</ele>
<time>2016-04-25T11:12:54.000Z</time>
</trkpt>
<trkpt lat="33.2347480" lon="35.7104579">
<ele>541.000000</ele>
<time>2016-04-25T11:12:55.000Z</time>
</trkpt>
<trkpt lat="33.2347680" lon="35.7105809">
<ele>541.599976</ele>
<time>2016-04-25T11:12:56.000Z</time>
</trkpt>
<trkpt lat="33.2347897" lon="35.7107041">
<ele>542.200012</ele>
<time>2016-04-25T11:12:57.000Z</time>
</trkpt>
<trkpt lat="33.2348153" lon="35.7108247">
<ele>542.799988</ele>
<time>2016-04-25T11:12:58.000Z</time>
</trkpt>
<trkpt lat="33.2348449" lon="35.7109442">
<ele>543.000000</ele>
<time>2016-04-25T11:12:59.000Z</time>
</trkpt>
<trkpt lat="33.2348809" lon="35.7110564">
<ele>543.200012</ele>
<time>2016-04-25T11:13:00.000Z</time>
</trkpt>
<trkpt lat="33.2349283" lon="35.7111572">
<ele>542.799988</ele>
<time>2016-04-25T11:13:01.000Z</time>
</trkpt>
<trkpt lat="33.2349880" lon="35.7112512">
<ele>541.799988</ele>
<time>2016-04-25T11:13:02.000Z</time>
</trkpt>
<trkpt lat="33.2350592" lon="35.7113362">
<ele>540.599976</ele>
<time>2016-04-25T11:13:03.000Z</time>
</trkpt>
<trkpt lat="33.2351367" lon="35.7114114">
<ele>539.200012</ele>
<time>2016-04-25T11:13:04.000Z</time>
</trkpt>
<trkpt lat="33.2352212" lon="35.7114842">
<ele>538.200012</ele>
<time>2016-04-25T11:13:05.000Z</time>
</trkpt>
<trkpt lat="33.2353067" lon="35.7115577">
<ele>537.400024</ele>
<time>2016-04-25T11:13:06.000Z</time>
</trkpt>
<trkpt lat="33.2353965" lon="35.7116263">
<ele>536.200012</ele>
<time>2016-04-25T11:13:07.000Z</time>
</trkpt>
<trkpt lat="33.2354900" lon="35.7116896">
<ele>535.000000</ele>
<time>2016-04-25T11:13:08.000Z</time>
</trkpt>
<trkpt lat="33.2355899" lon="35.7117409">
<ele>533.599976</ele>
<time>2016-04-25T11:13:09.000Z</time>
</trkpt>
<trkpt lat="33.2356921" lon="35.7117880">
<ele>532.000000</ele>
<time>2016-04-25T11:13:10.000Z</time>
</trkpt>
<trkpt lat="33.2357958" lon="35.7118310">
<ele>530.599976</ele>
<time>2016-04-25T11:13:11.000Z</time>
</trkpt>
<trkpt lat="33.2358948" lon="35.7118683">
<ele>529.000000</ele>
<time>2016-04-25T11:13:12.000Z</time>
</trkpt>
<trkpt lat="33.2359869" lon="35.7118983">
<ele>527.599976</ele>
<time>2016-04-25T11:13:13.000Z</time>
</trkpt>
<trkpt lat="33.2360772" lon="35.7119161">
<ele>526.200012</ele>
<time>2016-04-25T11:13:14.000Z</time>
</trkpt>
<trkpt lat="33.2361678" lon="35.7119185">
<ele>524.799988</ele>
<time>2016-04-25T11:13:15.000Z</time>
</trkpt>
<trkpt lat="33.2363307" lon="35.7118649">
<ele>521.400024</ele>
<time>2016-04-25T11:13:17.000Z</time>
</trkpt>
<trkpt lat="33.2364295" lon="35.7117246">
<ele>518.799988</ele>
<time>2016-04-25T11:13:19.000Z</time>
</trkpt>
<trkpt lat="33.2364717" lon="35.7115319">
<ele>517.200012</ele>
<time>2016-04-25T11:13:21.000Z</time>
</trkpt>
<trkpt lat="33.2364959" lon="35.7113108">
<ele>515.400024</ele>
<time>2016-04-25T11:13:23.000Z</time>
</trkpt>
<trkpt lat="33.2365094" lon="35.7111941">
<ele>514.400024</ele>
<time>2016-04-25T11:13:24.000Z</time>
</trkpt>
<trkpt lat="33.2365235" lon="35.7110770">
<ele>513.599976</ele>
<time>2016-04-25T11:13:25.000Z</time>
</trkpt>
<trkpt lat="33.2365388" lon="35.7109556">
<ele>513.000000</ele>
<time>2016-04-25T11:13:26.000Z</time>
</trkpt>
<trkpt lat="33.2365552" lon="35.7108327">
<ele>512.400024</ele>
<time>2016-04-25T11:13:27.000Z</time>
</trkpt>
<trkpt lat="33.2365731" lon="35.7107111">
<ele>511.799988</ele>
<time>2016-04-25T11:13:28.000Z</time>
</trkpt>
<trkpt lat="33.2365919" lon="35.7105918">
<ele>511.000000</ele>
<time>2016-04-25T11:13:29.000Z</time>
</trkpt>
<trkpt lat="33.2366105" lon="35.7104774">
<ele>510.600006</ele>
<time>2016-04-25T11:13:30.000Z</time>
</trkpt>
<trkpt lat="33.2366304" lon="35.7103681">
<ele>510.399994</ele>
<time>2016-04-25T11:13:31.000Z</time>
</trkpt>
<trkpt lat="33.2366878" lon="35.7101669">
<ele>509.799988</ele>
<time>2016-04-25T11:13:33.000Z</time>
</trkpt>
<trkpt lat="33.2367615" lon="35.7099874">
<ele>509.200012</ele>
<time>2016-04-25T11:13:35.000Z</time>
</trkpt>
<trkpt lat="33.2368391" lon="35.7098154">
<ele>508.399994</ele>
<time>2016-04-25T11:13:37.000Z</time>
</trkpt>
<trkpt lat="33.2369235" lon="35.7096441">
<ele>507.600006</ele>
<time>2016-04-25T11:13:39.000Z</time>
</trkpt>
<trkpt lat="33.2370068" lon="35.7094704">
<ele>506.600006</ele>
<time>2016-04-25T11:13:41.000Z</time>
</trkpt>
<trkpt lat="33.2370985" lon="35.7092983">
<ele>505.600037</ele>
<time>2016-04-25T11:13:43.000Z</time>
</trkpt>
<trkpt lat="33.2372212" lon="35.7091550">
<ele>504.600006</ele>
<time>2016-04-25T11:13:45.000Z</time>
</trkpt>
<trkpt lat="33.2373807" lon="35.7090745">
<ele>503.399994</ele>
<time>2016-04-25T11:13:47.000Z</time>
</trkpt>
<trkpt lat="33.2375604" lon="35.7090449">
<ele>502.200012</ele>
<time>2016-04-25T11:13:49.000Z</time>
</trkpt>
<trkpt lat="33.2376525" lon="35.7090304">
<ele>501.600006</ele>
<time>2016-04-25T11:13:50.000Z</time>
</trkpt>
<trkpt lat="33.2377439" lon="35.7090039">
<ele>501.000000</ele>
<time>2016-04-25T11:13:51.000Z</time>
</trkpt>
<trkpt lat="33.2378335" lon="35.7089612">
<ele>499.600006</ele>
<time>2016-04-25T11:13:52.000Z</time>
</trkpt>
<trkpt lat="33.2379194" lon="35.7089039">
<ele>498.200043</ele>
<time>2016-04-25T11:13:53.000Z</time>
</trkpt>
<trkpt lat="33.2379996" lon="35.7088319">
<ele>496.799988</ele>
<time>2016-04-25T11:13:54.000Z</time>
</trkpt>
<trkpt lat="33.2380774" lon="35.7087554">
<ele>495.400024</ele>
<time>2016-04-25T11:13:55.000Z</time>
</trkpt>
<trkpt lat="33.2381548" lon="35.7086778">
<ele>493.799988</ele>
<time>2016-04-25T11:13:56.000Z</time>
</trkpt>
<trkpt lat="33.2382293" lon="35.7085976">
<ele>492.600006</ele>
<time>2016-04-25T11:13:57.000Z</time>
</trkpt>
<trkpt lat="33.2382986" lon="35.7085126">
<ele>492.200012</ele>
<time>2016-04-25T11:13:58.000Z</time>
</trkpt>
<trkpt lat="33.2383611" lon="35.7084217">
<ele>491.600006</ele>
<time>2016-04-25T11:13:59.000Z</time>
</trkpt>
<trkpt lat="33.2384143" lon="35.7083226">
<ele>491.399994</ele>
<time>2016-04-25T11:14:00.000Z</time>
</trkpt>
<trkpt lat="33.2384522" lon="35.7082157">
<ele>490.999969</ele>
<time>2016-04-25T11:14:01.000Z</time>
</trkpt>
<trkpt lat="33.2384737" lon="35.7080999">
<ele>490.799988</ele>
<time>2016-04-25T11:14:02.000Z</time>
</trkpt>
<trkpt lat="33.2384867" lon="35.7079830">
<ele>490.600006</ele>
<time>2016-04-25T11:14:03.000Z</time>
</trkpt>
<trkpt lat="33.2384971" lon="35.7078611">
<ele>490.399994</ele>
<time>2016-04-25T11:14:04.000Z</time>
</trkpt>
<trkpt lat="33.2385084" lon="35.7077386">
<ele>490.199982</ele>
<time>2016-04-25T11:14:05.000Z</time>
</trkpt>
<trkpt lat="33.2385211" lon="35.7076192">
<ele>489.799988</ele>
<time>2016-04-25T11:14:06.000Z</time>
</trkpt>
<trkpt lat="33.2385333" lon="35.7075010">
<ele>489.600006</ele>
<time>2016-04-25T11:14:07.000Z</time>
</trkpt>
<trkpt lat="33.2385429" lon="35.7073883">
<ele>489.399994</ele>
<time>2016-04-25T11:14:08.000Z</time>
</trkpt>
<trkpt lat="33.2385520" lon="35.7072785">
<ele>489.200012</ele>
<time>2016-04-25T11:14:09.000Z</time>
</trkpt>
<trkpt lat="33.2385627" lon="35.7070632">
<ele>487.399994</ele>
<time>2016-04-25T11:14:11.000Z</time>
</trkpt>
<trkpt lat="33.2385368" lon="35.7068513">
<ele>485.399994</ele>
<time>2016-04-25T11:14:13.000Z</time>
</trkpt>
<trkpt lat="33.2384997" lon="35.7067509">
<ele>484.600006</ele>
<time>2016-04-25T11:14:14.000Z</time>
</trkpt>
<trkpt lat="33.2384504" lon="35.7066561">
<ele>484.200012</ele>
<time>2016-04-25T11:14:15.000Z</time>
</trkpt>
<trkpt lat="33.2383918" lon="35.7065659">
<ele>483.200012</ele>
<time>2016-04-25T11:14:16.000Z</time>
</trkpt>
<trkpt lat="33.2383291" lon="35.7064769">
<ele>482.399994</ele>
<time>2016-04-25T11:14:17.000Z</time>
</trkpt>
<trkpt lat="33.2382634" lon="35.7063866">
<ele>481.600006</ele>
<time>2016-04-25T11:14:18.000Z</time>
</trkpt>
<trkpt lat="33.2381953" lon="35.7062940">
<ele>481.000000</ele>
<time>2016-04-25T11:14:19.000Z</time>
</trkpt>
<trkpt lat="33.2381230" lon="35.7062022">
<ele>480.399994</ele>
<time>2016-04-25T11:14:20.000Z</time>
</trkpt>
<trkpt lat="33.2380509" lon="35.7061087">
<ele>479.799988</ele>
<time>2016-04-25T11:14:21.000Z</time>
</trkpt>
<trkpt lat="33.2379788" lon="35.7060150">
<ele>479.199982</ele>
<time>2016-04-25T11:14:22.000Z</time>
</trkpt>
<trkpt lat="33.2379079" lon="35.7059207">
<ele>478.600006</ele>
<time>2016-04-25T11:14:23.000Z</time>
</trkpt>
<trkpt lat="33.2378404" lon="35.7058322">
<ele>478.000000</ele>
<time>2016-04-25T11:14:24.000Z</time>
</trkpt>
<trkpt lat="33.2377296" lon="35.7056630">
<ele>476.799988</ele>
<time>2016-04-25T11:14:26.000Z</time>
</trkpt>
<trkpt lat="33.2376743" lon="35.7054863">
<ele>475.399994</ele>
<time>2016-04-25T11:14:28.000Z</time>
</trkpt>
<trkpt lat="33.2376967" lon="35.7052839">
<ele>472.599976</ele>
<time>2016-04-25T11:14:30.000Z</time>
</trkpt>
<trkpt lat="33.2377405" lon="35.7051887">
<ele>471.399994</ele>
<time>2016-04-25T11:14:31.000Z</time>
</trkpt>
<trkpt lat="33.2378005" lon="35.7051008">
<ele>470.200012</ele>
<time>2016-04-25T11:14:32.000Z</time>
</trkpt>
<trkpt lat="33.2378683" lon="35.7050243">
<ele>469.200012</ele>
<time>2016-04-25T11:14:33.000Z</time>
</trkpt>
<trkpt lat="33.2379370" lon="35.7049500">
<ele>468.600006</ele>
<time>2016-04-25T11:14:34.000Z</time>
</trkpt>
<trkpt lat="33.2380064" lon="35.7048765">
<ele>468.000000</ele>
<time>2016-04-25T11:14:35.000Z</time>
</trkpt>
<trkpt lat="33.2381439" lon="35.7047316">
<ele>467.200012</ele>
<time>2016-04-25T11:14:37.000Z</time>
</trkpt>
<trkpt lat="33.2382162" lon="35.7046638">
<ele>466.600037</ele>
<time>2016-04-25T11:14:38.000Z</time>
</trkpt>
<trkpt lat="33.2382931" lon="35.7045994">
<ele>465.999969</ele>
<time>2016-04-25T11:14:39.000Z</time>
</trkpt>
<trkpt lat="33.2383729" lon="35.7045370">
<ele>465.399994</ele>
<time>2016-04-25T11:14:40.000Z</time>
</trkpt>
<trkpt lat="33.2384603" lon="35.7044884">
<ele>465.199982</ele>
<time>2016-04-25T11:14:41.000Z</time>
</trkpt>
<trkpt lat="33.2385535" lon="35.7044592">
<ele>464.000000</ele>
<time>2016-04-25T11:14:42.000Z</time>
</trkpt>
<trkpt lat="33.2386481" lon="35.7044566">
<ele>463.200012</ele>
<time>2016-04-25T11:14:43.000Z</time>
</trkpt>
<trkpt lat="33.2387411" lon="35.7044709">
<ele>462.600006</ele>
<time>2016-04-25T11:14:44.000Z</time>
</trkpt>
<trkpt lat="33.2388327" lon="35.7044870">
<ele>462.000000</ele>
<time>2016-04-25T11:14:45.000Z</time>
</trkpt>
<trkpt lat="33.2390091" lon="35.7044906">
<ele>460.600006</ele>
<time>2016-04-25T11:14:47.000Z</time>
</trkpt>
<trkpt lat="33.2391497" lon="35.7044338">
<ele>459.600006</ele>
<time>2016-04-25T11:14:49.000Z</time>
</trkpt>
<trkpt lat="33.2392397" lon="35.7043100">
<ele>458.799988</ele>
<time>2016-04-25T11:14:51.000Z</time>
</trkpt>
<trkpt lat="33.2392429" lon="35.7041225">
<ele>457.600006</ele>
<time>2016-04-25T11:14:53.000Z</time>
</trkpt>
<trkpt lat="33.2391653" lon="35.7039441">
<ele>456.600006</ele>
<time>2016-04-25T11:14:55.000Z</time>
</trkpt>
<trkpt lat="33.2390359" lon="35.7037977">
<ele>455.399994</ele>
<time>2016-04-25T11:14:57.000Z</time>
</trkpt>
<trkpt lat="33.2388958" lon="35.7036553">
<ele>453.399994</ele>
<time>2016-04-25T11:14:59.000Z</time>
</trkpt>
<trkpt lat="33.2387827" lon="35.7035182">
<ele>451.600006</ele>
<time>2016-04-25T11:15:01.000Z</time>
</trkpt>
<trkpt lat="33.2387287" lon="35.7033831">
<ele>449.800018</ele>
<time>2016-04-25T11:15:03.000Z</time>
</trkpt>
<trkpt lat="33.2387451" lon="35.7032463">
<ele>448.200043</ele>
<time>2016-04-25T11:15:05.000Z</time>
</trkpt>
<trkpt lat="33.2388262" lon="35.7031240">
<ele>447.599976</ele>
<time>2016-04-25T11:15:07.000Z</time>
</trkpt>
<trkpt lat="33.2389513" lon="35.7030650">
<ele>447.599976</ele>
<time>2016-04-25T11:15:09.000Z</time>
</trkpt>
<trkpt lat="33.2390731" lon="35.7030621">
<ele>448.200043</ele>
<time>2016-04-25T11:15:11.000Z</time>
</trkpt>
<trkpt lat="33.2391764" lon="35.7030569">
<ele>448.600006</ele>
<time>2016-04-25T11:15:13.000Z</time>
</trkpt>
<trkpt lat="33.2392710" lon="35.7030376">
<ele>449.000031</ele>
<time>2016-04-25T11:15:15.000Z</time>
</trkpt>
<trkpt lat="33.2393600" lon="35.7030073">
<ele>447.799988</ele>
<time>2016-04-25T11:15:17.000Z</time>
</trkpt>
<trkpt lat="33.2394450" lon="35.7029712">
<ele>446.200012</ele>
<time>2016-04-25T11:15:19.000Z</time>
</trkpt>
<trkpt lat="33.2395595" lon="35.7028840">
<ele>443.600006</ele>
<time>2016-04-25T11:15:22.000Z</time>
</trkpt>
<trkpt lat="33.2396202" lon="35.7027985">
<ele>442.000000</ele>
<time>2016-04-25T11:15:24.000Z</time>
</trkpt>
<trkpt lat="33.2396841" lon="35.7026680">
<ele>439.799988</ele>
<time>2016-04-25T11:15:27.000Z</time>
</trkpt>
<trkpt lat="33.2397382" lon="35.7025303">
<ele>438.799957</ele>
<time>2016-04-25T11:15:30.000Z</time>
</trkpt>
<trkpt lat="33.2397727" lon="35.7024261">
<ele>438.600006</ele>
<time>2016-04-25T11:17:52.000Z</time>
</trkpt>
<trkpt lat="33.2398139" lon="35.7023166">
<ele>438.399994</ele>
<time>2016-04-25T11:17:55.000Z</time>
</trkpt>
<trkpt lat="33.2398554" lon="35.7022153">
<ele>438.200012</ele>
<time>2016-04-25T11:17:57.000Z</time>
</trkpt>
<trkpt lat="33.2399029" lon="35.7020926">
<ele>436.600006</ele>
<time>2016-04-25T11:17:59.000Z</time>
</trkpt>
<trkpt lat="33.2399559" lon="35.7019525">
<ele>435.000031</ele>
<time>2016-04-25T11:18:01.000Z</time>
</trkpt>
<trkpt lat="33.2400174" lon="35.7017931">
<ele>434.600006</ele>
<time>2016-04-25T11:18:03.000Z</time>
</trkpt>
<trkpt lat="33.2400840" lon="35.7016128">
<ele>434.000000</ele>
<time>2016-04-25T11:18:05.000Z</time>
</trkpt>
<trkpt lat="33.2401575" lon="35.7014138">
<ele>432.399994</ele>
<time>2016-04-25T11:18:07.000Z</time>
</trkpt>
<trkpt lat="33.2402302" lon="35.7012079">
<ele>430.200012</ele>
<time>2016-04-25T11:18:09.000Z</time>
</trkpt>
<trkpt lat="33.2402693" lon="35.7011026">
<ele>428.600006</ele>
<time>2016-04-25T11:18:10.000Z</time>
</trkpt>
<trkpt lat="33.2403108" lon="35.7009940">
<ele>426.999969</ele>
<time>2016-04-25T11:18:11.000Z</time>
</trkpt>
<trkpt lat="33.2403520" lon="35.7008818">
<ele>425.200012</ele>
<time>2016-04-25T11:18:12.000Z</time>
</trkpt>
<trkpt lat="33.2403928" lon="35.7007663">
<ele>423.799988</ele>
<time>2016-04-25T11:18:13.000Z</time>
</trkpt>
<trkpt lat="33.2404364" lon="35.7006492">
<ele>423.000000</ele>
<time>2016-04-25T11:18:14.000Z</time>
</trkpt>
<trkpt lat="33.2404812" lon="35.7005329">
<ele>422.200012</ele>
<time>2016-04-25T11:18:15.000Z</time>
</trkpt>
<trkpt lat="33.2405245" lon="35.7004165">
<ele>421.399994</ele>
<time>2016-04-25T11:18:16.000Z</time>
</trkpt>
<trkpt lat="33.2405692" lon="35.7003006">
<ele>420.600006</ele>
<time>2016-04-25T11:18:17.000Z</time>
</trkpt>
<trkpt lat="33.2406134" lon="35.7001839">
<ele>419.799988</ele>
<time>2016-04-25T11:18:18.000Z</time>
</trkpt>
<trkpt lat="33.2406561" lon="35.7000664">
<ele>419.000000</ele>
<time>2016-04-25T11:18:19.000Z</time>
</trkpt>
<trkpt lat="33.2406969" lon="35.6999478">
<ele>418.200012</ele>
<time>2016-04-25T11:18:20.000Z</time>
</trkpt>
<trkpt lat="33.2407328" lon="35.6998275">
<ele>417.400024</ele>
<time>2016-04-25T11:18:21.000Z</time>
</trkpt>
<trkpt lat="33.2407600" lon="35.6997050">
<ele>416.600037</ele>
<time>2016-04-25T11:18:22.000Z</time>
</trkpt>
<trkpt lat="33.2407777" lon="35.6995787">
<ele>415.799988</ele>
<time>2016-04-25T11:18:23.000Z</time>
</trkpt>
<trkpt lat="33.2407860" lon="35.6994545">
<ele>415.000000</ele>
<time>2016-04-25T11:18:24.000Z</time>
</trkpt>
<trkpt lat="33.2407886" lon="35.6993312">
<ele>414.200012</ele>
<time>2016-04-25T11:18:25.000Z</time>
</trkpt>
<trkpt lat="33.2407892" lon="35.6992076">
<ele>413.399994</ele>
<time>2016-04-25T11:18:26.000Z</time>
</trkpt>
<trkpt lat="33.2407900" lon="35.6990838">
<ele>412.799988</ele>
<time>2016-04-25T11:18:27.000Z</time>
</trkpt>
<trkpt lat="33.2407918" lon="35.6989577">
<ele>412.000000</ele>
<time>2016-04-25T11:18:28.000Z</time>
</trkpt>
<trkpt lat="33.2407947" lon="35.6988327">
<ele>411.200012</ele>
<time>2016-04-25T11:18:29.000Z</time>
</trkpt>
<trkpt lat="33.2408010" lon="35.6987104">
<ele>410.399994</ele>
<time>2016-04-25T11:18:30.000Z</time>
</trkpt>
<trkpt lat="33.2408125" lon="35.6985933">
<ele>409.799988</ele>
<time>2016-04-25T11:18:31.000Z</time>
</trkpt>
<trkpt lat="33.2408301" lon="35.6984830">
<ele>409.399963</ele>
<time>2016-04-25T11:18:32.000Z</time>
</trkpt>
<trkpt lat="33.2408917" lon="35.6983009">
<ele>408.399994</ele>
<time>2016-04-25T11:18:34.000Z</time>
</trkpt>
<trkpt lat="33.2410242" lon="35.6982143">
<ele>407.399994</ele>
<time>2016-04-25T11:18:36.000Z</time>
</trkpt>
<trkpt lat="33.2412013" lon="35.6982446">
<ele>406.000000</ele>
<time>2016-04-25T11:18:38.000Z</time>
</trkpt>
<trkpt lat="33.2412951" lon="35.6982923">
<ele>405.399994</ele>
<time>2016-04-25T11:18:39.000Z</time>
</trkpt>
<trkpt lat="33.2413826" lon="35.6983486">
<ele>405.000000</ele>
<time>2016-04-25T11:18:40.000Z</time>
</trkpt>
<trkpt lat="33.2414691" lon="35.6983979">
<ele>404.399994</ele>
<time>2016-04-25T11:18:41.000Z</time>
</trkpt>
<trkpt lat="33.2415621" lon="35.6984385">
<ele>403.799988</ele>
<time>2016-04-25T11:18:42.000Z</time>
</trkpt>
<trkpt lat="33.2416558" lon="35.6984662">
<ele>403.200012</ele>
<time>2016-04-25T11:18:43.000Z</time>
</trkpt>
<trkpt lat="33.2417524" lon="35.6984728">
<ele>402.399994</ele>
<time>2016-04-25T11:18:44.000Z</time>
</trkpt>
<trkpt lat="33.2418488" lon="35.6984534">
<ele>401.799988</ele>
<time>2016-04-25T11:18:45.000Z</time>
</trkpt>
<trkpt lat="33.2419384" lon="35.6984151">
<ele>401.199982</ele>
<time>2016-04-25T11:18:46.000Z</time>
</trkpt>
<trkpt lat="33.2420210" lon="35.6983591">
<ele>400.399994</ele>
<time>2016-04-25T11:18:47.000Z</time>
</trkpt>
<trkpt lat="33.2420984" lon="35.6982930">
<ele>399.800018</ele>
<time>2016-04-25T11:18:48.000Z</time>
</trkpt>
<trkpt lat="33.2421774" lon="35.6982200">
<ele>399.200012</ele>
<time>2016-04-25T11:18:49.000Z</time>
</trkpt>
<trkpt lat="33.2422509" lon="35.6981472">
<ele>398.799988</ele>
<time>2016-04-25T11:18:50.000Z</time>
</trkpt>
<trkpt lat="33.2423221" lon="35.6980747">
<ele>398.200043</ele>
<time>2016-04-25T11:18:51.000Z</time>
</trkpt>
<trkpt lat="33.2423924" lon="35.6980050">
<ele>397.600006</ele>
<time>2016-04-25T11:18:52.000Z</time>
</trkpt>
<trkpt lat="33.2424635" lon="35.6979369">
<ele>397.000000</ele>
<time>2016-04-25T11:18:53.000Z</time>
</trkpt>
<trkpt lat="33.2425977" lon="35.6978074">
<ele>396.000000</ele>
<time>2016-04-25T11:18:55.000Z</time>
</trkpt>
<trkpt lat="33.2427195" lon="35.6976769">
<ele>394.599976</ele>
<time>2016-04-25T11:18:57.000Z</time>
</trkpt>
<trkpt lat="33.2428109" lon="35.6975505">
<ele>393.399994</ele>
<time>2016-04-25T11:18:59.000Z</time>
</trkpt>
<trkpt lat="33.2428806" lon="35.6974483">
<ele>392.400024</ele>
<time>2016-04-25T11:19:01.000Z</time>
</trkpt>
<trkpt lat="33.2429300" lon="35.6973573">
<ele>391.200012</ele>
<time>2016-04-25T11:19:04.000Z</time>
</trkpt>
<trkpt lat="33.2429736" lon="35.6972290">
<ele>389.799988</ele>
<time>2016-04-25T11:20:30.000Z</time>
</trkpt>
<trkpt lat="33.2430436" lon="35.6970951">
<ele>388.200012</ele>
<time>2016-04-25T11:20:33.000Z</time>
</trkpt>
<trkpt lat="33.2431009" lon="35.6969783">
<ele>386.799988</ele>
<time>2016-04-25T11:20:35.000Z</time>
</trkpt>
<trkpt lat="33.2431682" lon="35.6968424">
<ele>385.399994</ele>
<time>2016-04-25T11:20:37.000Z</time>
</trkpt>
<trkpt lat="33.2432383" lon="35.6967021">
<ele>384.200043</ele>
<time>2016-04-25T11:20:39.000Z</time>
</trkpt>
<trkpt lat="33.2433043" lon="35.6965503">
<ele>383.000000</ele>
<time>2016-04-25T11:20:41.000Z</time>
</trkpt>
<trkpt lat="33.2433575" lon="35.6963878">
<ele>381.799988</ele>
<time>2016-04-25T11:20:43.000Z</time>
</trkpt>
<trkpt lat="33.2433898" lon="35.6962002">
<ele>380.399994</ele>
<time>2016-04-25T11:20:45.000Z</time>
</trkpt>
<trkpt lat="33.2434108" lon="35.6959960">
<ele>379.600006</ele>
<time>2016-04-25T11:20:47.000Z</time>
</trkpt>
<trkpt lat="33.2434303" lon="35.6957883">
<ele>379.000000</ele>
<time>2016-04-25T11:20:49.000Z</time>
</trkpt>
<trkpt lat="33.2434513" lon="35.6955779">
<ele>378.200012</ele>
<time>2016-04-25T11:20:51.000Z</time>
</trkpt>
<trkpt lat="33.2434570" lon="35.6954686">
<ele>378.000000</ele>
<time>2016-04-25T11:20:52.000Z</time>
</trkpt>
<trkpt lat="33.2434536" lon="35.6952624">
<ele>378.000000</ele>
<time>2016-04-25T11:20:54.000Z</time>
</trkpt>
<trkpt lat="33.2434254" lon="35.6950650">
<ele>377.799957</ele>
<time>2016-04-25T11:20:56.000Z</time>
</trkpt>
<trkpt lat="33.2433810" lon="35.6948709">
<ele>377.600037</ele>
<time>2016-04-25T11:20:58.000Z</time>
</trkpt>
<trkpt lat="33.2433329" lon="35.6946843">
<ele>377.399994</ele>
<time>2016-04-25T11:21:00.000Z</time>
</trkpt>
<trkpt lat="33.2432872" lon="35.6945041">
<ele>377.399994</ele>
<time>2016-04-25T11:21:02.000Z</time>
</trkpt>
<trkpt lat="33.2432399" lon="35.6943259">
<ele>377.200012</ele>
<time>2016-04-25T11:21:04.000Z</time>
</trkpt>
<trkpt lat="33.2431926" lon="35.6941418">
<ele>376.999969</ele>
<time>2016-04-25T11:21:06.000Z</time>
</trkpt>
<trkpt lat="33.2431452" lon="35.6939612">
<ele>376.799988</ele>
<time>2016-04-25T11:21:08.000Z</time>
</trkpt>
<trkpt lat="33.2430953" lon="35.6937745">
<ele>376.600006</ele>
<time>2016-04-25T11:21:10.000Z</time>
</trkpt>
<trkpt lat="33.2430453" lon="35.6935855">
<ele>376.600006</ele>
<time>2016-04-25T11:21:12.000Z</time>
</trkpt>
<trkpt lat="33.2429946" lon="35.6933943">
<ele>376.199982</ele>
<time>2016-04-25T11:21:14.000Z</time>
</trkpt>
<trkpt lat="33.2429466" lon="35.6932038">
<ele>375.200012</ele>
<time>2016-04-25T11:21:16.000Z</time>
</trkpt>
<trkpt lat="33.2428985" lon="35.6930086">
<ele>374.399994</ele>
<time>2016-04-25T11:21:18.000Z</time>
</trkpt>
<trkpt lat="33.2428490" lon="35.6928227">
<ele>374.399994</ele>
<time>2016-04-25T11:21:20.000Z</time>
</trkpt>
<trkpt lat="33.2428006" lon="35.6926382">
<ele>374.600006</ele>
<time>2016-04-25T11:21:22.000Z</time>
</trkpt>
<trkpt lat="33.2427556" lon="35.6924581">
<ele>374.600006</ele>
<time>2016-04-25T11:21:24.000Z</time>
</trkpt>
<trkpt lat="33.2427093" lon="35.6922823">
<ele>374.800018</ele>
<time>2016-04-25T11:21:26.000Z</time>
</trkpt>
<trkpt lat="33.2426658" lon="35.6921072">
<ele>374.800018</ele>
<time>2016-04-25T11:21:28.000Z</time>
</trkpt>
<trkpt lat="33.2426172" lon="35.6919259">
<ele>374.600006</ele>
<time>2016-04-25T11:21:30.000Z</time>
</trkpt>
<trkpt lat="33.2425727" lon="35.6917366">
<ele>374.200012</ele>
<time>2016-04-25T11:21:32.000Z</time>
</trkpt>
<trkpt lat="33.2425494" lon="35.6915300">
<ele>373.799988</ele>
<time>2016-04-25T11:21:34.000Z</time>
</trkpt>
<trkpt lat="33.2425838" lon="35.6913221">
<ele>373.200043</ele>
<time>2016-04-25T11:21:36.000Z</time>
</trkpt>
<trkpt lat="33.2426696" lon="35.6911407">
<ele>371.200012</ele>
<time>2016-04-25T11:21:38.000Z</time>
</trkpt>
<trkpt lat="33.2427688" lon="35.6909627">
<ele>368.799988</ele>
<time>2016-04-25T11:21:40.000Z</time>
</trkpt>
<trkpt lat="33.2428225" lon="35.6908742">
<ele>367.600006</ele>
<time>2016-04-25T11:21:41.000Z</time>
</trkpt>
<trkpt lat="33.2428757" lon="35.6907840">
<ele>366.399994</ele>
<time>2016-04-25T11:21:42.000Z</time>
</trkpt>
<trkpt lat="33.2429802" lon="35.6906039">
<ele>366.000000</ele>
<time>2016-04-25T11:21:44.000Z</time>
</trkpt>
<trkpt lat="33.2430307" lon="35.6905137">
<ele>365.799988</ele>
<time>2016-04-25T11:21:45.000Z</time>
</trkpt>
<trkpt lat="33.2430800" lon="35.6904221">
<ele>364.799988</ele>
<time>2016-04-25T11:21:46.000Z</time>
</trkpt>
<trkpt lat="33.2431268" lon="35.6903259">
<ele>363.600006</ele>
<time>2016-04-25T11:21:47.000Z</time>
</trkpt>
<trkpt lat="33.2431749" lon="35.6902313">
<ele>362.600006</ele>
<time>2016-04-25T11:21:48.000Z</time>
</trkpt>
<trkpt lat="33.2432256" lon="35.6901386">
<ele>361.600006</ele>
<time>2016-04-25T11:21:49.000Z</time>
</trkpt>
<trkpt lat="33.2432810" lon="35.6900534">
<ele>360.399994</ele>
<time>2016-04-25T11:21:50.000Z</time>
</trkpt>
<trkpt lat="33.2434204" lon="35.6899497">
<ele>359.399994</ele>
<time>2016-04-25T11:21:52.000Z</time>
</trkpt>
<trkpt lat="33.2435959" lon="35.6899786">
<ele>358.000000</ele>
<time>2016-04-25T11:21:54.000Z</time>
</trkpt>
<trkpt lat="33.2437208" lon="35.6901088">
<ele>358.200012</ele>
<time>2016-04-25T11:21:56.000Z</time>
</trkpt>
<trkpt lat="33.2437935" lon="35.6902824">
<ele>359.600006</ele>
<time>2016-04-25T11:21:58.000Z</time>
</trkpt>
<trkpt lat="33.2438650" lon="35.6904419">
<ele>360.800018</ele>
<time>2016-04-25T11:22:00.000Z</time>
</trkpt>
<trkpt lat="33.2439680" lon="35.6905923">
<ele>360.800018</ele>
<time>2016-04-25T11:22:02.000Z</time>
</trkpt>
<trkpt lat="33.2441086" lon="35.6907067">
<ele>359.000000</ele>
<time>2016-04-25T11:22:04.000Z</time>
</trkpt>
<trkpt lat="33.2441910" lon="35.6907524">
<ele>358.000000</ele>
<time>2016-04-25T11:22:05.000Z</time>
</trkpt>
<trkpt lat="33.2442797" lon="35.6907960">
<ele>356.799988</ele>
<time>2016-04-25T11:22:06.000Z</time>
</trkpt>
<trkpt lat="33.2443702" lon="35.6908420">
<ele>355.599976</ele>
<time>2016-04-25T11:22:07.000Z</time>
</trkpt>
<trkpt lat="33.2444595" lon="35.6908910">
<ele>354.399994</ele>
<time>2016-04-25T11:22:08.000Z</time>
</trkpt>
<trkpt lat="33.2445525" lon="35.6909429">
<ele>353.200012</ele>
<time>2016-04-25T11:22:09.000Z</time>
</trkpt>
<trkpt lat="33.2446510" lon="35.6909971">
<ele>351.999969</ele>
<time>2016-04-25T11:22:10.000Z</time>
</trkpt>
<trkpt lat="33.2447535" lon="35.6910530">
<ele>350.600006</ele>
<time>2016-04-25T11:22:11.000Z</time>
</trkpt>
<trkpt lat="33.2448587" lon="35.6911072">
<ele>349.200012</ele>
<time>2016-04-25T11:22:12.000Z</time>
</trkpt>
<trkpt lat="33.2449633" lon="35.6911623">
<ele>348.000000</ele>
<time>2016-04-25T11:22:13.000Z</time>
</trkpt>
<trkpt lat="33.2450673" lon="35.6912178">
<ele>346.800018</ele>
<time>2016-04-25T11:22:14.000Z</time>
</trkpt>
<trkpt lat="33.2451712" lon="35.6912734">
<ele>346.200012</ele>
<time>2016-04-25T11:22:15.000Z</time>
</trkpt>
<trkpt lat="33.2452746" lon="35.6913287">
<ele>346.200012</ele>
<time>2016-04-25T11:22:16.000Z</time>
</trkpt>
<trkpt lat="33.2453765" lon="35.6913854">
<ele>346.399994</ele>
<time>2016-04-25T11:22:17.000Z</time>
</trkpt>
<trkpt lat="33.2454754" lon="35.6914397">
<ele>346.800018</ele>
<time>2016-04-25T11:22:18.000Z</time>
</trkpt>
<trkpt lat="33.2455708" lon="35.6914918">
<ele>347.200012</ele>
<time>2016-04-25T11:22:19.000Z</time>
</trkpt>
<trkpt lat="33.2456637" lon="35.6915415">
<ele>347.799988</ele>
<time>2016-04-25T11:22:20.000Z</time>
</trkpt>
<trkpt lat="33.2457527" lon="35.6915889">
<ele>348.000000</ele>
<time>2016-04-25T11:22:21.000Z</time>
</trkpt>
<trkpt lat="33.2458356" lon="35.6916345">
<ele>348.399994</ele>
<time>2016-04-25T11:22:22.000Z</time>
</trkpt>
<trkpt lat="33.2459912" lon="35.6917233">
<ele>349.200012</ele>
<time>2016-04-25T11:22:24.000Z</time>
</trkpt>
<trkpt lat="33.2461334" lon="35.6918027">
<ele>349.600006</ele>
<time>2016-04-25T11:22:26.000Z</time>
</trkpt>
<trkpt lat="33.2462587" lon="35.6918767">
<ele>350.000000</ele>
<time>2016-04-25T11:22:28.000Z</time>
</trkpt>
<trkpt lat="33.2463693" lon="35.6919550">
<ele>350.600006</ele>
<time>2016-04-25T11:22:30.000Z</time>
</trkpt>
<trkpt lat="33.2464726" lon="35.6920285">
<ele>351.000000</ele>
<time>2016-04-25T11:22:32.000Z</time>
</trkpt>
<trkpt lat="33.2465756" lon="35.6920967">
<ele>351.399994</ele>
<time>2016-04-25T11:22:34.000Z</time>
</trkpt>
<trkpt lat="33.2466791" lon="35.6921660">
<ele>351.799988</ele>
<time>2016-04-25T11:22:36.000Z</time>
</trkpt>
<trkpt lat="33.2467779" lon="35.6922324">
<ele>352.200012</ele>
<time>2016-04-25T11:22:38.000Z</time>
</trkpt>
<trkpt lat="33.2468708" lon="35.6922920">
<ele>352.600037</ele>
<time>2016-04-25T11:22:40.000Z</time>
</trkpt>
<trkpt lat="33.2469584" lon="35.6923497">
<ele>353.200012</ele>
<time>2016-04-25T11:22:42.000Z</time>
</trkpt>
<trkpt lat="33.2470529" lon="35.6924067">
<ele>353.600006</ele>
<time>2016-04-25T11:22:44.000Z</time>
</trkpt>
<trkpt lat="33.2471519" lon="35.6924552">
<ele>354.000000</ele>
<time>2016-04-25T11:22:46.000Z</time>
</trkpt>
<trkpt lat="33.2472491" lon="35.6924968">
<ele>354.600006</ele>
<time>2016-04-25T11:22:48.000Z</time>
</trkpt>
<trkpt lat="33.2473457" lon="35.6925228">
<ele>354.799988</ele>
<time>2016-04-25T11:22:50.000Z</time>
</trkpt>
<trkpt lat="33.2474719" lon="35.6925196">
<ele>355.200012</ele>
<time>2016-04-25T11:22:53.000Z</time>
</trkpt>
<trkpt lat="33.2475710" lon="35.6924681">
<ele>355.200012</ele>
<time>2016-04-25T11:22:58.000Z</time>
</trkpt>
<trkpt lat="33.2476451" lon="35.6923678">
<ele>354.799988</ele>
<time>2016-04-25T11:23:09.000Z</time>
</trkpt>
<trkpt lat="33.2477274" lon="35.6922453">
<ele>354.000000</ele>
<time>2016-04-25T11:23:12.000Z</time>
</trkpt>
<trkpt lat="33.2477988" lon="35.6921525">
<ele>353.400024</ele>
<time>2016-04-25T11:23:14.000Z</time>
</trkpt>
<trkpt lat="33.2478887" lon="35.6920712">
<ele>352.799957</ele>
<time>2016-04-25T11:23:16.000Z</time>
</trkpt>
<trkpt lat="33.2479994" lon="35.6920102">
<ele>352.200012</ele>
<time>2016-04-25T11:23:18.000Z</time>
</trkpt>
<trkpt lat="33.2481141" lon="35.6919472">
<ele>351.600006</ele>
<time>2016-04-25T11:23:20.000Z</time>
</trkpt>
<trkpt lat="33.2482150" lon="35.6918570">
<ele>351.000000</ele>
<time>2016-04-25T11:23:22.000Z</time>
</trkpt>
<trkpt lat="33.2482782" lon="35.6917288">
<ele>350.200012</ele>
<time>2016-04-25T11:23:24.000Z</time>
</trkpt>
<trkpt lat="33.2482963" lon="35.6915807">
<ele>349.399994</ele>
<time>2016-04-25T11:23:26.000Z</time>
</trkpt>
<trkpt lat="33.2482862" lon="35.6914265">
<ele>348.799988</ele>
<time>2016-04-25T11:23:28.000Z</time>
</trkpt>
<trkpt lat="33.2482464" lon="35.6912826">
<ele>348.200043</ele>
<time>2016-04-25T11:23:30.000Z</time>
</trkpt>
<trkpt lat="33.2481797" lon="35.6911544">
<ele>348.000000</ele>
<time>2016-04-25T11:23:32.000Z</time>
</trkpt>
<trkpt lat="33.2480997" lon="35.6910416">
<ele>347.600006</ele>
<time>2016-04-25T11:23:34.000Z</time>
</trkpt>
<trkpt lat="33.2480159" lon="35.6909342">
<ele>347.600006</ele>
<time>2016-04-25T11:23:36.000Z</time>
</trkpt>
<trkpt lat="33.2479348" lon="35.6908278">
<ele>347.399994</ele>
<time>2016-04-25T11:23:38.000Z</time>
</trkpt>
<trkpt lat="33.2478626" lon="35.6907220">
<ele>347.399994</ele>
<time>2016-04-25T11:23:40.000Z</time>
</trkpt>
<trkpt lat="33.2477917" lon="35.6906228">
<ele>347.200012</ele>
<time>2016-04-25T11:23:42.000Z</time>
</trkpt>
<trkpt lat="33.2477242" lon="35.6905236">
<ele>347.200012</ele>
<time>2016-04-25T11:23:44.000Z</time>
</trkpt>
<trkpt lat="33.2476667" lon="35.6904198">
<ele>347.399994</ele>
<time>2016-04-25T11:23:46.000Z</time>
</trkpt>
<trkpt lat="33.2476155" lon="35.6903085">
<ele>347.399994</ele>
<time>2016-04-25T11:23:48.000Z</time>
</trkpt>
<trkpt lat="33.2475729" lon="35.6901907">
<ele>347.399994</ele>
<time>2016-04-25T11:23:50.000Z</time>
</trkpt>
<trkpt lat="33.2475482" lon="35.6900731">
<ele>347.399994</ele>
<time>2016-04-25T11:23:52.000Z</time>
</trkpt>
<trkpt lat="33.2475230" lon="35.6899176">
<ele>347.399994</ele>
<time>2016-04-25T11:23:55.000Z</time>
</trkpt>
<trkpt lat="33.2475119" lon="35.6897631">
<ele>347.799988</ele>
<time>2016-04-25T11:23:58.000Z</time>
</trkpt>
<trkpt lat="33.2474988" lon="35.6895982">
<ele>347.600006</ele>
<time>2016-04-25T11:24:01.000Z</time>
</trkpt>
<trkpt lat="33.2474892" lon="35.6894826">
<ele>347.600006</ele>
<time>2016-04-25T11:24:03.000Z</time>
</trkpt>
<trkpt lat="33.2474844" lon="35.6893689">
<ele>347.799988</ele>
<time>2016-04-25T11:24:05.000Z</time>
</trkpt>
<trkpt lat="33.2474816" lon="35.6892086">
<ele>348.200043</ele>
<time>2016-04-25T11:24:08.000Z</time>
</trkpt>
<trkpt lat="33.2474685" lon="35.6890545">
<ele>348.200043</ele>
<time>2016-04-25T11:24:11.000Z</time>
</trkpt>
<trkpt lat="33.2474600" lon="35.6888942">
<ele>348.600006</ele>
<time>2016-04-25T11:24:14.000Z</time>
</trkpt>
<trkpt lat="33.2474492" lon="35.6887365">
<ele>349.200012</ele>
<time>2016-04-25T11:24:17.000Z</time>
</trkpt>
<trkpt lat="33.2474419" lon="35.6885858">
<ele>349.399994</ele>
<time>2016-04-25T11:24:20.000Z</time>
</trkpt>
<trkpt lat="33.2474319" lon="35.6884418">
<ele>349.399994</ele>
<time>2016-04-25T11:24:23.000Z</time>
</trkpt>
<trkpt lat="33.2474344" lon="35.6883004">
<ele>349.399994</ele>
<time>2016-04-25T11:24:26.000Z</time>
</trkpt>
<trkpt lat="33.2474325" lon="35.6881616">
<ele>349.399994</ele>
<time>2016-04-25T11:24:29.000Z</time>
</trkpt>
<trkpt lat="33.2474293" lon="35.6880249">
<ele>349.399994</ele>
<time>2016-04-25T11:24:32.000Z</time>
</trkpt>
<trkpt lat="33.2474319" lon="35.6878795">
<ele>350.200012</ele>
<time>2016-04-25T11:24:35.000Z</time>
</trkpt>
<trkpt lat="33.2474362" lon="35.6877257">
<ele>350.399994</ele>
<time>2016-04-25T11:24:38.000Z</time>
</trkpt>
<trkpt lat="33.2474440" lon="35.6875671">
<ele>350.399994</ele>
<time>2016-04-25T11:24:41.000Z</time>
</trkpt>
<trkpt lat="33.2474498" lon="35.6874593">
<ele>350.399994</ele>
<time>2016-04-25T11:24:43.000Z</time>
</trkpt>
<trkpt lat="33.2474504" lon="35.6873493">
<ele>350.399994</ele>
<time>2016-04-25T11:24:45.000Z</time>
</trkpt>
<trkpt lat="33.2474547" lon="35.6872365">
<ele>350.399994</ele>
<time>2016-04-25T11:24:47.000Z</time>
</trkpt>
<trkpt lat="33.2474631" lon="35.6871212">
<ele>350.600006</ele>
<time>2016-04-25T11:24:49.000Z</time>
</trkpt>
<trkpt lat="33.2474707" lon="35.6870005">
<ele>350.600006</ele>
<time>2016-04-25T11:24:51.000Z</time>
</trkpt>
<trkpt lat="33.2474787" lon="35.6868749">
<ele>350.399994</ele>
<time>2016-04-25T11:24:53.000Z</time>
</trkpt>
<trkpt lat="33.2474901" lon="35.6867516">
<ele>350.399994</ele>
<time>2016-04-25T11:24:55.000Z</time>
</trkpt>
<trkpt lat="33.2474974" lon="35.6866252">
<ele>350.200012</ele>
<time>2016-04-25T11:24:57.000Z</time>
</trkpt>
<trkpt lat="33.2474999" lon="35.6864951">
<ele>350.000000</ele>
<time>2016-04-25T11:24:59.000Z</time>
</trkpt>
<trkpt lat="33.2475037" lon="35.6863623">
<ele>349.799957</ele>
<time>2016-04-25T11:25:01.000Z</time>
</trkpt>
<trkpt lat="33.2475118" lon="35.6862248">
<ele>349.200012</ele>
<time>2016-04-25T11:25:03.000Z</time>
</trkpt>
<trkpt lat="33.2475182" lon="35.6860820">
<ele>348.799988</ele>
<time>2016-04-25T11:25:05.000Z</time>
</trkpt>
<trkpt lat="33.2475226" lon="35.6859337">
<ele>348.399994</ele>
<time>2016-04-25T11:25:07.000Z</time>
</trkpt>
<trkpt lat="33.2475267" lon="35.6857803">
<ele>348.200043</ele>
<time>2016-04-25T11:25:09.000Z</time>
</trkpt>
<trkpt lat="33.2475322" lon="35.6856201">
<ele>347.799988</ele>
<time>2016-04-25T11:25:11.000Z</time>
</trkpt>
<trkpt lat="33.2475425" lon="35.6854528">
<ele>347.399994</ele>
<time>2016-04-25T11:25:13.000Z</time>
</trkpt>
<trkpt lat="33.2475504" lon="35.6852775">
<ele>346.600006</ele>
<time>2016-04-25T11:25:15.000Z</time>
</trkpt>
<trkpt lat="33.2475582" lon="35.6851012">
<ele>345.799988</ele>
<time>2016-04-25T11:25:17.000Z</time>
</trkpt>
<trkpt lat="33.2475659" lon="35.6849233">
<ele>345.000000</ele>
<time>2016-04-25T11:25:19.000Z</time>
</trkpt>
<trkpt lat="33.2475763" lon="35.6847396">
<ele>344.000000</ele>
<time>2016-04-25T11:25:21.000Z</time>
</trkpt>
<trkpt lat="33.2475922" lon="35.6845540">
<ele>343.799988</ele>
<time>2016-04-25T11:25:23.000Z</time>
</trkpt>
<trkpt lat="33.2476085" lon="35.6843682">
<ele>343.799988</ele>
<time>2016-04-25T11:25:25.000Z</time>
</trkpt>
<trkpt lat="33.2476234" lon="35.6841869">
<ele>344.000000</ele>
<time>2016-04-25T11:25:27.000Z</time>
</trkpt>
<trkpt lat="33.2476389" lon="35.6840115">
<ele>344.000000</ele>
<time>2016-04-25T11:25:29.000Z</time>
</trkpt>
<trkpt lat="33.2476591" lon="35.6838380">
<ele>344.000000</ele>
<time>2016-04-25T11:25:31.000Z</time>
</trkpt>
<trkpt lat="33.2476762" lon="35.6836637">
<ele>343.000000</ele>
<time>2016-04-25T11:25:33.000Z</time>
</trkpt>
<trkpt lat="33.2476896" lon="35.6834955">
<ele>342.000000</ele>
<time>2016-04-25T11:25:35.000Z</time>
</trkpt>
<trkpt lat="33.2477041" lon="35.6833318">
<ele>341.000000</ele>
<time>2016-04-25T11:25:37.000Z</time>
</trkpt>
<trkpt lat="33.2477171" lon="35.6831636">
<ele>340.200012</ele>
<time>2016-04-25T11:25:39.000Z</time>
</trkpt>
<trkpt lat="33.2477302" lon="35.6829930">
<ele>339.399994</ele>
<time>2016-04-25T11:25:41.000Z</time>
</trkpt>
<trkpt lat="33.2477468" lon="35.6828213">
<ele>339.000000</ele>
<time>2016-04-25T11:25:43.000Z</time>
</trkpt>
<trkpt lat="33.2477578" lon="35.6826393">
<ele>338.399994</ele>
<time>2016-04-25T11:25:45.000Z</time>
</trkpt>
<trkpt lat="33.2477688" lon="35.6824468">
<ele>337.799988</ele>
<time>2016-04-25T11:25:47.000Z</time>
</trkpt>
<trkpt lat="33.2477848" lon="35.6822455">
<ele>337.199982</ele>
<time>2016-04-25T11:25:49.000Z</time>
</trkpt>
<trkpt lat="33.2477984" lon="35.6820389">
<ele>336.000000</ele>
<time>2016-04-25T11:25:51.000Z</time>
</trkpt>
<trkpt lat="33.2478099" lon="35.6818306">
<ele>335.000031</ele>
<time>2016-04-25T11:25:53.000Z</time>
</trkpt>
<trkpt lat="33.2478191" lon="35.6816206">
<ele>333.799988</ele>
<time>2016-04-25T11:25:55.000Z</time>
</trkpt>
<trkpt lat="33.2478247" lon="35.6814040">
<ele>333.200012</ele>
<time>2016-04-25T11:25:57.000Z</time>
</trkpt>
<trkpt lat="33.2478310" lon="35.6811833">
<ele>332.399994</ele>
<time>2016-04-25T11:25:59.000Z</time>
</trkpt>
<trkpt lat="33.2478353" lon="35.6810736">
<ele>331.799988</ele>
<time>2016-04-25T11:26:00.000Z</time>
</trkpt>
<trkpt lat="33.2478409" lon="35.6809653">
<ele>331.399963</ele>
<time>2016-04-25T11:26:01.000Z</time>
</trkpt>
<trkpt lat="33.2478517" lon="35.6807495">
<ele>330.599976</ele>
<time>2016-04-25T11:26:03.000Z</time>
</trkpt>
<trkpt lat="33.2478668" lon="35.6805319">
<ele>330.399994</ele>
<time>2016-04-25T11:26:05.000Z</time>
</trkpt>
<trkpt lat="33.2478863" lon="35.6803162">
<ele>329.000000</ele>
<time>2016-04-25T11:26:07.000Z</time>
</trkpt>
<trkpt lat="33.2478969" lon="35.6802065">
<ele>328.200012</ele>
<time>2016-04-25T11:26:08.000Z</time>
</trkpt>
<trkpt lat="33.2479177" lon="35.6799915">
<ele>326.600006</ele>
<time>2016-04-25T11:26:10.000Z</time>
</trkpt>
<trkpt lat="33.2479424" lon="35.6797845">
<ele>325.799988</ele>
<time>2016-04-25T11:26:12.000Z</time>
</trkpt>
<trkpt lat="33.2479745" lon="35.6795789">
<ele>324.799957</ele>
<time>2016-04-25T11:26:14.000Z</time>
</trkpt>
<trkpt lat="33.2480191" lon="35.6793732">
<ele>323.999969</ele>
<time>2016-04-25T11:26:16.000Z</time>
</trkpt>
<trkpt lat="33.2480475" lon="35.6792714">
<ele>323.399994</ele>
<time>2016-04-25T11:26:17.000Z</time>
</trkpt>
<trkpt lat="33.2480777" lon="35.6791693">
<ele>322.399994</ele>
<time>2016-04-25T11:26:18.000Z</time>
</trkpt>
<trkpt lat="33.2481084" lon="35.6790672">
<ele>321.399994</ele>
<time>2016-04-25T11:26:19.000Z</time>
</trkpt>
<trkpt lat="33.2481389" lon="35.6789642">
<ele>320.600006</ele>
<time>2016-04-25T11:26:20.000Z</time>
</trkpt>
<trkpt lat="33.2481713" lon="35.6788619">
<ele>319.599976</ele>
<time>2016-04-25T11:26:21.000Z</time>
</trkpt>
<trkpt lat="33.2482032" lon="35.6787604">
<ele>319.000000</ele>
<time>2016-04-25T11:26:22.000Z</time>
</trkpt>
<trkpt lat="33.2482678" lon="35.6785505">
<ele>316.799988</ele>
<time>2016-04-25T11:26:24.000Z</time>
</trkpt>
<trkpt lat="33.2483026" lon="35.6784447">
<ele>315.200012</ele>
<time>2016-04-25T11:26:25.000Z</time>
</trkpt>
<trkpt lat="33.2483422" lon="35.6783399">
<ele>313.600006</ele>
<time>2016-04-25T11:26:26.000Z</time>
</trkpt>
<trkpt lat="33.2483858" lon="35.6782356">
<ele>312.199982</ele>
<time>2016-04-25T11:26:27.000Z</time>
</trkpt>
<trkpt lat="33.2484397" lon="35.6781372">
<ele>310.799988</ele>
<time>2016-04-25T11:26:28.000Z</time>
</trkpt>
<trkpt lat="33.2485070" lon="35.6780505">
<ele>309.799988</ele>
<time>2016-04-25T11:26:29.000Z</time>
</trkpt>
<trkpt lat="33.2485892" lon="35.6779866">
<ele>308.600006</ele>
<time>2016-04-25T11:26:30.000Z</time>
</trkpt>
<trkpt lat="33.2486795" lon="35.6779435">
<ele>308.200012</ele>
<time>2016-04-25T11:26:31.000Z</time>
</trkpt>
<trkpt lat="33.2487717" lon="35.6779201">
<ele>308.000000</ele>
<time>2016-04-25T11:26:32.000Z</time>
</trkpt>
<trkpt lat="33.2488651" lon="35.6779175">
<ele>308.399994</ele>
<time>2016-04-25T11:26:33.000Z</time>
</trkpt>
<trkpt lat="33.2489593" lon="35.6779360">
<ele>309.000000</ele>
<time>2016-04-25T11:26:34.000Z</time>
</trkpt>
<trkpt lat="33.2491359" lon="35.6779897">
<ele>310.600006</ele>
<time>2016-04-25T11:26:36.000Z</time>
</trkpt>
<trkpt lat="33.2493115" lon="35.6780511">
<ele>312.199982</ele>
<time>2016-04-25T11:26:38.000Z</time>
</trkpt>
<trkpt lat="33.2494024" lon="35.6780827">
<ele>311.600006</ele>
<time>2016-04-25T11:26:39.000Z</time>
</trkpt>
<trkpt lat="33.2494936" lon="35.6781132">
<ele>310.799988</ele>
<time>2016-04-25T11:26:40.000Z</time>
</trkpt>
<trkpt lat="33.2495866" lon="35.6781432">
<ele>310.200012</ele>
<time>2016-04-25T11:26:41.000Z</time>
</trkpt>
<trkpt lat="33.2496811" lon="35.6781718">
<ele>309.399994</ele>
<time>2016-04-25T11:26:42.000Z</time>
</trkpt>
<trkpt lat="33.2497768" lon="35.6782007">
<ele>308.799988</ele>
<time>2016-04-25T11:26:43.000Z</time>
</trkpt>
<trkpt lat="33.2498762" lon="35.6782322">
<ele>308.000000</ele>
<time>2016-04-25T11:26:44.000Z</time>
</trkpt>
<trkpt lat="33.2499770" lon="35.6782681">
<ele>307.200012</ele>
<time>2016-04-25T11:26:45.000Z</time>
</trkpt>
<trkpt lat="33.2500782" lon="35.6783116">
<ele>306.799988</ele>
<time>2016-04-25T11:26:46.000Z</time>
</trkpt>
<trkpt lat="33.2501784" lon="35.6783623">
<ele>306.000000</ele>
<time>2016-04-25T11:26:47.000Z</time>
</trkpt>
<trkpt lat="33.2502787" lon="35.6784152">
<ele>305.000000</ele>
<time>2016-04-25T11:26:48.000Z</time>
</trkpt>
<trkpt lat="33.2503805" lon="35.6784668">
<ele>304.000000</ele>
<time>2016-04-25T11:26:49.000Z</time>
</trkpt>
<trkpt lat="33.2504839" lon="35.6785090">
<ele>302.600006</ele>
<time>2016-04-25T11:26:50.000Z</time>
</trkpt>
<trkpt lat="33.2505875" lon="35.6785360">
<ele>301.000000</ele>
<time>2016-04-25T11:26:51.000Z</time>
</trkpt>
<trkpt lat="33.2506875" lon="35.6785385">
<ele>299.399994</ele>
<time>2016-04-25T11:26:52.000Z</time>
</trkpt>
<trkpt lat="33.2507870" lon="35.6785245">
<ele>298.399994</ele>
<time>2016-04-25T11:26:53.000Z</time>
</trkpt>
<trkpt lat="33.2508833" lon="35.6784993">
<ele>297.200012</ele>
<time>2016-04-25T11:26:54.000Z</time>
</trkpt>
<trkpt lat="33.2509803" lon="35.6784656">
<ele>296.000000</ele>
<time>2016-04-25T11:26:55.000Z</time>
</trkpt>
<trkpt lat="33.2510718" lon="35.6784232">
<ele>294.799988</ele>
<time>2016-04-25T11:26:56.000Z</time>
</trkpt>
<trkpt lat="33.2511577" lon="35.6783722">
<ele>293.600006</ele>
<time>2016-04-25T11:26:57.000Z</time>
</trkpt>
<trkpt lat="33.2512376" lon="35.6783136">
<ele>292.399994</ele>
<time>2016-04-25T11:26:58.000Z</time>
</trkpt>
<trkpt lat="33.2513582" lon="35.6781638">
<ele>290.200012</ele>
<time>2016-04-25T11:27:00.000Z</time>
</trkpt>
<trkpt lat="33.2514182" lon="35.6779764">
<ele>288.000000</ele>
<time>2016-04-25T11:27:02.000Z</time>
</trkpt>
<trkpt lat="33.2514076" lon="35.6777656">
<ele>285.600006</ele>
<time>2016-04-25T11:27:04.000Z</time>
</trkpt>
<trkpt lat="33.2513860" lon="35.6776566">
<ele>284.399994</ele>
<time>2016-04-25T11:27:05.000Z</time>
</trkpt>
<trkpt lat="33.2513571" lon="35.6775455">
<ele>283.799988</ele>
<time>2016-04-25T11:27:06.000Z</time>
</trkpt>
<trkpt lat="33.2513274" lon="35.6774362">
<ele>283.399994</ele>
<time>2016-04-25T11:27:07.000Z</time>
</trkpt>
<trkpt lat="33.2512970" lon="35.6773248">
<ele>282.799988</ele>
<time>2016-04-25T11:27:08.000Z</time>
</trkpt>
<trkpt lat="33.2512680" lon="35.6772151">
<ele>282.399994</ele>
<time>2016-04-25T11:27:09.000Z</time>
</trkpt>
<trkpt lat="33.2512381" lon="35.6771062">
<ele>281.799988</ele>
<time>2016-04-25T11:27:10.000Z</time>
</trkpt>
<trkpt lat="33.2512107" lon="35.6769979">
<ele>281.200012</ele>
<time>2016-04-25T11:27:11.000Z</time>
</trkpt>
<trkpt lat="33.2511813" lon="35.6768887">
<ele>280.399994</ele>
<time>2016-04-25T11:27:12.000Z</time>
</trkpt>
<trkpt lat="33.2511515" lon="35.6767787">
<ele>279.799988</ele>
<time>2016-04-25T11:27:13.000Z</time>
</trkpt>
<trkpt lat="33.2511213" lon="35.6766673">
<ele>279.000000</ele>
<time>2016-04-25T11:27:14.000Z</time>
</trkpt>
<trkpt lat="33.2510898" lon="35.6765535">
<ele>278.399994</ele>
<time>2016-04-25T11:27:15.000Z</time>
</trkpt>
<trkpt lat="33.2510574" lon="35.6764373">
<ele>277.600006</ele>
<time>2016-04-25T11:27:16.000Z</time>
</trkpt>
<trkpt lat="33.2510266" lon="35.6763198">
<ele>277.000000</ele>
<time>2016-04-25T11:27:17.000Z</time>
</trkpt>
<trkpt lat="33.2509955" lon="35.6762013">
<ele>276.399994</ele>
<time>2016-04-25T11:27:18.000Z</time>
</trkpt>
<trkpt lat="33.2509645" lon="35.6760847">
<ele>275.600006</ele>
<time>2016-04-25T11:27:19.000Z</time>
</trkpt>
<trkpt lat="33.2509347" lon="35.6759706">
<ele>275.000000</ele>
<time>2016-04-25T11:27:20.000Z</time>
</trkpt>
<trkpt lat="33.2509054" lon="35.6758563">
<ele>274.399994</ele>
<time>2016-04-25T11:27:21.000Z</time>
</trkpt>
<trkpt lat="33.2508773" lon="35.6757427">
<ele>273.799988</ele>
<time>2016-04-25T11:27:22.000Z</time>
</trkpt>
<trkpt lat="33.2508486" lon="35.6756267">
<ele>273.000000</ele>
<time>2016-04-25T11:27:23.000Z</time>
</trkpt>
<trkpt lat="33.2508201" lon="35.6755102">
<ele>272.399994</ele>
<time>2016-04-25T11:27:24.000Z</time>
</trkpt>
<trkpt lat="33.2507907" lon="35.6753969">
<ele>271.799988</ele>
<time>2016-04-25T11:27:25.000Z</time>
</trkpt>
<trkpt lat="33.2507616" lon="35.6752839">
<ele>271.200012</ele>
<time>2016-04-25T11:27:26.000Z</time>
</trkpt>
<trkpt lat="33.2507350" lon="35.6751737">
<ele>270.600006</ele>
<time>2016-04-25T11:27:27.000Z</time>
</trkpt>
<trkpt lat="33.2507072" lon="35.6750646">
<ele>270.200012</ele>
<time>2016-04-25T11:27:28.000Z</time>
</trkpt>
<trkpt lat="33.2506796" lon="35.6749562">
<ele>269.600006</ele>
<time>2016-04-25T11:27:29.000Z</time>
</trkpt>
<trkpt lat="33.2506526" lon="35.6748466">
<ele>269.000000</ele>
<time>2016-04-25T11:27:30.000Z</time>
</trkpt>
<trkpt lat="33.2506255" lon="35.6747352">
<ele>268.600006</ele>
<time>2016-04-25T11:27:31.000Z</time>
</trkpt>
<trkpt lat="33.2505993" lon="35.6746229">
<ele>268.000000</ele>
<time>2016-04-25T11:27:32.000Z</time>
</trkpt>
<trkpt lat="33.2505769" lon="35.6745079">
<ele>267.399994</ele>
<time>2016-04-25T11:27:33.000Z</time>
</trkpt>
<trkpt lat="33.2505598" lon="35.6743911">
<ele>267.000000</ele>
<time>2016-04-25T11:27:34.000Z</time>
</trkpt>
<trkpt lat="33.2505487" lon="35.6742722">
<ele>266.399994</ele>
<time>2016-04-25T11:27:35.000Z</time>
</trkpt>
<trkpt lat="33.2505461" lon="35.6741539">
<ele>265.799988</ele>
<time>2016-04-25T11:27:36.000Z</time>
</trkpt>
<trkpt lat="33.2505514" lon="35.6740344">
<ele>265.000000</ele>
<time>2016-04-25T11:27:37.000Z</time>
</trkpt>
<trkpt lat="33.2505661" lon="35.6739186">
<ele>264.399994</ele>
<time>2016-04-25T11:27:38.000Z</time>
</trkpt>
<trkpt lat="33.2505870" lon="35.6738028">
<ele>263.799988</ele>
<time>2016-04-25T11:27:39.000Z</time>
</trkpt>
<trkpt lat="33.2506166" lon="35.6736905">
<ele>263.200012</ele>
<time>2016-04-25T11:27:40.000Z</time>
</trkpt>
<trkpt lat="33.2506593" lon="35.6735880">
<ele>262.600006</ele>
<time>2016-04-25T11:27:41.000Z</time>
</trkpt>
<trkpt lat="33.2507151" lon="35.6734957">
<ele>262.399994</ele>
<time>2016-04-25T11:27:42.000Z</time>
</trkpt>
<trkpt lat="33.2507754" lon="35.6734132">
<ele>262.200012</ele>
<time>2016-04-25T11:27:43.000Z</time>
</trkpt>
<trkpt lat="33.2508952" lon="35.6732592">
<ele>261.799988</ele>
<time>2016-04-25T11:27:45.000Z</time>
</trkpt>
<trkpt lat="33.2510007" lon="35.6731040">
<ele>261.399994</ele>
<time>2016-04-25T11:27:47.000Z</time>
</trkpt>
<trkpt lat="33.2510710" lon="35.6729461">
<ele>261.000000</ele>
<time>2016-04-25T11:27:49.000Z</time>
</trkpt>
<trkpt lat="33.2510810" lon="35.6727824">
<ele>260.399994</ele>
<time>2016-04-25T11:27:51.000Z</time>
</trkpt>
<trkpt lat="33.2510230" lon="35.6726360">
<ele>259.799988</ele>
<time>2016-04-25T11:27:53.000Z</time>
</trkpt>
<trkpt lat="33.2509554" lon="35.6724964">
<ele>259.000000</ele>
<time>2016-04-25T11:27:55.000Z</time>
</trkpt>
<trkpt lat="33.2508823" lon="35.6723731">
<ele>258.000000</ele>
<time>2016-04-25T11:27:57.000Z</time>
</trkpt>
<trkpt lat="33.2508028" lon="35.6722887">
<ele>257.000000</ele>
<time>2016-04-25T11:27:59.000Z</time>
</trkpt>
<trkpt lat="33.2507315" lon="35.6721953">
<ele>256.000000</ele>
<time>2016-04-25T11:28:02.000Z</time>
</trkpt>
<trkpt lat="33.2506636" lon="35.6721571">
<ele>255.600006</ele>
<time>2016-04-25T11:28:28.000Z</time>
</trkpt>
<trkpt lat="33.2505677" lon="35.6720492">
<ele>254.800003</ele>
<time>2016-04-25T11:28:32.000Z</time>
</trkpt>
<trkpt lat="33.2504642" lon="35.6719413">
<ele>253.800003</ele>
<time>2016-04-25T11:28:35.000Z</time>
</trkpt>
<trkpt lat="33.2503853" lon="35.6718657">
<ele>253.200012</ele>
<time>2016-04-25T11:28:37.000Z</time>
</trkpt>
<trkpt lat="33.2503070" lon="35.6717804">
<ele>252.600006</ele>
<time>2016-04-25T11:28:39.000Z</time>
</trkpt>
<trkpt lat="33.2502227" lon="35.6716878">
<ele>251.800003</ele>
<time>2016-04-25T11:28:41.000Z</time>
</trkpt>
<trkpt lat="33.2501326" lon="35.6715831">
<ele>250.999985</ele>
<time>2016-04-25T11:28:43.000Z</time>
</trkpt>
<trkpt lat="33.2500336" lon="35.6714611">
<ele>250.600021</ele>
<time>2016-04-25T11:28:45.000Z</time>
</trkpt>
<trkpt lat="33.2499300" lon="35.6713273">
<ele>250.000000</ele>
<time>2016-04-25T11:28:47.000Z</time>
</trkpt>
<trkpt lat="33.2498211" lon="35.6711853">
<ele>249.399994</ele>
<time>2016-04-25T11:28:49.000Z</time>
</trkpt>
<trkpt lat="33.2497088" lon="35.6710387">
<ele>248.600006</ele>
<time>2016-04-25T11:28:51.000Z</time>
</trkpt>
<trkpt lat="33.2495979" lon="35.6708906">
<ele>248.000000</ele>
<time>2016-04-25T11:28:53.000Z</time>
</trkpt>
<trkpt lat="33.2494798" lon="35.6707347">
<ele>247.199997</ele>
<time>2016-04-25T11:28:55.000Z</time>
</trkpt>
<trkpt lat="33.2493595" lon="35.6705749">
<ele>246.399994</ele>
<time>2016-04-25T11:28:57.000Z</time>
</trkpt>
<trkpt lat="33.2492981" lon="35.6704931">
<ele>246.000000</ele>
<time>2016-04-25T11:28:58.000Z</time>
</trkpt>
<trkpt lat="33.2492381" lon="35.6704129">
<ele>245.399994</ele>
<time>2016-04-25T11:28:59.000Z</time>
</trkpt>
<trkpt lat="33.2491780" lon="35.6703332">
<ele>245.000000</ele>
<time>2016-04-25T11:29:00.000Z</time>
</trkpt>
<trkpt lat="33.2491172" lon="35.6702533">
<ele>244.600006</ele>
<time>2016-04-25T11:29:01.000Z</time>
</trkpt>
<trkpt lat="33.2490563" lon="35.6701733">
<ele>244.000015</ele>
<time>2016-04-25T11:29:02.000Z</time>
</trkpt>
<trkpt lat="33.2489333" lon="35.6700151">
<ele>243.000000</ele>
<time>2016-04-25T11:29:04.000Z</time>
</trkpt>
<trkpt lat="33.2488707" lon="35.6699328">
<ele>242.600006</ele>
<time>2016-04-25T11:29:05.000Z</time>
</trkpt>
<trkpt lat="33.2488082" lon="35.6698495">
<ele>242.000000</ele>
<time>2016-04-25T11:29:06.000Z</time>
</trkpt>
<trkpt lat="33.2487456" lon="35.6697665">
<ele>241.600006</ele>
<time>2016-04-25T11:29:07.000Z</time>
</trkpt>
<trkpt lat="33.2486816" lon="35.6696837">
<ele>241.000000</ele>
<time>2016-04-25T11:29:08.000Z</time>
</trkpt>
<trkpt lat="33.2486160" lon="35.6696022">
<ele>240.600006</ele>
<time>2016-04-25T11:29:09.000Z</time>
</trkpt>
<trkpt lat="33.2485521" lon="35.6695191">
<ele>240.199997</ele>
<time>2016-04-25T11:29:10.000Z</time>
</trkpt>
<trkpt lat="33.2484876" lon="35.6694356">
<ele>239.800003</ele>
<time>2016-04-25T11:29:11.000Z</time>
</trkpt>
<trkpt lat="33.2484233" lon="35.6693520">
<ele>239.399994</ele>
<time>2016-04-25T11:29:12.000Z</time>
</trkpt>
<trkpt lat="33.2483594" lon="35.6692674">
<ele>238.800003</ele>
<time>2016-04-25T11:29:13.000Z</time>
</trkpt>
<trkpt lat="33.2482956" lon="35.6691846">
<ele>238.199997</ele>
<time>2016-04-25T11:29:14.000Z</time>
</trkpt>
<trkpt lat="33.2482295" lon="35.6691017">
<ele>237.600006</ele>
<time>2016-04-25T11:29:15.000Z</time>
</trkpt>
<trkpt lat="33.2481620" lon="35.6690188">
<ele>237.000015</ele>
<time>2016-04-25T11:29:16.000Z</time>
</trkpt>
<trkpt lat="33.2480931" lon="35.6689361">
<ele>236.399994</ele>
<time>2016-04-25T11:29:17.000Z</time>
</trkpt>
<trkpt lat="33.2480246" lon="35.6688550">
<ele>235.800003</ele>
<time>2016-04-25T11:29:18.000Z</time>
</trkpt>
<trkpt lat="33.2479553" lon="35.6687740">
<ele>235.399994</ele>
<time>2016-04-25T11:29:19.000Z</time>
</trkpt>
<trkpt lat="33.2478829" lon="35.6686913">
<ele>235.000000</ele>
<time>2016-04-25T11:29:20.000Z</time>
</trkpt>
<trkpt lat="33.2478087" lon="35.6686108">
<ele>234.600006</ele>
<time>2016-04-25T11:29:21.000Z</time>
</trkpt>
<trkpt lat="33.2477336" lon="35.6685319">
<ele>234.199997</ele>
<time>2016-04-25T11:29:22.000Z</time>
</trkpt>
<trkpt lat="33.2476570" lon="35.6684543">
<ele>233.800003</ele>
<time>2016-04-25T11:29:23.000Z</time>
</trkpt>
<trkpt lat="33.2475813" lon="35.6683781">
<ele>233.399979</ele>
<time>2016-04-25T11:29:24.000Z</time>
</trkpt>
<trkpt lat="33.2475056" lon="35.6683002">
<ele>233.199997</ele>
<time>2016-04-25T11:29:25.000Z</time>
</trkpt>
<trkpt lat="33.2474309" lon="35.6682271">
<ele>232.800003</ele>
<time>2016-04-25T11:29:26.000Z</time>
</trkpt>
<trkpt lat="33.2473524" lon="35.6681549">
<ele>232.599991</ele>
<time>2016-04-25T11:29:27.000Z</time>
</trkpt>
<trkpt lat="33.2472742" lon="35.6680861">
<ele>232.199997</ele>
<time>2016-04-25T11:29:28.000Z</time>
</trkpt>
<trkpt lat="33.2471954" lon="35.6680173">
<ele>232.000000</ele>
<time>2016-04-25T11:29:29.000Z</time>
</trkpt>
<trkpt lat="33.2471170" lon="35.6679457">
<ele>231.399994</ele>
<time>2016-04-25T11:29:30.000Z</time>
</trkpt>
<trkpt lat="33.2470404" lon="35.6678736">
<ele>231.000000</ele>
<time>2016-04-25T11:29:31.000Z</time>
</trkpt>
<trkpt lat="33.2469632" lon="35.6678012">
<ele>230.600006</ele>
<time>2016-04-25T11:29:32.000Z</time>
</trkpt>
<trkpt lat="33.2468835" lon="35.6677269">
<ele>230.000000</ele>
<time>2016-04-25T11:29:33.000Z</time>
</trkpt>
<trkpt lat="33.2468031" lon="35.6676530">
<ele>229.600006</ele>
<time>2016-04-25T11:29:34.000Z</time>
</trkpt>
<trkpt lat="33.2467220" lon="35.6675821">
<ele>229.000000</ele>
<time>2016-04-25T11:29:35.000Z</time>
</trkpt>
<trkpt lat="33.2466413" lon="35.6675102">
<ele>228.399994</ele>
<time>2016-04-25T11:29:36.000Z</time>
</trkpt>
<trkpt lat="33.2465630" lon="35.6674369">
<ele>227.600006</ele>
<time>2016-04-25T11:29:37.000Z</time>
</trkpt>
<trkpt lat="33.2464863" lon="35.6673640">
<ele>227.000000</ele>
<time>2016-04-25T11:29:38.000Z</time>
</trkpt>
<trkpt lat="33.2464088" lon="35.6672920">
<ele>226.399979</ele>
<time>2016-04-25T11:29:39.000Z</time>
</trkpt>
<trkpt lat="33.2463309" lon="35.6672200">
<ele>225.800003</ele>
<time>2016-04-25T11:29:40.000Z</time>
</trkpt>
<trkpt lat="33.2462542" lon="35.6671486">
<ele>225.000000</ele>
<time>2016-04-25T11:29:41.000Z</time>
</trkpt>
<trkpt lat="33.2461776" lon="35.6670769">
<ele>224.399994</ele>
<time>2016-04-25T11:29:42.000Z</time>
</trkpt>
<trkpt lat="33.2461010" lon="35.6670052">
<ele>223.600006</ele>
<time>2016-04-25T11:29:43.000Z</time>
</trkpt>
<trkpt lat="33.2460245" lon="35.6669341">
<ele>222.800003</ele>
<time>2016-04-25T11:29:44.000Z</time>
</trkpt>
<trkpt lat="33.2459478" lon="35.6668618">
<ele>222.199997</ele>
<time>2016-04-25T11:29:45.000Z</time>
</trkpt>
<trkpt lat="33.2458759" lon="35.6667896">
<ele>221.800003</ele>
<time>2016-04-25T11:29:46.000Z</time>
</trkpt>
<trkpt lat="33.2458020" lon="35.6667191">
<ele>221.399994</ele>
<time>2016-04-25T11:29:47.000Z</time>
</trkpt>
<trkpt lat="33.2457274" lon="35.6666504">
<ele>221.200012</ele>
<time>2016-04-25T11:29:48.000Z</time>
</trkpt>
<trkpt lat="33.2456539" lon="35.6665831">
<ele>220.800018</ele>
<time>2016-04-25T11:29:49.000Z</time>
</trkpt>
<trkpt lat="33.2455798" lon="35.6665169">
<ele>220.399994</ele>
<time>2016-04-25T11:29:50.000Z</time>
</trkpt>
<trkpt lat="33.2455047" lon="35.6664508">
<ele>220.199997</ele>
<time>2016-04-25T11:29:51.000Z</time>
</trkpt>
<trkpt lat="33.2454311" lon="35.6663844">
<ele>219.800003</ele>
<time>2016-04-25T11:29:52.000Z</time>
</trkpt>
<trkpt lat="33.2453580" lon="35.6663166">
<ele>219.399979</ele>
<time>2016-04-25T11:29:53.000Z</time>
</trkpt>
<trkpt lat="33.2452840" lon="35.6662502">
<ele>219.000015</ele>
<time>2016-04-25T11:29:54.000Z</time>
</trkpt>
<trkpt lat="33.2452105" lon="35.6661840">
<ele>218.600021</ele>
<time>2016-04-25T11:29:55.000Z</time>
</trkpt>
<trkpt lat="33.2451377" lon="35.6661159">
<ele>218.199997</ele>
<time>2016-04-25T11:29:56.000Z</time>
</trkpt>
<trkpt lat="33.2450653" lon="35.6660479">
<ele>217.800003</ele>
<time>2016-04-25T11:29:57.000Z</time>
</trkpt>
<trkpt lat="33.2449938" lon="35.6659819">
<ele>217.399994</ele>
<time>2016-04-25T11:29:58.000Z</time>
</trkpt>
<trkpt lat="33.2449180" lon="35.6659151">
<ele>217.199982</ele>
<time>2016-04-25T11:29:59.000Z</time>
</trkpt>
<trkpt lat="33.2447696" lon="35.6657877">
<ele>216.600006</ele>
<time>2016-04-25T11:30:01.000Z</time>
</trkpt>
<trkpt lat="33.2446946" lon="35.6657237">
<ele>216.199997</ele>
<time>2016-04-25T11:30:02.000Z</time>
</trkpt>
<trkpt lat="33.2446206" lon="35.6656620">
<ele>215.800003</ele>
<time>2016-04-25T11:30:03.000Z</time>
</trkpt>
<trkpt lat="33.2445468" lon="35.6656008">
<ele>215.600006</ele>
<time>2016-04-25T11:30:04.000Z</time>
</trkpt>
<trkpt lat="33.2444762" lon="35.6655341">
<ele>215.199997</ele>
<time>2016-04-25T11:30:05.000Z</time>
</trkpt>
<trkpt lat="33.2444083" lon="35.6654620">
<ele>215.000000</ele>
<time>2016-04-25T11:30:06.000Z</time>
</trkpt>
<trkpt lat="33.2443381" lon="35.6653909">
<ele>214.800003</ele>
<time>2016-04-25T11:30:07.000Z</time>
</trkpt>
<trkpt lat="33.2442654" lon="35.6653234">
<ele>214.600006</ele>
<time>2016-04-25T11:30:08.000Z</time>
</trkpt>
<trkpt lat="33.2441878" lon="35.6652530">
<ele>214.399994</ele>
<time>2016-04-25T11:30:09.000Z</time>
</trkpt>
<trkpt lat="33.2440452" lon="35.6651271">
<ele>213.600006</ele>
<time>2016-04-25T11:30:11.000Z</time>
</trkpt>
<trkpt lat="33.2439695" lon="35.6650617">
<ele>213.199997</ele>
<time>2016-04-25T11:30:12.000Z</time>
</trkpt>
<trkpt lat="33.2438963" lon="35.6649951">
<ele>213.000000</ele>
<time>2016-04-25T11:30:13.000Z</time>
</trkpt>
<trkpt lat="33.2438222" lon="35.6649296">
<ele>212.600006</ele>
<time>2016-04-25T11:30:14.000Z</time>
</trkpt>
<trkpt lat="33.2437460" lon="35.6648645">
<ele>212.199997</ele>
<time>2016-04-25T11:30:15.000Z</time>
</trkpt>
<trkpt lat="33.2436710" lon="35.6647970">
<ele>211.800003</ele>
<time>2016-04-25T11:30:16.000Z</time>
</trkpt>
<trkpt lat="33.2435963" lon="35.6647289">
<ele>211.600021</ele>
<time>2016-04-25T11:30:17.000Z</time>
</trkpt>
<trkpt lat="33.2435214" lon="35.6646627">
<ele>211.199997</ele>
<time>2016-04-25T11:30:18.000Z</time>
</trkpt>
<trkpt lat="33.2434466" lon="35.6645968">
<ele>210.600006</ele>
<time>2016-04-25T11:30:19.000Z</time>
</trkpt>
<trkpt lat="33.2433735" lon="35.6645307">
<ele>210.000000</ele>
<time>2016-04-25T11:30:20.000Z</time>
</trkpt>
<trkpt lat="33.2433026" lon="35.6644638">
<ele>209.399994</ele>
<time>2016-04-25T11:30:21.000Z</time>
</trkpt>
<trkpt lat="33.2432321" lon="35.6643963">
<ele>208.800003</ele>
<time>2016-04-25T11:30:22.000Z</time>
</trkpt>
<trkpt lat="33.2431600" lon="35.6643300">
<ele>208.199997</ele>
<time>2016-04-25T11:30:23.000Z</time>
</trkpt>
<trkpt lat="33.2430867" lon="35.6642661">
<ele>207.599991</ele>
<time>2016-04-25T11:30:24.000Z</time>
</trkpt>
<trkpt lat="33.2430120" lon="35.6642025">
<ele>207.000000</ele>
<time>2016-04-25T11:30:25.000Z</time>
</trkpt>
<trkpt lat="33.2429379" lon="35.6641378">
<ele>206.600006</ele>
<time>2016-04-25T11:30:26.000Z</time>
</trkpt>
<trkpt lat="33.2427899" lon="35.6640033">
<ele>205.400009</ele>
<time>2016-04-25T11:30:28.000Z</time>
</trkpt>
<trkpt lat="33.2427140" lon="35.6639352">
<ele>204.800003</ele>
<time>2016-04-25T11:30:29.000Z</time>
</trkpt>
<trkpt lat="33.2426375" lon="35.6638648">
<ele>204.000000</ele>
<time>2016-04-25T11:30:30.000Z</time>
</trkpt>
<trkpt lat="33.2425609" lon="35.6637952">
<ele>203.800003</ele>
<time>2016-04-25T11:30:31.000Z</time>
</trkpt>
<trkpt lat="33.2424844" lon="35.6637255">
<ele>203.600006</ele>
<time>2016-04-25T11:30:32.000Z</time>
</trkpt>
<trkpt lat="33.2424095" lon="35.6636568">
<ele>203.200012</ele>
<time>2016-04-25T11:30:33.000Z</time>
</trkpt>
<trkpt lat="33.2423350" lon="35.6635874">
<ele>203.000000</ele>
<time>2016-04-25T11:30:34.000Z</time>
</trkpt>
<trkpt lat="33.2422606" lon="35.6635173">
<ele>202.800018</ele>
<time>2016-04-25T11:30:35.000Z</time>
</trkpt>
<trkpt lat="33.2421857" lon="35.6634449">
<ele>202.399994</ele>
<time>2016-04-25T11:30:36.000Z</time>
</trkpt>
<trkpt lat="33.2421095" lon="35.6633724">
<ele>202.199997</ele>
<time>2016-04-25T11:30:37.000Z</time>
</trkpt>
<trkpt lat="33.2420318" lon="35.6633023">
<ele>202.000000</ele>
<time>2016-04-25T11:30:38.000Z</time>
</trkpt>
<trkpt lat="33.2419526" lon="35.6632344">
<ele>201.600006</ele>
<time>2016-04-25T11:30:39.000Z</time>
</trkpt>
<trkpt lat="33.2418743" lon="35.6631661">
<ele>201.399979</ele>
<time>2016-04-25T11:30:40.000Z</time>
</trkpt>
<trkpt lat="33.2417963" lon="35.6630984">
<ele>200.999985</ele>
<time>2016-04-25T11:30:41.000Z</time>
</trkpt>
<trkpt lat="33.2417180" lon="35.6630286">
<ele>200.599991</ele>
<time>2016-04-25T11:30:42.000Z</time>
</trkpt>
<trkpt lat="33.2416401" lon="35.6629585">
<ele>200.199997</ele>
<time>2016-04-25T11:30:43.000Z</time>
</trkpt>
<trkpt lat="33.2415629" lon="35.6628879">
<ele>200.000000</ele>
<time>2016-04-25T11:30:44.000Z</time>
</trkpt>
<trkpt lat="33.2414864" lon="35.6628170">
<ele>199.600006</ele>
<time>2016-04-25T11:30:45.000Z</time>
</trkpt>
<trkpt lat="33.2414104" lon="35.6627482">
<ele>199.199997</ele>
<time>2016-04-25T11:30:46.000Z</time>
</trkpt>
<trkpt lat="33.2413348" lon="35.6626806">
<ele>198.800003</ele>
<time>2016-04-25T11:30:47.000Z</time>
</trkpt>
<trkpt lat="33.2412591" lon="35.6626135">
<ele>198.399994</ele>
<time>2016-04-25T11:30:48.000Z</time>
</trkpt>
<trkpt lat="33.2411837" lon="35.6625470">
<ele>198.000000</ele>
<time>2016-04-25T11:30:49.000Z</time>
</trkpt>
<trkpt lat="33.2411091" lon="35.6624809">
<ele>197.800003</ele>
<time>2016-04-25T11:30:50.000Z</time>
</trkpt>
<trkpt lat="33.2410348" lon="35.6624159">
<ele>197.399994</ele>
<time>2016-04-25T11:30:51.000Z</time>
</trkpt>
<trkpt lat="33.2409616" lon="35.6623520">
<ele>197.000000</ele>
<time>2016-04-25T11:30:52.000Z</time>
</trkpt>
<trkpt lat="33.2408877" lon="35.6622868">
<ele>196.600006</ele>
<time>2016-04-25T11:30:53.000Z</time>
</trkpt>
<trkpt lat="33.2407399" lon="35.6621512">
<ele>195.600006</ele>
<time>2016-04-25T11:30:55.000Z</time>
</trkpt>
<trkpt lat="33.2406665" lon="35.6620839">
<ele>195.199997</ele>
<time>2016-04-25T11:30:56.000Z</time>
</trkpt>
<trkpt lat="33.2405950" lon="35.6620163">
<ele>194.800003</ele>
<time>2016-04-25T11:30:57.000Z</time>
</trkpt>
<trkpt lat="33.2405241" lon="35.6619489">
<ele>194.399979</ele>
<time>2016-04-25T11:30:58.000Z</time>
</trkpt>
<trkpt lat="33.2404527" lon="35.6618829">
<ele>193.999985</ele>
<time>2016-04-25T11:30:59.000Z</time>
</trkpt>
<trkpt lat="33.2403808" lon="35.6618165">
<ele>193.599991</ele>
<time>2016-04-25T11:31:00.000Z</time>
</trkpt>
<trkpt lat="33.2403090" lon="35.6617477">
<ele>193.199997</ele>
<time>2016-04-25T11:31:01.000Z</time>
</trkpt>
<trkpt lat="33.2402383" lon="35.6616777">
<ele>192.600006</ele>
<time>2016-04-25T11:31:02.000Z</time>
</trkpt>
<trkpt lat="33.2401696" lon="35.6616055">
<ele>192.199982</ele>
<time>2016-04-25T11:31:03.000Z</time>
</trkpt>
<trkpt lat="33.2400981" lon="35.6615351">
<ele>192.000000</ele>
<time>2016-04-25T11:31:04.000Z</time>
</trkpt>
<trkpt lat="33.2399514" lon="35.6613954">
<ele>191.399994</ele>
<time>2016-04-25T11:31:06.000Z</time>
</trkpt>
<trkpt lat="33.2398788" lon="35.6613271">
<ele>191.000000</ele>
<time>2016-04-25T11:31:07.000Z</time>
</trkpt>
<trkpt lat="33.2398055" lon="35.6612576">
<ele>190.800003</ele>
<time>2016-04-25T11:31:08.000Z</time>
</trkpt>
<trkpt lat="33.2397316" lon="35.6611906">
<ele>190.399994</ele>
<time>2016-04-25T11:31:09.000Z</time>
</trkpt>
<trkpt lat="33.2396573" lon="35.6611267">
<ele>190.000000</ele>
<time>2016-04-25T11:31:10.000Z</time>
</trkpt>
<trkpt lat="33.2395841" lon="35.6610616">
<ele>189.800003</ele>
<time>2016-04-25T11:31:11.000Z</time>
</trkpt>
<trkpt lat="33.2395102" lon="35.6609960">
<ele>189.399994</ele>
<time>2016-04-25T11:31:12.000Z</time>
</trkpt>
<trkpt lat="33.2394383" lon="35.6609330">
<ele>189.000000</ele>
<time>2016-04-25T11:31:13.000Z</time>
</trkpt>
<trkpt lat="33.2392964" lon="35.6608103">
<ele>188.399994</ele>
<time>2016-04-25T11:31:15.000Z</time>
</trkpt>
<trkpt lat="33.2391554" lon="35.6606929">
<ele>187.199997</ele>
<time>2016-04-25T11:31:17.000Z</time>
</trkpt>
<trkpt lat="33.2390222" lon="35.6605687">
<ele>186.199997</ele>
<time>2016-04-25T11:31:19.000Z</time>
</trkpt>
<trkpt lat="33.2388985" lon="35.6604331">
<ele>185.199982</ele>
<time>2016-04-25T11:31:21.000Z</time>
</trkpt>
<trkpt lat="33.2387944" lon="35.6603133">
<ele>184.399994</ele>
<time>2016-04-25T11:31:23.000Z</time>
</trkpt>
<trkpt lat="33.2387161" lon="35.6602248">
<ele>183.800003</ele>
<time>2016-04-25T11:31:25.000Z</time>
</trkpt>
<trkpt lat="33.2386446" lon="35.6601586">
<ele>183.399994</ele>
<time>2016-04-25T11:31:28.000Z</time>
</trkpt>
<trkpt lat="33.2385662" lon="35.6600823">
<ele>182.800003</ele>
<time>2016-04-25T11:31:35.000Z</time>
</trkpt>
<trkpt lat="33.2384787" lon="35.6599665">
<ele>182.199997</ele>
<time>2016-04-25T11:31:38.000Z</time>
</trkpt>
<trkpt lat="33.2384045" lon="35.6598690">
<ele>181.600006</ele>
<time>2016-04-25T11:31:40.000Z</time>
</trkpt>
<trkpt lat="33.2383333" lon="35.6597464">
<ele>181.199997</ele>
<time>2016-04-25T11:31:42.000Z</time>
</trkpt>
<trkpt lat="33.2382755" lon="35.6596011">
<ele>181.000000</ele>
<time>2016-04-25T11:31:44.000Z</time>
</trkpt>
<trkpt lat="33.2382320" lon="35.6594496">
<ele>180.800003</ele>
<time>2016-04-25T11:31:46.000Z</time>
</trkpt>
<trkpt lat="33.2382079" lon="35.6593010">
<ele>180.600006</ele>
<time>2016-04-25T11:31:48.000Z</time>
</trkpt>
<trkpt lat="33.2381964" lon="35.6591532">
<ele>180.400009</ele>
<time>2016-04-25T11:31:50.000Z</time>
</trkpt>
<trkpt lat="33.2381935" lon="35.6590050">
<ele>180.199997</ele>
<time>2016-04-25T11:31:52.000Z</time>
</trkpt>
<trkpt lat="33.2381919" lon="35.6588547">
<ele>180.000015</ele>
<time>2016-04-25T11:31:54.000Z</time>
</trkpt>
<trkpt lat="33.2381818" lon="35.6587009">
<ele>179.600021</ele>
<time>2016-04-25T11:31:56.000Z</time>
</trkpt>
<trkpt lat="33.2381778" lon="35.6585489">
<ele>179.199997</ele>
<time>2016-04-25T11:31:58.000Z</time>
</trkpt>
<trkpt lat="33.2381734" lon="35.6584002">
<ele>179.000000</ele>
<time>2016-04-25T11:32:00.000Z</time>
</trkpt>
<trkpt lat="33.2381536" lon="35.6582600">
<ele>178.800003</ele>
<time>2016-04-25T11:32:02.000Z</time>
</trkpt>
<trkpt lat="33.2381136" lon="35.6581305">
<ele>178.399994</ele>
<time>2016-04-25T11:32:04.000Z</time>
</trkpt>
<trkpt lat="33.2380660" lon="35.6579927">
<ele>178.199982</ele>
<time>2016-04-25T11:32:06.000Z</time>
</trkpt>
<trkpt lat="33.2380232" lon="35.6578406">
<ele>178.199982</ele>
<time>2016-04-25T11:32:08.000Z</time>
</trkpt>
<trkpt lat="33.2379965" lon="35.6576787">
<ele>178.199982</ele>
<time>2016-04-25T11:32:10.000Z</time>
</trkpt>
<trkpt lat="33.2379801" lon="35.6575135">
<ele>178.199982</ele>
<time>2016-04-25T11:32:12.000Z</time>
</trkpt>
<trkpt lat="33.2379638" lon="35.6573503">
<ele>178.199982</ele>
<time>2016-04-25T11:32:14.000Z</time>
</trkpt>
<trkpt lat="33.2379510" lon="35.6571893">
<ele>178.199982</ele>
<time>2016-04-25T11:32:16.000Z</time>
</trkpt>
<trkpt lat="33.2379555" lon="35.6570291">
<ele>177.799988</ele>
<time>2016-04-25T11:32:18.000Z</time>
</trkpt>
<trkpt lat="33.2379725" lon="35.6568721">
<ele>177.399994</ele>
<time>2016-04-25T11:32:20.000Z</time>
</trkpt>
<trkpt lat="33.2380008" lon="35.6567109">
<ele>177.199997</ele>
<time>2016-04-25T11:32:22.000Z</time>
</trkpt>
<trkpt lat="33.2380343" lon="35.6565502">
<ele>177.199997</ele>
<time>2016-04-25T11:32:24.000Z</time>
</trkpt>
<trkpt lat="33.2380655" lon="35.6563975">
<ele>177.199997</ele>
<time>2016-04-25T11:32:26.000Z</time>
</trkpt>
<trkpt lat="33.2380943" lon="35.6562469">
<ele>176.800003</ele>
<time>2016-04-25T11:32:28.000Z</time>
</trkpt>
<trkpt lat="33.2381216" lon="35.6560958">
<ele>176.199997</ele>
<time>2016-04-25T11:32:30.000Z</time>
</trkpt>
<trkpt lat="33.2381439" lon="35.6559447">
<ele>175.399994</ele>
<time>2016-04-25T11:32:32.000Z</time>
</trkpt>
<trkpt lat="33.2381434" lon="35.6557876">
<ele>174.399994</ele>
<time>2016-04-25T11:32:34.000Z</time>
</trkpt>
<trkpt lat="33.2381219" lon="35.6556250">
<ele>173.400009</ele>
<time>2016-04-25T11:32:36.000Z</time>
</trkpt>
<trkpt lat="33.2380779" lon="35.6554704">
<ele>172.600006</ele>
<time>2016-04-25T11:32:38.000Z</time>
</trkpt>
<trkpt lat="33.2380029" lon="35.6553279">
<ele>172.399994</ele>
<time>2016-04-25T11:32:40.000Z</time>
</trkpt>
<trkpt lat="33.2379095" lon="35.6551903">
<ele>172.000000</ele>
<time>2016-04-25T11:32:42.000Z</time>
</trkpt>
<trkpt lat="33.2378150" lon="35.6550484">
<ele>171.600006</ele>
<time>2016-04-25T11:32:44.000Z</time>
</trkpt>
<trkpt lat="33.2377176" lon="35.6549031">
<ele>171.399994</ele>
<time>2016-04-25T11:32:46.000Z</time>
</trkpt>
<trkpt lat="33.2376224" lon="35.6547670">
<ele>171.000000</ele>
<time>2016-04-25T11:32:48.000Z</time>
</trkpt>
<trkpt lat="33.2375237" lon="35.6546360">
<ele>170.600006</ele>
<time>2016-04-25T11:32:50.000Z</time>
</trkpt>
<trkpt lat="33.2374212" lon="35.6545038">
<ele>170.199997</ele>
<time>2016-04-25T11:32:52.000Z</time>
</trkpt>
<trkpt lat="33.2373180" lon="35.6543713">
<ele>169.800003</ele>
<time>2016-04-25T11:32:54.000Z</time>
</trkpt>
<trkpt lat="33.2372117" lon="35.6542339">
<ele>169.399979</ele>
<time>2016-04-25T11:32:56.000Z</time>
</trkpt>
<trkpt lat="33.2371072" lon="35.6540936">
<ele>168.999985</ele>
<time>2016-04-25T11:32:58.000Z</time>
</trkpt>
<trkpt lat="33.2370055" lon="35.6539513">
<ele>168.599991</ele>
<time>2016-04-25T11:33:00.000Z</time>
</trkpt>
<trkpt lat="33.2369012" lon="35.6538080">
<ele>168.199997</ele>
<time>2016-04-25T11:33:02.000Z</time>
</trkpt>
<trkpt lat="33.2367928" lon="35.6536655">
<ele>167.600006</ele>
<time>2016-04-25T11:33:04.000Z</time>
</trkpt>
<trkpt lat="33.2366897" lon="35.6535149">
<ele>167.000000</ele>
<time>2016-04-25T11:33:06.000Z</time>
</trkpt>
<trkpt lat="33.2365866" lon="35.6533627">
<ele>166.600006</ele>
<time>2016-04-25T11:33:08.000Z</time>
</trkpt>
<trkpt lat="33.2364853" lon="35.6532120">
<ele>166.000000</ele>
<time>2016-04-25T11:33:10.000Z</time>
</trkpt>
<trkpt lat="33.2363820" lon="35.6530629">
<ele>165.600006</ele>
<time>2016-04-25T11:33:12.000Z</time>
</trkpt>
<trkpt lat="33.2362749" lon="35.6529103">
<ele>165.199997</ele>
<time>2016-04-25T11:33:14.000Z</time>
</trkpt>
<trkpt lat="33.2361622" lon="35.6527600">
<ele>164.600006</ele>
<time>2016-04-25T11:33:16.000Z</time>
</trkpt>
<trkpt lat="33.2360499" lon="35.6526069">
<ele>164.200012</ele>
<time>2016-04-25T11:33:18.000Z</time>
</trkpt>
<trkpt lat="33.2359443" lon="35.6524519">
<ele>163.600006</ele>
<time>2016-04-25T11:33:20.000Z</time>
</trkpt>
<trkpt lat="33.2358408" lon="35.6522976">
<ele>162.800003</ele>
<time>2016-04-25T11:33:22.000Z</time>
</trkpt>
<trkpt lat="33.2357318" lon="35.6521510">
<ele>162.199997</ele>
<time>2016-04-25T11:33:24.000Z</time>
</trkpt>
<trkpt lat="33.2356269" lon="35.6520062">
<ele>161.999985</ele>
<time>2016-04-25T11:33:26.000Z</time>
</trkpt>
<trkpt lat="33.2355280" lon="35.6518687">
<ele>161.800003</ele>
<time>2016-04-25T11:33:28.000Z</time>
</trkpt>
<trkpt lat="33.2354280" lon="35.6517323">
<ele>161.600021</ele>
<time>2016-04-25T11:33:30.000Z</time>
</trkpt>
<trkpt lat="33.2353276" lon="35.6515957">
<ele>161.399994</ele>
<time>2016-04-25T11:33:32.000Z</time>
</trkpt>
<trkpt lat="33.2352309" lon="35.6514494">
<ele>161.199997</ele>
<time>2016-04-25T11:33:34.000Z</time>
</trkpt>
<trkpt lat="33.2351315" lon="35.6513092">
<ele>160.800003</ele>
<time>2016-04-25T11:33:36.000Z</time>
</trkpt>
<trkpt lat="33.2350365" lon="35.6511702">
<ele>160.199982</ele>
<time>2016-04-25T11:33:38.000Z</time>
</trkpt>
<trkpt lat="33.2349378" lon="35.6510327">
<ele>159.600006</ele>
<time>2016-04-25T11:33:40.000Z</time>
</trkpt>
<trkpt lat="33.2348393" lon="35.6508930">
<ele>158.800003</ele>
<time>2016-04-25T11:33:42.000Z</time>
</trkpt>
<trkpt lat="33.2347392" lon="35.6507488">
<ele>158.199997</ele>
<time>2016-04-25T11:33:44.000Z</time>
</trkpt>
<trkpt lat="33.2346373" lon="35.6506113">
<ele>157.399994</ele>
<time>2016-04-25T11:33:46.000Z</time>
</trkpt>
<trkpt lat="33.2345321" lon="35.6504739">
<ele>157.000000</ele>
<time>2016-04-25T11:33:48.000Z</time>
</trkpt>
<trkpt lat="33.2344321" lon="35.6503360">
<ele>156.800003</ele>
<time>2016-04-25T11:33:50.000Z</time>
</trkpt>
<trkpt lat="33.2343349" lon="35.6501966">
<ele>156.600006</ele>
<time>2016-04-25T11:33:52.000Z</time>
</trkpt>
<trkpt lat="33.2342348" lon="35.6500630">
<ele>156.199997</ele>
<time>2016-04-25T11:33:54.000Z</time>
</trkpt>
<trkpt lat="33.2341353" lon="35.6499255">
<ele>155.800003</ele>
<time>2016-04-25T11:33:56.000Z</time>
</trkpt>
<trkpt lat="33.2340345" lon="35.6497873">
<ele>155.399994</ele>
<time>2016-04-25T11:33:58.000Z</time>
</trkpt>
<trkpt lat="33.2339349" lon="35.6496475">
<ele>154.800003</ele>
<time>2016-04-25T11:34:00.000Z</time>
</trkpt>
<trkpt lat="33.2338395" lon="35.6494995">
<ele>154.000000</ele>
<time>2016-04-25T11:34:02.000Z</time>
</trkpt>
<trkpt lat="33.2337494" lon="35.6493502">
<ele>153.399994</ele>
<time>2016-04-25T11:34:04.000Z</time>
</trkpt>
<trkpt lat="33.2336577" lon="35.6492037">
<ele>152.600006</ele>
<time>2016-04-25T11:34:06.000Z</time>
</trkpt>
<trkpt lat="33.2335601" lon="35.6490631">
<ele>151.800003</ele>
<time>2016-04-25T11:34:08.000Z</time>
</trkpt>
<trkpt lat="33.2334592" lon="35.6489292">
<ele>151.199997</ele>
<time>2016-04-25T11:34:10.000Z</time>
</trkpt>
<trkpt lat="33.2333659" lon="35.6487998">
<ele>150.800003</ele>
<time>2016-04-25T11:34:12.000Z</time>
</trkpt>
<trkpt lat="33.2332722" lon="35.6486695">
<ele>150.800003</ele>
<time>2016-04-25T11:34:14.000Z</time>
</trkpt>
<trkpt lat="33.2331879" lon="35.6485290">
<ele>150.800003</ele>
<time>2016-04-25T11:34:16.000Z</time>
</trkpt>
<trkpt lat="33.2331057" lon="35.6483882">
<ele>150.800003</ele>
<time>2016-04-25T11:34:18.000Z</time>
</trkpt>
<trkpt lat="33.2330135" lon="35.6482529">
<ele>150.600006</ele>
<time>2016-04-25T11:34:20.000Z</time>
</trkpt>
<trkpt lat="33.2329163" lon="35.6481213">
<ele>150.600006</ele>
<time>2016-04-25T11:34:22.000Z</time>
</trkpt>
<trkpt lat="33.2328180" lon="35.6479878">
<ele>150.600006</ele>
<time>2016-04-25T11:34:24.000Z</time>
</trkpt>
<trkpt lat="33.2327197" lon="35.6478520">
<ele>150.399994</ele>
<time>2016-04-25T11:34:26.000Z</time>
</trkpt>
<trkpt lat="33.2326207" lon="35.6477195">
<ele>150.399994</ele>
<time>2016-04-25T11:34:28.000Z</time>
</trkpt>
<trkpt lat="33.2325254" lon="35.6475859">
<ele>150.199997</ele>
<time>2016-04-25T11:34:30.000Z</time>
</trkpt>
<trkpt lat="33.2324318" lon="35.6474513">
<ele>150.199997</ele>
<time>2016-04-25T11:34:32.000Z</time>
</trkpt>
<trkpt lat="33.2323330" lon="35.6473223">
<ele>150.199997</ele>
<time>2016-04-25T11:34:34.000Z</time>
</trkpt>
<trkpt lat="33.2322345" lon="35.6471953">
<ele>150.000000</ele>
<time>2016-04-25T11:34:36.000Z</time>
</trkpt>
<trkpt lat="33.2321410" lon="35.6470686">
<ele>150.000000</ele>
<time>2016-04-25T11:34:38.000Z</time>
</trkpt>
<trkpt lat="33.2320477" lon="35.6469395">
<ele>150.000000</ele>
<time>2016-04-25T11:34:40.000Z</time>
</trkpt>
<trkpt lat="33.2319527" lon="35.6468155">
<ele>149.800003</ele>
<time>2016-04-25T11:34:42.000Z</time>
</trkpt>
<trkpt lat="33.2318517" lon="35.6466951">
<ele>149.800003</ele>
<time>2016-04-25T11:34:44.000Z</time>
</trkpt>
<trkpt lat="33.2317515" lon="35.6465739">
<ele>149.600006</ele>
<time>2016-04-25T11:34:46.000Z</time>
</trkpt>
<trkpt lat="33.2316560" lon="35.6464480">
<ele>149.000000</ele>
<time>2016-04-25T11:34:48.000Z</time>
</trkpt>
<trkpt lat="33.2315563" lon="35.6463271">
<ele>148.600006</ele>
<time>2016-04-25T11:34:50.000Z</time>
</trkpt>
<trkpt lat="33.2314558" lon="35.6462059">
<ele>148.000000</ele>
<time>2016-04-25T11:34:52.000Z</time>
</trkpt>
<trkpt lat="33.2313580" lon="35.6460802">
<ele>147.399994</ele>
<time>2016-04-25T11:34:54.000Z</time>
</trkpt>
<trkpt lat="33.2312629" lon="35.6459546">
<ele>146.800003</ele>
<time>2016-04-25T11:34:56.000Z</time>
</trkpt>
<trkpt lat="33.2311633" lon="35.6458328">
<ele>146.199997</ele>
<time>2016-04-25T11:34:58.000Z</time>
</trkpt>
<trkpt lat="33.2310644" lon="35.6457065">
<ele>145.600006</ele>
<time>2016-04-25T11:35:00.000Z</time>
</trkpt>
<trkpt lat="33.2309662" lon="35.6455742">
<ele>145.000000</ele>
<time>2016-04-25T11:35:02.000Z</time>
</trkpt>
<trkpt lat="33.2308662" lon="35.6454398">
<ele>144.800003</ele>
<time>2016-04-25T11:35:04.000Z</time>
</trkpt>
<trkpt lat="33.2307635" lon="35.6453012">
<ele>144.800003</ele>
<time>2016-04-25T11:35:06.000Z</time>
</trkpt>
<trkpt lat="33.2306604" lon="35.6451575">
<ele>144.800003</ele>
<time>2016-04-25T11:35:08.000Z</time>
</trkpt>
<trkpt lat="33.2305542" lon="35.6450099">
<ele>144.800003</ele>
<time>2016-04-25T11:35:10.000Z</time>
</trkpt>
<trkpt lat="33.2304455" lon="35.6448616">
<ele>144.800003</ele>
<time>2016-04-25T11:35:12.000Z</time>
</trkpt>
<trkpt lat="33.2303389" lon="35.6447226">
<ele>144.800003</ele>
<time>2016-04-25T11:35:14.000Z</time>
</trkpt>
<trkpt lat="33.2302312" lon="35.6445798">
<ele>144.199997</ele>
<time>2016-04-25T11:35:16.000Z</time>
</trkpt>
<trkpt lat="33.2301239" lon="35.6444345">
<ele>143.399994</ele>
<time>2016-04-25T11:35:18.000Z</time>
</trkpt>
<trkpt lat="33.2300143" lon="35.6442846">
<ele>143.199997</ele>
<time>2016-04-25T11:35:20.000Z</time>
</trkpt>
<trkpt lat="33.2299037" lon="35.6441393">
<ele>143.000000</ele>
<time>2016-04-25T11:35:22.000Z</time>
</trkpt>
<trkpt lat="33.2297909" lon="35.6439997">
<ele>142.800003</ele>
<time>2016-04-25T11:35:24.000Z</time>
</trkpt>
<trkpt lat="33.2296823" lon="35.6438588">
<ele>142.600006</ele>
<time>2016-04-25T11:35:26.000Z</time>
</trkpt>
<trkpt lat="33.2295797" lon="35.6437210">
<ele>142.199997</ele>
<time>2016-04-25T11:35:28.000Z</time>
</trkpt>
<trkpt lat="33.2294704" lon="35.6435844">
<ele>141.800003</ele>
<time>2016-04-25T11:35:30.000Z</time>
</trkpt>
<trkpt lat="33.2293577" lon="35.6434482">
<ele>141.399994</ele>
<time>2016-04-25T11:35:32.000Z</time>
</trkpt>
<trkpt lat="33.2292448" lon="35.6433103">
<ele>141.000000</ele>
<time>2016-04-25T11:35:34.000Z</time>
</trkpt>
<trkpt lat="33.2291388" lon="35.6431635">
<ele>140.600006</ele>
<time>2016-04-25T11:35:36.000Z</time>
</trkpt>
<trkpt lat="33.2290286" lon="35.6430192">
<ele>140.199997</ele>
<time>2016-04-25T11:35:38.000Z</time>
</trkpt>
<trkpt lat="33.2289175" lon="35.6428757">
<ele>140.000000</ele>
<time>2016-04-25T11:35:40.000Z</time>
</trkpt>
<trkpt lat="33.2288057" lon="35.6427295">
<ele>139.600006</ele>
<time>2016-04-25T11:35:42.000Z</time>
</trkpt>
<trkpt lat="33.2286960" lon="35.6425851">
<ele>139.199997</ele>
<time>2016-04-25T11:35:44.000Z</time>
</trkpt>
<trkpt lat="33.2285852" lon="35.6424337">
<ele>138.800003</ele>
<time>2016-04-25T11:35:46.000Z</time>
</trkpt>
<trkpt lat="33.2284708" lon="35.6422808">
<ele>138.399994</ele>
<time>2016-04-25T11:35:48.000Z</time>
</trkpt>
<trkpt lat="33.2283637" lon="35.6421333">
<ele>137.800003</ele>
<time>2016-04-25T11:35:50.000Z</time>
</trkpt>
<trkpt lat="33.2282616" lon="35.6419817">
<ele>137.399994</ele>
<time>2016-04-25T11:35:52.000Z</time>
</trkpt>
<trkpt lat="33.2281615" lon="35.6418258">
<ele>137.000000</ele>
<time>2016-04-25T11:35:54.000Z</time>
</trkpt>
<trkpt lat="33.2280605" lon="35.6416713">
<ele>136.600006</ele>
<time>2016-04-25T11:35:56.000Z</time>
</trkpt>
<trkpt lat="33.2279637" lon="35.6415165">
<ele>136.199997</ele>
<time>2016-04-25T11:35:58.000Z</time>
</trkpt>
<trkpt lat="33.2278694" lon="35.6413667">
<ele>135.800003</ele>
<time>2016-04-25T11:36:00.000Z</time>
</trkpt>
<trkpt lat="33.2277886" lon="35.6412325">
<ele>135.600006</ele>
<time>2016-04-25T11:36:02.000Z</time>
</trkpt>
<trkpt lat="33.2277202" lon="35.6411154">
<ele>135.399994</ele>
<time>2016-04-25T11:36:04.000Z</time>
</trkpt>
<trkpt lat="33.2276431" lon="35.6410252">
<ele>135.000000</ele>
<time>2016-04-25T11:36:06.000Z</time>
</trkpt>
<trkpt lat="33.2275726" lon="35.6409406">
<ele>134.800003</ele>
<time>2016-04-25T11:36:08.000Z</time>
</trkpt>
<trkpt lat="33.2275123" lon="35.6408397">
<ele>134.399994</ele>
<time>2016-04-25T11:36:12.000Z</time>
</trkpt>
<trkpt lat="33.2274317" lon="35.6408531">
<ele>133.800003</ele>
<time>2016-04-25T11:36:16.000Z</time>
</trkpt>
<trkpt lat="33.2274779" lon="35.6410074">
<ele>134.199997</ele>
<time>2016-04-25T11:36:21.000Z</time>
</trkpt>
<trkpt lat="33.2274400" lon="35.6411010">
<ele>134.000000</ele>
<time>2016-04-25T11:36:59.000Z</time>
</trkpt>
<trkpt lat="33.2273377" lon="35.6411353">
<ele>133.199997</ele>
<time>2016-04-25T11:37:02.000Z</time>
</trkpt>
<trkpt lat="33.2272849" lon="35.6410392">
<ele>133.000000</ele>
<time>2016-04-25T11:37:05.000Z</time>
</trkpt>
<trkpt lat="33.2272380" lon="35.6409097">
<ele>132.800003</ele>
<time>2016-04-25T11:37:08.000Z</time>
</trkpt>
<trkpt lat="33.2271816" lon="35.6407819">
<ele>132.399994</ele>
<time>2016-04-25T11:37:11.000Z</time>
</trkpt>
<trkpt lat="33.2271205" lon="35.6406500">
<ele>132.000000</ele>
<time>2016-04-25T11:37:14.000Z</time>
</trkpt>
<trkpt lat="33.2270578" lon="35.6405120">
<ele>131.600006</ele>
<time>2016-04-25T11:37:17.000Z</time>
</trkpt>
<trkpt lat="33.2269982" lon="35.6403715">
<ele>131.600006</ele>
<time>2016-04-25T11:37:20.000Z</time>
</trkpt>
<trkpt lat="33.2269577" lon="35.6402706">
<ele>131.600006</ele>
<time>2016-04-25T11:37:22.000Z</time>
</trkpt>
<trkpt lat="33.2269107" lon="35.6401648">
<ele>131.600006</ele>
<time>2016-04-25T11:37:24.000Z</time>
</trkpt>
<trkpt lat="33.2268653" lon="35.6400544">
<ele>131.600006</ele>
<time>2016-04-25T11:37:26.000Z</time>
</trkpt>
<trkpt lat="33.2268192" lon="35.6399346">
<ele>131.600006</ele>
<time>2016-04-25T11:37:28.000Z</time>
</trkpt>
<trkpt lat="33.2267763" lon="35.6398065">
<ele>131.600006</ele>
<time>2016-04-25T11:37:30.000Z</time>
</trkpt>
<trkpt lat="33.2267330" lon="35.6396722">
<ele>131.600006</ele>
<time>2016-04-25T11:37:32.000Z</time>
</trkpt>
<trkpt lat="33.2266848" lon="35.6395340">
<ele>131.600006</ele>
<time>2016-04-25T11:37:34.000Z</time>
</trkpt>
<trkpt lat="33.2266354" lon="35.6393942">
<ele>131.199997</ele>
<time>2016-04-25T11:37:36.000Z</time>
</trkpt>
<trkpt lat="33.2265873" lon="35.6392582">
<ele>131.000000</ele>
<time>2016-04-25T11:37:38.000Z</time>
</trkpt>
<trkpt lat="33.2265446" lon="35.6391234">
<ele>130.800003</ele>
<time>2016-04-25T11:37:40.000Z</time>
</trkpt>
<trkpt lat="33.2265041" lon="35.6390014">
<ele>130.399994</ele>
<time>2016-04-25T11:37:42.000Z</time>
</trkpt>
<trkpt lat="33.2264670" lon="35.6388910">
<ele>130.199997</ele>
<time>2016-04-25T11:37:44.000Z</time>
</trkpt>
<trkpt lat="33.2264207" lon="35.6387562">
<ele>130.199997</ele>
<time>2016-04-25T11:37:47.000Z</time>
</trkpt>
<trkpt lat="33.2263737" lon="35.6386236">
<ele>130.199997</ele>
<time>2016-04-25T11:37:50.000Z</time>
</trkpt>
<trkpt lat="33.2263249" lon="35.6384813">
<ele>130.399994</ele>
<time>2016-04-25T11:37:53.000Z</time>
</trkpt>
<trkpt lat="33.2262739" lon="35.6383324">
<ele>130.399994</ele>
<time>2016-04-25T11:37:56.000Z</time>
</trkpt>
<trkpt lat="33.2262391" lon="35.6382276">
<ele>130.600006</ele>
<time>2016-04-25T11:37:58.000Z</time>
</trkpt>
<trkpt lat="33.2262082" lon="35.6381125">
<ele>130.600006</ele>
<time>2016-04-25T11:38:00.000Z</time>
</trkpt>
<trkpt lat="33.2261786" lon="35.6379942">
<ele>130.800003</ele>
<time>2016-04-25T11:38:02.000Z</time>
</trkpt>
<trkpt lat="33.2261496" lon="35.6378762">
<ele>130.600006</ele>
<time>2016-04-25T11:38:04.000Z</time>
</trkpt>
<trkpt lat="33.2261316" lon="35.6377533">
<ele>130.399994</ele>
<time>2016-04-25T11:38:06.000Z</time>
</trkpt>
<trkpt lat="33.2261200" lon="35.6376281">
<ele>130.199997</ele>
<time>2016-04-25T11:38:08.000Z</time>
</trkpt>
<trkpt lat="33.2260995" lon="35.6375105">
<ele>130.000000</ele>
<time>2016-04-25T11:38:10.000Z</time>
</trkpt>
<trkpt lat="33.2260553" lon="35.6374045">
<ele>129.600006</ele>
<time>2016-04-25T11:38:12.000Z</time>
</trkpt>
<trkpt lat="33.2260002" lon="35.6373031">
<ele>129.399994</ele>
<time>2016-04-25T11:38:14.000Z</time>
</trkpt>
<trkpt lat="33.2259409" lon="35.6372005">
<ele>129.000000</ele>
<time>2016-04-25T11:38:16.000Z</time>
</trkpt>
<trkpt lat="33.2258902" lon="35.6370870">
<ele>128.800003</ele>
<time>2016-04-25T11:38:18.000Z</time>
</trkpt>
<trkpt lat="33.2258536" lon="35.6369680">
<ele>129.000000</ele>
<time>2016-04-25T11:38:20.000Z</time>
</trkpt>
<trkpt lat="33.2258153" lon="35.6368596">
<ele>128.800003</ele>
<time>2016-04-25T11:38:22.000Z</time>
</trkpt>
<trkpt lat="33.2257948" lon="35.6367061">
<ele>129.000000</ele>
<time>2016-04-25T11:38:25.000Z</time>
</trkpt>
<trkpt lat="33.2257594" lon="35.6366077">
<ele>129.000000</ele>
<time>2016-04-25T11:38:27.000Z</time>
</trkpt>
<trkpt lat="33.2257206" lon="35.6365003">
<ele>129.000000</ele>
<time>2016-04-25T11:38:29.000Z</time>
</trkpt>
<trkpt lat="33.2256789" lon="35.6363821">
<ele>129.000000</ele>
<time>2016-04-25T11:38:31.000Z</time>
</trkpt>
<trkpt lat="33.2256347" lon="35.6362580">
<ele>128.800003</ele>
<time>2016-04-25T11:38:33.000Z</time>
</trkpt>
<trkpt lat="33.2255924" lon="35.6361295">
<ele>128.600006</ele>
<time>2016-04-25T11:38:35.000Z</time>
</trkpt>
<trkpt lat="33.2255545" lon="35.6359939">
<ele>128.600006</ele>
<time>2016-04-25T11:38:37.000Z</time>
</trkpt>
<trkpt lat="33.2255094" lon="35.6358595">
<ele>128.399994</ele>
<time>2016-04-25T11:38:39.000Z</time>
</trkpt>
<trkpt lat="33.2254592" lon="35.6357229">
<ele>128.000000</ele>
<time>2016-04-25T11:38:41.000Z</time>
</trkpt>
<trkpt lat="33.2254106" lon="35.6355815">
<ele>127.800003</ele>
<time>2016-04-25T11:38:43.000Z</time>
</trkpt>
<trkpt lat="33.2253644" lon="35.6354446">
<ele>127.400002</ele>
<time>2016-04-25T11:38:45.000Z</time>
</trkpt>
<trkpt lat="33.2253190" lon="35.6353053">
<ele>127.199997</ele>
<time>2016-04-25T11:38:47.000Z</time>
</trkpt>
<trkpt lat="33.2252709" lon="35.6351638">
<ele>127.000000</ele>
<time>2016-04-25T11:38:49.000Z</time>
</trkpt>
<trkpt lat="33.2252230" lon="35.6350250">
<ele>126.600006</ele>
<time>2016-04-25T11:38:51.000Z</time>
</trkpt>
<trkpt lat="33.2251753" lon="35.6348853">
<ele>126.400009</ele>
<time>2016-04-25T11:38:53.000Z</time>
</trkpt>
<trkpt lat="33.2251278" lon="35.6347483">
<ele>126.000000</ele>
<time>2016-04-25T11:38:55.000Z</time>
</trkpt>
<trkpt lat="33.2250811" lon="35.6346135">
<ele>126.000000</ele>
<time>2016-04-25T11:38:57.000Z</time>
</trkpt>
<trkpt lat="33.2250330" lon="35.6344770">
<ele>126.000000</ele>
<time>2016-04-25T11:38:59.000Z</time>
</trkpt>
<trkpt lat="33.2249874" lon="35.6343373">
<ele>126.199997</ele>
<time>2016-04-25T11:39:01.000Z</time>
</trkpt>
<trkpt lat="33.2249384" lon="35.6341995">
<ele>126.199997</ele>
<time>2016-04-25T11:39:03.000Z</time>
</trkpt>
<trkpt lat="33.2248900" lon="35.6340643">
<ele>126.199997</ele>
<time>2016-04-25T11:39:05.000Z</time>
</trkpt>
<trkpt lat="33.2248464" lon="35.6339256">
<ele>126.199997</ele>
<time>2016-04-25T11:39:07.000Z</time>
</trkpt>
<trkpt lat="33.2248008" lon="35.6337894">
<ele>126.199997</ele>
<time>2016-04-25T11:39:09.000Z</time>
</trkpt>
<trkpt lat="33.2247526" lon="35.6336550">
<ele>126.199997</ele>
<time>2016-04-25T11:39:11.000Z</time>
</trkpt>
<trkpt lat="33.2247024" lon="35.6335182">
<ele>126.000000</ele>
<time>2016-04-25T11:39:13.000Z</time>
</trkpt>
<trkpt lat="33.2246509" lon="35.6333856">
<ele>125.800003</ele>
<time>2016-04-25T11:39:15.000Z</time>
</trkpt>
<trkpt lat="33.2246055" lon="35.6332557">
<ele>125.800003</ele>
<time>2016-04-25T11:39:17.000Z</time>
</trkpt>
<trkpt lat="33.2245644" lon="35.6331270">
<ele>125.599998</ele>
<time>2016-04-25T11:39:19.000Z</time>
</trkpt>
<trkpt lat="33.2245249" lon="35.6330029">
<ele>125.599998</ele>
<time>2016-04-25T11:39:21.000Z</time>
</trkpt>
<trkpt lat="33.2244857" lon="35.6328801">
<ele>125.400002</ele>
<time>2016-04-25T11:39:23.000Z</time>
</trkpt>
<trkpt lat="33.2244364" lon="35.6327607">
<ele>125.400002</ele>
<time>2016-04-25T11:39:25.000Z</time>
</trkpt>
<trkpt lat="33.2243726" lon="35.6326518">
<ele>125.199997</ele>
<time>2016-04-25T11:39:27.000Z</time>
</trkpt>
<trkpt lat="33.2243030" lon="35.6325464">
<ele>125.000000</ele>
<time>2016-04-25T11:39:29.000Z</time>
</trkpt>
<trkpt lat="33.2242364" lon="35.6324440">
<ele>124.800003</ele>
<time>2016-04-25T11:39:31.000Z</time>
</trkpt>
<trkpt lat="33.2241761" lon="35.6323429">
<ele>124.800003</ele>
<time>2016-04-25T11:39:33.000Z</time>
</trkpt>
<trkpt lat="33.2241082" lon="35.6322547">
<ele>124.599991</ele>
<time>2016-04-25T11:39:35.000Z</time>
</trkpt>
<trkpt lat="33.2240324" lon="35.6321808">
<ele>124.399994</ele>
<time>2016-04-25T11:39:37.000Z</time>
</trkpt>
<trkpt lat="33.2239588" lon="35.6321113">
<ele>124.399994</ele>
<time>2016-04-25T11:39:39.000Z</time>
</trkpt>
<trkpt lat="33.2238643" lon="35.6320264">
<ele>124.199997</ele>
<time>2016-04-25T11:39:42.000Z</time>
</trkpt>
<trkpt lat="33.2238444" lon="35.6319342">
<ele>124.199997</ele>
<time>2016-04-25T11:39:47.000Z</time>
</trkpt>
<trkpt lat="33.2239109" lon="35.6318771">
<ele>124.399994</ele>
<time>2016-04-25T11:41:52.000Z</time>
</trkpt>
<trkpt lat="33.2238480" lon="35.6319270">
<ele>124.199997</ele>
<time>2016-04-25T11:44:54.000Z</time>
</trkpt>
<trkpt lat="33.2237533" lon="35.6319157">
<ele>124.000000</ele>
<time>2016-04-25T11:44:58.000Z</time>
</trkpt>
<trkpt lat="33.2236697" lon="35.6318054">
<ele>124.000000</ele>
<time>2016-04-25T11:45:02.000Z</time>
</trkpt>
<trkpt lat="33.2235758" lon="35.6317597">
<ele>123.800003</ele>
<time>2016-04-25T11:45:05.000Z</time>
</trkpt>
<trkpt lat="33.2234600" lon="35.6317855">
<ele>123.400002</ele>
<time>2016-04-25T11:45:08.000Z</time>
</trkpt>
<trkpt lat="33.2233429" lon="35.6317632">
<ele>123.199997</ele>
<time>2016-04-25T11:45:11.000Z</time>
</trkpt>
<trkpt lat="33.2232172" lon="35.6318201">
<ele>122.800003</ele>
<time>2016-04-25T11:45:14.000Z</time>
</trkpt>
<trkpt lat="33.2231276" lon="35.6318648">
<ele>122.599998</ele>
<time>2016-04-25T11:45:16.000Z</time>
</trkpt>
<trkpt lat="33.2230359" lon="35.6319223">
<ele>122.000008</ele>
<time>2016-04-25T11:45:18.000Z</time>
</trkpt>
<trkpt lat="33.2229437" lon="35.6319731">
<ele>121.400002</ele>
<time>2016-04-25T11:45:20.000Z</time>
</trkpt>
<trkpt lat="33.2228632" lon="35.6320324">
<ele>120.800003</ele>
<time>2016-04-25T11:45:22.000Z</time>
</trkpt>
<trkpt lat="33.2227958" lon="35.6321077">
<ele>120.199997</ele>
<time>2016-04-25T11:45:24.000Z</time>
</trkpt>
<trkpt lat="33.2227271" lon="35.6321879">
<ele>119.599998</ele>
<time>2016-04-25T11:45:26.000Z</time>
</trkpt>
<trkpt lat="33.2226424" lon="35.6322585">
<ele>119.199997</ele>
<time>2016-04-25T11:45:28.000Z</time>
</trkpt>
<trkpt lat="33.2225631" lon="35.6323414">
<ele>119.199997</ele>
<time>2016-04-25T11:45:30.000Z</time>
</trkpt>
<trkpt lat="33.2224838" lon="35.6324346">
<ele>119.199997</ele>
<time>2016-04-25T11:45:32.000Z</time>
</trkpt>
<trkpt lat="33.2224104" lon="35.6325335">
<ele>119.400002</ele>
<time>2016-04-25T11:45:34.000Z</time>
</trkpt>
<trkpt lat="33.2223363" lon="35.6326331">
<ele>119.400002</ele>
<time>2016-04-25T11:45:36.000Z</time>
</trkpt>
<trkpt lat="33.2222626" lon="35.6327370">
<ele>119.400002</ele>
<time>2016-04-25T11:45:38.000Z</time>
</trkpt>
<trkpt lat="33.2221880" lon="35.6328466">
<ele>119.599998</ele>
<time>2016-04-25T11:45:40.000Z</time>
</trkpt>
<trkpt lat="33.2221188" lon="35.6329519">
<ele>119.599998</ele>
<time>2016-04-25T11:45:42.000Z</time>
</trkpt>
<trkpt lat="33.2220502" lon="35.6330654">
<ele>119.599998</ele>
<time>2016-04-25T11:45:44.000Z</time>
</trkpt>
<trkpt lat="33.2219841" lon="35.6331803">
<ele>119.199997</ele>
<time>2016-04-25T11:45:46.000Z</time>
</trkpt>
<trkpt lat="33.2219119" lon="35.6332919">
<ele>118.800003</ele>
<time>2016-04-25T11:45:48.000Z</time>
</trkpt>
<trkpt lat="33.2218411" lon="35.6334074">
<ele>118.199997</ele>
<time>2016-04-25T11:45:50.000Z</time>
</trkpt>
<trkpt lat="33.2217770" lon="35.6335028">
<ele>117.800003</ele>
<time>2016-04-25T11:45:52.000Z</time>
</trkpt>
<trkpt lat="33.2217048" lon="35.6336269">
<ele>117.000000</ele>
<time>2016-04-25T11:45:55.000Z</time>
</trkpt>
<trkpt lat="33.2216277" lon="35.6337027">
<ele>116.400002</ele>
<time>2016-04-25T11:45:58.000Z</time>
</trkpt>
<trkpt lat="33.2215140" lon="35.6337111">
<ele>115.800003</ele>
<time>2016-04-25T11:46:03.000Z</time>
</trkpt>
<trkpt lat="33.2214265" lon="35.6336587">
<ele>115.400002</ele>
<time>2016-04-25T11:46:07.000Z</time>
</trkpt>
<trkpt lat="33.2213469" lon="35.6335575">
<ele>115.000000</ele>
<time>2016-04-25T11:46:11.000Z</time>
</trkpt>
<trkpt lat="33.2212901" lon="35.6334109">
<ele>115.000000</ele>
<time>2016-04-25T11:46:14.000Z</time>
</trkpt>
<trkpt lat="33.2212415" lon="35.6333082">
<ele>115.000000</ele>
<time>2016-04-25T11:46:16.000Z</time>
</trkpt>
<trkpt lat="33.2211861" lon="35.6332012">
<ele>115.000000</ele>
<time>2016-04-25T11:46:18.000Z</time>
</trkpt>
<trkpt lat="33.2211283" lon="35.6330923">
<ele>114.800003</ele>
<time>2016-04-25T11:46:20.000Z</time>
</trkpt>
<trkpt lat="33.2210706" lon="35.6329788">
<ele>114.800003</ele>
<time>2016-04-25T11:46:22.000Z</time>
</trkpt>
<trkpt lat="33.2210309" lon="35.6328536">
<ele>114.400002</ele>
<time>2016-04-25T11:46:24.000Z</time>
</trkpt>
<trkpt lat="33.2209999" lon="35.6327177">
<ele>114.199997</ele>
<time>2016-04-25T11:46:26.000Z</time>
</trkpt>
<trkpt lat="33.2209491" lon="35.6325961">
<ele>114.000000</ele>
<time>2016-04-25T11:46:28.000Z</time>
</trkpt>
<trkpt lat="33.2208889" lon="35.6324635">
<ele>113.400002</ele>
<time>2016-04-25T11:46:31.000Z</time>
</trkpt>
<trkpt lat="33.2208431" lon="35.6323483">
<ele>112.999992</ele>
<time>2016-04-25T11:46:35.000Z</time>
</trkpt>
<trkpt lat="33.2207469" lon="35.6324102">
<ele>112.199997</ele>
<time>2016-04-25T11:46:39.000Z</time>
</trkpt>
<trkpt lat="33.2206645" lon="35.6323895">
<ele>111.599998</ele>
<time>2016-04-25T11:46:48.000Z</time>
</trkpt>
<trkpt lat="33.2207060" lon="35.6322802">
<ele>112.000000</ele>
<time>2016-04-25T11:46:57.000Z</time>
</trkpt>
<trkpt lat="33.2208007" lon="35.6322274">
<ele>112.799995</ele>
<time>2016-04-25T11:47:01.000Z</time>
</trkpt>
<trkpt lat="33.2208777" lon="35.6321499">
<ele>113.400002</ele>
<time>2016-04-25T11:47:04.000Z</time>
</trkpt>
<trkpt lat="33.2208986" lon="35.6320375">
<ele>113.599998</ele>
<time>2016-04-25T11:47:07.000Z</time>
</trkpt>
<trkpt lat="33.2208514" lon="35.6319019">
<ele>113.199989</ele>
<time>2016-04-25T11:47:10.000Z</time>
</trkpt>
<trkpt lat="33.2208117" lon="35.6317945">
<ele>112.799995</ele>
<time>2016-04-25T11:47:12.000Z</time>
</trkpt>
<trkpt lat="33.2208018" lon="35.6316557">
<ele>112.599998</ele>
<time>2016-04-25T11:47:14.000Z</time>
</trkpt>
<trkpt lat="33.2208170" lon="35.6315205">
<ele>112.599998</ele>
<time>2016-04-25T11:47:16.000Z</time>
</trkpt>
<trkpt lat="33.2208735" lon="35.6314289">
<ele>112.799995</ele>
<time>2016-04-25T11:47:18.000Z</time>
</trkpt>
<trkpt lat="33.2209774" lon="35.6313673">
<ele>113.199989</ele>
<time>2016-04-25T11:47:21.000Z</time>
</trkpt>
<trkpt lat="33.2210706" lon="35.6313131">
<ele>113.400002</ele>
<time>2016-04-25T11:47:24.000Z</time>
</trkpt>
<trkpt lat="33.2211561" lon="35.6312582">
<ele>113.400002</ele>
<time>2016-04-25T11:47:27.000Z</time>
</trkpt>
<trkpt lat="33.2212686" lon="35.6312292">
<ele>113.800003</ele>
<time>2016-04-25T11:47:31.000Z</time>
</trkpt>
<trkpt lat="33.2213798" lon="35.6312040">
<ele>114.199997</ele>
<time>2016-04-25T11:47:35.000Z</time>
</trkpt>
<trkpt lat="33.2214773" lon="35.6311701">
<ele>114.400002</ele>
<time>2016-04-25T11:47:39.000Z</time>
</trkpt>
<trkpt lat="33.2215892" lon="35.6311501">
<ele>114.800003</ele>
<time>2016-04-25T11:47:44.000Z</time>
</trkpt>
<trkpt lat="33.2216834" lon="35.6311335">
<ele>115.599998</ele>
<time>2016-04-25T11:47:48.000Z</time>
</trkpt>
<trkpt lat="33.2217741" lon="35.6310903">
<ele>116.199997</ele>
<time>2016-04-25T11:47:52.000Z</time>
</trkpt>
<trkpt lat="33.2218609" lon="35.6310318">
<ele>117.000000</ele>
<time>2016-04-25T11:47:56.000Z</time>
</trkpt>
<trkpt lat="33.2219704" lon="35.6310112">
<ele>117.800003</ele>
<time>2016-04-25T11:48:00.000Z</time>
</trkpt>
<trkpt lat="33.2220810" lon="35.6310287">
<ele>118.599998</ele>
<time>2016-04-25T11:48:04.000Z</time>
</trkpt>
<trkpt lat="33.2221889" lon="35.6310303">
<ele>119.199997</ele>
<time>2016-04-25T11:48:08.000Z</time>
</trkpt>
<trkpt lat="33.2222867" lon="35.6310335">
<ele>120.000000</ele>
<time>2016-04-25T11:48:12.000Z</time>
</trkpt>
<trkpt lat="33.2223876" lon="35.6310386">
<ele>120.800003</ele>
<time>2016-04-25T11:48:16.000Z</time>
</trkpt>
<trkpt lat="33.2224713" lon="35.6311115">
<ele>121.199997</ele>
<time>2016-04-25T11:48:20.000Z</time>
</trkpt>
<trkpt lat="33.2225470" lon="35.6311950">
<ele>121.599998</ele>
<time>2016-04-25T11:48:25.000Z</time>
</trkpt>
<trkpt lat="33.2225796" lon="35.6312210">
<ele>121.800011</ele>
<time>2016-04-25T11:54:33.000Z</time>
</trkpt>
</trkseg>
</trk>
</gpx>
